<?xml version="1.0" encoding="UTF-8" standalone="no" ?>
<gpx xmlns="http://www.topografix.com/GPX/1/1" xmlns:xsi="http://www.w3.org/2001/XMLSchema-instance" xsi:schemaLocation="http://www.topografix.com/GPX/1/1 http://www.topografix.com/GPX/1/1/gpx.xsd" version="1.1" creator="VisuGPX - https://www.visugpx.com">
  <metadata>
    <name>Ligne du train Cévenol de Clermont-Ferrand à Nîmes</name>
    <desc><![CDATA[Le tracé ferroviaire de la ligne Clermont-Ferrand - Nîmes]]></desc>
  </metadata>
  <trk>
    <name><![CDATA[Clermont-Ferrand ↔ Nîmes]]></name>
    <desc><![CDATA[name=Clermont-Ferrand ↔ Nîmes]]></desc>
    <extensions>
      <line xmlns="http://www.topografix.com/GPX/gpx_style/0/2">
        <color>0000FF</color>
        <width>4</width>
      </line>
    </extensions>
    <trkseg>
      <trkpt lat="45.77847" lon="3.10042">
        <ele>424</ele>
        <time>2018-02-10T11:54:49Z</time>
      </trkpt>
      <trkpt lat="45.77832" lon="3.10032">
        <ele>421</ele>
        <time>2018-02-10T11:54:52Z</time>
      </trkpt>
      <trkpt lat="45.77842" lon="3.10024">
        <ele>421</ele>
        <time>2018-02-10T11:54:56Z</time>
      </trkpt>
      <trkpt lat="45.77817" lon="3.10032">
        <ele>421</ele>
        <time>2018-02-10T11:54:59Z</time>
      </trkpt>
      <trkpt lat="45.77828" lon="3.10016">
        <ele>417</ele>
        <time>2018-02-10T11:55:02Z</time>
      </trkpt>
      <trkpt lat="45.77815" lon="3.10006">
        <ele>422</ele>
        <time>2018-02-10T11:55:06Z</time>
      </trkpt>
      <trkpt lat="45.77811" lon="3.10016">
        <ele>422</ele>
        <time>2018-02-10T11:55:09Z</time>
      </trkpt>
      <trkpt lat="45.77812" lon="3.10023">
        <ele>423</ele>
        <time>2018-02-10T11:55:13Z</time>
      </trkpt>
      <trkpt lat="45.77829" lon="3.09998">
        <ele>416</ele>
        <time>2018-02-10T11:55:17Z</time>
      </trkpt>
      <trkpt lat="45.77826" lon="3.10008">
        <ele>432</ele>
        <time>2018-02-10T11:55:20Z</time>
      </trkpt>
      <trkpt lat="45.77831" lon="3.10001">
        <ele>430</ele>
        <time>2018-02-10T11:55:24Z</time>
      </trkpt>
      <trkpt lat="45.77826" lon="3.09982">
        <ele>427</ele>
        <time>2018-02-10T11:55:28Z</time>
      </trkpt>
      <trkpt lat="45.77812" lon="3.09971">
        <ele>416</ele>
        <time>2018-02-10T11:55:31Z</time>
      </trkpt>
      <trkpt lat="45.77804" lon="3.09961">
        <ele>406</ele>
        <time>2018-02-10T11:55:35Z</time>
      </trkpt>
      <trkpt lat="45.77799" lon="3.09947">
        <ele>403</ele>
        <time>2018-02-10T11:55:39Z</time>
      </trkpt>
      <trkpt lat="45.77793" lon="3.09935">
        <ele>402</ele>
        <time>2018-02-10T11:55:42Z</time>
      </trkpt>
      <trkpt lat="45.77788" lon="3.09917">
        <ele>411</ele>
        <time>2018-02-10T11:55:46Z</time>
      </trkpt>
      <trkpt lat="45.77781" lon="3.099">
        <ele>409</ele>
        <time>2018-02-10T11:55:50Z</time>
      </trkpt>
      <trkpt lat="45.77771" lon="3.09883">
        <ele>403</ele>
        <time>2018-02-10T11:55:54Z</time>
      </trkpt>
      <trkpt lat="45.77762" lon="3.09874">
        <ele>404</ele>
        <time>2018-02-10T11:55:57Z</time>
      </trkpt>
      <trkpt lat="45.77748" lon="3.09861">
        <ele>406</ele>
        <time>2018-02-10T11:56:01Z</time>
      </trkpt>
      <trkpt lat="45.77734" lon="3.09853">
        <ele>405</ele>
        <time>2018-02-10T11:56:05Z</time>
      </trkpt>
      <trkpt lat="45.77717" lon="3.09844">
        <ele>405</ele>
        <time>2018-02-10T11:56:08Z</time>
      </trkpt>
      <trkpt lat="45.77704" lon="3.0983">
        <ele>405</ele>
        <time>2018-02-10T11:56:12Z</time>
      </trkpt>
      <trkpt lat="45.77686" lon="3.09819">
        <ele>404</ele>
        <time>2018-02-10T11:56:16Z</time>
      </trkpt>
      <trkpt lat="45.77668" lon="3.09803">
        <ele>403</ele>
        <time>2018-02-10T11:56:19Z</time>
      </trkpt>
      <trkpt lat="45.77651" lon="3.09799">
        <ele>405</ele>
        <time>2018-02-10T11:56:22Z</time>
      </trkpt>
      <trkpt lat="45.77637" lon="3.09788">
        <ele>406</ele>
        <time>2018-02-10T11:56:25Z</time>
      </trkpt>
      <trkpt lat="45.7761" lon="3.09786">
        <ele>406</ele>
        <time>2018-02-10T11:56:29Z</time>
      </trkpt>
      <trkpt lat="45.77588" lon="3.09787">
        <ele>410</ele>
        <time>2018-02-10T11:56:32Z</time>
      </trkpt>
      <trkpt lat="45.77555" lon="3.098">
        <ele>405</ele>
        <time>2018-02-10T11:56:36Z</time>
      </trkpt>
      <trkpt lat="45.7753" lon="3.09813">
        <ele>407</ele>
        <time>2018-02-10T11:56:39Z</time>
      </trkpt>
      <trkpt lat="45.77512" lon="3.09821">
        <ele>408</ele>
        <time>2018-02-10T11:56:42Z</time>
      </trkpt>
      <trkpt lat="45.77484" lon="3.09829">
        <ele>409</ele>
        <time>2018-02-10T11:56:46Z</time>
      </trkpt>
      <trkpt lat="45.77471" lon="3.09845">
        <ele>412</ele>
        <time>2018-02-10T11:56:49Z</time>
      </trkpt>
      <trkpt lat="45.77449" lon="3.09855">
        <ele>414</ele>
        <time>2018-02-10T11:56:52Z</time>
      </trkpt>
      <trkpt lat="45.7741" lon="3.09887">
        <ele>409</ele>
        <time>2018-02-10T11:56:56Z</time>
      </trkpt>
      <trkpt lat="45.77384" lon="3.0992">
        <ele>410</ele>
        <time>2018-02-10T11:56:59Z</time>
      </trkpt>
      <trkpt lat="45.77355" lon="3.09973">
        <ele>410</ele>
        <time>2018-02-10T11:57:03Z</time>
      </trkpt>
      <trkpt lat="45.77327" lon="3.10033">
        <ele>407</ele>
        <time>2018-02-10T11:57:07Z</time>
      </trkpt>
      <trkpt lat="45.77304" lon="3.10086">
        <ele>407</ele>
        <time>2018-02-10T11:57:10Z</time>
      </trkpt>
      <trkpt lat="45.77278" lon="3.10171">
        <ele>411</ele>
        <time>2018-02-10T11:57:14Z</time>
      </trkpt>
      <trkpt lat="45.77257" lon="3.10264">
        <ele>411</ele>
        <time>2018-02-10T11:57:18Z</time>
      </trkpt>
      <trkpt lat="45.7724" lon="3.10348">
        <ele>414</ele>
        <time>2018-02-10T11:57:21Z</time>
      </trkpt>
      <trkpt lat="45.77231" lon="3.10453">
        <ele>411</ele>
        <time>2018-02-10T11:57:25Z</time>
      </trkpt>
      <trkpt lat="45.77228" lon="3.10539">
        <ele>410</ele>
        <time>2018-02-10T11:57:28Z</time>
      </trkpt>
      <trkpt lat="45.77228" lon="3.10667">
        <ele>409</ele>
        <time>2018-02-10T11:57:32Z</time>
      </trkpt>
      <trkpt lat="45.7723" lon="3.10765">
        <ele>410</ele>
        <time>2018-02-10T11:57:35Z</time>
      </trkpt>
      <trkpt lat="45.77235" lon="3.10897">
        <ele>411</ele>
        <time>2018-02-10T11:57:39Z</time>
      </trkpt>
      <trkpt lat="45.77239" lon="3.11">
        <ele>411</ele>
        <time>2018-02-10T11:57:42Z</time>
      </trkpt>
      <trkpt lat="45.77243" lon="3.11138">
        <ele>413</ele>
        <time>2018-02-10T11:57:46Z</time>
      </trkpt>
      <trkpt lat="45.77245" lon="3.11272">
        <ele>411</ele>
        <time>2018-02-10T11:57:50Z</time>
      </trkpt>
      <trkpt lat="45.77253" lon="3.11377">
        <ele>415</ele>
        <time>2018-02-10T11:57:53Z</time>
      </trkpt>
      <trkpt lat="45.77255" lon="3.11481">
        <ele>415</ele>
        <time>2018-02-10T11:57:56Z</time>
      </trkpt>
      <trkpt lat="45.77257" lon="3.11587">
        <ele>412</ele>
        <time>2018-02-10T11:57:59Z</time>
      </trkpt>
      <trkpt lat="45.77266" lon="3.11725">
        <ele>416</ele>
        <time>2018-02-10T11:58:03Z</time>
      </trkpt>
      <trkpt lat="45.7727" lon="3.11825">
        <ele>415</ele>
        <time>2018-02-10T11:58:06Z</time>
      </trkpt>
      <trkpt lat="45.77266" lon="3.11927">
        <ele>415</ele>
        <time>2018-02-10T11:58:09Z</time>
      </trkpt>
      <trkpt lat="45.77274" lon="3.1205">
        <ele>415</ele>
        <time>2018-02-10T11:58:13Z</time>
      </trkpt>
      <trkpt lat="45.77262" lon="3.12145">
        <ele>413</ele>
        <time>2018-02-10T11:58:16Z</time>
      </trkpt>
      <trkpt lat="45.77238" lon="3.12284">
        <ele>413</ele>
        <time>2018-02-10T11:58:20Z</time>
      </trkpt>
      <trkpt lat="45.77222" lon="3.12392">
        <ele>414</ele>
        <time>2018-02-10T11:58:23Z</time>
      </trkpt>
      <trkpt lat="45.77198" lon="3.12489">
        <ele>411</ele>
        <time>2018-02-10T11:58:26Z</time>
      </trkpt>
      <trkpt lat="45.7716" lon="3.12576">
        <ele>411</ele>
        <time>2018-02-10T11:58:29Z</time>
      </trkpt>
      <trkpt lat="45.77109" lon="3.12693">
        <ele>411</ele>
        <time>2018-02-10T11:58:33Z</time>
      </trkpt>
      <trkpt lat="45.77071" lon="3.12772">
        <ele>411</ele>
        <time>2018-02-10T11:58:36Z</time>
      </trkpt>
      <trkpt lat="45.77019" lon="3.12873">
        <ele>411</ele>
        <time>2018-02-10T11:58:40Z</time>
      </trkpt>
      <trkpt lat="45.76965" lon="3.12962">
        <ele>411</ele>
        <time>2018-02-10T11:58:44Z</time>
      </trkpt>
      <trkpt lat="45.76927" lon="3.13022">
        <ele>409</ele>
        <time>2018-02-10T11:58:47Z</time>
      </trkpt>
      <trkpt lat="45.76883" lon="3.13113">
        <ele>409</ele>
        <time>2018-02-10T11:58:51Z</time>
      </trkpt>
      <trkpt lat="45.76851" lon="3.13173">
        <ele>408</ele>
        <time>2018-02-10T11:58:54Z</time>
      </trkpt>
      <trkpt lat="45.76819" lon="3.1323">
        <ele>408</ele>
        <time>2018-02-10T11:58:57Z</time>
      </trkpt>
      <trkpt lat="45.76786" lon="3.13294">
        <ele>411</ele>
        <time>2018-02-10T11:59:01Z</time>
      </trkpt>
      <trkpt lat="45.76765" lon="3.13334">
        <ele>411</ele>
        <time>2018-02-10T11:59:04Z</time>
      </trkpt>
      <trkpt lat="45.76742" lon="3.13376">
        <ele>410</ele>
        <time>2018-02-10T11:59:08Z</time>
      </trkpt>
      <trkpt lat="45.76732" lon="3.13395">
        <ele>409</ele>
        <time>2018-02-10T11:59:11Z</time>
      </trkpt>
      <trkpt lat="45.76724" lon="3.13404">
        <ele>409</ele>
        <time>2018-02-10T11:59:14Z</time>
      </trkpt>
      <trkpt lat="45.76722" lon="3.13407">
        <ele>409</ele>
        <time>2018-02-10T11:59:17Z</time>
      </trkpt>
      <trkpt lat="45.76723" lon="3.13408">
        <ele>410</ele>
        <time>2018-02-10T11:59:21Z</time>
      </trkpt>
      <trkpt lat="45.76723" lon="3.13407">
        <ele>409</ele>
        <time>2018-02-10T11:59:24Z</time>
      </trkpt>
      <trkpt lat="45.76724" lon="3.13409">
        <ele>411</ele>
        <time>2018-02-10T11:59:28Z</time>
      </trkpt>
      <trkpt lat="45.76724" lon="3.13409">
        <ele>410</ele>
        <time>2018-02-10T11:59:32Z</time>
      </trkpt>
      <trkpt lat="45.76724" lon="3.13409">
        <ele>410</ele>
        <time>2018-02-10T11:59:36Z</time>
      </trkpt>
      <trkpt lat="45.76724" lon="3.13409">
        <ele>410</ele>
        <time>2018-02-10T11:59:39Z</time>
      </trkpt>
      <trkpt lat="45.76724" lon="3.13409">
        <ele>410</ele>
        <time>2018-02-10T11:59:42Z</time>
      </trkpt>
      <trkpt lat="45.76724" lon="3.13409">
        <ele>410</ele>
        <time>2018-02-10T11:59:46Z</time>
      </trkpt>
      <trkpt lat="45.76722" lon="3.13413">
        <ele>411</ele>
        <time>2018-02-10T11:59:50Z</time>
      </trkpt>
      <trkpt lat="45.76717" lon="3.13424">
        <ele>411</ele>
        <time>2018-02-10T11:59:54Z</time>
      </trkpt>
      <trkpt lat="45.76709" lon="3.13439">
        <ele>410</ele>
        <time>2018-02-10T11:59:57Z</time>
      </trkpt>
      <trkpt lat="45.76688" lon="3.13473">
        <ele>409</ele>
        <time>2018-02-10T12:00:01Z</time>
      </trkpt>
      <trkpt lat="45.76659" lon="3.13516">
        <ele>406</ele>
        <time>2018-02-10T12:00:05Z</time>
      </trkpt>
      <trkpt lat="45.76635" lon="3.13556">
        <ele>405</ele>
        <time>2018-02-10T12:00:08Z</time>
      </trkpt>
      <trkpt lat="45.76598" lon="3.13616">
        <ele>403</ele>
        <time>2018-02-10T12:00:12Z</time>
      </trkpt>
      <trkpt lat="45.7657" lon="3.13666">
        <ele>402</ele>
        <time>2018-02-10T12:00:15Z</time>
      </trkpt>
      <trkpt lat="45.76542" lon="3.13718">
        <ele>401</ele>
        <time>2018-02-10T12:00:18Z</time>
      </trkpt>
      <trkpt lat="45.76504" lon="3.13796">
        <ele>400</ele>
        <time>2018-02-10T12:00:22Z</time>
      </trkpt>
      <trkpt lat="45.76452" lon="3.1387">
        <ele>399</ele>
        <time>2018-02-10T12:00:26Z</time>
      </trkpt>
      <trkpt lat="45.76423" lon="3.13931">
        <ele>399</ele>
        <time>2018-02-10T12:00:29Z</time>
      </trkpt>
      <trkpt lat="45.76371" lon="3.14031">
        <ele>398</ele>
        <time>2018-02-10T12:00:33Z</time>
      </trkpt>
      <trkpt lat="45.76317" lon="3.14114">
        <ele>399</ele>
        <time>2018-02-10T12:00:37Z</time>
      </trkpt>
      <trkpt lat="45.76274" lon="3.14191">
        <ele>399</ele>
        <time>2018-02-10T12:00:40Z</time>
      </trkpt>
      <trkpt lat="45.76234" lon="3.14264">
        <ele>400</ele>
        <time>2018-02-10T12:00:43Z</time>
      </trkpt>
      <trkpt lat="45.76193" lon="3.14337">
        <ele>404</ele>
        <time>2018-02-10T12:00:46Z</time>
      </trkpt>
      <trkpt lat="45.76134" lon="3.14444">
        <ele>403</ele>
        <time>2018-02-10T12:00:50Z</time>
      </trkpt>
      <trkpt lat="45.76075" lon="3.14553">
        <ele>402</ele>
        <time>2018-02-10T12:00:54Z</time>
      </trkpt>
      <trkpt lat="45.76031" lon="3.14635">
        <ele>402</ele>
        <time>2018-02-10T12:00:57Z</time>
      </trkpt>
      <trkpt lat="45.7597" lon="3.14744">
        <ele>403</ele>
        <time>2018-02-10T12:01:01Z</time>
      </trkpt>
      <trkpt lat="45.75907" lon="3.14858">
        <ele>402</ele>
        <time>2018-02-10T12:01:05Z</time>
      </trkpt>
      <trkpt lat="45.75857" lon="3.14948">
        <ele>402</ele>
        <time>2018-02-10T12:01:08Z</time>
      </trkpt>
      <trkpt lat="45.75792" lon="3.15066">
        <ele>402</ele>
        <time>2018-02-10T12:01:12Z</time>
      </trkpt>
      <trkpt lat="45.75725" lon="3.15189">
        <ele>405</ele>
        <time>2018-02-10T12:01:16Z</time>
      </trkpt>
      <trkpt lat="45.75647" lon="3.15303">
        <ele>405</ele>
        <time>2018-02-10T12:01:20Z</time>
      </trkpt>
      <trkpt lat="45.75583" lon="3.1538">
        <ele>407</ele>
        <time>2018-02-10T12:01:23Z</time>
      </trkpt>
      <trkpt lat="45.75481" lon="3.15479">
        <ele>407</ele>
        <time>2018-02-10T12:01:27Z</time>
      </trkpt>
      <trkpt lat="45.75373" lon="3.15548">
        <ele>401</ele>
        <time>2018-02-10T12:01:31Z</time>
      </trkpt>
      <trkpt lat="45.75251" lon="3.15611">
        <ele>399</ele>
        <time>2018-02-10T12:01:35Z</time>
      </trkpt>
      <trkpt lat="45.75164" lon="3.15648">
        <ele>399</ele>
        <time>2018-02-10T12:01:38Z</time>
      </trkpt>
      <trkpt lat="45.75046" lon="3.15694">
        <ele>398</ele>
        <time>2018-02-10T12:01:42Z</time>
      </trkpt>
      <trkpt lat="45.74955" lon="3.15731">
        <ele>397</ele>
        <time>2018-02-10T12:01:45Z</time>
      </trkpt>
      <trkpt lat="45.74837" lon="3.1576">
        <ele>395</ele>
        <time>2018-02-10T12:01:49Z</time>
      </trkpt>
      <trkpt lat="45.74707" lon="3.15815">
        <ele>396</ele>
        <time>2018-02-10T12:01:53Z</time>
      </trkpt>
      <trkpt lat="45.74612" lon="3.15851">
        <ele>398</ele>
        <time>2018-02-10T12:01:56Z</time>
      </trkpt>
      <trkpt lat="45.74518" lon="3.15899">
        <ele>400</ele>
        <time>2018-02-10T12:01:59Z</time>
      </trkpt>
      <trkpt lat="45.74401" lon="3.15978">
        <ele>399</ele>
        <time>2018-02-10T12:02:03Z</time>
      </trkpt>
      <trkpt lat="45.74319" lon="3.16055">
        <ele>400</ele>
        <time>2018-02-10T12:02:06Z</time>
      </trkpt>
      <trkpt lat="45.74217" lon="3.16189">
        <ele>400</ele>
        <time>2018-02-10T12:02:10Z</time>
      </trkpt>
      <trkpt lat="45.74128" lon="3.16331">
        <ele>398</ele>
        <time>2018-02-10T12:02:14Z</time>
      </trkpt>
      <trkpt lat="45.74041" lon="3.16497">
        <ele>401</ele>
        <time>2018-02-10T12:02:18Z</time>
      </trkpt>
      <trkpt lat="45.73955" lon="3.16654">
        <ele>402</ele>
        <time>2018-02-10T12:02:22Z</time>
      </trkpt>
      <trkpt lat="45.73873" lon="3.16813">
        <ele>403</ele>
        <time>2018-02-10T12:02:26Z</time>
      </trkpt>
      <trkpt lat="45.73809" lon="3.16929">
        <ele>405</ele>
        <time>2018-02-10T12:02:29Z</time>
      </trkpt>
      <trkpt lat="45.73715" lon="3.17087">
        <ele>406</ele>
        <time>2018-02-10T12:02:33Z</time>
      </trkpt>
      <trkpt lat="45.73613" lon="3.17225">
        <ele>411</ele>
        <time>2018-02-10T12:02:37Z</time>
      </trkpt>
      <trkpt lat="45.73528" lon="3.17314">
        <ele>412</ele>
        <time>2018-02-10T12:02:40Z</time>
      </trkpt>
      <trkpt lat="45.73413" lon="3.1744">
        <ele>408</ele>
        <time>2018-02-10T12:02:44Z</time>
      </trkpt>
      <trkpt lat="45.73302" lon="3.1756">
        <ele>408</ele>
        <time>2018-02-10T12:02:48Z</time>
      </trkpt>
      <trkpt lat="45.7322" lon="3.17649">
        <ele>410</ele>
        <time>2018-02-10T12:02:51Z</time>
      </trkpt>
      <trkpt lat="45.73136" lon="3.17737">
        <ele>407</ele>
        <time>2018-02-10T12:02:54Z</time>
      </trkpt>
      <trkpt lat="45.73026" lon="3.17856">
        <ele>409</ele>
        <time>2018-02-10T12:02:58Z</time>
      </trkpt>
      <trkpt lat="45.72944" lon="3.17945">
        <ele>410</ele>
        <time>2018-02-10T12:03:01Z</time>
      </trkpt>
      <trkpt lat="45.72859" lon="3.18036">
        <ele>407</ele>
        <time>2018-02-10T12:03:04Z</time>
      </trkpt>
      <trkpt lat="45.72778" lon="3.18125">
        <ele>407</ele>
        <time>2018-02-10T12:03:07Z</time>
      </trkpt>
      <trkpt lat="45.72695" lon="3.18218">
        <ele>408</ele>
        <time>2018-02-10T12:03:10Z</time>
      </trkpt>
      <trkpt lat="45.72597" lon="3.18352">
        <ele>407</ele>
        <time>2018-02-10T12:03:14Z</time>
      </trkpt>
      <trkpt lat="45.72534" lon="3.18472">
        <ele>406</ele>
        <time>2018-02-10T12:03:17Z</time>
      </trkpt>
      <trkpt lat="45.72464" lon="3.18648">
        <ele>406</ele>
        <time>2018-02-10T12:03:21Z</time>
      </trkpt>
      <trkpt lat="45.72409" lon="3.1883">
        <ele>406</ele>
        <time>2018-02-10T12:03:25Z</time>
      </trkpt>
      <trkpt lat="45.72366" lon="3.18967">
        <ele>405</ele>
        <time>2018-02-10T12:03:28Z</time>
      </trkpt>
      <trkpt lat="45.7231" lon="3.19154">
        <ele>405</ele>
        <time>2018-02-10T12:03:32Z</time>
      </trkpt>
      <trkpt lat="45.7227" lon="3.19292">
        <ele>405</ele>
        <time>2018-02-10T12:03:35Z</time>
      </trkpt>
      <trkpt lat="45.72215" lon="3.19473">
        <ele>404</ele>
        <time>2018-02-10T12:03:39Z</time>
      </trkpt>
      <trkpt lat="45.7215" lon="3.19654">
        <ele>404</ele>
        <time>2018-02-10T12:03:43Z</time>
      </trkpt>
      <trkpt lat="45.72067" lon="3.19813">
        <ele>404</ele>
        <time>2018-02-10T12:03:47Z</time>
      </trkpt>
      <trkpt lat="45.71992" lon="3.19918">
        <ele>404</ele>
        <time>2018-02-10T12:03:50Z</time>
      </trkpt>
      <trkpt lat="45.71879" lon="3.20039">
        <ele>404</ele>
        <time>2018-02-10T12:03:54Z</time>
      </trkpt>
      <trkpt lat="45.71748" lon="3.2012">
        <ele>400</ele>
        <time>2018-02-10T12:03:58Z</time>
      </trkpt>
      <trkpt lat="45.71645" lon="3.20166">
        <ele>398</ele>
        <time>2018-02-10T12:04:01Z</time>
      </trkpt>
      <trkpt lat="45.71507" lon="3.20199">
        <ele>398</ele>
        <time>2018-02-10T12:04:05Z</time>
      </trkpt>
      <trkpt lat="45.71369" lon="3.20185">
        <ele>398</ele>
        <time>2018-02-10T12:04:09Z</time>
      </trkpt>
      <trkpt lat="45.71262" lon="3.20163">
        <ele>396</ele>
        <time>2018-02-10T12:04:12Z</time>
      </trkpt>
      <trkpt lat="45.71126" lon="3.20125">
        <ele>394</ele>
        <time>2018-02-10T12:04:16Z</time>
      </trkpt>
      <trkpt lat="45.70985" lon="3.20085">
        <ele>395</ele>
        <time>2018-02-10T12:04:20Z</time>
      </trkpt>
      <trkpt lat="45.70883" lon="3.20054">
        <ele>396</ele>
        <time>2018-02-10T12:04:23Z</time>
      </trkpt>
      <trkpt lat="45.70744" lon="3.20015">
        <ele>392</ele>
        <time>2018-02-10T12:04:27Z</time>
      </trkpt>
      <trkpt lat="45.70603" lon="3.19975">
        <ele>393</ele>
        <time>2018-02-10T12:04:31Z</time>
      </trkpt>
      <trkpt lat="45.70505" lon="3.19936">
        <ele>391</ele>
        <time>2018-02-10T12:04:34Z</time>
      </trkpt>
      <trkpt lat="45.70372" lon="3.19867">
        <ele>389</ele>
        <time>2018-02-10T12:04:38Z</time>
      </trkpt>
      <trkpt lat="45.70246" lon="3.19778">
        <ele>386</ele>
        <time>2018-02-10T12:04:42Z</time>
      </trkpt>
      <trkpt lat="45.70152" lon="3.19718">
        <ele>387</ele>
        <time>2018-02-10T12:04:45Z</time>
      </trkpt>
      <trkpt lat="45.70024" lon="3.19634">
        <ele>386</ele>
        <time>2018-02-10T12:04:49Z</time>
      </trkpt>
      <trkpt lat="45.69934" lon="3.19575">
        <ele>386</ele>
        <time>2018-02-10T12:04:52Z</time>
      </trkpt>
      <trkpt lat="45.69822" lon="3.19498">
        <ele>387</ele>
        <time>2018-02-10T12:04:56Z</time>
      </trkpt>
      <trkpt lat="45.69711" lon="3.19428">
        <ele>392</ele>
        <time>2018-02-10T12:05:00Z</time>
      </trkpt>
      <trkpt lat="45.69612" lon="3.19362">
        <ele>394</ele>
        <time>2018-02-10T12:05:04Z</time>
      </trkpt>
      <trkpt lat="45.69541" lon="3.19315">
        <ele>393</ele>
        <time>2018-02-10T12:05:07Z</time>
      </trkpt>
      <trkpt lat="45.69449" lon="3.19254">
        <ele>395</ele>
        <time>2018-02-10T12:05:11Z</time>
      </trkpt>
      <trkpt lat="45.69384" lon="3.19211">
        <ele>397</ele>
        <time>2018-02-10T12:05:14Z</time>
      </trkpt>
      <trkpt lat="45.69294" lon="3.19159">
        <ele>399</ele>
        <time>2018-02-10T12:05:18Z</time>
      </trkpt>
      <trkpt lat="45.69199" lon="3.19144">
        <ele>402</ele>
        <time>2018-02-10T12:05:22Z</time>
      </trkpt>
      <trkpt lat="45.69127" lon="3.19154">
        <ele>403</ele>
        <time>2018-02-10T12:05:25Z</time>
      </trkpt>
      <trkpt lat="45.69037" lon="3.192">
        <ele>404</ele>
        <time>2018-02-10T12:05:29Z</time>
      </trkpt>
      <trkpt lat="45.68952" lon="3.19255">
        <ele>401</ele>
        <time>2018-02-10T12:05:33Z</time>
      </trkpt>
      <trkpt lat="45.68863" lon="3.19312">
        <ele>400</ele>
        <time>2018-02-10T12:05:37Z</time>
      </trkpt>
      <trkpt lat="45.68795" lon="3.19359">
        <ele>400</ele>
        <time>2018-02-10T12:05:40Z</time>
      </trkpt>
      <trkpt lat="45.68711" lon="3.19405">
        <ele>398</ele>
        <time>2018-02-10T12:05:44Z</time>
      </trkpt>
      <trkpt lat="45.68637" lon="3.19468">
        <ele>397</ele>
        <time>2018-02-10T12:05:47Z</time>
      </trkpt>
      <trkpt lat="45.68557" lon="3.19558">
        <ele>397</ele>
        <time>2018-02-10T12:05:51Z</time>
      </trkpt>
      <trkpt lat="45.6848" lon="3.19647">
        <ele>394</ele>
        <time>2018-02-10T12:05:55Z</time>
      </trkpt>
      <trkpt lat="45.68403" lon="3.19742">
        <ele>394</ele>
        <time>2018-02-10T12:05:59Z</time>
      </trkpt>
      <trkpt lat="45.68343" lon="3.1983">
        <ele>393</ele>
        <time>2018-02-10T12:06:03Z</time>
      </trkpt>
      <trkpt lat="45.68295" lon="3.19894">
        <ele>392</ele>
        <time>2018-02-10T12:06:06Z</time>
      </trkpt>
      <trkpt lat="45.68229" lon="3.19971">
        <ele>393</ele>
        <time>2018-02-10T12:06:09Z</time>
      </trkpt>
      <trkpt lat="45.68146" lon="3.2006">
        <ele>392</ele>
        <time>2018-02-10T12:06:13Z</time>
      </trkpt>
      <trkpt lat="45.68079" lon="3.20115">
        <ele>396</ele>
        <time>2018-02-10T12:06:16Z</time>
      </trkpt>
      <trkpt lat="45.68023" lon="3.20174">
        <ele>394</ele>
        <time>2018-02-10T12:06:19Z</time>
      </trkpt>
      <trkpt lat="45.67811" lon="3.20436">
        <ele>391</ele>
        <time>2018-02-10T12:06:30Z</time>
      </trkpt>
      <trkpt lat="45.67732" lon="3.20541">
        <ele>393</ele>
        <time>2018-02-10T12:06:34Z</time>
      </trkpt>
      <trkpt lat="45.67674" lon="3.20612">
        <ele>395</ele>
        <time>2018-02-10T12:06:38Z</time>
      </trkpt>
      <trkpt lat="45.67598" lon="3.2071">
        <ele>395</ele>
        <time>2018-02-10T12:06:42Z</time>
      </trkpt>
      <trkpt lat="45.67546" lon="3.20783">
        <ele>395</ele>
        <time>2018-02-10T12:06:45Z</time>
      </trkpt>
      <trkpt lat="45.6746" lon="3.20885">
        <ele>395</ele>
        <time>2018-02-10T12:06:49Z</time>
      </trkpt>
      <trkpt lat="45.67374" lon="3.20941">
        <ele>397</ele>
        <time>2018-02-10T12:06:53Z</time>
      </trkpt>
      <trkpt lat="45.67288" lon="3.21012">
        <ele>397</ele>
        <time>2018-02-10T12:06:57Z</time>
      </trkpt>
      <trkpt lat="45.67211" lon="3.21029">
        <ele>396</ele>
        <time>2018-02-10T12:07:00Z</time>
      </trkpt>
      <trkpt lat="45.6712" lon="3.21019">
        <ele>395</ele>
        <time>2018-02-10T12:07:04Z</time>
      </trkpt>
      <trkpt lat="45.6705" lon="3.20985">
        <ele>396</ele>
        <time>2018-02-10T12:07:07Z</time>
      </trkpt>
      <trkpt lat="45.66988" lon="3.20949">
        <ele>400</ele>
        <time>2018-02-10T12:07:10Z</time>
      </trkpt>
      <trkpt lat="45.66909" lon="3.2088">
        <ele>403</ele>
        <time>2018-02-10T12:07:14Z</time>
      </trkpt>
      <trkpt lat="45.66826" lon="3.20814">
        <ele>402</ele>
        <time>2018-02-10T12:07:18Z</time>
      </trkpt>
      <trkpt lat="45.66743" lon="3.2076">
        <ele>402</ele>
        <time>2018-02-10T12:07:22Z</time>
      </trkpt>
      <trkpt lat="45.66663" lon="3.20723">
        <ele>401</ele>
        <time>2018-02-10T12:07:26Z</time>
      </trkpt>
      <trkpt lat="45.66578" lon="3.20708">
        <ele>403</ele>
        <time>2018-02-10T12:07:30Z</time>
      </trkpt>
      <trkpt lat="45.66515" lon="3.20702">
        <ele>406</ele>
        <time>2018-02-10T12:07:33Z</time>
      </trkpt>
      <trkpt lat="45.66454" lon="3.20693">
        <ele>404</ele>
        <time>2018-02-10T12:07:36Z</time>
      </trkpt>
      <trkpt lat="45.66369" lon="3.20682">
        <ele>406</ele>
        <time>2018-02-10T12:07:40Z</time>
      </trkpt>
      <trkpt lat="45.66306" lon="3.20676">
        <ele>407</ele>
        <time>2018-02-10T12:07:43Z</time>
      </trkpt>
      <trkpt lat="45.66243" lon="3.2067">
        <ele>406</ele>
        <time>2018-02-10T12:07:46Z</time>
      </trkpt>
      <trkpt lat="45.66159" lon="3.2066">
        <ele>408</ele>
        <time>2018-02-10T12:07:50Z</time>
      </trkpt>
      <trkpt lat="45.66074" lon="3.2065">
        <ele>408</ele>
        <time>2018-02-10T12:07:54Z</time>
      </trkpt>
      <trkpt lat="45.65991" lon="3.20639">
        <ele>406</ele>
        <time>2018-02-10T12:07:58Z</time>
      </trkpt>
      <trkpt lat="45.65906" lon="3.20629">
        <ele>405</ele>
        <time>2018-02-10T12:08:02Z</time>
      </trkpt>
      <trkpt lat="45.65843" lon="3.2062">
        <ele>406</ele>
        <time>2018-02-10T12:08:05Z</time>
      </trkpt>
      <trkpt lat="45.65779" lon="3.20603">
        <ele>403</ele>
        <time>2018-02-10T12:08:08Z</time>
      </trkpt>
      <trkpt lat="45.65697" lon="3.2056">
        <ele>402</ele>
        <time>2018-02-10T12:08:12Z</time>
      </trkpt>
      <trkpt lat="45.65623" lon="3.20506">
        <ele>399</ele>
        <time>2018-02-10T12:08:16Z</time>
      </trkpt>
      <trkpt lat="45.65564" lon="3.20462">
        <ele>399</ele>
        <time>2018-02-10T12:08:19Z</time>
      </trkpt>
      <trkpt lat="45.65488" lon="3.20405">
        <ele>400</ele>
        <time>2018-02-10T12:08:23Z</time>
      </trkpt>
      <trkpt lat="45.65413" lon="3.20344">
        <ele>396</ele>
        <time>2018-02-10T12:08:27Z</time>
      </trkpt>
      <trkpt lat="45.65337" lon="3.20292">
        <ele>399</ele>
        <time>2018-02-10T12:08:31Z</time>
      </trkpt>
      <trkpt lat="45.65284" lon="3.20249">
        <ele>398</ele>
        <time>2018-02-10T12:08:34Z</time>
      </trkpt>
      <trkpt lat="45.65208" lon="3.20206">
        <ele>397</ele>
        <time>2018-02-10T12:08:38Z</time>
      </trkpt>
      <trkpt lat="45.65145" lon="3.20192">
        <ele>399</ele>
        <time>2018-02-10T12:08:41Z</time>
      </trkpt>
      <trkpt lat="45.65062" lon="3.202">
        <ele>399</ele>
        <time>2018-02-10T12:08:45Z</time>
      </trkpt>
      <trkpt lat="45.64976" lon="3.20245">
        <ele>398</ele>
        <time>2018-02-10T12:08:49Z</time>
      </trkpt>
      <trkpt lat="45.64921" lon="3.20279">
        <ele>397</ele>
        <time>2018-02-10T12:08:52Z</time>
      </trkpt>
      <trkpt lat="45.64875" lon="3.20345">
        <ele>398</ele>
        <time>2018-02-10T12:08:55Z</time>
      </trkpt>
      <trkpt lat="45.64834" lon="3.20398">
        <ele>398</ele>
        <time>2018-02-10T12:08:58Z</time>
      </trkpt>
      <trkpt lat="45.64819" lon="3.20524">
        <ele>398</ele>
        <time>2018-02-10T12:09:02Z</time>
      </trkpt>
      <trkpt lat="45.64813" lon="3.20673">
        <ele>398</ele>
        <time>2018-02-10T12:09:06Z</time>
      </trkpt>
      <trkpt lat="45.64795" lon="3.20789">
        <ele>400</ele>
        <time>2018-02-10T12:09:10Z</time>
      </trkpt>
      <trkpt lat="45.64777" lon="3.20876">
        <ele>397</ele>
        <time>2018-02-10T12:09:13Z</time>
      </trkpt>
      <trkpt lat="45.64749" lon="3.20976">
        <ele>400</ele>
        <time>2018-02-10T12:09:17Z</time>
      </trkpt>
      <trkpt lat="45.64682" lon="3.21042">
        <ele>398</ele>
        <time>2018-02-10T12:09:21Z</time>
      </trkpt>
      <trkpt lat="45.64602" lon="3.21065">
        <ele>403</ele>
        <time>2018-02-10T12:09:25Z</time>
      </trkpt>
      <trkpt lat="45.6451" lon="3.21082">
        <ele>403</ele>
        <time>2018-02-10T12:09:29Z</time>
      </trkpt>
      <trkpt lat="45.64446" lon="3.21093">
        <ele>403</ele>
        <time>2018-02-10T12:09:32Z</time>
      </trkpt>
      <trkpt lat="45.64364" lon="3.21105">
        <ele>406</ele>
        <time>2018-02-10T12:09:36Z</time>
      </trkpt>
      <trkpt lat="45.64278" lon="3.21111">
        <ele>405</ele>
        <time>2018-02-10T12:09:40Z</time>
      </trkpt>
      <trkpt lat="45.64219" lon="3.21108">
        <ele>406</ele>
        <time>2018-02-10T12:09:43Z</time>
      </trkpt>
      <trkpt lat="45.64155" lon="3.21116">
        <ele>407</ele>
        <time>2018-02-10T12:09:46Z</time>
      </trkpt>
      <trkpt lat="45.64091" lon="3.21124">
        <ele>411</ele>
        <time>2018-02-10T12:09:49Z</time>
      </trkpt>
      <trkpt lat="45.64027" lon="3.21132">
        <ele>408</ele>
        <time>2018-02-10T12:09:52Z</time>
      </trkpt>
      <trkpt lat="45.63936" lon="3.21139">
        <ele>401</ele>
        <time>2018-02-10T12:09:56Z</time>
      </trkpt>
      <trkpt lat="45.63855" lon="3.21148">
        <ele>399</ele>
        <time>2018-02-10T12:10:00Z</time>
      </trkpt>
      <trkpt lat="45.6379" lon="3.21168">
        <ele>396</ele>
        <time>2018-02-10T12:10:03Z</time>
      </trkpt>
      <trkpt lat="45.63731" lon="3.21195">
        <ele>396</ele>
        <time>2018-02-10T12:10:06Z</time>
      </trkpt>
      <trkpt lat="45.63656" lon="3.21237">
        <ele>401</ele>
        <time>2018-02-10T12:10:10Z</time>
      </trkpt>
      <trkpt lat="45.63573" lon="3.21278">
        <ele>399</ele>
        <time>2018-02-10T12:10:14Z</time>
      </trkpt>
      <trkpt lat="45.63511" lon="3.21305">
        <ele>396</ele>
        <time>2018-02-10T12:10:17Z</time>
      </trkpt>
      <trkpt lat="45.63436" lon="3.21342">
        <ele>395</ele>
        <time>2018-02-10T12:10:21Z</time>
      </trkpt>
      <trkpt lat="45.63351" lon="3.21377">
        <ele>395</ele>
        <time>2018-02-10T12:10:25Z</time>
      </trkpt>
      <trkpt lat="45.63299" lon="3.21416">
        <ele>394</ele>
        <time>2018-02-10T12:10:28Z</time>
      </trkpt>
      <trkpt lat="45.63255" lon="3.21462">
        <ele>395</ele>
        <time>2018-02-10T12:10:31Z</time>
      </trkpt>
      <trkpt lat="45.63195" lon="3.21544">
        <ele>394</ele>
        <time>2018-02-10T12:10:35Z</time>
      </trkpt>
      <trkpt lat="45.6316" lon="3.21646">
        <ele>394</ele>
        <time>2018-02-10T12:10:39Z</time>
      </trkpt>
      <trkpt lat="45.63132" lon="3.21727">
        <ele>394</ele>
        <time>2018-02-10T12:10:42Z</time>
      </trkpt>
      <trkpt lat="45.63115" lon="3.21839">
        <ele>399</ele>
        <time>2018-02-10T12:10:46Z</time>
      </trkpt>
      <trkpt lat="45.631" lon="3.21923">
        <ele>399</ele>
        <time>2018-02-10T12:10:49Z</time>
      </trkpt>
      <trkpt lat="45.63077" lon="3.22037">
        <ele>404</ele>
        <time>2018-02-10T12:10:53Z</time>
      </trkpt>
      <trkpt lat="45.63043" lon="3.22101">
        <ele>404</ele>
        <time>2018-02-10T12:10:56Z</time>
      </trkpt>
      <trkpt lat="45.62991" lon="3.2218">
        <ele>407</ele>
        <time>2018-02-10T12:11:00Z</time>
      </trkpt>
      <trkpt lat="45.62933" lon="3.22251">
        <ele>409</ele>
        <time>2018-02-10T12:11:04Z</time>
      </trkpt>
      <trkpt lat="45.62855" lon="3.22284">
        <ele>408</ele>
        <time>2018-02-10T12:11:08Z</time>
      </trkpt>
      <trkpt lat="45.62788" lon="3.22281">
        <ele>407</ele>
        <time>2018-02-10T12:11:11Z</time>
      </trkpt>
      <trkpt lat="45.62712" lon="3.22264">
        <ele>408</ele>
        <time>2018-02-10T12:11:15Z</time>
      </trkpt>
      <trkpt lat="45.62636" lon="3.22208">
        <ele>408</ele>
        <time>2018-02-10T12:11:19Z</time>
      </trkpt>
      <trkpt lat="45.62599" lon="3.22155">
        <ele>409</ele>
        <time>2018-02-10T12:11:22Z</time>
      </trkpt>
      <trkpt lat="45.6253" lon="3.22098">
        <ele>408</ele>
        <time>2018-02-10T12:11:26Z</time>
      </trkpt>
      <trkpt lat="45.62474" lon="3.22011">
        <ele>408</ele>
        <time>2018-02-10T12:11:30Z</time>
      </trkpt>
      <trkpt lat="45.62419" lon="3.21946">
        <ele>409</ele>
        <time>2018-02-10T12:11:34Z</time>
      </trkpt>
      <trkpt lat="45.62371" lon="3.21894">
        <ele>407</ele>
        <time>2018-02-10T12:11:37Z</time>
      </trkpt>
      <trkpt lat="45.62314" lon="3.2182">
        <ele>406</ele>
        <time>2018-02-10T12:11:41Z</time>
      </trkpt>
      <trkpt lat="45.62262" lon="3.21767">
        <ele>407</ele>
        <time>2018-02-10T12:11:44Z</time>
      </trkpt>
      <trkpt lat="45.62198" lon="3.21701">
        <ele>409</ele>
        <time>2018-02-10T12:11:48Z</time>
      </trkpt>
      <trkpt lat="45.62146" lon="3.2165">
        <ele>412</ele>
        <time>2018-02-10T12:11:51Z</time>
      </trkpt>
      <trkpt lat="45.62093" lon="3.21599">
        <ele>411</ele>
        <time>2018-02-10T12:11:54Z</time>
      </trkpt>
      <trkpt lat="45.62039" lon="3.21523">
        <ele>414</ele>
        <time>2018-02-10T12:11:58Z</time>
      </trkpt>
      <trkpt lat="45.61984" lon="3.21475">
        <ele>414</ele>
        <time>2018-02-10T12:12:01Z</time>
      </trkpt>
      <trkpt lat="45.61918" lon="3.21425">
        <ele>414</ele>
        <time>2018-02-10T12:12:05Z</time>
      </trkpt>
      <trkpt lat="45.61857" lon="3.21354">
        <ele>413</ele>
        <time>2018-02-10T12:12:09Z</time>
      </trkpt>
      <trkpt lat="45.61795" lon="3.21319">
        <ele>413</ele>
        <time>2018-02-10T12:12:12Z</time>
      </trkpt>
      <trkpt lat="45.61721" lon="3.21303">
        <ele>414</ele>
        <time>2018-02-10T12:12:16Z</time>
      </trkpt>
      <trkpt lat="45.6163" lon="3.21331">
        <ele>416</ele>
        <time>2018-02-10T12:12:20Z</time>
      </trkpt>
      <trkpt lat="45.61572" lon="3.21358">
        <ele>418</ele>
        <time>2018-02-10T12:12:23Z</time>
      </trkpt>
      <trkpt lat="45.61517" lon="3.21432">
        <ele>421</ele>
        <time>2018-02-10T12:12:27Z</time>
      </trkpt>
      <trkpt lat="45.61473" lon="3.21529">
        <ele>415</ele>
        <time>2018-02-10T12:12:31Z</time>
      </trkpt>
      <trkpt lat="45.61442" lon="3.21634">
        <ele>415</ele>
        <time>2018-02-10T12:12:35Z</time>
      </trkpt>
      <trkpt lat="45.61412" lon="3.2174">
        <ele>414</ele>
        <time>2018-02-10T12:12:39Z</time>
      </trkpt>
      <trkpt lat="45.61382" lon="3.21846">
        <ele>410</ele>
        <time>2018-02-10T12:12:43Z</time>
      </trkpt>
      <trkpt lat="45.61357" lon="3.21926">
        <ele>410</ele>
        <time>2018-02-10T12:12:46Z</time>
      </trkpt>
      <trkpt lat="45.61325" lon="3.22033">
        <ele>410</ele>
        <time>2018-02-10T12:12:50Z</time>
      </trkpt>
      <trkpt lat="45.61291" lon="3.22134">
        <ele>410</ele>
        <time>2018-02-10T12:12:54Z</time>
      </trkpt>
      <trkpt lat="45.61278" lon="3.22251">
        <ele>415</ele>
        <time>2018-02-10T12:12:58Z</time>
      </trkpt>
      <trkpt lat="45.61242" lon="3.2232">
        <ele>413</ele>
        <time>2018-02-10T12:13:01Z</time>
      </trkpt>
      <trkpt lat="45.6119" lon="3.22414">
        <ele>410</ele>
        <time>2018-02-10T12:13:05Z</time>
      </trkpt>
      <trkpt lat="45.61143" lon="3.22508">
        <ele>408</ele>
        <time>2018-02-10T12:13:09Z</time>
      </trkpt>
      <trkpt lat="45.6109" lon="3.22559">
        <ele>408</ele>
        <time>2018-02-10T12:13:12Z</time>
      </trkpt>
      <trkpt lat="45.61019" lon="3.22608">
        <ele>408</ele>
        <time>2018-02-10T12:13:16Z</time>
      </trkpt>
      <trkpt lat="45.60948" lon="3.22622">
        <ele>408</ele>
        <time>2018-02-10T12:13:19Z</time>
      </trkpt>
      <trkpt lat="45.60869" lon="3.2263">
        <ele>407</ele>
        <time>2018-02-10T12:13:23Z</time>
      </trkpt>
      <trkpt lat="45.60795" lon="3.22608">
        <ele>410</ele>
        <time>2018-02-10T12:13:27Z</time>
      </trkpt>
      <trkpt lat="45.60724" lon="3.22574">
        <ele>414</ele>
        <time>2018-02-10T12:13:31Z</time>
      </trkpt>
      <trkpt lat="45.60647" lon="3.22542">
        <ele>412</ele>
        <time>2018-02-10T12:13:35Z</time>
      </trkpt>
      <trkpt lat="45.60572" lon="3.22497">
        <ele>410</ele>
        <time>2018-02-10T12:13:39Z</time>
      </trkpt>
      <trkpt lat="45.60526" lon="3.2244">
        <ele>410</ele>
        <time>2018-02-10T12:13:42Z</time>
      </trkpt>
      <trkpt lat="45.60485" lon="3.22369">
        <ele>412</ele>
        <time>2018-02-10T12:13:45Z</time>
      </trkpt>
      <trkpt lat="45.60453" lon="3.22264">
        <ele>419</ele>
        <time>2018-02-10T12:13:49Z</time>
      </trkpt>
      <trkpt lat="45.60429" lon="3.22182">
        <ele>414</ele>
        <time>2018-02-10T12:13:52Z</time>
      </trkpt>
      <trkpt lat="45.60391" lon="3.22085">
        <ele>411</ele>
        <time>2018-02-10T12:13:56Z</time>
      </trkpt>
      <trkpt lat="45.6035" lon="3.22025">
        <ele>411</ele>
        <time>2018-02-10T12:13:59Z</time>
      </trkpt>
      <trkpt lat="45.60301" lon="3.21977">
        <ele>415</ele>
        <time>2018-02-10T12:14:02Z</time>
      </trkpt>
      <trkpt lat="45.60244" lon="3.21951">
        <ele>414</ele>
        <time>2018-02-10T12:14:05Z</time>
      </trkpt>
      <trkpt lat="45.60167" lon="3.21938">
        <ele>418</ele>
        <time>2018-02-10T12:14:09Z</time>
      </trkpt>
      <trkpt lat="45.60105" lon="3.21962">
        <ele>420</ele>
        <time>2018-02-10T12:14:12Z</time>
      </trkpt>
      <trkpt lat="45.60033" lon="3.22017">
        <ele>418</ele>
        <time>2018-02-10T12:14:16Z</time>
      </trkpt>
      <trkpt lat="45.59989" lon="3.22075">
        <ele>418</ele>
        <time>2018-02-10T12:14:19Z</time>
      </trkpt>
      <trkpt lat="45.59941" lon="3.22168">
        <ele>418</ele>
        <time>2018-02-10T12:14:23Z</time>
      </trkpt>
      <trkpt lat="45.59908" lon="3.22267">
        <ele>420</ele>
        <time>2018-02-10T12:14:27Z</time>
      </trkpt>
      <trkpt lat="45.59857" lon="3.22358">
        <ele>420</ele>
        <time>2018-02-10T12:14:31Z</time>
      </trkpt>
      <trkpt lat="45.59811" lon="3.22414">
        <ele>419</ele>
        <time>2018-02-10T12:14:34Z</time>
      </trkpt>
      <trkpt lat="45.5975" lon="3.22481">
        <ele>417</ele>
        <time>2018-02-10T12:14:38Z</time>
      </trkpt>
      <trkpt lat="45.59698" lon="3.22563">
        <ele>414</ele>
        <time>2018-02-10T12:14:42Z</time>
      </trkpt>
      <trkpt lat="45.59659" lon="3.22627">
        <ele>414</ele>
        <time>2018-02-10T12:14:45Z</time>
      </trkpt>
      <trkpt lat="45.59614" lon="3.22719">
        <ele>414</ele>
        <time>2018-02-10T12:14:49Z</time>
      </trkpt>
      <trkpt lat="45.59581" lon="3.22818">
        <ele>414</ele>
        <time>2018-02-10T12:14:53Z</time>
      </trkpt>
      <trkpt lat="45.59557" lon="3.2293">
        <ele>414</ele>
        <time>2018-02-10T12:14:57Z</time>
      </trkpt>
      <trkpt lat="45.5954" lon="3.23014">
        <ele>409</ele>
        <time>2018-02-10T12:15:00Z</time>
      </trkpt>
      <trkpt lat="45.5952" lon="3.23094">
        <ele>408</ele>
        <time>2018-02-10T12:15:03Z</time>
      </trkpt>
      <trkpt lat="45.595" lon="3.23203">
        <ele>406</ele>
        <time>2018-02-10T12:15:07Z</time>
      </trkpt>
      <trkpt lat="45.59473" lon="3.2331">
        <ele>410</ele>
        <time>2018-02-10T12:15:11Z</time>
      </trkpt>
      <trkpt lat="45.59459" lon="3.23391">
        <ele>409</ele>
        <time>2018-02-10T12:15:14Z</time>
      </trkpt>
      <trkpt lat="45.59434" lon="3.235">
        <ele>407</ele>
        <time>2018-02-10T12:15:18Z</time>
      </trkpt>
      <trkpt lat="45.59408" lon="3.23581">
        <ele>407</ele>
        <time>2018-02-10T12:15:21Z</time>
      </trkpt>
      <trkpt lat="45.59389" lon="3.23691">
        <ele>409</ele>
        <time>2018-02-10T12:15:25Z</time>
      </trkpt>
      <trkpt lat="45.5937" lon="3.23772">
        <ele>414</ele>
        <time>2018-02-10T12:15:28Z</time>
      </trkpt>
      <trkpt lat="45.59361" lon="3.23853">
        <ele>415</ele>
        <time>2018-02-10T12:15:31Z</time>
      </trkpt>
      <trkpt lat="45.59339" lon="3.23967">
        <ele>416</ele>
        <time>2018-02-10T12:15:35Z</time>
      </trkpt>
      <trkpt lat="45.59311" lon="3.24045">
        <ele>413</ele>
        <time>2018-02-10T12:15:38Z</time>
      </trkpt>
      <trkpt lat="45.59305" lon="3.24129">
        <ele>412</ele>
        <time>2018-02-10T12:15:41Z</time>
      </trkpt>
      <trkpt lat="45.59284" lon="3.24247">
        <ele>412</ele>
        <time>2018-02-10T12:15:45Z</time>
      </trkpt>
      <trkpt lat="45.59234" lon="3.24324">
        <ele>411</ele>
        <time>2018-02-10T12:15:49Z</time>
      </trkpt>
      <trkpt lat="45.59173" lon="3.24414">
        <ele>409</ele>
        <time>2018-02-10T12:15:53Z</time>
      </trkpt>
      <trkpt lat="45.59134" lon="3.24486">
        <ele>409</ele>
        <time>2018-02-10T12:15:56Z</time>
      </trkpt>
      <trkpt lat="45.5908" lon="3.24571">
        <ele>411</ele>
        <time>2018-02-10T12:16:00Z</time>
      </trkpt>
      <trkpt lat="45.59042" lon="3.24636">
        <ele>409</ele>
        <time>2018-02-10T12:16:03Z</time>
      </trkpt>
      <trkpt lat="45.58294" lon="3.24584">
        <ele>424</ele>
        <time>2018-02-10T12:16:44Z</time>
      </trkpt>
      <trkpt lat="45.58271" lon="3.24504">
        <ele>412</ele>
        <time>2018-02-10T12:16:47Z</time>
      </trkpt>
      <trkpt lat="45.58226" lon="3.24444">
        <ele>401</ele>
        <time>2018-02-10T12:16:50Z</time>
      </trkpt>
      <trkpt lat="45.58189" lon="3.24338">
        <ele>408</ele>
        <time>2018-02-10T12:16:54Z</time>
      </trkpt>
      <trkpt lat="45.58153" lon="3.2427">
        <ele>409</ele>
        <time>2018-02-10T12:16:57Z</time>
      </trkpt>
      <trkpt lat="45.58094" lon="3.2424">
        <ele>405</ele>
        <time>2018-02-10T12:17:00Z</time>
      </trkpt>
      <trkpt lat="45.58034" lon="3.24195">
        <ele>399</ele>
        <time>2018-02-10T12:17:04Z</time>
      </trkpt>
      <trkpt lat="45.57959" lon="3.24151">
        <ele>409</ele>
        <time>2018-02-10T12:17:08Z</time>
      </trkpt>
      <trkpt lat="45.57879" lon="3.24147">
        <ele>423</ele>
        <time>2018-02-10T12:17:12Z</time>
      </trkpt>
      <trkpt lat="45.57829" lon="3.2413">
        <ele>420</ele>
        <time>2018-02-10T12:17:15Z</time>
      </trkpt>
      <trkpt lat="45.57721" lon="3.24217">
        <ele>418</ele>
        <time>2018-02-10T12:17:19Z</time>
      </trkpt>
      <trkpt lat="45.57643" lon="3.24282">
        <ele>416</ele>
        <time>2018-02-10T12:17:23Z</time>
      </trkpt>
      <trkpt lat="45.57606" lon="3.24322">
        <ele>422</ele>
        <time>2018-02-10T12:17:26Z</time>
      </trkpt>
      <trkpt lat="45.57548" lon="3.24408">
        <ele>422</ele>
        <time>2018-02-10T12:17:30Z</time>
      </trkpt>
      <trkpt lat="45.57494" lon="3.24468">
        <ele>421</ele>
        <time>2018-02-10T12:17:34Z</time>
      </trkpt>
      <trkpt lat="45.57483" lon="3.24613">
        <ele>419</ele>
        <time>2018-02-10T12:17:38Z</time>
      </trkpt>
      <trkpt lat="45.57468" lon="3.24691">
        <ele>426</ele>
        <time>2018-02-10T12:17:41Z</time>
      </trkpt>
      <trkpt lat="45.57446" lon="3.24793">
        <ele>427</ele>
        <time>2018-02-10T12:17:45Z</time>
      </trkpt>
      <trkpt lat="45.57424" lon="3.24872">
        <ele>429</ele>
        <time>2018-02-10T12:17:48Z</time>
      </trkpt>
      <trkpt lat="45.57385" lon="3.24971">
        <ele>431</ele>
        <time>2018-02-10T12:17:52Z</time>
      </trkpt>
      <trkpt lat="45.57346" lon="3.25032">
        <ele>427</ele>
        <time>2018-02-10T12:17:55Z</time>
      </trkpt>
      <trkpt lat="45.57279" lon="3.25095">
        <ele>426</ele>
        <time>2018-02-10T12:17:59Z</time>
      </trkpt>
      <trkpt lat="45.57213" lon="3.2515">
        <ele>424</ele>
        <time>2018-02-10T12:18:03Z</time>
      </trkpt>
      <trkpt lat="45.57158" lon="3.25178">
        <ele>424</ele>
        <time>2018-02-10T12:18:06Z</time>
      </trkpt>
      <trkpt lat="45.57098" lon="3.25195">
        <ele>426</ele>
        <time>2018-02-10T12:18:09Z</time>
      </trkpt>
      <trkpt lat="45.57014" lon="3.25224">
        <ele>427</ele>
        <time>2018-02-10T12:18:13Z</time>
      </trkpt>
      <trkpt lat="45.5697" lon="3.25236">
        <ele>428</ele>
        <time>2018-02-10T12:18:16Z</time>
      </trkpt>
      <trkpt lat="45.56894" lon="3.2526">
        <ele>427</ele>
        <time>2018-02-10T12:18:20Z</time>
      </trkpt>
      <trkpt lat="45.56828" lon="3.25269">
        <ele>425</ele>
        <time>2018-02-10T12:18:23Z</time>
      </trkpt>
      <trkpt lat="45.5675" lon="3.25273">
        <ele>425</ele>
        <time>2018-02-10T12:18:27Z</time>
      </trkpt>
      <trkpt lat="45.56689" lon="3.25261">
        <ele>426</ele>
        <time>2018-02-10T12:18:30Z</time>
      </trkpt>
      <trkpt lat="45.56596" lon="3.25247">
        <ele>425</ele>
        <time>2018-02-10T12:18:34Z</time>
      </trkpt>
      <trkpt lat="45.56518" lon="3.25223">
        <ele>424</ele>
        <time>2018-02-10T12:18:38Z</time>
      </trkpt>
      <trkpt lat="45.56462" lon="3.25213">
        <ele>427</ele>
        <time>2018-02-10T12:18:41Z</time>
      </trkpt>
      <trkpt lat="45.56391" lon="3.2521">
        <ele>427</ele>
        <time>2018-02-10T12:18:45Z</time>
      </trkpt>
      <trkpt lat="45.56312" lon="3.25213">
        <ele>428</ele>
        <time>2018-02-10T12:18:49Z</time>
      </trkpt>
      <trkpt lat="45.56226" lon="3.25232">
        <ele>428</ele>
        <time>2018-02-10T12:18:53Z</time>
      </trkpt>
      <trkpt lat="45.56173" lon="3.25232">
        <ele>429</ele>
        <time>2018-02-10T12:18:56Z</time>
      </trkpt>
      <trkpt lat="45.56126" lon="3.25252">
        <ele>430</ele>
        <time>2018-02-10T12:18:58Z</time>
      </trkpt>
      <trkpt lat="45.56033" lon="3.2525">
        <ele>438</ele>
        <time>2018-02-10T12:19:03Z</time>
      </trkpt>
      <trkpt lat="45.55948" lon="3.25251">
        <ele>435</ele>
        <time>2018-02-10T12:19:07Z</time>
      </trkpt>
      <trkpt lat="45.55865" lon="3.25259">
        <ele>433</ele>
        <time>2018-02-10T12:19:11Z</time>
      </trkpt>
      <trkpt lat="45.55794" lon="3.25274">
        <ele>437</ele>
        <time>2018-02-10T12:19:14Z</time>
      </trkpt>
      <trkpt lat="45.55704" lon="3.25283">
        <ele>436</ele>
        <time>2018-02-10T12:19:18Z</time>
      </trkpt>
      <trkpt lat="45.55607" lon="3.25292">
        <ele>432</ele>
        <time>2018-02-10T12:19:22Z</time>
      </trkpt>
      <trkpt lat="45.55541" lon="3.25301">
        <ele>437</ele>
        <time>2018-02-10T12:19:25Z</time>
      </trkpt>
      <trkpt lat="45.55448" lon="3.25308">
        <ele>439</ele>
        <time>2018-02-10T12:19:29Z</time>
      </trkpt>
      <trkpt lat="45.5538" lon="3.2531">
        <ele>439</ele>
        <time>2018-02-10T12:19:32Z</time>
      </trkpt>
      <trkpt lat="45.55285" lon="3.25329">
        <ele>439</ele>
        <time>2018-02-10T12:19:36Z</time>
      </trkpt>
      <trkpt lat="45.55195" lon="3.25335">
        <ele>441</ele>
        <time>2018-02-10T12:19:40Z</time>
      </trkpt>
      <trkpt lat="45.55102" lon="3.25348">
        <ele>440</ele>
        <time>2018-02-10T12:19:44Z</time>
      </trkpt>
      <trkpt lat="45.55015" lon="3.25354">
        <ele>440</ele>
        <time>2018-02-10T12:19:48Z</time>
      </trkpt>
      <trkpt lat="45.54956" lon="3.25352">
        <ele>438</ele>
        <time>2018-02-10T12:19:51Z</time>
      </trkpt>
      <trkpt lat="45.54872" lon="3.25364">
        <ele>438</ele>
        <time>2018-02-10T12:19:55Z</time>
      </trkpt>
      <trkpt lat="45.54804" lon="3.25388">
        <ele>437</ele>
        <time>2018-02-10T12:19:58Z</time>
      </trkpt>
      <trkpt lat="45.54746" lon="3.25394">
        <ele>437</ele>
        <time>2018-02-10T12:20:01Z</time>
      </trkpt>
      <trkpt lat="45.54677" lon="3.25395">
        <ele>437</ele>
        <time>2018-02-10T12:20:05Z</time>
      </trkpt>
      <trkpt lat="45.54618" lon="3.25395">
        <ele>439</ele>
        <time>2018-02-10T12:20:09Z</time>
      </trkpt>
      <trkpt lat="45.54571" lon="3.25398">
        <ele>439</ele>
        <time>2018-02-10T12:20:12Z</time>
      </trkpt>
      <trkpt lat="45.54529" lon="3.25401">
        <ele>438</ele>
        <time>2018-02-10T12:20:15Z</time>
      </trkpt>
      <trkpt lat="45.5449" lon="3.25417">
        <ele>438</ele>
        <time>2018-02-10T12:20:19Z</time>
      </trkpt>
      <trkpt lat="45.54467" lon="3.25425">
        <ele>441</ele>
        <time>2018-02-10T12:20:23Z</time>
      </trkpt>
      <trkpt lat="45.54444" lon="3.25428">
        <ele>442</ele>
        <time>2018-02-10T12:20:26Z</time>
      </trkpt>
      <trkpt lat="45.54421" lon="3.25427">
        <ele>443</ele>
        <time>2018-02-10T12:20:30Z</time>
      </trkpt>
      <trkpt lat="45.54408" lon="3.25417">
        <ele>440</ele>
        <time>2018-02-10T12:20:34Z</time>
      </trkpt>
      <trkpt lat="45.54415" lon="3.25411">
        <ele>441</ele>
        <time>2018-02-10T12:20:38Z</time>
      </trkpt>
      <trkpt lat="45.54415" lon="3.25416">
        <ele>443</ele>
        <time>2018-02-10T12:20:42Z</time>
      </trkpt>
      <trkpt lat="45.5442" lon="3.25419">
        <ele>442</ele>
        <time>2018-02-10T12:20:45Z</time>
      </trkpt>
      <trkpt lat="45.54434" lon="3.25421">
        <ele>443</ele>
        <time>2018-02-10T12:20:49Z</time>
      </trkpt>
      <trkpt lat="45.54436" lon="3.25422">
        <ele>443</ele>
        <time>2018-02-10T12:20:52Z</time>
      </trkpt>
      <trkpt lat="45.54437" lon="3.2542">
        <ele>443</ele>
        <time>2018-02-10T12:20:56Z</time>
      </trkpt>
      <trkpt lat="45.54437" lon="3.25422">
        <ele>443</ele>
        <time>2018-02-10T12:21:00Z</time>
      </trkpt>
      <trkpt lat="45.54437" lon="3.25422">
        <ele>442</ele>
        <time>2018-02-10T12:21:03Z</time>
      </trkpt>
      <trkpt lat="45.54437" lon="3.25422">
        <ele>442</ele>
        <time>2018-02-10T12:21:07Z</time>
      </trkpt>
      <trkpt lat="45.54437" lon="3.25422">
        <ele>443</ele>
        <time>2018-02-10T12:21:11Z</time>
      </trkpt>
      <trkpt lat="45.54437" lon="3.25422">
        <ele>442</ele>
        <time>2018-02-10T12:21:14Z</time>
      </trkpt>
      <trkpt lat="45.54437" lon="3.25422">
        <ele>442</ele>
        <time>2018-02-10T12:21:17Z</time>
      </trkpt>
      <trkpt lat="45.54436" lon="3.25422">
        <ele>441</ele>
        <time>2018-02-10T12:21:21Z</time>
      </trkpt>
      <trkpt lat="45.54436" lon="3.25422">
        <ele>441</ele>
        <time>2018-02-10T12:21:25Z</time>
      </trkpt>
      <trkpt lat="45.54436" lon="3.25422">
        <ele>441</ele>
        <time>2018-02-10T12:21:29Z</time>
      </trkpt>
      <trkpt lat="45.54436" lon="3.25422">
        <ele>441</ele>
        <time>2018-02-10T12:21:33Z</time>
      </trkpt>
      <trkpt lat="45.54436" lon="3.25422">
        <ele>441</ele>
        <time>2018-02-10T12:21:36Z</time>
      </trkpt>
      <trkpt lat="45.54436" lon="3.25422">
        <ele>441</ele>
        <time>2018-02-10T12:21:39Z</time>
      </trkpt>
      <trkpt lat="45.54436" lon="3.25422">
        <ele>441</ele>
        <time>2018-02-10T12:21:42Z</time>
      </trkpt>
      <trkpt lat="45.54436" lon="3.25422">
        <ele>441</ele>
        <time>2018-02-10T12:21:45Z</time>
      </trkpt>
      <trkpt lat="45.54436" lon="3.25422">
        <ele>441</ele>
        <time>2018-02-10T12:21:49Z</time>
      </trkpt>
      <trkpt lat="45.54436" lon="3.25422">
        <ele>441</ele>
        <time>2018-02-10T12:21:52Z</time>
      </trkpt>
      <trkpt lat="45.54436" lon="3.25422">
        <ele>441</ele>
        <time>2018-02-10T12:21:56Z</time>
      </trkpt>
      <trkpt lat="45.54436" lon="3.25422">
        <ele>442</ele>
        <time>2018-02-10T12:22:00Z</time>
      </trkpt>
      <trkpt lat="45.54436" lon="3.25422">
        <ele>442</ele>
        <time>2018-02-10T12:22:04Z</time>
      </trkpt>
      <trkpt lat="45.54436" lon="3.25422">
        <ele>442</ele>
        <time>2018-02-10T12:22:08Z</time>
      </trkpt>
      <trkpt lat="45.54428" lon="3.25424">
        <ele>442</ele>
        <time>2018-02-10T12:22:11Z</time>
      </trkpt>
      <trkpt lat="45.54409" lon="3.25426">
        <ele>442</ele>
        <time>2018-02-10T12:22:14Z</time>
      </trkpt>
      <trkpt lat="45.54349" lon="3.25425">
        <ele>442</ele>
        <time>2018-02-10T12:22:18Z</time>
      </trkpt>
      <trkpt lat="45.54331" lon="3.2543">
        <ele>446</ele>
        <time>2018-02-10T12:22:21Z</time>
      </trkpt>
      <trkpt lat="45.54294" lon="3.25432">
        <ele>444</ele>
        <time>2018-02-10T12:22:25Z</time>
      </trkpt>
      <trkpt lat="45.54273" lon="3.25432">
        <ele>448</ele>
        <time>2018-02-10T12:22:28Z</time>
      </trkpt>
      <trkpt lat="45.54243" lon="3.25436">
        <ele>447</ele>
        <time>2018-02-10T12:22:32Z</time>
      </trkpt>
      <trkpt lat="45.5422" lon="3.25438">
        <ele>445</ele>
        <time>2018-02-10T12:22:35Z</time>
      </trkpt>
      <trkpt lat="45.54198" lon="3.25438">
        <ele>443</ele>
        <time>2018-02-10T12:22:38Z</time>
      </trkpt>
      <trkpt lat="45.54179" lon="3.25443">
        <ele>444</ele>
        <time>2018-02-10T12:22:41Z</time>
      </trkpt>
      <trkpt lat="45.5414" lon="3.25447">
        <ele>440</ele>
        <time>2018-02-10T12:22:45Z</time>
      </trkpt>
      <trkpt lat="45.54106" lon="3.25458">
        <ele>440</ele>
        <time>2018-02-10T12:22:48Z</time>
      </trkpt>
      <trkpt lat="45.54054" lon="3.25486">
        <ele>441</ele>
        <time>2018-02-10T12:22:52Z</time>
      </trkpt>
      <trkpt lat="45.54006" lon="3.25508">
        <ele>440</ele>
        <time>2018-02-10T12:22:55Z</time>
      </trkpt>
      <trkpt lat="45.53955" lon="3.25504">
        <ele>434</ele>
        <time>2018-02-10T12:22:59Z</time>
      </trkpt>
      <trkpt lat="45.53901" lon="3.25514">
        <ele>441</ele>
        <time>2018-02-10T12:23:02Z</time>
      </trkpt>
      <trkpt lat="45.53836" lon="3.25534">
        <ele>439</ele>
        <time>2018-02-10T12:23:06Z</time>
      </trkpt>
      <trkpt lat="45.53772" lon="3.25548">
        <ele>438</ele>
        <time>2018-02-10T12:23:10Z</time>
      </trkpt>
      <trkpt lat="45.53699" lon="3.2556">
        <ele>436</ele>
        <time>2018-02-10T12:23:14Z</time>
      </trkpt>
      <trkpt lat="45.53635" lon="3.25582">
        <ele>435</ele>
        <time>2018-02-10T12:23:17Z</time>
      </trkpt>
      <trkpt lat="45.53551" lon="3.25619">
        <ele>434</ele>
        <time>2018-02-10T12:23:21Z</time>
      </trkpt>
      <trkpt lat="45.53476" lon="3.25651">
        <ele>433</ele>
        <time>2018-02-10T12:23:24Z</time>
      </trkpt>
      <trkpt lat="45.53401" lon="3.25667">
        <ele>434</ele>
        <time>2018-02-10T12:23:27Z</time>
      </trkpt>
      <trkpt lat="45.53309" lon="3.25702">
        <ele>432</ele>
        <time>2018-02-10T12:23:31Z</time>
      </trkpt>
      <trkpt lat="45.53232" lon="3.25731">
        <ele>432</ele>
        <time>2018-02-10T12:23:34Z</time>
      </trkpt>
      <trkpt lat="45.53134" lon="3.25762">
        <ele>431</ele>
        <time>2018-02-10T12:23:38Z</time>
      </trkpt>
      <trkpt lat="45.5306" lon="3.25797">
        <ele>432</ele>
        <time>2018-02-10T12:23:41Z</time>
      </trkpt>
      <trkpt lat="45.52954" lon="3.25838">
        <ele>435</ele>
        <time>2018-02-10T12:23:45Z</time>
      </trkpt>
      <trkpt lat="45.5285" lon="3.25886">
        <ele>434</ele>
        <time>2018-02-10T12:23:49Z</time>
      </trkpt>
      <trkpt lat="45.52766" lon="3.25901">
        <ele>433</ele>
        <time>2018-02-10T12:23:52Z</time>
      </trkpt>
      <trkpt lat="45.5268" lon="3.25918">
        <ele>434</ele>
        <time>2018-02-10T12:23:55Z</time>
      </trkpt>
      <trkpt lat="45.52587" lon="3.25942">
        <ele>432</ele>
        <time>2018-02-10T12:23:58Z</time>
      </trkpt>
      <trkpt lat="45.5246" lon="3.25981">
        <ele>436</ele>
        <time>2018-02-10T12:24:02Z</time>
      </trkpt>
      <trkpt lat="45.52335" lon="3.26026">
        <ele>435</ele>
        <time>2018-02-10T12:24:06Z</time>
      </trkpt>
      <trkpt lat="45.52212" lon="3.26068">
        <ele>436</ele>
        <time>2018-02-10T12:24:10Z</time>
      </trkpt>
      <trkpt lat="45.52086" lon="3.26108">
        <ele>434</ele>
        <time>2018-02-10T12:24:14Z</time>
      </trkpt>
      <trkpt lat="45.51948" lon="3.26166">
        <ele>433</ele>
        <time>2018-02-10T12:24:18Z</time>
      </trkpt>
      <trkpt lat="45.51817" lon="3.26199">
        <ele>432</ele>
        <time>2018-02-10T12:24:22Z</time>
      </trkpt>
      <trkpt lat="45.51718" lon="3.26234">
        <ele>432</ele>
        <time>2018-02-10T12:24:25Z</time>
      </trkpt>
      <trkpt lat="45.51583" lon="3.26284">
        <ele>429</ele>
        <time>2018-02-10T12:24:29Z</time>
      </trkpt>
      <trkpt lat="45.51483" lon="3.26312">
        <ele>429</ele>
        <time>2018-02-10T12:24:32Z</time>
      </trkpt>
      <trkpt lat="45.51387" lon="3.26336">
        <ele>433</ele>
        <time>2018-02-10T12:24:35Z</time>
      </trkpt>
      <trkpt lat="45.51249" lon="3.26362">
        <ele>435</ele>
        <time>2018-02-10T12:24:39Z</time>
      </trkpt>
      <trkpt lat="45.51106" lon="3.26373">
        <ele>434</ele>
        <time>2018-02-10T12:24:43Z</time>
      </trkpt>
      <trkpt lat="45.50956" lon="3.26358">
        <ele>435</ele>
        <time>2018-02-10T12:24:47Z</time>
      </trkpt>
      <trkpt lat="45.50828" lon="3.26348">
        <ele>438</ele>
        <time>2018-02-10T12:24:51Z</time>
      </trkpt>
      <trkpt lat="45.50687" lon="3.26337">
        <ele>436</ele>
        <time>2018-02-10T12:24:55Z</time>
      </trkpt>
      <trkpt lat="45.50549" lon="3.26332">
        <ele>442</ele>
        <time>2018-02-10T12:24:59Z</time>
      </trkpt>
      <trkpt lat="45.50413" lon="3.26315">
        <ele>441</ele>
        <time>2018-02-10T12:25:03Z</time>
      </trkpt>
      <trkpt lat="45.50275" lon="3.26297">
        <ele>437</ele>
        <time>2018-02-10T12:25:07Z</time>
      </trkpt>
      <trkpt lat="45.50171" lon="3.26292">
        <ele>437</ele>
        <time>2018-02-10T12:25:10Z</time>
      </trkpt>
      <trkpt lat="45.50031" lon="3.26282">
        <ele>436</ele>
        <time>2018-02-10T12:25:14Z</time>
      </trkpt>
      <trkpt lat="45.49893" lon="3.26271">
        <ele>433</ele>
        <time>2018-02-10T12:25:18Z</time>
      </trkpt>
      <trkpt lat="45.49789" lon="3.26262">
        <ele>434</ele>
        <time>2018-02-10T12:25:21Z</time>
      </trkpt>
      <trkpt lat="45.49658" lon="3.26244">
        <ele>435</ele>
        <time>2018-02-10T12:25:25Z</time>
      </trkpt>
      <trkpt lat="45.49553" lon="3.26238">
        <ele>436</ele>
        <time>2018-02-10T12:25:28Z</time>
      </trkpt>
      <trkpt lat="45.49417" lon="3.26224">
        <ele>436</ele>
        <time>2018-02-10T12:25:32Z</time>
      </trkpt>
      <trkpt lat="45.49316" lon="3.26211">
        <ele>437</ele>
        <time>2018-02-10T12:25:35Z</time>
      </trkpt>
      <trkpt lat="45.49184" lon="3.26198">
        <ele>433</ele>
        <time>2018-02-10T12:25:39Z</time>
      </trkpt>
      <trkpt lat="45.49079" lon="3.26194">
        <ele>433</ele>
        <time>2018-02-10T12:25:42Z</time>
      </trkpt>
      <trkpt lat="45.48947" lon="3.26183">
        <ele>432</ele>
        <time>2018-02-10T12:25:46Z</time>
      </trkpt>
      <trkpt lat="45.48808" lon="3.26172">
        <ele>428</ele>
        <time>2018-02-10T12:25:50Z</time>
      </trkpt>
      <trkpt lat="45.48676" lon="3.26156">
        <ele>429</ele>
        <time>2018-02-10T12:25:54Z</time>
      </trkpt>
      <trkpt lat="45.48543" lon="3.26143">
        <ele>435</ele>
        <time>2018-02-10T12:25:58Z</time>
      </trkpt>
      <trkpt lat="45.48445" lon="3.26132">
        <ele>435</ele>
        <time>2018-02-10T12:26:01Z</time>
      </trkpt>
      <trkpt lat="45.48315" lon="3.26118">
        <ele>437</ele>
        <time>2018-02-10T12:26:05Z</time>
      </trkpt>
      <trkpt lat="45.48221" lon="3.26109">
        <ele>439</ele>
        <time>2018-02-10T12:26:08Z</time>
      </trkpt>
      <trkpt lat="45.48104" lon="3.26092">
        <ele>445</ele>
        <time>2018-02-10T12:26:12Z</time>
      </trkpt>
      <trkpt lat="45.47984" lon="3.26071">
        <ele>444</ele>
        <time>2018-02-10T12:26:16Z</time>
      </trkpt>
      <trkpt lat="45.47877" lon="3.26043">
        <ele>442</ele>
        <time>2018-02-10T12:26:20Z</time>
      </trkpt>
      <trkpt lat="45.47796" lon="3.26026">
        <ele>441</ele>
        <time>2018-02-10T12:26:23Z</time>
      </trkpt>
      <trkpt lat="45.47727" lon="3.26007">
        <ele>443</ele>
        <time>2018-02-10T12:26:26Z</time>
      </trkpt>
      <trkpt lat="45.47632" lon="3.25981">
        <ele>442</ele>
        <time>2018-02-10T12:26:30Z</time>
      </trkpt>
      <trkpt lat="45.47535" lon="3.2596">
        <ele>443</ele>
        <time>2018-02-10T12:26:34Z</time>
      </trkpt>
      <trkpt lat="45.47443" lon="3.2594">
        <ele>444</ele>
        <time>2018-02-10T12:26:38Z</time>
      </trkpt>
      <trkpt lat="45.47375" lon="3.25927">
        <ele>443</ele>
        <time>2018-02-10T12:26:41Z</time>
      </trkpt>
      <trkpt lat="45.47285" lon="3.25947">
        <ele>443</ele>
        <time>2018-02-10T12:26:45Z</time>
      </trkpt>
      <trkpt lat="45.47218" lon="3.25978">
        <ele>446</ele>
        <time>2018-02-10T12:26:48Z</time>
      </trkpt>
      <trkpt lat="45.47144" lon="3.26009">
        <ele>443</ele>
        <time>2018-02-10T12:26:51Z</time>
      </trkpt>
      <trkpt lat="45.4706" lon="3.26052">
        <ele>444</ele>
        <time>2018-02-10T12:26:55Z</time>
      </trkpt>
      <trkpt lat="45.46976" lon="3.26093">
        <ele>447</ele>
        <time>2018-02-10T12:26:59Z</time>
      </trkpt>
      <trkpt lat="45.46913" lon="3.26125">
        <ele>446</ele>
        <time>2018-02-10T12:27:02Z</time>
      </trkpt>
      <trkpt lat="45.46823" lon="3.2616">
        <ele>446</ele>
        <time>2018-02-10T12:27:06Z</time>
      </trkpt>
      <trkpt lat="45.4676" lon="3.26195">
        <ele>444</ele>
        <time>2018-02-10T12:27:09Z</time>
      </trkpt>
      <trkpt lat="45.46671" lon="3.2624">
        <ele>445</ele>
        <time>2018-02-10T12:27:13Z</time>
      </trkpt>
      <trkpt lat="45.46583" lon="3.26282">
        <ele>446</ele>
        <time>2018-02-10T12:27:17Z</time>
      </trkpt>
      <trkpt lat="45.46498" lon="3.26316">
        <ele>447</ele>
        <time>2018-02-10T12:27:21Z</time>
      </trkpt>
      <trkpt lat="45.46431" lon="3.26367">
        <ele>448</ele>
        <time>2018-02-10T12:27:24Z</time>
      </trkpt>
      <trkpt lat="45.46367" lon="3.2645">
        <ele>446</ele>
        <time>2018-02-10T12:27:28Z</time>
      </trkpt>
      <trkpt lat="45.46312" lon="3.26574">
        <ele>447</ele>
        <time>2018-02-10T12:27:32Z</time>
      </trkpt>
      <trkpt lat="45.46299" lon="3.26669">
        <ele>446</ele>
        <time>2018-02-10T12:27:35Z</time>
      </trkpt>
      <trkpt lat="45.46291" lon="3.268">
        <ele>444</ele>
        <time>2018-02-10T12:27:39Z</time>
      </trkpt>
      <trkpt lat="45.4629" lon="3.26937">
        <ele>445</ele>
        <time>2018-02-10T12:27:43Z</time>
      </trkpt>
      <trkpt lat="45.46285" lon="3.2704">
        <ele>446</ele>
        <time>2018-02-10T12:27:46Z</time>
      </trkpt>
      <trkpt lat="45.46278" lon="3.27142">
        <ele>447</ele>
        <time>2018-02-10T12:27:49Z</time>
      </trkpt>
      <trkpt lat="45.46284" lon="3.27285">
        <ele>448</ele>
        <time>2018-02-10T12:27:53Z</time>
      </trkpt>
      <trkpt lat="45.46274" lon="3.27394">
        <ele>450</ele>
        <time>2018-02-10T12:27:56Z</time>
      </trkpt>
      <trkpt lat="45.46276" lon="3.27483">
        <ele>453</ele>
        <time>2018-02-10T12:27:59Z</time>
      </trkpt>
      <trkpt lat="45.46274" lon="3.27617">
        <ele>454</ele>
        <time>2018-02-10T12:28:03Z</time>
      </trkpt>
      <trkpt lat="45.46272" lon="3.27755">
        <ele>454</ele>
        <time>2018-02-10T12:28:07Z</time>
      </trkpt>
      <trkpt lat="45.46263" lon="3.27856">
        <ele>453</ele>
        <time>2018-02-10T12:28:10Z</time>
      </trkpt>
      <trkpt lat="45.46256" lon="3.27987">
        <ele>455</ele>
        <time>2018-02-10T12:28:14Z</time>
      </trkpt>
      <trkpt lat="45.46265" lon="3.2812">
        <ele>457</ele>
        <time>2018-02-10T12:28:18Z</time>
      </trkpt>
      <trkpt lat="45.46261" lon="3.28258">
        <ele>457</ele>
        <time>2018-02-10T12:28:22Z</time>
      </trkpt>
      <trkpt lat="45.46263" lon="3.28351">
        <ele>456</ele>
        <time>2018-02-10T12:28:25Z</time>
      </trkpt>
      <trkpt lat="45.46258" lon="3.28451">
        <ele>455</ele>
        <time>2018-02-10T12:28:28Z</time>
      </trkpt>
      <trkpt lat="45.46253" lon="3.28578">
        <ele>452</ele>
        <time>2018-02-10T12:28:32Z</time>
      </trkpt>
      <trkpt lat="45.46252" lon="3.28708">
        <ele>455</ele>
        <time>2018-02-10T12:28:36Z</time>
      </trkpt>
      <trkpt lat="45.46247" lon="3.28808">
        <ele>452</ele>
        <time>2018-02-10T12:28:39Z</time>
      </trkpt>
      <trkpt lat="45.46246" lon="3.28932">
        <ele>451</ele>
        <time>2018-02-10T12:28:43Z</time>
      </trkpt>
      <trkpt lat="45.46238" lon="3.29065">
        <ele>453</ele>
        <time>2018-02-10T12:28:47Z</time>
      </trkpt>
      <trkpt lat="45.46236" lon="3.29162">
        <ele>450</ele>
        <time>2018-02-10T12:28:50Z</time>
      </trkpt>
      <trkpt lat="45.46236" lon="3.29259">
        <ele>451</ele>
        <time>2018-02-10T12:28:53Z</time>
      </trkpt>
      <trkpt lat="45.46226" lon="3.29389">
        <ele>449</ele>
        <time>2018-02-10T12:28:57Z</time>
      </trkpt>
      <trkpt lat="45.46209" lon="3.2952">
        <ele>447</ele>
        <time>2018-02-10T12:29:01Z</time>
      </trkpt>
      <trkpt lat="45.46171" lon="3.29639">
        <ele>447</ele>
        <time>2018-02-10T12:29:05Z</time>
      </trkpt>
      <trkpt lat="45.46118" lon="3.29744">
        <ele>443</ele>
        <time>2018-02-10T12:29:09Z</time>
      </trkpt>
      <trkpt lat="45.46055" lon="3.29853">
        <ele>443</ele>
        <time>2018-02-10T12:29:13Z</time>
      </trkpt>
      <trkpt lat="45.46002" lon="3.29925">
        <ele>444</ele>
        <time>2018-02-10T12:29:16Z</time>
      </trkpt>
      <trkpt lat="45.45926" lon="3.29995">
        <ele>446</ele>
        <time>2018-02-10T12:29:20Z</time>
      </trkpt>
      <trkpt lat="45.4586" lon="3.30028">
        <ele>446</ele>
        <time>2018-02-10T12:29:23Z</time>
      </trkpt>
      <trkpt lat="45.45795" lon="3.30061">
        <ele>447</ele>
        <time>2018-02-10T12:29:26Z</time>
      </trkpt>
      <trkpt lat="45.45724" lon="3.3009">
        <ele>446</ele>
        <time>2018-02-10T12:29:29Z</time>
      </trkpt>
      <trkpt lat="45.45629" lon="3.30122">
        <ele>447</ele>
        <time>2018-02-10T12:29:33Z</time>
      </trkpt>
      <trkpt lat="45.45523" lon="3.30163">
        <ele>449</ele>
        <time>2018-02-10T12:29:37Z</time>
      </trkpt>
      <trkpt lat="45.45429" lon="3.30174">
        <ele>450</ele>
        <time>2018-02-10T12:29:41Z</time>
      </trkpt>
      <trkpt lat="45.45359" lon="3.30191">
        <ele>450</ele>
        <time>2018-02-10T12:29:44Z</time>
      </trkpt>
      <trkpt lat="45.45278" lon="3.30232">
        <ele>452</ele>
        <time>2018-02-10T12:29:48Z</time>
      </trkpt>
      <trkpt lat="45.45214" lon="3.30267">
        <ele>453</ele>
        <time>2018-02-10T12:29:51Z</time>
      </trkpt>
      <trkpt lat="45.45153" lon="3.30368">
        <ele>454</ele>
        <time>2018-02-10T12:29:55Z</time>
      </trkpt>
      <trkpt lat="45.45095" lon="3.30457">
        <ele>453</ele>
        <time>2018-02-10T12:29:58Z</time>
      </trkpt>
      <trkpt lat="45.45026" lon="3.30544">
        <ele>453</ele>
        <time>2018-02-10T12:30:02Z</time>
      </trkpt>
      <trkpt lat="45.44951" lon="3.30608">
        <ele>453</ele>
        <time>2018-02-10T12:30:06Z</time>
      </trkpt>
      <trkpt lat="45.44896" lon="3.30696">
        <ele>453</ele>
        <time>2018-02-10T12:30:10Z</time>
      </trkpt>
      <trkpt lat="45.44844" lon="3.30778">
        <ele>453</ele>
        <time>2018-02-10T12:30:14Z</time>
      </trkpt>
      <trkpt lat="45.448" lon="3.3091">
        <ele>454</ele>
        <time>2018-02-10T12:30:18Z</time>
      </trkpt>
      <trkpt lat="45.44738" lon="3.31033">
        <ele>458</ele>
        <time>2018-02-10T12:30:22Z</time>
      </trkpt>
      <trkpt lat="45.44656" lon="3.31096">
        <ele>458</ele>
        <time>2018-02-10T12:30:26Z</time>
      </trkpt>
      <trkpt lat="45.44603" lon="3.31113">
        <ele>454</ele>
        <time>2018-02-10T12:30:29Z</time>
      </trkpt>
      <trkpt lat="45.44532" lon="3.31136">
        <ele>453</ele>
        <time>2018-02-10T12:30:32Z</time>
      </trkpt>
      <trkpt lat="45.44471" lon="3.31214">
        <ele>452</ele>
        <time>2018-02-10T12:30:36Z</time>
      </trkpt>
      <trkpt lat="45.44429" lon="3.31317">
        <ele>457</ele>
        <time>2018-02-10T12:30:40Z</time>
      </trkpt>
      <trkpt lat="45.44398" lon="3.31429">
        <ele>458</ele>
        <time>2018-02-10T12:30:44Z</time>
      </trkpt>
      <trkpt lat="45.44375" lon="3.31511">
        <ele>459</ele>
        <time>2018-02-10T12:30:47Z</time>
      </trkpt>
      <trkpt lat="45.44351" lon="3.31594">
        <ele>460</ele>
        <time>2018-02-10T12:30:50Z</time>
      </trkpt>
      <trkpt lat="45.44324" lon="3.31702">
        <ele>459</ele>
        <time>2018-02-10T12:30:54Z</time>
      </trkpt>
      <trkpt lat="45.44295" lon="3.31813">
        <ele>460</ele>
        <time>2018-02-10T12:30:58Z</time>
      </trkpt>
      <trkpt lat="45.44265" lon="3.31928">
        <ele>462</ele>
        <time>2018-02-10T12:31:02Z</time>
      </trkpt>
      <trkpt lat="45.44233" lon="3.32043">
        <ele>465</ele>
        <time>2018-02-10T12:31:06Z</time>
      </trkpt>
      <trkpt lat="45.44203" lon="3.32153">
        <ele>465</ele>
        <time>2018-02-10T12:31:10Z</time>
      </trkpt>
      <trkpt lat="45.44178" lon="3.32236">
        <ele>463</ele>
        <time>2018-02-10T12:31:13Z</time>
      </trkpt>
      <trkpt lat="45.44138" lon="3.32345">
        <ele>466</ele>
        <time>2018-02-10T12:31:17Z</time>
      </trkpt>
      <trkpt lat="45.44104" lon="3.3242">
        <ele>469</ele>
        <time>2018-02-10T12:31:20Z</time>
      </trkpt>
      <trkpt lat="45.44062" lon="3.32485">
        <ele>467</ele>
        <time>2018-02-10T12:31:23Z</time>
      </trkpt>
      <trkpt lat="45.43997" lon="3.32572">
        <ele>462</ele>
        <time>2018-02-10T12:31:27Z</time>
      </trkpt>
      <trkpt lat="45.43951" lon="3.32635">
        <ele>464</ele>
        <time>2018-02-10T12:31:30Z</time>
      </trkpt>
      <trkpt lat="45.439" lon="3.32727">
        <ele>465</ele>
        <time>2018-02-10T12:31:34Z</time>
      </trkpt>
      <trkpt lat="45.43846" lon="3.32795">
        <ele>466</ele>
        <time>2018-02-10T12:31:37Z</time>
      </trkpt>
      <trkpt lat="45.4379" lon="3.32862">
        <ele>466</ele>
        <time>2018-02-10T12:31:41Z</time>
      </trkpt>
      <trkpt lat="45.43713" lon="3.32945">
        <ele>465</ele>
        <time>2018-02-10T12:31:45Z</time>
      </trkpt>
      <trkpt lat="45.43633" lon="3.33013">
        <ele>466</ele>
        <time>2018-02-10T12:31:49Z</time>
      </trkpt>
      <trkpt lat="45.43566" lon="3.33076">
        <ele>469</ele>
        <time>2018-02-10T12:31:53Z</time>
      </trkpt>
      <trkpt lat="45.43489" lon="3.33149">
        <ele>469</ele>
        <time>2018-02-10T12:31:57Z</time>
      </trkpt>
      <trkpt lat="45.43413" lon="3.33217">
        <ele>469</ele>
        <time>2018-02-10T12:32:01Z</time>
      </trkpt>
      <trkpt lat="45.43339" lon="3.33287">
        <ele>471</ele>
        <time>2018-02-10T12:32:05Z</time>
      </trkpt>
      <trkpt lat="45.43248" lon="3.33354">
        <ele>472</ele>
        <time>2018-02-10T12:32:09Z</time>
      </trkpt>
      <trkpt lat="45.43157" lon="3.33368">
        <ele>471</ele>
        <time>2018-02-10T12:32:13Z</time>
      </trkpt>
      <trkpt lat="45.43085" lon="3.33374">
        <ele>469</ele>
        <time>2018-02-10T12:32:16Z</time>
      </trkpt>
      <trkpt lat="45.42988" lon="3.33365">
        <ele>467</ele>
        <time>2018-02-10T12:32:20Z</time>
      </trkpt>
      <trkpt lat="45.42889" lon="3.33358">
        <ele>465</ele>
        <time>2018-02-10T12:32:24Z</time>
      </trkpt>
      <trkpt lat="45.42818" lon="3.33348">
        <ele>464</ele>
        <time>2018-02-10T12:32:27Z</time>
      </trkpt>
      <trkpt lat="45.42748" lon="3.33337">
        <ele>461</ele>
        <time>2018-02-10T12:32:30Z</time>
      </trkpt>
      <trkpt lat="45.42652" lon="3.33326">
        <ele>463</ele>
        <time>2018-02-10T12:32:34Z</time>
      </trkpt>
      <trkpt lat="45.42557" lon="3.33312">
        <ele>464</ele>
        <time>2018-02-10T12:32:38Z</time>
      </trkpt>
      <trkpt lat="45.42489" lon="3.33301">
        <ele>465</ele>
        <time>2018-02-10T12:32:41Z</time>
      </trkpt>
      <trkpt lat="45.42397" lon="3.33299">
        <ele>464</ele>
        <time>2018-02-10T12:32:45Z</time>
      </trkpt>
      <trkpt lat="45.42334" lon="3.33312">
        <ele>463</ele>
        <time>2018-02-10T12:32:48Z</time>
      </trkpt>
      <trkpt lat="45.4227" lon="3.33346">
        <ele>463</ele>
        <time>2018-02-10T12:32:51Z</time>
      </trkpt>
      <trkpt lat="45.42174" lon="3.33398">
        <ele>463</ele>
        <time>2018-02-10T12:32:55Z</time>
      </trkpt>
      <trkpt lat="45.4209" lon="3.33439">
        <ele>461</ele>
        <time>2018-02-10T12:32:59Z</time>
      </trkpt>
      <trkpt lat="45.42019" lon="3.33462">
        <ele>465</ele>
        <time>2018-02-10T12:33:02Z</time>
      </trkpt>
      <trkpt lat="45.4193" lon="3.33502">
        <ele>464</ele>
        <time>2018-02-10T12:33:06Z</time>
      </trkpt>
      <trkpt lat="45.41862" lon="3.33528">
        <ele>459</ele>
        <time>2018-02-10T12:33:09Z</time>
      </trkpt>
      <trkpt lat="45.41768" lon="3.3354">
        <ele>457</ele>
        <time>2018-02-10T12:33:13Z</time>
      </trkpt>
      <trkpt lat="45.41679" lon="3.33521">
        <ele>461</ele>
        <time>2018-02-10T12:33:17Z</time>
      </trkpt>
      <trkpt lat="45.41622" lon="3.33471">
        <ele>456</ele>
        <time>2018-02-10T12:33:20Z</time>
      </trkpt>
      <trkpt lat="45.41561" lon="3.33395">
        <ele>464</ele>
        <time>2018-02-10T12:33:24Z</time>
      </trkpt>
      <trkpt lat="45.41513" lon="3.33332">
        <ele>464</ele>
        <time>2018-02-10T12:33:27Z</time>
      </trkpt>
      <trkpt lat="45.41484" lon="3.33247">
        <ele>466</ele>
        <time>2018-02-10T12:33:31Z</time>
      </trkpt>
      <trkpt lat="45.41456" lon="3.33168">
        <ele>463</ele>
        <time>2018-02-10T12:33:35Z</time>
      </trkpt>
      <trkpt lat="45.41439" lon="3.331">
        <ele>465</ele>
        <time>2018-02-10T12:33:39Z</time>
      </trkpt>
      <trkpt lat="45.41419" lon="3.33061">
        <ele>466</ele>
        <time>2018-02-10T12:33:42Z</time>
      </trkpt>
      <trkpt lat="45.41407" lon="3.33013">
        <ele>467</ele>
        <time>2018-02-10T12:33:46Z</time>
      </trkpt>
      <trkpt lat="45.41396" lon="3.32992">
        <ele>469</ele>
        <time>2018-02-10T12:33:49Z</time>
      </trkpt>
      <trkpt lat="45.41377" lon="3.3297">
        <ele>466</ele>
        <time>2018-02-10T12:33:53Z</time>
      </trkpt>
      <trkpt lat="45.41369" lon="3.32963">
        <ele>467</ele>
        <time>2018-02-10T12:33:56Z</time>
      </trkpt>
      <trkpt lat="45.41378" lon="3.32963">
        <ele>466</ele>
        <time>2018-02-10T12:33:59Z</time>
      </trkpt>
      <trkpt lat="45.4138" lon="3.32964">
        <ele>465</ele>
        <time>2018-02-10T12:34:03Z</time>
      </trkpt>
      <trkpt lat="45.41381" lon="3.32964">
        <ele>464</ele>
        <time>2018-02-10T12:34:06Z</time>
      </trkpt>
      <trkpt lat="45.41382" lon="3.32965">
        <ele>464</ele>
        <time>2018-02-10T12:34:09Z</time>
      </trkpt>
      <trkpt lat="45.41382" lon="3.32965">
        <ele>464</ele>
        <time>2018-02-10T12:34:12Z</time>
      </trkpt>
      <trkpt lat="45.41382" lon="3.32966">
        <ele>464</ele>
        <time>2018-02-10T12:34:16Z</time>
      </trkpt>
      <trkpt lat="45.41382" lon="3.32966">
        <ele>464</ele>
        <time>2018-02-10T12:34:20Z</time>
      </trkpt>
      <trkpt lat="45.41383" lon="3.32966">
        <ele>465</ele>
        <time>2018-02-10T12:34:24Z</time>
      </trkpt>
      <trkpt lat="45.41383" lon="3.32966">
        <ele>465</ele>
        <time>2018-02-10T12:34:28Z</time>
      </trkpt>
      <trkpt lat="45.41383" lon="3.32965">
        <ele>465</ele>
        <time>2018-02-10T12:34:32Z</time>
      </trkpt>
      <trkpt lat="45.41382" lon="3.32963">
        <ele>465</ele>
        <time>2018-02-10T12:34:35Z</time>
      </trkpt>
      <trkpt lat="45.4137" lon="3.3293">
        <ele>463</ele>
        <time>2018-02-10T12:34:39Z</time>
      </trkpt>
      <trkpt lat="45.41352" lon="3.32885">
        <ele>462</ele>
        <time>2018-02-10T12:34:43Z</time>
      </trkpt>
      <trkpt lat="45.41338" lon="3.32844">
        <ele>462</ele>
        <time>2018-02-10T12:34:46Z</time>
      </trkpt>
      <trkpt lat="45.41318" lon="3.32813">
        <ele>461</ele>
        <time>2018-02-10T12:34:49Z</time>
      </trkpt>
      <trkpt lat="45.41296" lon="3.3276">
        <ele>457</ele>
        <time>2018-02-10T12:34:52Z</time>
      </trkpt>
      <trkpt lat="45.41254" lon="3.32696">
        <ele>451</ele>
        <time>2018-02-10T12:34:56Z</time>
      </trkpt>
      <trkpt lat="45.41213" lon="3.32629">
        <ele>456</ele>
        <time>2018-02-10T12:35:00Z</time>
      </trkpt>
      <trkpt lat="45.41169" lon="3.32601">
        <ele>459</ele>
        <time>2018-02-10T12:35:03Z</time>
      </trkpt>
      <trkpt lat="45.41097" lon="3.32582">
        <ele>457</ele>
        <time>2018-02-10T12:35:07Z</time>
      </trkpt>
      <trkpt lat="45.41023" lon="3.32567">
        <ele>456</ele>
        <time>2018-02-10T12:35:11Z</time>
      </trkpt>
      <trkpt lat="45.40961" lon="3.32565">
        <ele>458</ele>
        <time>2018-02-10T12:35:14Z</time>
      </trkpt>
      <trkpt lat="45.40899" lon="3.32562">
        <ele>457</ele>
        <time>2018-02-10T12:35:17Z</time>
      </trkpt>
      <trkpt lat="45.40811" lon="3.32559">
        <ele>458</ele>
        <time>2018-02-10T12:35:21Z</time>
      </trkpt>
      <trkpt lat="45.4074" lon="3.32561">
        <ele>459</ele>
        <time>2018-02-10T12:35:24Z</time>
      </trkpt>
      <trkpt lat="45.40672" lon="3.32564">
        <ele>459</ele>
        <time>2018-02-10T12:35:27Z</time>
      </trkpt>
      <trkpt lat="45.40574" lon="3.3258">
        <ele>459</ele>
        <time>2018-02-10T12:35:31Z</time>
      </trkpt>
      <trkpt lat="45.40473" lon="3.32603">
        <ele>459</ele>
        <time>2018-02-10T12:35:35Z</time>
      </trkpt>
      <trkpt lat="45.40397" lon="3.32625">
        <ele>463</ele>
        <time>2018-02-10T12:35:38Z</time>
      </trkpt>
      <trkpt lat="45.40325" lon="3.32641">
        <ele>462</ele>
        <time>2018-02-10T12:35:41Z</time>
      </trkpt>
      <trkpt lat="45.4021" lon="3.32678">
        <ele>464</ele>
        <time>2018-02-10T12:35:45Z</time>
      </trkpt>
      <trkpt lat="45.40129" lon="3.32702">
        <ele>464</ele>
        <time>2018-02-10T12:35:48Z</time>
      </trkpt>
      <trkpt lat="45.40024" lon="3.32747">
        <ele>462</ele>
        <time>2018-02-10T12:35:52Z</time>
      </trkpt>
      <trkpt lat="45.39908" lon="3.32728">
        <ele>465</ele>
        <time>2018-02-10T12:35:56Z</time>
      </trkpt>
      <trkpt lat="45.39801" lon="3.32712">
        <ele>465</ele>
        <time>2018-02-10T12:36:00Z</time>
      </trkpt>
      <trkpt lat="45.39699" lon="3.32655">
        <ele>462</ele>
        <time>2018-02-10T12:36:04Z</time>
      </trkpt>
      <trkpt lat="45.39622" lon="3.32613">
        <ele>460</ele>
        <time>2018-02-10T12:36:07Z</time>
      </trkpt>
      <trkpt lat="45.39544" lon="3.32572">
        <ele>461</ele>
        <time>2018-02-10T12:36:10Z</time>
      </trkpt>
      <trkpt lat="45.39468" lon="3.32535">
        <ele>461</ele>
        <time>2018-02-10T12:36:13Z</time>
      </trkpt>
      <trkpt lat="45.39366" lon="3.32481">
        <ele>463</ele>
        <time>2018-02-10T12:36:17Z</time>
      </trkpt>
      <trkpt lat="45.39291" lon="3.32438">
        <ele>462</ele>
        <time>2018-02-10T12:36:20Z</time>
      </trkpt>
      <trkpt lat="45.39212" lon="3.32396">
        <ele>463</ele>
        <time>2018-02-10T12:36:23Z</time>
      </trkpt>
      <trkpt lat="45.39108" lon="3.32342">
        <ele>462</ele>
        <time>2018-02-10T12:36:27Z</time>
      </trkpt>
      <trkpt lat="45.39011" lon="3.32286">
        <ele>460</ele>
        <time>2018-02-10T12:36:31Z</time>
      </trkpt>
      <trkpt lat="45.38903" lon="3.32236">
        <ele>460</ele>
        <time>2018-02-10T12:36:35Z</time>
      </trkpt>
      <trkpt lat="45.38807" lon="3.32171">
        <ele>463</ele>
        <time>2018-02-10T12:36:39Z</time>
      </trkpt>
      <trkpt lat="45.38744" lon="3.32109">
        <ele>463</ele>
        <time>2018-02-10T12:36:42Z</time>
      </trkpt>
      <trkpt lat="45.38652" lon="3.32022">
        <ele>461</ele>
        <time>2018-02-10T12:36:46Z</time>
      </trkpt>
      <trkpt lat="45.38568" lon="3.3193">
        <ele>459</ele>
        <time>2018-02-10T12:36:50Z</time>
      </trkpt>
      <trkpt lat="45.38509" lon="3.31865">
        <ele>458</ele>
        <time>2018-02-10T12:36:53Z</time>
      </trkpt>
      <trkpt lat="45.38429" lon="3.3178">
        <ele>460</ele>
        <time>2018-02-10T12:36:57Z</time>
      </trkpt>
      <trkpt lat="45.38364" lon="3.31715">
        <ele>461</ele>
        <time>2018-02-10T12:37:00Z</time>
      </trkpt>
      <trkpt lat="45.38276" lon="3.31645">
        <ele>466</ele>
        <time>2018-02-10T12:37:04Z</time>
      </trkpt>
      <trkpt lat="45.38188" lon="3.31582">
        <ele>469</ele>
        <time>2018-02-10T12:37:08Z</time>
      </trkpt>
      <trkpt lat="45.38124" lon="3.31549">
        <ele>470</ele>
        <time>2018-02-10T12:37:11Z</time>
      </trkpt>
      <trkpt lat="45.38056" lon="3.31519">
        <ele>468</ele>
        <time>2018-02-10T12:37:14Z</time>
      </trkpt>
      <trkpt lat="45.3799" lon="3.31498">
        <ele>465</ele>
        <time>2018-02-10T12:37:17Z</time>
      </trkpt>
      <trkpt lat="45.37901" lon="3.31476">
        <ele>467</ele>
        <time>2018-02-10T12:37:21Z</time>
      </trkpt>
      <trkpt lat="45.37813" lon="3.31456">
        <ele>470</ele>
        <time>2018-02-10T12:37:25Z</time>
      </trkpt>
      <trkpt lat="45.37755" lon="3.31447">
        <ele>472</ele>
        <time>2018-02-10T12:37:28Z</time>
      </trkpt>
      <trkpt lat="45.37698" lon="3.31429">
        <ele>470</ele>
        <time>2018-02-10T12:37:31Z</time>
      </trkpt>
      <trkpt lat="45.37623" lon="3.31408">
        <ele>472</ele>
        <time>2018-02-10T12:37:35Z</time>
      </trkpt>
      <trkpt lat="45.37551" lon="3.31391">
        <ele>475</ele>
        <time>2018-02-10T12:37:39Z</time>
      </trkpt>
      <trkpt lat="45.37481" lon="3.31369">
        <ele>476</ele>
        <time>2018-02-10T12:37:43Z</time>
      </trkpt>
      <trkpt lat="45.3741" lon="3.31354">
        <ele>477</ele>
        <time>2018-02-10T12:37:47Z</time>
      </trkpt>
      <trkpt lat="45.37352" lon="3.31339">
        <ele>477</ele>
        <time>2018-02-10T12:37:50Z</time>
      </trkpt>
      <trkpt lat="45.37287" lon="3.31317">
        <ele>477</ele>
        <time>2018-02-10T12:37:54Z</time>
      </trkpt>
      <trkpt lat="45.37237" lon="3.31309">
        <ele>474</ele>
        <time>2018-02-10T12:37:57Z</time>
      </trkpt>
      <trkpt lat="45.37172" lon="3.31291">
        <ele>476</ele>
        <time>2018-02-10T12:38:01Z</time>
      </trkpt>
      <trkpt lat="45.37128" lon="3.31268">
        <ele>475</ele>
        <time>2018-02-10T12:38:04Z</time>
      </trkpt>
      <trkpt lat="45.37075" lon="3.31259">
        <ele>474</ele>
        <time>2018-02-10T12:38:07Z</time>
      </trkpt>
      <trkpt lat="45.37028" lon="3.31251">
        <ele>474</ele>
        <time>2018-02-10T12:38:10Z</time>
      </trkpt>
      <trkpt lat="45.36969" lon="3.31234">
        <ele>474</ele>
        <time>2018-02-10T12:38:14Z</time>
      </trkpt>
      <trkpt lat="45.36916" lon="3.31221">
        <ele>478</ele>
        <time>2018-02-10T12:38:18Z</time>
      </trkpt>
      <trkpt lat="45.3688" lon="3.31212">
        <ele>477</ele>
        <time>2018-02-10T12:38:21Z</time>
      </trkpt>
      <trkpt lat="45.36836" lon="3.31193">
        <ele>478</ele>
        <time>2018-02-10T12:38:25Z</time>
      </trkpt>
      <trkpt lat="45.36788" lon="3.31181">
        <ele>478</ele>
        <time>2018-02-10T12:38:29Z</time>
      </trkpt>
      <trkpt lat="45.36753" lon="3.31162">
        <ele>478</ele>
        <time>2018-02-10T12:38:33Z</time>
      </trkpt>
      <trkpt lat="45.36724" lon="3.31148">
        <ele>480</ele>
        <time>2018-02-10T12:38:37Z</time>
      </trkpt>
      <trkpt lat="45.36695" lon="3.31138">
        <ele>479</ele>
        <time>2018-02-10T12:38:41Z</time>
      </trkpt>
      <trkpt lat="45.36674" lon="3.3113">
        <ele>477</ele>
        <time>2018-02-10T12:38:44Z</time>
      </trkpt>
      <trkpt lat="45.36656" lon="3.31121">
        <ele>478</ele>
        <time>2018-02-10T12:38:47Z</time>
      </trkpt>
      <trkpt lat="45.36625" lon="3.31109">
        <ele>480</ele>
        <time>2018-02-10T12:38:51Z</time>
      </trkpt>
      <trkpt lat="45.36607" lon="3.31103">
        <ele>478</ele>
        <time>2018-02-10T12:38:54Z</time>
      </trkpt>
      <trkpt lat="45.36591" lon="3.31099">
        <ele>481</ele>
        <time>2018-02-10T12:38:57Z</time>
      </trkpt>
      <trkpt lat="45.36569" lon="3.31091">
        <ele>483</ele>
        <time>2018-02-10T12:39:01Z</time>
      </trkpt>
      <trkpt lat="45.36558" lon="3.31085">
        <ele>484</ele>
        <time>2018-02-10T12:39:04Z</time>
      </trkpt>
      <trkpt lat="45.36555" lon="3.3108">
        <ele>485</ele>
        <time>2018-02-10T12:39:07Z</time>
      </trkpt>
      <trkpt lat="45.36555" lon="3.31079">
        <ele>485</ele>
        <time>2018-02-10T12:39:10Z</time>
      </trkpt>
      <trkpt lat="45.36556" lon="3.3108">
        <ele>486</ele>
        <time>2018-02-10T12:39:14Z</time>
      </trkpt>
      <trkpt lat="45.36555" lon="3.3108">
        <ele>486</ele>
        <time>2018-02-10T12:39:17Z</time>
      </trkpt>
      <trkpt lat="45.36554" lon="3.3108">
        <ele>486</ele>
        <time>2018-02-10T12:39:21Z</time>
      </trkpt>
      <trkpt lat="45.36556" lon="3.3108">
        <ele>485</ele>
        <time>2018-02-10T12:39:24Z</time>
      </trkpt>
      <trkpt lat="45.36556" lon="3.31079">
        <ele>485</ele>
        <time>2018-02-10T12:39:28Z</time>
      </trkpt>
      <trkpt lat="45.36556" lon="3.31079">
        <ele>485</ele>
        <time>2018-02-10T12:39:32Z</time>
      </trkpt>
      <trkpt lat="45.36556" lon="3.31079">
        <ele>485</ele>
        <time>2018-02-10T12:39:36Z</time>
      </trkpt>
      <trkpt lat="45.36556" lon="3.31079">
        <ele>485</ele>
        <time>2018-02-10T12:39:39Z</time>
      </trkpt>
      <trkpt lat="45.36556" lon="3.31079">
        <ele>485</ele>
        <time>2018-02-10T12:39:42Z</time>
      </trkpt>
      <trkpt lat="45.36556" lon="3.31079">
        <ele>485</ele>
        <time>2018-02-10T12:39:46Z</time>
      </trkpt>
      <trkpt lat="45.36556" lon="3.31079">
        <ele>485</ele>
        <time>2018-02-10T12:39:49Z</time>
      </trkpt>
      <trkpt lat="45.36556" lon="3.31079">
        <ele>485</ele>
        <time>2018-02-10T12:39:53Z</time>
      </trkpt>
      <trkpt lat="45.36556" lon="3.31079">
        <ele>485</ele>
        <time>2018-02-10T12:39:57Z</time>
      </trkpt>
      <trkpt lat="45.36556" lon="3.31079">
        <ele>485</ele>
        <time>2018-02-10T12:40:00Z</time>
      </trkpt>
      <trkpt lat="45.36556" lon="3.31079">
        <ele>485</ele>
        <time>2018-02-10T12:40:04Z</time>
      </trkpt>
      <trkpt lat="45.36556" lon="3.31079">
        <ele>485</ele>
        <time>2018-02-10T12:40:08Z</time>
      </trkpt>
      <trkpt lat="45.36556" lon="3.31079">
        <ele>485</ele>
        <time>2018-02-10T12:40:12Z</time>
      </trkpt>
      <trkpt lat="45.36556" lon="3.31079">
        <ele>485</ele>
        <time>2018-02-10T12:40:15Z</time>
      </trkpt>
      <trkpt lat="45.36556" lon="3.31079">
        <ele>485</ele>
        <time>2018-02-10T12:40:19Z</time>
      </trkpt>
      <trkpt lat="45.36556" lon="3.31079">
        <ele>485</ele>
        <time>2018-02-10T12:40:22Z</time>
      </trkpt>
      <trkpt lat="45.36556" lon="3.31079">
        <ele>485</ele>
        <time>2018-02-10T12:40:26Z</time>
      </trkpt>
      <trkpt lat="45.36556" lon="3.31079">
        <ele>485</ele>
        <time>2018-02-10T12:40:29Z</time>
      </trkpt>
      <trkpt lat="45.36558" lon="3.3108">
        <ele>483</ele>
        <time>2018-02-10T12:40:33Z</time>
      </trkpt>
      <trkpt lat="45.36559" lon="3.31081">
        <ele>480</ele>
        <time>2018-02-10T12:40:37Z</time>
      </trkpt>
      <trkpt lat="45.36559" lon="3.31082">
        <ele>481</ele>
        <time>2018-02-10T12:40:40Z</time>
      </trkpt>
      <trkpt lat="45.3656" lon="3.31082">
        <ele>480</ele>
        <time>2018-02-10T12:40:43Z</time>
      </trkpt>
      <trkpt lat="45.36547" lon="3.31077">
        <ele>479</ele>
        <time>2018-02-10T12:40:47Z</time>
      </trkpt>
      <trkpt lat="45.36523" lon="3.31063">
        <ele>481</ele>
        <time>2018-02-10T12:40:51Z</time>
      </trkpt>
      <trkpt lat="45.36496" lon="3.31057">
        <ele>484</ele>
        <time>2018-02-10T12:40:55Z</time>
      </trkpt>
      <trkpt lat="45.36462" lon="3.31045">
        <ele>483</ele>
        <time>2018-02-10T12:40:59Z</time>
      </trkpt>
      <trkpt lat="45.3642" lon="3.31026">
        <ele>484</ele>
        <time>2018-02-10T12:41:03Z</time>
      </trkpt>
      <trkpt lat="45.36389" lon="3.31003">
        <ele>484</ele>
        <time>2018-02-10T12:41:06Z</time>
      </trkpt>
      <trkpt lat="45.36336" lon="3.30981">
        <ele>485</ele>
        <time>2018-02-10T12:41:10Z</time>
      </trkpt>
      <trkpt lat="45.36278" lon="3.30955">
        <ele>484</ele>
        <time>2018-02-10T12:41:14Z</time>
      </trkpt>
      <trkpt lat="45.36217" lon="3.30933">
        <ele>485</ele>
        <time>2018-02-10T12:41:18Z</time>
      </trkpt>
      <trkpt lat="45.36168" lon="3.30912">
        <ele>486</ele>
        <time>2018-02-10T12:41:21Z</time>
      </trkpt>
      <trkpt lat="45.361" lon="3.3088">
        <ele>484</ele>
        <time>2018-02-10T12:41:25Z</time>
      </trkpt>
      <trkpt lat="45.36043" lon="3.30862">
        <ele>486</ele>
        <time>2018-02-10T12:41:28Z</time>
      </trkpt>
      <trkpt lat="45.35988" lon="3.3084">
        <ele>487</ele>
        <time>2018-02-10T12:41:31Z</time>
      </trkpt>
      <trkpt lat="45.35909" lon="3.30808">
        <ele>484</ele>
        <time>2018-02-10T12:41:35Z</time>
      </trkpt>
      <trkpt lat="45.35849" lon="3.30784">
        <ele>483</ele>
        <time>2018-02-10T12:41:38Z</time>
      </trkpt>
      <trkpt lat="45.35789" lon="3.30766">
        <ele>483</ele>
        <time>2018-02-10T12:41:41Z</time>
      </trkpt>
      <trkpt lat="45.35724" lon="3.30752">
        <ele>486</ele>
        <time>2018-02-10T12:41:44Z</time>
      </trkpt>
      <trkpt lat="45.35632" lon="3.30731">
        <ele>487</ele>
        <time>2018-02-10T12:41:48Z</time>
      </trkpt>
      <trkpt lat="45.35543" lon="3.30717">
        <ele>488</ele>
        <time>2018-02-10T12:41:52Z</time>
      </trkpt>
      <trkpt lat="45.35472" lon="3.30719">
        <ele>488</ele>
        <time>2018-02-10T12:41:55Z</time>
      </trkpt>
      <trkpt lat="45.3539" lon="3.30719">
        <ele>491</ele>
        <time>2018-02-10T12:41:58Z</time>
      </trkpt>
      <trkpt lat="45.35298" lon="3.30735">
        <ele>493</ele>
        <time>2018-02-10T12:42:02Z</time>
      </trkpt>
      <trkpt lat="45.35202" lon="3.30758">
        <ele>494</ele>
        <time>2018-02-10T12:42:06Z</time>
      </trkpt>
      <trkpt lat="45.35138" lon="3.30763">
        <ele>495</ele>
        <time>2018-02-10T12:42:09Z</time>
      </trkpt>
      <trkpt lat="45.35063" lon="3.30796">
        <ele>497</ele>
        <time>2018-02-10T12:42:12Z</time>
      </trkpt>
      <trkpt lat="45.34965" lon="3.30831">
        <ele>494</ele>
        <time>2018-02-10T12:42:16Z</time>
      </trkpt>
      <trkpt lat="45.34861" lon="3.30865">
        <ele>494</ele>
        <time>2018-02-10T12:42:20Z</time>
      </trkpt>
      <trkpt lat="45.34753" lon="3.30902">
        <ele>495</ele>
        <time>2018-02-10T12:42:24Z</time>
      </trkpt>
      <trkpt lat="45.34674" lon="3.30926">
        <ele>498</ele>
        <time>2018-02-10T12:42:27Z</time>
      </trkpt>
      <trkpt lat="45.34595" lon="3.30951">
        <ele>499</ele>
        <time>2018-02-10T12:42:30Z</time>
      </trkpt>
      <trkpt lat="45.34515" lon="3.30978">
        <ele>502</ele>
        <time>2018-02-10T12:42:33Z</time>
      </trkpt>
      <trkpt lat="45.34417" lon="3.31012">
        <ele>507</ele>
        <time>2018-02-10T12:42:37Z</time>
      </trkpt>
      <trkpt lat="45.343" lon="3.31046">
        <ele>506</ele>
        <time>2018-02-10T12:42:41Z</time>
      </trkpt>
      <trkpt lat="45.34185" lon="3.31084">
        <ele>505</ele>
        <time>2018-02-10T12:42:45Z</time>
      </trkpt>
      <trkpt lat="45.34097" lon="3.31117">
        <ele>505</ele>
        <time>2018-02-10T12:42:48Z</time>
      </trkpt>
      <trkpt lat="45.34023" lon="3.31132">
        <ele>506</ele>
        <time>2018-02-10T12:42:51Z</time>
      </trkpt>
      <trkpt lat="45.3394" lon="3.31157">
        <ele>503</ele>
        <time>2018-02-10T12:42:54Z</time>
      </trkpt>
      <trkpt lat="45.33825" lon="3.31191">
        <ele>503</ele>
        <time>2018-02-10T12:42:58Z</time>
      </trkpt>
      <trkpt lat="45.33704" lon="3.31229">
        <ele>505</ele>
        <time>2018-02-10T12:43:02Z</time>
      </trkpt>
      <trkpt lat="45.33624" lon="3.31257">
        <ele>509</ele>
        <time>2018-02-10T12:43:05Z</time>
      </trkpt>
      <trkpt lat="45.33512" lon="3.31298">
        <ele>507</ele>
        <time>2018-02-10T12:43:09Z</time>
      </trkpt>
      <trkpt lat="45.33408" lon="3.3135">
        <ele>512</ele>
        <time>2018-02-10T12:43:13Z</time>
      </trkpt>
      <trkpt lat="45.33321" lon="3.31398">
        <ele>512</ele>
        <time>2018-02-10T12:43:16Z</time>
      </trkpt>
      <trkpt lat="45.33237" lon="3.31448">
        <ele>511</ele>
        <time>2018-02-10T12:43:19Z</time>
      </trkpt>
      <trkpt lat="45.33155" lon="3.31505">
        <ele>510</ele>
        <time>2018-02-10T12:43:22Z</time>
      </trkpt>
      <trkpt lat="45.33035" lon="3.31589">
        <ele>508</ele>
        <time>2018-02-10T12:43:26Z</time>
      </trkpt>
      <trkpt lat="45.32936" lon="3.31681">
        <ele>512</ele>
        <time>2018-02-10T12:43:30Z</time>
      </trkpt>
      <trkpt lat="45.32837" lon="3.31773">
        <ele>512</ele>
        <time>2018-02-10T12:43:34Z</time>
      </trkpt>
      <trkpt lat="45.32741" lon="3.31865">
        <ele>514</ele>
        <time>2018-02-10T12:43:38Z</time>
      </trkpt>
      <trkpt lat="45.32668" lon="3.31936">
        <ele>514</ele>
        <time>2018-02-10T12:43:41Z</time>
      </trkpt>
      <trkpt lat="45.32574" lon="3.32051">
        <ele>516</ele>
        <time>2018-02-10T12:43:45Z</time>
      </trkpt>
      <trkpt lat="45.32509" lon="3.32141">
        <ele>516</ele>
        <time>2018-02-10T12:43:48Z</time>
      </trkpt>
      <trkpt lat="45.32433" lon="3.32268">
        <ele>516</ele>
        <time>2018-02-10T12:43:52Z</time>
      </trkpt>
      <trkpt lat="45.32362" lon="3.32406">
        <ele>515</ele>
        <time>2018-02-10T12:43:56Z</time>
      </trkpt>
      <trkpt lat="45.323" lon="3.3255">
        <ele>514</ele>
        <time>2018-02-10T12:44:00Z</time>
      </trkpt>
      <trkpt lat="45.3224" lon="3.32704">
        <ele>513</ele>
        <time>2018-02-10T12:44:04Z</time>
      </trkpt>
      <trkpt lat="45.32182" lon="3.32854">
        <ele>512</ele>
        <time>2018-02-10T12:44:08Z</time>
      </trkpt>
      <trkpt lat="45.32131" lon="3.32962">
        <ele>510</ele>
        <time>2018-02-10T12:44:11Z</time>
      </trkpt>
      <trkpt lat="45.32048" lon="3.33091">
        <ele>509</ele>
        <time>2018-02-10T12:44:15Z</time>
      </trkpt>
      <trkpt lat="45.31978" lon="3.33171">
        <ele>509</ele>
        <time>2018-02-10T12:44:18Z</time>
      </trkpt>
      <trkpt lat="45.31874" lon="3.3326">
        <ele>510</ele>
        <time>2018-02-10T12:44:22Z</time>
      </trkpt>
      <trkpt lat="45.31758" lon="3.33326">
        <ele>508</ele>
        <time>2018-02-10T12:44:26Z</time>
      </trkpt>
      <trkpt lat="45.31637" lon="3.33394">
        <ele>510</ele>
        <time>2018-02-10T12:44:30Z</time>
      </trkpt>
      <trkpt lat="45.31513" lon="3.33477">
        <ele>509</ele>
        <time>2018-02-10T12:44:34Z</time>
      </trkpt>
      <trkpt lat="45.31437" lon="3.33494">
        <ele>505</ele>
        <time>2018-02-10T12:44:37Z</time>
      </trkpt>
      <trkpt lat="45.31359" lon="3.33546">
        <ele>505</ele>
        <time>2018-02-10T12:44:40Z</time>
      </trkpt>
      <trkpt lat="45.31266" lon="3.33638">
        <ele>504</ele>
        <time>2018-02-10T12:44:43Z</time>
      </trkpt>
      <trkpt lat="45.31171" lon="3.33719">
        <ele>503</ele>
        <time>2018-02-10T12:44:46Z</time>
      </trkpt>
      <trkpt lat="45.31094" lon="3.33877">
        <ele>501</ele>
        <time>2018-02-10T12:44:50Z</time>
      </trkpt>
      <trkpt lat="45.31075" lon="3.3404">
        <ele>500</ele>
        <time>2018-02-10T12:44:54Z</time>
      </trkpt>
      <trkpt lat="45.31034" lon="3.34204">
        <ele>497</ele>
        <time>2018-02-10T12:44:58Z</time>
      </trkpt>
      <trkpt lat="45.31003" lon="3.34325">
        <ele>497</ele>
        <time>2018-02-10T12:45:01Z</time>
      </trkpt>
      <trkpt lat="45.30951" lon="3.34488">
        <ele>493</ele>
        <time>2018-02-10T12:45:05Z</time>
      </trkpt>
      <trkpt lat="45.30915" lon="3.34613">
        <ele>494</ele>
        <time>2018-02-10T12:45:08Z</time>
      </trkpt>
      <trkpt lat="45.30874" lon="3.34773">
        <ele>492</ele>
        <time>2018-02-10T12:45:12Z</time>
      </trkpt>
      <trkpt lat="45.30822" lon="3.34934">
        <ele>489</ele>
        <time>2018-02-10T12:45:16Z</time>
      </trkpt>
      <trkpt lat="45.30774" lon="3.35092">
        <ele>491</ele>
        <time>2018-02-10T12:45:20Z</time>
      </trkpt>
      <trkpt lat="45.30742" lon="3.3521">
        <ele>492</ele>
        <time>2018-02-10T12:45:23Z</time>
      </trkpt>
      <trkpt lat="45.30708" lon="3.35328">
        <ele>495</ele>
        <time>2018-02-10T12:45:26Z</time>
      </trkpt>
      <trkpt lat="45.30664" lon="3.35483">
        <ele>496</ele>
        <time>2018-02-10T12:45:30Z</time>
      </trkpt>
      <trkpt lat="45.30635" lon="3.35589">
        <ele>496</ele>
        <time>2018-02-10T12:45:33Z</time>
      </trkpt>
      <trkpt lat="45.30604" lon="3.35693">
        <ele>496</ele>
        <time>2018-02-10T12:45:36Z</time>
      </trkpt>
      <trkpt lat="45.30564" lon="3.35828">
        <ele>496</ele>
        <time>2018-02-10T12:45:40Z</time>
      </trkpt>
      <trkpt lat="45.30537" lon="3.35924">
        <ele>496</ele>
        <time>2018-02-10T12:45:43Z</time>
      </trkpt>
      <trkpt lat="45.30512" lon="3.36048">
        <ele>496</ele>
        <time>2018-02-10T12:45:47Z</time>
      </trkpt>
      <trkpt lat="45.30494" lon="3.36173">
        <ele>501</ele>
        <time>2018-02-10T12:45:51Z</time>
      </trkpt>
      <trkpt lat="45.30489" lon="3.36285">
        <ele>500</ele>
        <time>2018-02-10T12:45:55Z</time>
      </trkpt>
      <trkpt lat="45.30486" lon="3.36368">
        <ele>498</ele>
        <time>2018-02-10T12:45:58Z</time>
      </trkpt>
      <trkpt lat="45.30486" lon="3.36448">
        <ele>495</ele>
        <time>2018-02-10T12:46:01Z</time>
      </trkpt>
      <trkpt lat="45.30492" lon="3.36549">
        <ele>493</ele>
        <time>2018-02-10T12:46:05Z</time>
      </trkpt>
      <trkpt lat="45.30503" lon="3.36646">
        <ele>492</ele>
        <time>2018-02-10T12:46:09Z</time>
      </trkpt>
      <trkpt lat="45.30519" lon="3.36739">
        <ele>493</ele>
        <time>2018-02-10T12:46:13Z</time>
      </trkpt>
      <trkpt lat="45.30539" lon="3.36829">
        <ele>493</ele>
        <time>2018-02-10T12:46:17Z</time>
      </trkpt>
      <trkpt lat="45.30548" lon="3.36897">
        <ele>494</ele>
        <time>2018-02-10T12:46:20Z</time>
      </trkpt>
      <trkpt lat="45.30552" lon="3.36985">
        <ele>493</ele>
        <time>2018-02-10T12:46:24Z</time>
      </trkpt>
      <trkpt lat="45.30547" lon="3.37049">
        <ele>493</ele>
        <time>2018-02-10T12:46:27Z</time>
      </trkpt>
      <trkpt lat="45.30537" lon="3.37131">
        <ele>491</ele>
        <time>2018-02-10T12:46:31Z</time>
      </trkpt>
      <trkpt lat="45.30531" lon="3.37185">
        <ele>491</ele>
        <time>2018-02-10T12:46:34Z</time>
      </trkpt>
      <trkpt lat="45.30526" lon="3.37233">
        <ele>489</ele>
        <time>2018-02-10T12:46:37Z</time>
      </trkpt>
      <trkpt lat="45.30502" lon="3.373">
        <ele>490</ele>
        <time>2018-02-10T12:46:41Z</time>
      </trkpt>
      <trkpt lat="45.30466" lon="3.37375">
        <ele>492</ele>
        <time>2018-02-10T12:46:45Z</time>
      </trkpt>
      <trkpt lat="45.30432" lon="3.37435">
        <ele>488</ele>
        <time>2018-02-10T12:46:49Z</time>
      </trkpt>
      <trkpt lat="45.30407" lon="3.37479">
        <ele>489</ele>
        <time>2018-02-10T12:46:52Z</time>
      </trkpt>
      <trkpt lat="45.30369" lon="3.37526">
        <ele>487</ele>
        <time>2018-02-10T12:46:56Z</time>
      </trkpt>
      <trkpt lat="45.30336" lon="3.3756">
        <ele>486</ele>
        <time>2018-02-10T12:46:59Z</time>
      </trkpt>
      <trkpt lat="45.30288" lon="3.37609">
        <ele>486</ele>
        <time>2018-02-10T12:47:03Z</time>
      </trkpt>
      <trkpt lat="45.3027" lon="3.37633">
        <ele>486</ele>
        <time>2018-02-10T12:47:06Z</time>
      </trkpt>
      <trkpt lat="45.3026" lon="3.37658">
        <ele>487</ele>
        <time>2018-02-10T12:47:09Z</time>
      </trkpt>
      <trkpt lat="45.3024" lon="3.37687">
        <ele>490</ele>
        <time>2018-02-10T12:47:13Z</time>
      </trkpt>
      <trkpt lat="45.30207" lon="3.37723">
        <ele>487</ele>
        <time>2018-02-10T12:47:16Z</time>
      </trkpt>
      <trkpt lat="45.30188" lon="3.37743">
        <ele>483</ele>
        <time>2018-02-10T12:47:20Z</time>
      </trkpt>
      <trkpt lat="45.30172" lon="3.37766">
        <ele>485</ele>
        <time>2018-02-10T12:47:24Z</time>
      </trkpt>
      <trkpt lat="45.30157" lon="3.37786">
        <ele>487</ele>
        <time>2018-02-10T12:47:28Z</time>
      </trkpt>
      <trkpt lat="45.30142" lon="3.37807">
        <ele>486</ele>
        <time>2018-02-10T12:47:31Z</time>
      </trkpt>
      <trkpt lat="45.30126" lon="3.37828">
        <ele>486</ele>
        <time>2018-02-10T12:47:35Z</time>
      </trkpt>
      <trkpt lat="45.30119" lon="3.37834">
        <ele>488</ele>
        <time>2018-02-10T12:47:38Z</time>
      </trkpt>
      <trkpt lat="45.30111" lon="3.37844">
        <ele>491</ele>
        <time>2018-02-10T12:47:42Z</time>
      </trkpt>
      <trkpt lat="45.30112" lon="3.37848">
        <ele>491</ele>
        <time>2018-02-10T12:47:46Z</time>
      </trkpt>
      <trkpt lat="45.30103" lon="3.37857">
        <ele>493</ele>
        <time>2018-02-10T12:47:50Z</time>
      </trkpt>
      <trkpt lat="45.30097" lon="3.37857">
        <ele>492</ele>
        <time>2018-02-10T12:47:54Z</time>
      </trkpt>
      <trkpt lat="45.30103" lon="3.37851">
        <ele>493</ele>
        <time>2018-02-10T12:47:57Z</time>
      </trkpt>
      <trkpt lat="45.30107" lon="3.37849">
        <ele>495</ele>
        <time>2018-02-10T12:48:00Z</time>
      </trkpt>
      <trkpt lat="45.30108" lon="3.37849">
        <ele>498</ele>
        <time>2018-02-10T12:48:03Z</time>
      </trkpt>
      <trkpt lat="45.30109" lon="3.3785">
        <ele>500</ele>
        <time>2018-02-10T12:48:07Z</time>
      </trkpt>
      <trkpt lat="45.30112" lon="3.37848">
        <ele>499</ele>
        <time>2018-02-10T12:48:10Z</time>
      </trkpt>
      <trkpt lat="45.30114" lon="3.37847">
        <ele>500</ele>
        <time>2018-02-10T12:48:14Z</time>
      </trkpt>
      <trkpt lat="45.30113" lon="3.37848">
        <ele>499</ele>
        <time>2018-02-10T12:48:18Z</time>
      </trkpt>
      <trkpt lat="45.30112" lon="3.37849">
        <ele>499</ele>
        <time>2018-02-10T12:48:22Z</time>
      </trkpt>
      <trkpt lat="45.30112" lon="3.37849">
        <ele>499</ele>
        <time>2018-02-10T12:48:26Z</time>
      </trkpt>
      <trkpt lat="45.30112" lon="3.37849">
        <ele>499</ele>
        <time>2018-02-10T12:48:30Z</time>
      </trkpt>
      <trkpt lat="45.30112" lon="3.37849">
        <ele>499</ele>
        <time>2018-02-10T12:48:33Z</time>
      </trkpt>
      <trkpt lat="45.30112" lon="3.37849">
        <ele>499</ele>
        <time>2018-02-10T12:48:37Z</time>
      </trkpt>
      <trkpt lat="45.30112" lon="3.37849">
        <ele>499</ele>
        <time>2018-02-10T12:48:41Z</time>
      </trkpt>
      <trkpt lat="45.30112" lon="3.37849">
        <ele>499</ele>
        <time>2018-02-10T12:48:45Z</time>
      </trkpt>
      <trkpt lat="45.30112" lon="3.37849">
        <ele>499</ele>
        <time>2018-02-10T12:48:49Z</time>
      </trkpt>
      <trkpt lat="45.30112" lon="3.37849">
        <ele>499</ele>
        <time>2018-02-10T12:48:52Z</time>
      </trkpt>
      <trkpt lat="45.30112" lon="3.37849">
        <ele>499</ele>
        <time>2018-02-10T12:48:55Z</time>
      </trkpt>
      <trkpt lat="45.30112" lon="3.37849">
        <ele>499</ele>
        <time>2018-02-10T12:48:59Z</time>
      </trkpt>
      <trkpt lat="45.30112" lon="3.37849">
        <ele>499</ele>
        <time>2018-02-10T12:49:02Z</time>
      </trkpt>
      <trkpt lat="45.30112" lon="3.37849">
        <ele>499</ele>
        <time>2018-02-10T12:49:06Z</time>
      </trkpt>
      <trkpt lat="45.30112" lon="3.37849">
        <ele>499</ele>
        <time>2018-02-10T12:49:10Z</time>
      </trkpt>
      <trkpt lat="45.30112" lon="3.37849">
        <ele>499</ele>
        <time>2018-02-10T12:49:14Z</time>
      </trkpt>
      <trkpt lat="45.30112" lon="3.37849">
        <ele>499</ele>
        <time>2018-02-10T12:49:17Z</time>
      </trkpt>
      <trkpt lat="45.30112" lon="3.37849">
        <ele>499</ele>
        <time>2018-02-10T12:49:20Z</time>
      </trkpt>
      <trkpt lat="45.30112" lon="3.37849">
        <ele>499</ele>
        <time>2018-02-10T12:49:24Z</time>
      </trkpt>
      <trkpt lat="45.30112" lon="3.37849">
        <ele>499</ele>
        <time>2018-02-10T12:49:27Z</time>
      </trkpt>
      <trkpt lat="45.30112" lon="3.37849">
        <ele>499</ele>
        <time>2018-02-10T12:49:31Z</time>
      </trkpt>
      <trkpt lat="45.30112" lon="3.37849">
        <ele>499</ele>
        <time>2018-02-10T12:49:34Z</time>
      </trkpt>
      <trkpt lat="45.30112" lon="3.37849">
        <ele>499</ele>
        <time>2018-02-10T12:49:38Z</time>
      </trkpt>
      <trkpt lat="45.30112" lon="3.37849">
        <ele>499</ele>
        <time>2018-02-10T12:49:41Z</time>
      </trkpt>
      <trkpt lat="45.30112" lon="3.37849">
        <ele>499</ele>
        <time>2018-02-10T12:49:44Z</time>
      </trkpt>
      <trkpt lat="45.30112" lon="3.37849">
        <ele>499</ele>
        <time>2018-02-10T12:49:48Z</time>
      </trkpt>
      <trkpt lat="45.30112" lon="3.37849">
        <ele>499</ele>
        <time>2018-02-10T12:49:52Z</time>
      </trkpt>
      <trkpt lat="45.30112" lon="3.37849">
        <ele>499</ele>
        <time>2018-02-10T12:49:56Z</time>
      </trkpt>
      <trkpt lat="45.30112" lon="3.37849">
        <ele>499</ele>
        <time>2018-02-10T12:50:00Z</time>
      </trkpt>
      <trkpt lat="45.30112" lon="3.37849">
        <ele>499</ele>
        <time>2018-02-10T12:50:03Z</time>
      </trkpt>
      <trkpt lat="45.30112" lon="3.37849">
        <ele>499</ele>
        <time>2018-02-10T12:50:07Z</time>
      </trkpt>
      <trkpt lat="45.30112" lon="3.37849">
        <ele>499</ele>
        <time>2018-02-10T12:50:10Z</time>
      </trkpt>
      <trkpt lat="45.30112" lon="3.37849">
        <ele>499</ele>
        <time>2018-02-10T12:50:13Z</time>
      </trkpt>
      <trkpt lat="45.30112" lon="3.37849">
        <ele>499</ele>
        <time>2018-02-10T12:50:17Z</time>
      </trkpt>
      <trkpt lat="45.30112" lon="3.37849">
        <ele>498</ele>
        <time>2018-02-10T12:50:21Z</time>
      </trkpt>
      <trkpt lat="45.30112" lon="3.37849">
        <ele>498</ele>
        <time>2018-02-10T12:50:24Z</time>
      </trkpt>
      <trkpt lat="45.30112" lon="3.37849">
        <ele>498</ele>
        <time>2018-02-10T12:50:28Z</time>
      </trkpt>
      <trkpt lat="45.30112" lon="3.37849">
        <ele>498</ele>
        <time>2018-02-10T12:50:32Z</time>
      </trkpt>
      <trkpt lat="45.30109" lon="3.37852">
        <ele>498</ele>
        <time>2018-02-10T12:50:35Z</time>
      </trkpt>
      <trkpt lat="45.30096" lon="3.37866">
        <ele>495</ele>
        <time>2018-02-10T12:50:39Z</time>
      </trkpt>
      <trkpt lat="45.30084" lon="3.3788">
        <ele>492</ele>
        <time>2018-02-10T12:50:42Z</time>
      </trkpt>
      <trkpt lat="45.30063" lon="3.379">
        <ele>491</ele>
        <time>2018-02-10T12:50:46Z</time>
      </trkpt>
      <trkpt lat="45.30048" lon="3.37919">
        <ele>490</ele>
        <time>2018-02-10T12:50:49Z</time>
      </trkpt>
      <trkpt lat="45.30031" lon="3.37938">
        <ele>489</ele>
        <time>2018-02-10T12:50:53Z</time>
      </trkpt>
      <trkpt lat="45.30006" lon="3.3796">
        <ele>486</ele>
        <time>2018-02-10T12:50:57Z</time>
      </trkpt>
      <trkpt lat="45.29983" lon="3.37992">
        <ele>486</ele>
        <time>2018-02-10T12:51:00Z</time>
      </trkpt>
      <trkpt lat="45.29965" lon="3.38022">
        <ele>485</ele>
        <time>2018-02-10T12:51:03Z</time>
      </trkpt>
      <trkpt lat="45.29933" lon="3.38072">
        <ele>486</ele>
        <time>2018-02-10T12:51:08Z</time>
      </trkpt>
      <trkpt lat="45.29917" lon="3.38109">
        <ele>485</ele>
        <time>2018-02-10T12:51:11Z</time>
      </trkpt>
      <trkpt lat="45.29903" lon="3.38152">
        <ele>486</ele>
        <time>2018-02-10T12:51:14Z</time>
      </trkpt>
      <trkpt lat="45.29892" lon="3.38196">
        <ele>486</ele>
        <time>2018-02-10T12:51:17Z</time>
      </trkpt>
      <trkpt lat="45.29879" lon="3.38246">
        <ele>485</ele>
        <time>2018-02-10T12:51:20Z</time>
      </trkpt>
      <trkpt lat="45.29857" lon="3.38321">
        <ele>483</ele>
        <time>2018-02-10T12:51:24Z</time>
      </trkpt>
      <trkpt lat="45.29837" lon="3.38407">
        <ele>483</ele>
        <time>2018-02-10T12:51:28Z</time>
      </trkpt>
      <trkpt lat="45.2982" lon="3.38478">
        <ele>484</ele>
        <time>2018-02-10T12:51:31Z</time>
      </trkpt>
      <trkpt lat="45.29802" lon="3.38552">
        <ele>485</ele>
        <time>2018-02-10T12:51:34Z</time>
      </trkpt>
      <trkpt lat="45.29772" lon="3.38663">
        <ele>488</ele>
        <time>2018-02-10T12:51:38Z</time>
      </trkpt>
      <trkpt lat="45.29732" lon="3.38766">
        <ele>487</ele>
        <time>2018-02-10T12:51:42Z</time>
      </trkpt>
      <trkpt lat="45.29687" lon="3.38837">
        <ele>483</ele>
        <time>2018-02-10T12:51:45Z</time>
      </trkpt>
      <trkpt lat="45.29619" lon="3.38915">
        <ele>484</ele>
        <time>2018-02-10T12:51:49Z</time>
      </trkpt>
      <trkpt lat="45.2954" lon="3.38989">
        <ele>483</ele>
        <time>2018-02-10T12:51:53Z</time>
      </trkpt>
      <trkpt lat="45.29482" lon="3.39039">
        <ele>483</ele>
        <time>2018-02-10T12:51:56Z</time>
      </trkpt>
      <trkpt lat="45.29404" lon="3.39114">
        <ele>484</ele>
        <time>2018-02-10T12:52:00Z</time>
      </trkpt>
      <trkpt lat="45.29342" lon="3.39174">
        <ele>487</ele>
        <time>2018-02-10T12:52:03Z</time>
      </trkpt>
      <trkpt lat="45.29264" lon="3.39246">
        <ele>486</ele>
        <time>2018-02-10T12:52:07Z</time>
      </trkpt>
      <trkpt lat="45.29213" lon="3.39292">
        <ele>483</ele>
        <time>2018-02-10T12:52:10Z</time>
      </trkpt>
      <trkpt lat="45.2913" lon="3.3937">
        <ele>485</ele>
        <time>2018-02-10T12:52:14Z</time>
      </trkpt>
      <trkpt lat="45.29076" lon="3.3942">
        <ele>483</ele>
        <time>2018-02-10T12:52:17Z</time>
      </trkpt>
      <trkpt lat="45.28995" lon="3.39493">
        <ele>483</ele>
        <time>2018-02-10T12:52:21Z</time>
      </trkpt>
      <trkpt lat="45.28918" lon="3.39565">
        <ele>482</ele>
        <time>2018-02-10T12:52:25Z</time>
      </trkpt>
      <trkpt lat="45.28857" lon="3.3962">
        <ele>483</ele>
        <time>2018-02-10T12:52:28Z</time>
      </trkpt>
      <trkpt lat="45.28777" lon="3.39692">
        <ele>481</ele>
        <time>2018-02-10T12:52:32Z</time>
      </trkpt>
      <trkpt lat="45.28718" lon="3.39747">
        <ele>481</ele>
        <time>2018-02-10T12:52:35Z</time>
      </trkpt>
      <trkpt lat="45.28637" lon="3.3982">
        <ele>481</ele>
        <time>2018-02-10T12:52:39Z</time>
      </trkpt>
      <trkpt lat="45.28577" lon="3.39875">
        <ele>481</ele>
        <time>2018-02-10T12:52:42Z</time>
      </trkpt>
      <trkpt lat="45.28498" lon="3.39945">
        <ele>481</ele>
        <time>2018-02-10T12:52:46Z</time>
      </trkpt>
      <trkpt lat="45.28422" lon="3.40019">
        <ele>482</ele>
        <time>2018-02-10T12:52:50Z</time>
      </trkpt>
      <trkpt lat="45.28354" lon="3.40104">
        <ele>483</ele>
        <time>2018-02-10T12:52:54Z</time>
      </trkpt>
      <trkpt lat="45.28306" lon="3.40175">
        <ele>484</ele>
        <time>2018-02-10T12:52:57Z</time>
      </trkpt>
      <trkpt lat="45.2825" lon="3.40273">
        <ele>482</ele>
        <time>2018-02-10T12:53:01Z</time>
      </trkpt>
      <trkpt lat="45.28202" lon="3.40388">
        <ele>485</ele>
        <time>2018-02-10T12:53:05Z</time>
      </trkpt>
      <trkpt lat="45.2817" lon="3.40477">
        <ele>486</ele>
        <time>2018-02-10T12:53:08Z</time>
      </trkpt>
      <trkpt lat="45.28128" lon="3.40591">
        <ele>487</ele>
        <time>2018-02-10T12:53:12Z</time>
      </trkpt>
      <trkpt lat="45.28085" lon="3.4071">
        <ele>487</ele>
        <time>2018-02-10T12:53:16Z</time>
      </trkpt>
      <trkpt lat="45.28055" lon="3.40799">
        <ele>488</ele>
        <time>2018-02-10T12:53:19Z</time>
      </trkpt>
      <trkpt lat="45.28012" lon="3.4092">
        <ele>488</ele>
        <time>2018-02-10T12:53:23Z</time>
      </trkpt>
      <trkpt lat="45.2799" lon="3.41013">
        <ele>489</ele>
        <time>2018-02-10T12:53:26Z</time>
      </trkpt>
      <trkpt lat="45.2798" lon="3.4111">
        <ele>489</ele>
        <time>2018-02-10T12:53:29Z</time>
      </trkpt>
      <trkpt lat="45.27995" lon="3.41243">
        <ele>493</ele>
        <time>2018-02-10T12:53:33Z</time>
      </trkpt>
      <trkpt lat="45.28012" lon="3.41337">
        <ele>493</ele>
        <time>2018-02-10T12:53:36Z</time>
      </trkpt>
      <trkpt lat="45.28047" lon="3.41421">
        <ele>496</ele>
        <time>2018-02-10T12:53:39Z</time>
      </trkpt>
      <trkpt lat="45.28106" lon="3.41524">
        <ele>499</ele>
        <time>2018-02-10T12:53:43Z</time>
      </trkpt>
      <trkpt lat="45.28149" lon="3.41599">
        <ele>500</ele>
        <time>2018-02-10T12:53:46Z</time>
      </trkpt>
      <trkpt lat="45.28194" lon="3.41675">
        <ele>502</ele>
        <time>2018-02-10T12:53:49Z</time>
      </trkpt>
      <trkpt lat="45.28253" lon="3.41777">
        <ele>503</ele>
        <time>2018-02-10T12:53:53Z</time>
      </trkpt>
      <trkpt lat="45.28317" lon="3.41883">
        <ele>503</ele>
        <time>2018-02-10T12:53:57Z</time>
      </trkpt>
      <trkpt lat="45.28373" lon="3.41982">
        <ele>503</ele>
        <time>2018-02-10T12:54:01Z</time>
      </trkpt>
      <trkpt lat="45.28418" lon="3.42062">
        <ele>505</ele>
        <time>2018-02-10T12:54:04Z</time>
      </trkpt>
      <trkpt lat="45.28461" lon="3.42138">
        <ele>506</ele>
        <time>2018-02-10T12:54:07Z</time>
      </trkpt>
      <trkpt lat="45.28517" lon="3.42238">
        <ele>507</ele>
        <time>2018-02-10T12:54:11Z</time>
      </trkpt>
      <trkpt lat="45.28561" lon="3.42314">
        <ele>506</ele>
        <time>2018-02-10T12:54:14Z</time>
      </trkpt>
      <trkpt lat="45.28604" lon="3.42389">
        <ele>505</ele>
        <time>2018-02-10T12:54:17Z</time>
      </trkpt>
      <trkpt lat="45.28663" lon="3.42498">
        <ele>512</ele>
        <time>2018-02-10T12:54:21Z</time>
      </trkpt>
      <trkpt lat="45.28718" lon="3.42596">
        <ele>514</ele>
        <time>2018-02-10T12:54:25Z</time>
      </trkpt>
      <trkpt lat="45.28762" lon="3.42681">
        <ele>512</ele>
        <time>2018-02-10T12:54:28Z</time>
      </trkpt>
      <trkpt lat="45.28789" lon="3.42772">
        <ele>512</ele>
        <time>2018-02-10T12:54:31Z</time>
      </trkpt>
      <trkpt lat="45.28814" lon="3.42898">
        <ele>513</ele>
        <time>2018-02-10T12:54:35Z</time>
      </trkpt>
      <trkpt lat="45.28821" lon="3.43032">
        <ele>513</ele>
        <time>2018-02-10T12:54:39Z</time>
      </trkpt>
      <trkpt lat="45.28818" lon="3.43129">
        <ele>515</ele>
        <time>2018-02-10T12:54:42Z</time>
      </trkpt>
      <trkpt lat="45.28796" lon="3.43257">
        <ele>515</ele>
        <time>2018-02-10T12:54:46Z</time>
      </trkpt>
      <trkpt lat="45.28771" lon="3.43349">
        <ele>514</ele>
        <time>2018-02-10T12:54:49Z</time>
      </trkpt>
      <trkpt lat="45.28732" lon="3.4347">
        <ele>515</ele>
        <time>2018-02-10T12:54:53Z</time>
      </trkpt>
      <trkpt lat="45.28712" lon="3.43531">
        <ele>514</ele>
        <time>2018-02-10T12:54:55Z</time>
      </trkpt>
      <trkpt lat="45.28663" lon="3.4368">
        <ele>513</ele>
        <time>2018-02-10T12:55:00Z</time>
      </trkpt>
      <trkpt lat="45.28626" lon="3.43798">
        <ele>513</ele>
        <time>2018-02-10T12:55:04Z</time>
      </trkpt>
      <trkpt lat="45.2859" lon="3.4392">
        <ele>513</ele>
        <time>2018-02-10T12:55:08Z</time>
      </trkpt>
      <trkpt lat="45.28555" lon="3.44038">
        <ele>513</ele>
        <time>2018-02-10T12:55:12Z</time>
      </trkpt>
      <trkpt lat="45.28526" lon="3.44129">
        <ele>515</ele>
        <time>2018-02-10T12:55:15Z</time>
      </trkpt>
      <trkpt lat="45.28488" lon="3.44251">
        <ele>515</ele>
        <time>2018-02-10T12:55:19Z</time>
      </trkpt>
      <trkpt lat="45.28457" lon="3.44343">
        <ele>514</ele>
        <time>2018-02-10T12:55:22Z</time>
      </trkpt>
      <trkpt lat="45.28437" lon="3.44404">
        <ele>514</ele>
        <time>2018-02-10T12:55:24Z</time>
      </trkpt>
      <trkpt lat="45.28379" lon="3.44585">
        <ele>514</ele>
        <time>2018-02-10T12:55:30Z</time>
      </trkpt>
      <trkpt lat="45.2835" lon="3.44676">
        <ele>514</ele>
        <time>2018-02-10T12:55:33Z</time>
      </trkpt>
      <trkpt lat="45.28307" lon="3.44833">
        <ele>517</ele>
        <time>2018-02-10T12:55:38Z</time>
      </trkpt>
      <trkpt lat="45.28281" lon="3.44921">
        <ele>518</ele>
        <time>2018-02-10T12:55:41Z</time>
      </trkpt>
      <trkpt lat="45.28252" lon="3.45013">
        <ele>519</ele>
        <time>2018-02-10T12:55:44Z</time>
      </trkpt>
      <trkpt lat="45.28211" lon="3.45136">
        <ele>519</ele>
        <time>2018-02-10T12:55:48Z</time>
      </trkpt>
      <trkpt lat="45.28184" lon="3.4523">
        <ele>520</ele>
        <time>2018-02-10T12:55:51Z</time>
      </trkpt>
      <trkpt lat="45.28139" lon="3.45384">
        <ele>522</ele>
        <time>2018-02-10T12:55:56Z</time>
      </trkpt>
      <trkpt lat="45.28102" lon="3.45505">
        <ele>522</ele>
        <time>2018-02-10T12:56:00Z</time>
      </trkpt>
      <trkpt lat="45.27844" lon="3.46656">
        <ele>512</ele>
        <time>2018-02-10T12:56:37Z</time>
      </trkpt>
      <trkpt lat="45.27774" lon="3.46738">
        <ele>518</ele>
        <time>2018-02-10T12:56:41Z</time>
      </trkpt>
      <trkpt lat="45.27709" lon="3.46793">
        <ele>517</ele>
        <time>2018-02-10T12:56:44Z</time>
      </trkpt>
      <trkpt lat="45.27631" lon="3.46862">
        <ele>518</ele>
        <time>2018-02-10T12:56:48Z</time>
      </trkpt>
      <trkpt lat="45.27594" lon="3.46917">
        <ele>526</ele>
        <time>2018-02-10T12:56:51Z</time>
      </trkpt>
      <trkpt lat="45.27542" lon="3.46971">
        <ele>532</ele>
        <time>2018-02-10T12:56:54Z</time>
      </trkpt>
      <trkpt lat="45.27471" lon="3.47044">
        <ele>535</ele>
        <time>2018-02-10T12:56:58Z</time>
      </trkpt>
      <trkpt lat="45.27418" lon="3.47096">
        <ele>537</ele>
        <time>2018-02-10T12:57:01Z</time>
      </trkpt>
      <trkpt lat="45.27339" lon="3.47167">
        <ele>541</ele>
        <time>2018-02-10T12:57:05Z</time>
      </trkpt>
      <trkpt lat="45.27281" lon="3.47224">
        <ele>539</ele>
        <time>2018-02-10T12:57:08Z</time>
      </trkpt>
      <trkpt lat="45.27209" lon="3.47294">
        <ele>544</ele>
        <time>2018-02-10T12:57:12Z</time>
      </trkpt>
      <trkpt lat="45.27151" lon="3.47346">
        <ele>547</ele>
        <time>2018-02-10T12:57:15Z</time>
      </trkpt>
      <trkpt lat="45.27068" lon="3.47417">
        <ele>548</ele>
        <time>2018-02-10T12:57:19Z</time>
      </trkpt>
      <trkpt lat="45.26996" lon="3.47483">
        <ele>551</ele>
        <time>2018-02-10T12:57:23Z</time>
      </trkpt>
      <trkpt lat="45.26923" lon="3.47555">
        <ele>555</ele>
        <time>2018-02-10T12:57:27Z</time>
      </trkpt>
      <trkpt lat="45.26864" lon="3.47607">
        <ele>555</ele>
        <time>2018-02-10T12:57:30Z</time>
      </trkpt>
      <trkpt lat="45.26808" lon="3.47691">
        <ele>553</ele>
        <time>2018-02-10T12:57:34Z</time>
      </trkpt>
      <trkpt lat="45.26772" lon="3.47803">
        <ele>551</ele>
        <time>2018-02-10T12:57:38Z</time>
      </trkpt>
      <trkpt lat="45.26756" lon="3.47891">
        <ele>550</ele>
        <time>2018-02-10T12:57:41Z</time>
      </trkpt>
      <trkpt lat="45.26727" lon="3.4801">
        <ele>548</ele>
        <time>2018-02-10T12:57:45Z</time>
      </trkpt>
      <trkpt lat="45.2668" lon="3.48115">
        <ele>550</ele>
        <time>2018-02-10T12:57:49Z</time>
      </trkpt>
      <trkpt lat="45.26615" lon="3.482">
        <ele>549</ele>
        <time>2018-02-10T12:57:53Z</time>
      </trkpt>
      <trkpt lat="45.26552" lon="3.48295">
        <ele>550</ele>
        <time>2018-02-10T12:57:57Z</time>
      </trkpt>
      <trkpt lat="45.265" lon="3.48396">
        <ele>546</ele>
        <time>2018-02-10T12:58:01Z</time>
      </trkpt>
      <trkpt lat="45.26453" lon="3.48503">
        <ele>543</ele>
        <time>2018-02-10T12:58:05Z</time>
      </trkpt>
      <trkpt lat="45.26403" lon="3.48611">
        <ele>542</ele>
        <time>2018-02-10T12:58:09Z</time>
      </trkpt>
      <trkpt lat="45.26379" lon="3.487">
        <ele>542</ele>
        <time>2018-02-10T12:58:12Z</time>
      </trkpt>
      <trkpt lat="45.26303" lon="3.48778">
        <ele>544</ele>
        <time>2018-02-10T12:58:16Z</time>
      </trkpt>
      <trkpt lat="45.26242" lon="3.4883">
        <ele>543</ele>
        <time>2018-02-10T12:58:19Z</time>
      </trkpt>
      <trkpt lat="45.26168" lon="3.4891">
        <ele>549</ele>
        <time>2018-02-10T12:58:23Z</time>
      </trkpt>
      <trkpt lat="45.26107" lon="3.49007">
        <ele>542</ele>
        <time>2018-02-10T12:58:27Z</time>
      </trkpt>
      <trkpt lat="45.26053" lon="3.4911">
        <ele>537</ele>
        <time>2018-02-10T12:58:31Z</time>
      </trkpt>
      <trkpt lat="45.26012" lon="3.4922">
        <ele>539</ele>
        <time>2018-02-10T12:58:35Z</time>
      </trkpt>
      <trkpt lat="45.25986" lon="3.49308">
        <ele>539</ele>
        <time>2018-02-10T12:58:38Z</time>
      </trkpt>
      <trkpt lat="45.25964" lon="3.49428">
        <ele>541</ele>
        <time>2018-02-10T12:58:42Z</time>
      </trkpt>
      <trkpt lat="45.25954" lon="3.49519">
        <ele>540</ele>
        <time>2018-02-10T12:58:45Z</time>
      </trkpt>
      <trkpt lat="45.25956" lon="3.4964">
        <ele>541</ele>
        <time>2018-02-10T12:58:49Z</time>
      </trkpt>
      <trkpt lat="45.25953" lon="3.49764">
        <ele>540</ele>
        <time>2018-02-10T12:58:53Z</time>
      </trkpt>
      <trkpt lat="45.25955" lon="3.49851">
        <ele>540</ele>
        <time>2018-02-10T12:58:56Z</time>
      </trkpt>
      <trkpt lat="45.25937" lon="3.49966">
        <ele>542</ele>
        <time>2018-02-10T12:59:00Z</time>
      </trkpt>
      <trkpt lat="45.25901" lon="3.50066">
        <ele>543</ele>
        <time>2018-02-10T12:59:04Z</time>
      </trkpt>
      <trkpt lat="45.25845" lon="3.50149">
        <ele>546</ele>
        <time>2018-02-10T12:59:08Z</time>
      </trkpt>
      <trkpt lat="45.25777" lon="3.50216">
        <ele>543</ele>
        <time>2018-02-10T12:59:12Z</time>
      </trkpt>
      <trkpt lat="45.25707" lon="3.50238">
        <ele>543</ele>
        <time>2018-02-10T12:59:15Z</time>
      </trkpt>
      <trkpt lat="45.25623" lon="3.50246">
        <ele>544</ele>
        <time>2018-02-10T12:59:19Z</time>
      </trkpt>
      <trkpt lat="45.25539" lon="3.50244">
        <ele>545</ele>
        <time>2018-02-10T12:59:23Z</time>
      </trkpt>
      <trkpt lat="45.25449" lon="3.5021">
        <ele>550</ele>
        <time>2018-02-10T12:59:27Z</time>
      </trkpt>
      <trkpt lat="45.25379" lon="3.50216">
        <ele>551</ele>
        <time>2018-02-10T12:59:30Z</time>
      </trkpt>
      <trkpt lat="45.25284" lon="3.50249">
        <ele>550</ele>
        <time>2018-02-10T12:59:34Z</time>
      </trkpt>
      <trkpt lat="45.2519" lon="3.50292">
        <ele>552</ele>
        <time>2018-02-10T12:59:38Z</time>
      </trkpt>
      <trkpt lat="45.25103" lon="3.50331">
        <ele>552</ele>
        <time>2018-02-10T12:59:42Z</time>
      </trkpt>
      <trkpt lat="45.25032" lon="3.50348">
        <ele>553</ele>
        <time>2018-02-10T12:59:45Z</time>
      </trkpt>
      <trkpt lat="45.24955" lon="3.50345">
        <ele>554</ele>
        <time>2018-02-10T12:59:48Z</time>
      </trkpt>
      <trkpt lat="45.24886" lon="3.50324">
        <ele>555</ele>
        <time>2018-02-10T12:59:51Z</time>
      </trkpt>
      <trkpt lat="45.24804" lon="3.50268">
        <ele>555</ele>
        <time>2018-02-10T12:59:55Z</time>
      </trkpt>
      <trkpt lat="45.24723" lon="3.50202">
        <ele>554</ele>
        <time>2018-02-10T12:59:59Z</time>
      </trkpt>
      <trkpt lat="45.24663" lon="3.50163">
        <ele>554</ele>
        <time>2018-02-10T13:00:02Z</time>
      </trkpt>
      <trkpt lat="45.2457" lon="3.50143">
        <ele>553</ele>
        <time>2018-02-10T13:00:06Z</time>
      </trkpt>
      <trkpt lat="45.24502" lon="3.50146">
        <ele>552</ele>
        <time>2018-02-10T13:00:09Z</time>
      </trkpt>
      <trkpt lat="45.24411" lon="3.50168">
        <ele>551</ele>
        <time>2018-02-10T13:00:13Z</time>
      </trkpt>
      <trkpt lat="45.24327" lon="3.50225">
        <ele>553</ele>
        <time>2018-02-10T13:00:17Z</time>
      </trkpt>
      <trkpt lat="45.24262" lon="3.50267">
        <ele>556</ele>
        <time>2018-02-10T13:00:20Z</time>
      </trkpt>
      <trkpt lat="45.24198" lon="3.5031">
        <ele>555</ele>
        <time>2018-02-10T13:00:23Z</time>
      </trkpt>
      <trkpt lat="45.24114" lon="3.50363">
        <ele>555</ele>
        <time>2018-02-10T13:00:27Z</time>
      </trkpt>
      <trkpt lat="45.24051" lon="3.50402">
        <ele>555</ele>
        <time>2018-02-10T13:00:30Z</time>
      </trkpt>
      <trkpt lat="45.23967" lon="3.50456">
        <ele>555</ele>
        <time>2018-02-10T13:00:34Z</time>
      </trkpt>
      <trkpt lat="45.23885" lon="3.50507">
        <ele>556</ele>
        <time>2018-02-10T13:00:38Z</time>
      </trkpt>
      <trkpt lat="45.23825" lon="3.50544">
        <ele>555</ele>
        <time>2018-02-10T13:00:41Z</time>
      </trkpt>
      <trkpt lat="45.23762" lon="3.50584">
        <ele>555</ele>
        <time>2018-02-10T13:00:44Z</time>
      </trkpt>
      <trkpt lat="45.23682" lon="3.50633">
        <ele>554</ele>
        <time>2018-02-10T13:00:48Z</time>
      </trkpt>
      <trkpt lat="45.23598" lon="3.50685">
        <ele>554</ele>
        <time>2018-02-10T13:00:52Z</time>
      </trkpt>
      <trkpt lat="45.23516" lon="3.50735">
        <ele>556</ele>
        <time>2018-02-10T13:00:56Z</time>
      </trkpt>
      <trkpt lat="45.23454" lon="3.50774">
        <ele>556</ele>
        <time>2018-02-10T13:00:59Z</time>
      </trkpt>
      <trkpt lat="45.23391" lon="3.50817">
        <ele>558</ele>
        <time>2018-02-10T13:01:02Z</time>
      </trkpt>
      <trkpt lat="45.2333" lon="3.50855">
        <ele>557</ele>
        <time>2018-02-10T13:01:05Z</time>
      </trkpt>
      <trkpt lat="45.23244" lon="3.50906">
        <ele>558</ele>
        <time>2018-02-10T13:01:09Z</time>
      </trkpt>
      <trkpt lat="45.23183" lon="3.50944">
        <ele>556</ele>
        <time>2018-02-10T13:01:12Z</time>
      </trkpt>
      <trkpt lat="45.23082" lon="3.50984">
        <ele>555</ele>
        <time>2018-02-10T13:01:16Z</time>
      </trkpt>
      <trkpt lat="45.2301" lon="3.50994">
        <ele>557</ele>
        <time>2018-02-10T13:01:19Z</time>
      </trkpt>
      <trkpt lat="45.22939" lon="3.50999">
        <ele>560</ele>
        <time>2018-02-10T13:01:22Z</time>
      </trkpt>
      <trkpt lat="45.22848" lon="3.50986">
        <ele>561</ele>
        <time>2018-02-10T13:01:26Z</time>
      </trkpt>
      <trkpt lat="45.2278" lon="3.50964">
        <ele>562</ele>
        <time>2018-02-10T13:01:29Z</time>
      </trkpt>
      <trkpt lat="45.22696" lon="3.50914">
        <ele>561</ele>
        <time>2018-02-10T13:01:33Z</time>
      </trkpt>
      <trkpt lat="45.22634" lon="3.50869">
        <ele>564</ele>
        <time>2018-02-10T13:01:36Z</time>
      </trkpt>
      <trkpt lat="45.22576" lon="3.50814">
        <ele>562</ele>
        <time>2018-02-10T13:01:39Z</time>
      </trkpt>
      <trkpt lat="45.225" lon="3.50738">
        <ele>566</ele>
        <time>2018-02-10T13:01:43Z</time>
      </trkpt>
      <trkpt lat="45.22443" lon="3.50685">
        <ele>566</ele>
        <time>2018-02-10T13:01:46Z</time>
      </trkpt>
      <trkpt lat="45.22371" lon="3.50609">
        <ele>566</ele>
        <time>2018-02-10T13:01:50Z</time>
      </trkpt>
      <trkpt lat="45.22295" lon="3.50539">
        <ele>569</ele>
        <time>2018-02-10T13:01:54Z</time>
      </trkpt>
      <trkpt lat="45.22239" lon="3.50481">
        <ele>570</ele>
        <time>2018-02-10T13:01:57Z</time>
      </trkpt>
      <trkpt lat="45.22165" lon="3.50398">
        <ele>568</ele>
        <time>2018-02-10T13:02:01Z</time>
      </trkpt>
      <trkpt lat="45.22091" lon="3.50324">
        <ele>567</ele>
        <time>2018-02-10T13:02:05Z</time>
      </trkpt>
      <trkpt lat="45.2203" lon="3.50276">
        <ele>568</ele>
        <time>2018-02-10T13:02:08Z</time>
      </trkpt>
      <trkpt lat="45.21969" lon="3.50235">
        <ele>566</ele>
        <time>2018-02-10T13:02:11Z</time>
      </trkpt>
      <trkpt lat="45.21904" lon="3.50205">
        <ele>566</ele>
        <time>2018-02-10T13:02:14Z</time>
      </trkpt>
      <trkpt lat="45.21814" lon="3.50168">
        <ele>566</ele>
        <time>2018-02-10T13:02:18Z</time>
      </trkpt>
      <trkpt lat="45.21727" lon="3.50132">
        <ele>567</ele>
        <time>2018-02-10T13:02:22Z</time>
      </trkpt>
      <trkpt lat="45.21637" lon="3.50097">
        <ele>568</ele>
        <time>2018-02-10T13:02:26Z</time>
      </trkpt>
      <trkpt lat="45.2157" lon="3.5007">
        <ele>569</ele>
        <time>2018-02-10T13:02:29Z</time>
      </trkpt>
      <trkpt lat="45.21481" lon="3.50035">
        <ele>570</ele>
        <time>2018-02-10T13:02:33Z</time>
      </trkpt>
      <trkpt lat="45.21411" lon="3.50014">
        <ele>571</ele>
        <time>2018-02-10T13:02:36Z</time>
      </trkpt>
      <trkpt lat="45.21321" lon="3.49998">
        <ele>572</ele>
        <time>2018-02-10T13:02:40Z</time>
      </trkpt>
      <trkpt lat="45.21253" lon="3.49999">
        <ele>573</ele>
        <time>2018-02-10T13:02:43Z</time>
      </trkpt>
      <trkpt lat="45.21185" lon="3.50011">
        <ele>572</ele>
        <time>2018-02-10T13:02:46Z</time>
      </trkpt>
      <trkpt lat="45.21114" lon="3.50024">
        <ele>572</ele>
        <time>2018-02-10T13:02:49Z</time>
      </trkpt>
      <trkpt lat="45.21022" lon="3.5004">
        <ele>571</ele>
        <time>2018-02-10T13:02:53Z</time>
      </trkpt>
      <trkpt lat="45.20936" lon="3.5005">
        <ele>569</ele>
        <time>2018-02-10T13:02:57Z</time>
      </trkpt>
      <trkpt lat="45.20855" lon="3.50069">
        <ele>567</ele>
        <time>2018-02-10T13:03:01Z</time>
      </trkpt>
      <trkpt lat="45.20784" lon="3.5008">
        <ele>566</ele>
        <time>2018-02-10T13:03:04Z</time>
      </trkpt>
      <trkpt lat="45.20716" lon="3.50097">
        <ele>566</ele>
        <time>2018-02-10T13:03:07Z</time>
      </trkpt>
      <trkpt lat="45.20615" lon="3.50121">
        <ele>566</ele>
        <time>2018-02-10T13:03:11Z</time>
      </trkpt>
      <trkpt lat="45.20525" lon="3.50157">
        <ele>570</ele>
        <time>2018-02-10T13:03:15Z</time>
      </trkpt>
      <trkpt lat="45.20454" lon="3.50176">
        <ele>572</ele>
        <time>2018-02-10T13:03:18Z</time>
      </trkpt>
      <trkpt lat="45.20364" lon="3.50177">
        <ele>571</ele>
        <time>2018-02-10T13:03:22Z</time>
      </trkpt>
      <trkpt lat="45.20279" lon="3.50195">
        <ele>569</ele>
        <time>2018-02-10T13:03:26Z</time>
      </trkpt>
      <trkpt lat="45.20213" lon="3.50221">
        <ele>564</ele>
        <time>2018-02-10T13:03:29Z</time>
      </trkpt>
      <trkpt lat="45.20141" lon="3.50232">
        <ele>564</ele>
        <time>2018-02-10T13:03:32Z</time>
      </trkpt>
      <trkpt lat="45.20058" lon="3.50241">
        <ele>563</ele>
        <time>2018-02-10T13:03:36Z</time>
      </trkpt>
      <trkpt lat="45.19987" lon="3.50244">
        <ele>566</ele>
        <time>2018-02-10T13:03:39Z</time>
      </trkpt>
      <trkpt lat="45.19896" lon="3.50238">
        <ele>566</ele>
        <time>2018-02-10T13:03:43Z</time>
      </trkpt>
      <trkpt lat="45.19808" lon="3.50226">
        <ele>565</ele>
        <time>2018-02-10T13:03:47Z</time>
      </trkpt>
      <trkpt lat="45.19744" lon="3.5022">
        <ele>566</ele>
        <time>2018-02-10T13:03:50Z</time>
      </trkpt>
      <trkpt lat="45.19657" lon="3.50207">
        <ele>564</ele>
        <time>2018-02-10T13:03:54Z</time>
      </trkpt>
      <trkpt lat="45.19571" lon="3.50204">
        <ele>565</ele>
        <time>2018-02-10T13:03:58Z</time>
      </trkpt>
      <trkpt lat="45.19503" lon="3.50208">
        <ele>566</ele>
        <time>2018-02-10T13:04:01Z</time>
      </trkpt>
      <trkpt lat="45.19404" lon="3.50229">
        <ele>567</ele>
        <time>2018-02-10T13:04:05Z</time>
      </trkpt>
      <trkpt lat="45.19325" lon="3.50235">
        <ele>566</ele>
        <time>2018-02-10T13:04:09Z</time>
      </trkpt>
      <trkpt lat="45.19233" lon="3.50259">
        <ele>570</ele>
        <time>2018-02-10T13:04:13Z</time>
      </trkpt>
      <trkpt lat="45.19168" lon="3.50288">
        <ele>570</ele>
        <time>2018-02-10T13:04:16Z</time>
      </trkpt>
      <trkpt lat="45.19099" lon="3.50298">
        <ele>573</ele>
        <time>2018-02-10T13:04:19Z</time>
      </trkpt>
      <trkpt lat="45.19006" lon="3.50318">
        <ele>572</ele>
        <time>2018-02-10T13:04:23Z</time>
      </trkpt>
      <trkpt lat="45.18921" lon="3.50335">
        <ele>572</ele>
        <time>2018-02-10T13:04:27Z</time>
      </trkpt>
      <trkpt lat="45.1883" lon="3.50354">
        <ele>574</ele>
        <time>2018-02-10T13:04:31Z</time>
      </trkpt>
      <trkpt lat="45.18757" lon="3.5037">
        <ele>575</ele>
        <time>2018-02-10T13:04:34Z</time>
      </trkpt>
      <trkpt lat="45.18672" lon="3.50376">
        <ele>577</ele>
        <time>2018-02-10T13:04:38Z</time>
      </trkpt>
      <trkpt lat="45.18605" lon="3.50362">
        <ele>585</ele>
        <time>2018-02-10T13:04:41Z</time>
      </trkpt>
      <trkpt lat="45.1854" lon="3.5033">
        <ele>588</ele>
        <time>2018-02-10T13:04:44Z</time>
      </trkpt>
      <trkpt lat="45.18469" lon="3.50272">
        <ele>588</ele>
        <time>2018-02-10T13:04:48Z</time>
      </trkpt>
      <trkpt lat="45.18417" lon="3.50223">
        <ele>587</ele>
        <time>2018-02-10T13:04:51Z</time>
      </trkpt>
      <trkpt lat="45.18348" lon="3.50158">
        <ele>586</ele>
        <time>2018-02-10T13:04:55Z</time>
      </trkpt>
      <trkpt lat="45.18289" lon="3.50123">
        <ele>585</ele>
        <time>2018-02-10T13:04:58Z</time>
      </trkpt>
      <trkpt lat="45.18216" lon="3.50097">
        <ele>585</ele>
        <time>2018-02-10T13:05:02Z</time>
      </trkpt>
      <trkpt lat="45.18155" lon="3.5009">
        <ele>584</ele>
        <time>2018-02-10T13:05:05Z</time>
      </trkpt>
      <trkpt lat="45.1809" lon="3.50088">
        <ele>582</ele>
        <time>2018-02-10T13:05:08Z</time>
      </trkpt>
      <trkpt lat="45.18006" lon="3.50101">
        <ele>585</ele>
        <time>2018-02-10T13:05:12Z</time>
      </trkpt>
      <trkpt lat="45.17944" lon="3.50107">
        <ele>585</ele>
        <time>2018-02-10T13:05:15Z</time>
      </trkpt>
      <trkpt lat="45.17858" lon="3.50116">
        <ele>587</ele>
        <time>2018-02-10T13:05:19Z</time>
      </trkpt>
      <trkpt lat="45.178" lon="3.50129">
        <ele>589</ele>
        <time>2018-02-10T13:05:22Z</time>
      </trkpt>
      <trkpt lat="45.17752" lon="3.50132">
        <ele>588</ele>
        <time>2018-02-10T13:05:25Z</time>
      </trkpt>
      <trkpt lat="45.17688" lon="3.50101">
        <ele>585</ele>
        <time>2018-02-10T13:05:29Z</time>
      </trkpt>
      <trkpt lat="45.17617" lon="3.50062">
        <ele>585</ele>
        <time>2018-02-10T13:05:33Z</time>
      </trkpt>
      <trkpt lat="45.17563" lon="3.50034">
        <ele>585</ele>
        <time>2018-02-10T13:05:36Z</time>
      </trkpt>
      <trkpt lat="45.1751" lon="3.50006">
        <ele>585</ele>
        <time>2018-02-10T13:05:39Z</time>
      </trkpt>
      <trkpt lat="45.17464" lon="3.49981">
        <ele>585</ele>
        <time>2018-02-10T13:05:42Z</time>
      </trkpt>
      <trkpt lat="45.17401" lon="3.49921">
        <ele>588</ele>
        <time>2018-02-10T13:05:46Z</time>
      </trkpt>
      <trkpt lat="45.17349" lon="3.49843">
        <ele>591</ele>
        <time>2018-02-10T13:05:50Z</time>
      </trkpt>
      <trkpt lat="45.1732" lon="3.49783">
        <ele>589</ele>
        <time>2018-02-10T13:05:53Z</time>
      </trkpt>
      <trkpt lat="45.1728" lon="3.49698">
        <ele>591</ele>
        <time>2018-02-10T13:05:57Z</time>
      </trkpt>
      <trkpt lat="45.17241" lon="3.49616">
        <ele>589</ele>
        <time>2018-02-10T13:06:01Z</time>
      </trkpt>
      <trkpt lat="45.1721" lon="3.49555">
        <ele>574</ele>
        <time>2018-02-10T13:06:04Z</time>
      </trkpt>
      <trkpt lat="45.17164" lon="3.49475">
        <ele>578</ele>
        <time>2018-02-10T13:06:08Z</time>
      </trkpt>
      <trkpt lat="45.17116" lon="3.49432">
        <ele>581</ele>
        <time>2018-02-10T13:06:11Z</time>
      </trkpt>
      <trkpt lat="45.17072" lon="3.49392">
        <ele>584</ele>
        <time>2018-02-10T13:06:14Z</time>
      </trkpt>
      <trkpt lat="45.17023" lon="3.49357">
        <ele>586</ele>
        <time>2018-02-10T13:06:17Z</time>
      </trkpt>
      <trkpt lat="45.16958" lon="3.49306">
        <ele>589</ele>
        <time>2018-02-10T13:06:21Z</time>
      </trkpt>
      <trkpt lat="45.16914" lon="3.49266">
        <ele>588</ele>
        <time>2018-02-10T13:06:24Z</time>
      </trkpt>
      <trkpt lat="45.16849" lon="3.49224">
        <ele>589</ele>
        <time>2018-02-10T13:06:28Z</time>
      </trkpt>
      <trkpt lat="45.16797" lon="3.4918">
        <ele>591</ele>
        <time>2018-02-10T13:06:31Z</time>
      </trkpt>
      <trkpt lat="45.1675" lon="3.49147">
        <ele>586</ele>
        <time>2018-02-10T13:06:34Z</time>
      </trkpt>
      <trkpt lat="45.167" lon="3.49132">
        <ele>600</ele>
        <time>2018-02-10T13:06:37Z</time>
      </trkpt>
      <trkpt lat="45.16628" lon="3.49118">
        <ele>610</ele>
        <time>2018-02-10T13:06:41Z</time>
      </trkpt>
      <trkpt lat="45.16576" lon="3.49115">
        <ele>607</ele>
        <time>2018-02-10T13:06:44Z</time>
      </trkpt>
      <trkpt lat="45.16508" lon="3.49124">
        <ele>605</ele>
        <time>2018-02-10T13:06:48Z</time>
      </trkpt>
      <trkpt lat="45.16453" lon="3.49141">
        <ele>604</ele>
        <time>2018-02-10T13:06:51Z</time>
      </trkpt>
      <trkpt lat="45.16386" lon="3.49179">
        <ele>607</ele>
        <time>2018-02-10T13:06:55Z</time>
      </trkpt>
      <trkpt lat="45.16324" lon="3.4921">
        <ele>604</ele>
        <time>2018-02-10T13:06:59Z</time>
      </trkpt>
      <trkpt lat="45.16277" lon="3.49241">
        <ele>604</ele>
        <time>2018-02-10T13:07:02Z</time>
      </trkpt>
      <trkpt lat="45.16212" lon="3.49286">
        <ele>605</ele>
        <time>2018-02-10T13:07:06Z</time>
      </trkpt>
      <trkpt lat="45.16155" lon="3.49332">
        <ele>603</ele>
        <time>2018-02-10T13:07:10Z</time>
      </trkpt>
      <trkpt lat="45.16119" lon="3.49358">
        <ele>603</ele>
        <time>2018-02-10T13:07:13Z</time>
      </trkpt>
      <trkpt lat="45.1608" lon="3.4943">
        <ele>598</ele>
        <time>2018-02-10T13:07:17Z</time>
      </trkpt>
      <trkpt lat="45.16049" lon="3.49485">
        <ele>602</ele>
        <time>2018-02-10T13:07:20Z</time>
      </trkpt>
      <trkpt lat="45.16012" lon="3.49563">
        <ele>606</ele>
        <time>2018-02-10T13:07:24Z</time>
      </trkpt>
      <trkpt lat="45.15981" lon="3.49637">
        <ele>606</ele>
        <time>2018-02-10T13:07:28Z</time>
      </trkpt>
      <trkpt lat="45.15952" lon="3.49696">
        <ele>606</ele>
        <time>2018-02-10T13:07:31Z</time>
      </trkpt>
      <trkpt lat="45.15926" lon="3.49756">
        <ele>610</ele>
        <time>2018-02-10T13:07:34Z</time>
      </trkpt>
      <trkpt lat="45.1589" lon="3.49832">
        <ele>610</ele>
        <time>2018-02-10T13:07:38Z</time>
      </trkpt>
      <trkpt lat="45.15853" lon="3.49898">
        <ele>609</ele>
        <time>2018-02-10T13:07:42Z</time>
      </trkpt>
      <trkpt lat="45.1582" lon="3.49943">
        <ele>609</ele>
        <time>2018-02-10T13:07:45Z</time>
      </trkpt>
      <trkpt lat="45.15773" lon="3.49995">
        <ele>612</ele>
        <time>2018-02-10T13:07:49Z</time>
      </trkpt>
      <trkpt lat="45.15735" lon="3.5003">
        <ele>610</ele>
        <time>2018-02-10T13:07:52Z</time>
      </trkpt>
      <trkpt lat="45.15683" lon="3.5007">
        <ele>612</ele>
        <time>2018-02-10T13:07:56Z</time>
      </trkpt>
      <trkpt lat="45.15622" lon="3.50101">
        <ele>611</ele>
        <time>2018-02-10T13:08:00Z</time>
      </trkpt>
      <trkpt lat="45.15556" lon="3.50124">
        <ele>610</ele>
        <time>2018-02-10T13:08:04Z</time>
      </trkpt>
      <trkpt lat="45.15506" lon="3.50138">
        <ele>612</ele>
        <time>2018-02-10T13:08:07Z</time>
      </trkpt>
      <trkpt lat="45.15439" lon="3.50132">
        <ele>612</ele>
        <time>2018-02-10T13:08:11Z</time>
      </trkpt>
      <trkpt lat="45.15365" lon="3.50131">
        <ele>615</ele>
        <time>2018-02-10T13:08:15Z</time>
      </trkpt>
      <trkpt lat="45.15316" lon="3.50114">
        <ele>616</ele>
        <time>2018-02-10T13:08:18Z</time>
      </trkpt>
      <trkpt lat="45.15267" lon="3.50095">
        <ele>578</ele>
        <time>2018-02-10T13:08:21Z</time>
      </trkpt>
      <trkpt lat="45.15184" lon="3.50044">
        <ele>593</ele>
        <time>2018-02-10T13:08:25Z</time>
      </trkpt>
      <trkpt lat="45.15102" lon="3.50046">
        <ele>601</ele>
        <time>2018-02-10T13:08:29Z</time>
      </trkpt>
      <trkpt lat="45.15023" lon="3.50069">
        <ele>604</ele>
        <time>2018-02-10T13:08:33Z</time>
      </trkpt>
      <trkpt lat="45.14944" lon="3.50087">
        <ele>605</ele>
        <time>2018-02-10T13:08:37Z</time>
      </trkpt>
      <trkpt lat="45.14861" lon="3.50106">
        <ele>607</ele>
        <time>2018-02-10T13:08:41Z</time>
      </trkpt>
      <trkpt lat="45.14802" lon="3.50113">
        <ele>603</ele>
        <time>2018-02-10T13:08:44Z</time>
      </trkpt>
      <trkpt lat="45.14738" lon="3.50102">
        <ele>604</ele>
        <time>2018-02-10T13:08:47Z</time>
      </trkpt>
      <trkpt lat="45.14676" lon="3.50089">
        <ele>603</ele>
        <time>2018-02-10T13:08:50Z</time>
      </trkpt>
      <trkpt lat="45.1459" lon="3.50062">
        <ele>603</ele>
        <time>2018-02-10T13:08:54Z</time>
      </trkpt>
      <trkpt lat="45.14496" lon="3.50045">
        <ele>606</ele>
        <time>2018-02-10T13:08:58Z</time>
      </trkpt>
      <trkpt lat="45.14415" lon="3.50049">
        <ele>602</ele>
        <time>2018-02-10T13:09:02Z</time>
      </trkpt>
      <trkpt lat="45.14326" lon="3.50065">
        <ele>600</ele>
        <time>2018-02-10T13:09:06Z</time>
      </trkpt>
      <trkpt lat="45.14264" lon="3.50069">
        <ele>599</ele>
        <time>2018-02-10T13:09:09Z</time>
      </trkpt>
      <trkpt lat="45.14197" lon="3.50062">
        <ele>601</ele>
        <time>2018-02-10T13:09:12Z</time>
      </trkpt>
      <trkpt lat="45.14106" lon="3.50018">
        <ele>604</ele>
        <time>2018-02-10T13:09:16Z</time>
      </trkpt>
      <trkpt lat="45.14046" lon="3.4997">
        <ele>604</ele>
        <time>2018-02-10T13:09:19Z</time>
      </trkpt>
      <trkpt lat="45.13979" lon="3.49884">
        <ele>600</ele>
        <time>2018-02-10T13:09:23Z</time>
      </trkpt>
      <trkpt lat="45.13928" lon="3.49819">
        <ele>598</ele>
        <time>2018-02-10T13:09:26Z</time>
      </trkpt>
      <trkpt lat="45.13842" lon="3.49759">
        <ele>598</ele>
        <time>2018-02-10T13:09:30Z</time>
      </trkpt>
      <trkpt lat="45.13777" lon="3.49738">
        <ele>597</ele>
        <time>2018-02-10T13:09:33Z</time>
      </trkpt>
      <trkpt lat="45.13706" lon="3.49731">
        <ele>594</ele>
        <time>2018-02-10T13:09:36Z</time>
      </trkpt>
      <trkpt lat="45.13608" lon="3.49756">
        <ele>591</ele>
        <time>2018-02-10T13:09:40Z</time>
      </trkpt>
      <trkpt lat="45.13538" lon="3.49777">
        <ele>588</ele>
        <time>2018-02-10T13:09:43Z</time>
      </trkpt>
      <trkpt lat="45.13466" lon="3.49787">
        <ele>589</ele>
        <time>2018-02-10T13:09:46Z</time>
      </trkpt>
      <trkpt lat="45.13376" lon="3.49776">
        <ele>594</ele>
        <time>2018-02-10T13:09:50Z</time>
      </trkpt>
      <trkpt lat="45.13285" lon="3.49739">
        <ele>594</ele>
        <time>2018-02-10T13:09:54Z</time>
      </trkpt>
      <trkpt lat="45.13213" lon="3.49722">
        <ele>593</ele>
        <time>2018-02-10T13:09:57Z</time>
      </trkpt>
      <trkpt lat="45.13124" lon="3.49728">
        <ele>595</ele>
        <time>2018-02-10T13:10:01Z</time>
      </trkpt>
      <trkpt lat="45.13052" lon="3.49763">
        <ele>594</ele>
        <time>2018-02-10T13:10:04Z</time>
      </trkpt>
      <trkpt lat="45.12982" lon="3.49827">
        <ele>593</ele>
        <time>2018-02-10T13:10:08Z</time>
      </trkpt>
      <trkpt lat="45.12917" lon="3.49914">
        <ele>588</ele>
        <time>2018-02-10T13:10:12Z</time>
      </trkpt>
      <trkpt lat="45.12854" lon="3.50007">
        <ele>586</ele>
        <time>2018-02-10T13:10:16Z</time>
      </trkpt>
      <trkpt lat="45.12789" lon="3.50104">
        <ele>581</ele>
        <time>2018-02-10T13:10:20Z</time>
      </trkpt>
      <trkpt lat="45.12732" lon="3.50161">
        <ele>581</ele>
        <time>2018-02-10T13:10:23Z</time>
      </trkpt>
      <trkpt lat="45.1265" lon="3.50213">
        <ele>583</ele>
        <time>2018-02-10T13:10:27Z</time>
      </trkpt>
      <trkpt lat="45.12558" lon="3.50239">
        <ele>577</ele>
        <time>2018-02-10T13:10:31Z</time>
      </trkpt>
      <trkpt lat="45.12456" lon="3.50224">
        <ele>579</ele>
        <time>2018-02-10T13:10:35Z</time>
      </trkpt>
      <trkpt lat="45.12369" lon="3.50185">
        <ele>582</ele>
        <time>2018-02-10T13:10:39Z</time>
      </trkpt>
      <trkpt lat="45.1231" lon="3.50142">
        <ele>578</ele>
        <time>2018-02-10T13:10:42Z</time>
      </trkpt>
      <trkpt lat="45.12218" lon="3.50106">
        <ele>576</ele>
        <time>2018-02-10T13:10:46Z</time>
      </trkpt>
      <trkpt lat="45.12123" lon="3.50103">
        <ele>577</ele>
        <time>2018-02-10T13:10:50Z</time>
      </trkpt>
      <trkpt lat="45.12034" lon="3.50111">
        <ele>572</ele>
        <time>2018-02-10T13:10:54Z</time>
      </trkpt>
      <trkpt lat="45.1194" lon="3.50121">
        <ele>573</ele>
        <time>2018-02-10T13:10:58Z</time>
      </trkpt>
      <trkpt lat="45.11848" lon="3.5011">
        <ele>575</ele>
        <time>2018-02-10T13:11:02Z</time>
      </trkpt>
      <trkpt lat="45.11758" lon="3.50064">
        <ele>574</ele>
        <time>2018-02-10T13:11:06Z</time>
      </trkpt>
      <trkpt lat="45.11699" lon="3.50017">
        <ele>575</ele>
        <time>2018-02-10T13:11:09Z</time>
      </trkpt>
      <trkpt lat="45.11628" lon="3.4993">
        <ele>572</ele>
        <time>2018-02-10T13:11:13Z</time>
      </trkpt>
      <trkpt lat="45.11564" lon="3.49838">
        <ele>575</ele>
        <time>2018-02-10T13:11:17Z</time>
      </trkpt>
      <trkpt lat="45.1153" lon="3.49752">
        <ele>573</ele>
        <time>2018-02-10T13:11:20Z</time>
      </trkpt>
      <trkpt lat="45.11494" lon="3.49669">
        <ele>575</ele>
        <time>2018-02-10T13:11:23Z</time>
      </trkpt>
      <trkpt lat="45.11443" lon="3.49564">
        <ele>575</ele>
        <time>2018-02-10T13:11:27Z</time>
      </trkpt>
      <trkpt lat="45.11398" lon="3.49453">
        <ele>578</ele>
        <time>2018-02-10T13:11:31Z</time>
      </trkpt>
      <trkpt lat="45.11363" lon="3.49372">
        <ele>576</ele>
        <time>2018-02-10T13:11:34Z</time>
      </trkpt>
      <trkpt lat="45.11329" lon="3.49292">
        <ele>574</ele>
        <time>2018-02-10T13:11:37Z</time>
      </trkpt>
      <trkpt lat="45.11295" lon="3.49214">
        <ele>575</ele>
        <time>2018-02-10T13:11:40Z</time>
      </trkpt>
      <trkpt lat="45.11256" lon="3.49113">
        <ele>572</ele>
        <time>2018-02-10T13:11:44Z</time>
      </trkpt>
      <trkpt lat="45.11214" lon="3.49019">
        <ele>572</ele>
        <time>2018-02-10T13:11:48Z</time>
      </trkpt>
      <trkpt lat="45.11165" lon="3.48946">
        <ele>573</ele>
        <time>2018-02-10T13:11:52Z</time>
      </trkpt>
      <trkpt lat="45.11107" lon="3.48889">
        <ele>571</ele>
        <time>2018-02-10T13:11:56Z</time>
      </trkpt>
      <trkpt lat="45.11051" lon="3.48846">
        <ele>570</ele>
        <time>2018-02-10T13:12:00Z</time>
      </trkpt>
      <trkpt lat="45.10991" lon="3.48824">
        <ele>570</ele>
        <time>2018-02-10T13:12:04Z</time>
      </trkpt>
      <trkpt lat="45.10949" lon="3.48814">
        <ele>568</ele>
        <time>2018-02-10T13:12:07Z</time>
      </trkpt>
      <trkpt lat="45.10895" lon="3.48813">
        <ele>569</ele>
        <time>2018-02-10T13:12:11Z</time>
      </trkpt>
      <trkpt lat="45.10842" lon="3.48821">
        <ele>571</ele>
        <time>2018-02-10T13:12:15Z</time>
      </trkpt>
      <trkpt lat="45.10806" lon="3.48833">
        <ele>570</ele>
        <time>2018-02-10T13:12:18Z</time>
      </trkpt>
      <trkpt lat="45.10758" lon="3.48848">
        <ele>570</ele>
        <time>2018-02-10T13:12:22Z</time>
      </trkpt>
      <trkpt lat="45.10726" lon="3.48858">
        <ele>567</ele>
        <time>2018-02-10T13:12:25Z</time>
      </trkpt>
      <trkpt lat="45.10684" lon="3.48872">
        <ele>567</ele>
        <time>2018-02-10T13:12:29Z</time>
      </trkpt>
      <trkpt lat="45.10653" lon="3.48878">
        <ele>566</ele>
        <time>2018-02-10T13:12:32Z</time>
      </trkpt>
      <trkpt lat="45.10616" lon="3.48891">
        <ele>568</ele>
        <time>2018-02-10T13:12:36Z</time>
      </trkpt>
      <trkpt lat="45.10594" lon="3.48898">
        <ele>567</ele>
        <time>2018-02-10T13:12:39Z</time>
      </trkpt>
      <trkpt lat="45.10572" lon="3.48904">
        <ele>566</ele>
        <time>2018-02-10T13:12:42Z</time>
      </trkpt>
      <trkpt lat="45.10542" lon="3.48913">
        <ele>565</ele>
        <time>2018-02-10T13:12:46Z</time>
      </trkpt>
      <trkpt lat="45.10514" lon="3.4893">
        <ele>566</ele>
        <time>2018-02-10T13:12:50Z</time>
      </trkpt>
      <trkpt lat="45.10494" lon="3.48935">
        <ele>566</ele>
        <time>2018-02-10T13:12:53Z</time>
      </trkpt>
      <trkpt lat="45.10464" lon="3.48938">
        <ele>566</ele>
        <time>2018-02-10T13:12:57Z</time>
      </trkpt>
      <trkpt lat="45.10438" lon="3.4895">
        <ele>568</ele>
        <time>2018-02-10T13:13:01Z</time>
      </trkpt>
      <trkpt lat="45.10419" lon="3.48956">
        <ele>567</ele>
        <time>2018-02-10T13:13:04Z</time>
      </trkpt>
      <trkpt lat="45.104" lon="3.48965">
        <ele>569</ele>
        <time>2018-02-10T13:13:07Z</time>
      </trkpt>
      <trkpt lat="45.10376" lon="3.48973">
        <ele>568</ele>
        <time>2018-02-10T13:13:11Z</time>
      </trkpt>
      <trkpt lat="45.10348" lon="3.48982">
        <ele>566</ele>
        <time>2018-02-10T13:13:15Z</time>
      </trkpt>
      <trkpt lat="45.10331" lon="3.48994">
        <ele>565</ele>
        <time>2018-02-10T13:13:18Z</time>
      </trkpt>
      <trkpt lat="45.10308" lon="3.48998">
        <ele>565</ele>
        <time>2018-02-10T13:13:21Z</time>
      </trkpt>
      <trkpt lat="45.10283" lon="3.49005">
        <ele>566</ele>
        <time>2018-02-10T13:13:25Z</time>
      </trkpt>
      <trkpt lat="45.10262" lon="3.4901">
        <ele>567</ele>
        <time>2018-02-10T13:13:28Z</time>
      </trkpt>
      <trkpt lat="45.10236" lon="3.49019">
        <ele>569</ele>
        <time>2018-02-10T13:13:32Z</time>
      </trkpt>
      <trkpt lat="45.10213" lon="3.49024">
        <ele>569</ele>
        <time>2018-02-10T13:13:36Z</time>
      </trkpt>
      <trkpt lat="45.10194" lon="3.49032">
        <ele>569</ele>
        <time>2018-02-10T13:13:40Z</time>
      </trkpt>
      <trkpt lat="45.10176" lon="3.4904">
        <ele>568</ele>
        <time>2018-02-10T13:13:44Z</time>
      </trkpt>
      <trkpt lat="45.10162" lon="3.49044">
        <ele>569</ele>
        <time>2018-02-10T13:13:48Z</time>
      </trkpt>
      <trkpt lat="45.10155" lon="3.49047">
        <ele>571</ele>
        <time>2018-02-10T13:13:51Z</time>
      </trkpt>
      <trkpt lat="45.10149" lon="3.49049">
        <ele>574</ele>
        <time>2018-02-10T13:13:54Z</time>
      </trkpt>
      <trkpt lat="45.10148" lon="3.49049">
        <ele>576</ele>
        <time>2018-02-10T13:13:57Z</time>
      </trkpt>
      <trkpt lat="45.10149" lon="3.49049">
        <ele>576</ele>
        <time>2018-02-10T13:14:01Z</time>
      </trkpt>
      <trkpt lat="45.10149" lon="3.4905">
        <ele>576</ele>
        <time>2018-02-10T13:14:04Z</time>
      </trkpt>
      <trkpt lat="45.10149" lon="3.4905">
        <ele>576</ele>
        <time>2018-02-10T13:14:08Z</time>
      </trkpt>
      <trkpt lat="45.10149" lon="3.49051">
        <ele>576</ele>
        <time>2018-02-10T13:14:12Z</time>
      </trkpt>
      <trkpt lat="45.10149" lon="3.4905">
        <ele>576</ele>
        <time>2018-02-10T13:14:16Z</time>
      </trkpt>
      <trkpt lat="45.10149" lon="3.4905">
        <ele>577</ele>
        <time>2018-02-10T13:14:20Z</time>
      </trkpt>
      <trkpt lat="45.10149" lon="3.49051">
        <ele>578</ele>
        <time>2018-02-10T13:14:23Z</time>
      </trkpt>
      <trkpt lat="45.10148" lon="3.49052">
        <ele>578</ele>
        <time>2018-02-10T13:14:26Z</time>
      </trkpt>
      <trkpt lat="45.10148" lon="3.49052">
        <ele>578</ele>
        <time>2018-02-10T13:14:30Z</time>
      </trkpt>
      <trkpt lat="45.10148" lon="3.49052">
        <ele>578</ele>
        <time>2018-02-10T13:14:34Z</time>
      </trkpt>
      <trkpt lat="45.10148" lon="3.49052">
        <ele>578</ele>
        <time>2018-02-10T13:14:38Z</time>
      </trkpt>
      <trkpt lat="45.10148" lon="3.49052">
        <ele>578</ele>
        <time>2018-02-10T13:14:41Z</time>
      </trkpt>
      <trkpt lat="45.10148" lon="3.49052">
        <ele>578</ele>
        <time>2018-02-10T13:14:44Z</time>
      </trkpt>
      <trkpt lat="45.10148" lon="3.49052">
        <ele>578</ele>
        <time>2018-02-10T13:14:47Z</time>
      </trkpt>
      <trkpt lat="45.10148" lon="3.49052">
        <ele>578</ele>
        <time>2018-02-10T13:14:51Z</time>
      </trkpt>
      <trkpt lat="45.10148" lon="3.49052">
        <ele>578</ele>
        <time>2018-02-10T13:14:55Z</time>
      </trkpt>
      <trkpt lat="45.10148" lon="3.49052">
        <ele>578</ele>
        <time>2018-02-10T13:14:59Z</time>
      </trkpt>
      <trkpt lat="45.10148" lon="3.49052">
        <ele>578</ele>
        <time>2018-02-10T13:15:02Z</time>
      </trkpt>
      <trkpt lat="45.10148" lon="3.49052">
        <ele>578</ele>
        <time>2018-02-10T13:15:05Z</time>
      </trkpt>
      <trkpt lat="45.10148" lon="3.49052">
        <ele>578</ele>
        <time>2018-02-10T13:15:09Z</time>
      </trkpt>
      <trkpt lat="45.10148" lon="3.49052">
        <ele>578</ele>
        <time>2018-02-10T13:15:13Z</time>
      </trkpt>
      <trkpt lat="45.10148" lon="3.49052">
        <ele>578</ele>
        <time>2018-02-10T13:15:17Z</time>
      </trkpt>
      <trkpt lat="45.10148" lon="3.49052">
        <ele>578</ele>
        <time>2018-02-10T13:15:20Z</time>
      </trkpt>
      <trkpt lat="45.10148" lon="3.49052">
        <ele>578</ele>
        <time>2018-02-10T13:15:23Z</time>
      </trkpt>
      <trkpt lat="45.10148" lon="3.49052">
        <ele>578</ele>
        <time>2018-02-10T13:15:27Z</time>
      </trkpt>
      <trkpt lat="45.10148" lon="3.49052">
        <ele>578</ele>
        <time>2018-02-10T13:15:30Z</time>
      </trkpt>
      <trkpt lat="45.10148" lon="3.49052">
        <ele>578</ele>
        <time>2018-02-10T13:15:34Z</time>
      </trkpt>
      <trkpt lat="45.10148" lon="3.49052">
        <ele>578</ele>
        <time>2018-02-10T13:15:38Z</time>
      </trkpt>
      <trkpt lat="45.10148" lon="3.49052">
        <ele>578</ele>
        <time>2018-02-10T13:15:41Z</time>
      </trkpt>
      <trkpt lat="45.10148" lon="3.49052">
        <ele>578</ele>
        <time>2018-02-10T13:15:44Z</time>
      </trkpt>
      <trkpt lat="45.10148" lon="3.49052">
        <ele>578</ele>
        <time>2018-02-10T13:15:48Z</time>
      </trkpt>
      <trkpt lat="45.10148" lon="3.49052">
        <ele>578</ele>
        <time>2018-02-10T13:15:51Z</time>
      </trkpt>
      <trkpt lat="45.10148" lon="3.49052">
        <ele>578</ele>
        <time>2018-02-10T13:15:55Z</time>
      </trkpt>
      <trkpt lat="45.10148" lon="3.49052">
        <ele>578</ele>
        <time>2018-02-10T13:15:59Z</time>
      </trkpt>
      <trkpt lat="45.10148" lon="3.49052">
        <ele>578</ele>
        <time>2018-02-10T13:16:02Z</time>
      </trkpt>
      <trkpt lat="45.10148" lon="3.49052">
        <ele>578</ele>
        <time>2018-02-10T13:16:06Z</time>
      </trkpt>
      <trkpt lat="45.10148" lon="3.49052">
        <ele>578</ele>
        <time>2018-02-10T13:16:10Z</time>
      </trkpt>
      <trkpt lat="45.10148" lon="3.49052">
        <ele>578</ele>
        <time>2018-02-10T13:16:14Z</time>
      </trkpt>
      <trkpt lat="45.10148" lon="3.49052">
        <ele>578</ele>
        <time>2018-02-10T13:16:18Z</time>
      </trkpt>
      <trkpt lat="45.10148" lon="3.49052">
        <ele>578</ele>
        <time>2018-02-10T13:16:22Z</time>
      </trkpt>
      <trkpt lat="45.10148" lon="3.49052">
        <ele>578</ele>
        <time>2018-02-10T13:16:26Z</time>
      </trkpt>
      <trkpt lat="45.10148" lon="3.49052">
        <ele>578</ele>
        <time>2018-02-10T13:16:30Z</time>
      </trkpt>
      <trkpt lat="45.10148" lon="3.49052">
        <ele>578</ele>
        <time>2018-02-10T13:16:34Z</time>
      </trkpt>
      <trkpt lat="45.10148" lon="3.49052">
        <ele>578</ele>
        <time>2018-02-10T13:16:38Z</time>
      </trkpt>
      <trkpt lat="45.10148" lon="3.49052">
        <ele>578</ele>
        <time>2018-02-10T13:16:42Z</time>
      </trkpt>
      <trkpt lat="45.10148" lon="3.49052">
        <ele>578</ele>
        <time>2018-02-10T13:16:45Z</time>
      </trkpt>
      <trkpt lat="45.10148" lon="3.49052">
        <ele>578</ele>
        <time>2018-02-10T13:16:48Z</time>
      </trkpt>
      <trkpt lat="45.10148" lon="3.49052">
        <ele>578</ele>
        <time>2018-02-10T13:16:52Z</time>
      </trkpt>
      <trkpt lat="45.10148" lon="3.49052">
        <ele>578</ele>
        <time>2018-02-10T13:16:56Z</time>
      </trkpt>
      <trkpt lat="45.10148" lon="3.49052">
        <ele>578</ele>
        <time>2018-02-10T13:17:00Z</time>
      </trkpt>
      <trkpt lat="45.10148" lon="3.49052">
        <ele>578</ele>
        <time>2018-02-10T13:17:03Z</time>
      </trkpt>
      <trkpt lat="45.10148" lon="3.49052">
        <ele>578</ele>
        <time>2018-02-10T13:17:07Z</time>
      </trkpt>
      <trkpt lat="45.10148" lon="3.49052">
        <ele>578</ele>
        <time>2018-02-10T13:17:10Z</time>
      </trkpt>
      <trkpt lat="45.10148" lon="3.49052">
        <ele>578</ele>
        <time>2018-02-10T13:17:13Z</time>
      </trkpt>
      <trkpt lat="45.10148" lon="3.49052">
        <ele>578</ele>
        <time>2018-02-10T13:17:17Z</time>
      </trkpt>
      <trkpt lat="45.10149" lon="3.49052">
        <ele>578</ele>
        <time>2018-02-10T13:17:21Z</time>
      </trkpt>
      <trkpt lat="45.10149" lon="3.49052">
        <ele>578</ele>
        <time>2018-02-10T13:17:24Z</time>
      </trkpt>
      <trkpt lat="45.10149" lon="3.49052">
        <ele>578</ele>
        <time>2018-02-10T13:17:27Z</time>
      </trkpt>
      <trkpt lat="45.10149" lon="3.49052">
        <ele>578</ele>
        <time>2018-02-10T13:17:31Z</time>
      </trkpt>
      <trkpt lat="45.10149" lon="3.49052">
        <ele>578</ele>
        <time>2018-02-10T13:17:34Z</time>
      </trkpt>
      <trkpt lat="45.10149" lon="3.49052">
        <ele>578</ele>
        <time>2018-02-10T13:17:38Z</time>
      </trkpt>
      <trkpt lat="45.10149" lon="3.49052">
        <ele>578</ele>
        <time>2018-02-10T13:17:41Z</time>
      </trkpt>
      <trkpt lat="45.10149" lon="3.49052">
        <ele>578</ele>
        <time>2018-02-10T13:17:44Z</time>
      </trkpt>
      <trkpt lat="45.10149" lon="3.49052">
        <ele>578</ele>
        <time>2018-02-10T13:17:48Z</time>
      </trkpt>
      <trkpt lat="45.10149" lon="3.49052">
        <ele>578</ele>
        <time>2018-02-10T13:17:51Z</time>
      </trkpt>
      <trkpt lat="45.10149" lon="3.49052">
        <ele>578</ele>
        <time>2018-02-10T13:17:55Z</time>
      </trkpt>
      <trkpt lat="45.10149" lon="3.49052">
        <ele>578</ele>
        <time>2018-02-10T13:17:58Z</time>
      </trkpt>
      <trkpt lat="45.10149" lon="3.49052">
        <ele>578</ele>
        <time>2018-02-10T13:18:01Z</time>
      </trkpt>
      <trkpt lat="45.10149" lon="3.49052">
        <ele>578</ele>
        <time>2018-02-10T13:18:05Z</time>
      </trkpt>
      <trkpt lat="45.10149" lon="3.49052">
        <ele>578</ele>
        <time>2018-02-10T13:18:09Z</time>
      </trkpt>
      <trkpt lat="45.10149" lon="3.49052">
        <ele>578</ele>
        <time>2018-02-10T13:18:13Z</time>
      </trkpt>
      <trkpt lat="45.10149" lon="3.49052">
        <ele>578</ele>
        <time>2018-02-10T13:18:16Z</time>
      </trkpt>
      <trkpt lat="45.10146" lon="3.49053">
        <ele>577</ele>
        <time>2018-02-10T13:18:20Z</time>
      </trkpt>
      <trkpt lat="45.10128" lon="3.4906">
        <ele>566</ele>
        <time>2018-02-10T13:18:23Z</time>
      </trkpt>
      <trkpt lat="45.10099" lon="3.49071">
        <ele>560</ele>
        <time>2018-02-10T13:18:27Z</time>
      </trkpt>
      <trkpt lat="45.10067" lon="3.49078">
        <ele>565</ele>
        <time>2018-02-10T13:18:31Z</time>
      </trkpt>
      <trkpt lat="45.10032" lon="3.49091">
        <ele>564</ele>
        <time>2018-02-10T13:18:35Z</time>
      </trkpt>
      <trkpt lat="45.10016" lon="3.49098">
        <ele>560</ele>
        <time>2018-02-10T13:18:38Z</time>
      </trkpt>
      <trkpt lat="45.09989" lon="3.49109">
        <ele>561</ele>
        <time>2018-02-10T13:18:42Z</time>
      </trkpt>
      <trkpt lat="45.09957" lon="3.49116">
        <ele>562</ele>
        <time>2018-02-10T13:18:46Z</time>
      </trkpt>
      <trkpt lat="45.09932" lon="3.49124">
        <ele>562</ele>
        <time>2018-02-10T13:18:50Z</time>
      </trkpt>
      <trkpt lat="45.09911" lon="3.49129">
        <ele>563</ele>
        <time>2018-02-10T13:18:53Z</time>
      </trkpt>
      <trkpt lat="45.09889" lon="3.49135">
        <ele>563</ele>
        <time>2018-02-10T13:18:56Z</time>
      </trkpt>
      <trkpt lat="45.09863" lon="3.49147">
        <ele>564</ele>
        <time>2018-02-10T13:19:00Z</time>
      </trkpt>
      <trkpt lat="45.09831" lon="3.49161">
        <ele>562</ele>
        <time>2018-02-10T13:19:04Z</time>
      </trkpt>
      <trkpt lat="45.09808" lon="3.4917">
        <ele>562</ele>
        <time>2018-02-10T13:19:07Z</time>
      </trkpt>
      <trkpt lat="45.09779" lon="3.49191">
        <ele>564</ele>
        <time>2018-02-10T13:19:11Z</time>
      </trkpt>
      <trkpt lat="45.09759" lon="3.49207">
        <ele>562</ele>
        <time>2018-02-10T13:19:14Z</time>
      </trkpt>
      <trkpt lat="45.09727" lon="3.49231">
        <ele>563</ele>
        <time>2018-02-10T13:19:18Z</time>
      </trkpt>
      <trkpt lat="45.097" lon="3.4926">
        <ele>565</ele>
        <time>2018-02-10T13:19:21Z</time>
      </trkpt>
      <trkpt lat="45.09661" lon="3.49306">
        <ele>568</ele>
        <time>2018-02-10T13:19:25Z</time>
      </trkpt>
      <trkpt lat="45.09632" lon="3.49349">
        <ele>570</ele>
        <time>2018-02-10T13:19:28Z</time>
      </trkpt>
      <trkpt lat="45.09596" lon="3.49418">
        <ele>570</ele>
        <time>2018-02-10T13:19:32Z</time>
      </trkpt>
      <trkpt lat="45.09565" lon="3.49495">
        <ele>569</ele>
        <time>2018-02-10T13:19:36Z</time>
      </trkpt>
      <trkpt lat="45.09533" lon="3.49583">
        <ele>568</ele>
        <time>2018-02-10T13:19:40Z</time>
      </trkpt>
      <trkpt lat="45.09508" lon="3.49653">
        <ele>568</ele>
        <time>2018-02-10T13:19:43Z</time>
      </trkpt>
      <trkpt lat="45.09472" lon="3.49752">
        <ele>568</ele>
        <time>2018-02-10T13:19:47Z</time>
      </trkpt>
      <trkpt lat="45.09444" lon="3.49831">
        <ele>569</ele>
        <time>2018-02-10T13:19:50Z</time>
      </trkpt>
      <trkpt lat="45.09406" lon="3.49937">
        <ele>569</ele>
        <time>2018-02-10T13:19:54Z</time>
      </trkpt>
      <trkpt lat="45.09378" lon="3.50012">
        <ele>568</ele>
        <time>2018-02-10T13:19:57Z</time>
      </trkpt>
      <trkpt lat="45.0935" lon="3.50088">
        <ele>568</ele>
        <time>2018-02-10T13:20:00Z</time>
      </trkpt>
      <trkpt lat="45.09313" lon="3.5019">
        <ele>568</ele>
        <time>2018-02-10T13:20:04Z</time>
      </trkpt>
      <trkpt lat="45.09277" lon="3.50286">
        <ele>566</ele>
        <time>2018-02-10T13:20:08Z</time>
      </trkpt>
      <trkpt lat="45.09256" lon="3.50364">
        <ele>566</ele>
        <time>2018-02-10T13:20:11Z</time>
      </trkpt>
      <trkpt lat="45.0924" lon="3.50446">
        <ele>566</ele>
        <time>2018-02-10T13:20:14Z</time>
      </trkpt>
      <trkpt lat="45.09229" lon="3.50557">
        <ele>567</ele>
        <time>2018-02-10T13:20:18Z</time>
      </trkpt>
      <trkpt lat="45.09226" lon="3.50668">
        <ele>570</ele>
        <time>2018-02-10T13:20:22Z</time>
      </trkpt>
      <trkpt lat="45.09232" lon="3.5078">
        <ele>568</ele>
        <time>2018-02-10T13:20:26Z</time>
      </trkpt>
      <trkpt lat="45.09243" lon="3.50859">
        <ele>568</ele>
        <time>2018-02-10T13:20:29Z</time>
      </trkpt>
      <trkpt lat="45.09262" lon="3.50967">
        <ele>569</ele>
        <time>2018-02-10T13:20:33Z</time>
      </trkpt>
      <trkpt lat="45.0928" lon="3.51077">
        <ele>571</ele>
        <time>2018-02-10T13:20:37Z</time>
      </trkpt>
      <trkpt lat="45.0929" lon="3.51188">
        <ele>571</ele>
        <time>2018-02-10T13:20:41Z</time>
      </trkpt>
      <trkpt lat="45.09294" lon="3.51301">
        <ele>570</ele>
        <time>2018-02-10T13:20:45Z</time>
      </trkpt>
      <trkpt lat="45.09291" lon="3.51385">
        <ele>570</ele>
        <time>2018-02-10T13:20:48Z</time>
      </trkpt>
      <trkpt lat="45.0927" lon="3.51499">
        <ele>570</ele>
        <time>2018-02-10T13:20:52Z</time>
      </trkpt>
      <trkpt lat="45.09255" lon="3.51607">
        <ele>568</ele>
        <time>2018-02-10T13:20:56Z</time>
      </trkpt>
      <trkpt lat="45.09237" lon="3.51721">
        <ele>569</ele>
        <time>2018-02-10T13:21:00Z</time>
      </trkpt>
      <trkpt lat="45.0922" lon="3.51832">
        <ele>571</ele>
        <time>2018-02-10T13:21:04Z</time>
      </trkpt>
      <trkpt lat="45.09204" lon="3.51946">
        <ele>574</ele>
        <time>2018-02-10T13:21:08Z</time>
      </trkpt>
      <trkpt lat="45.09192" lon="3.52027">
        <ele>575</ele>
        <time>2018-02-10T13:21:11Z</time>
      </trkpt>
      <trkpt lat="45.0918" lon="3.52109">
        <ele>575</ele>
        <time>2018-02-10T13:21:14Z</time>
      </trkpt>
      <trkpt lat="45.09165" lon="3.52216">
        <ele>577</ele>
        <time>2018-02-10T13:21:18Z</time>
      </trkpt>
      <trkpt lat="45.09149" lon="3.52324">
        <ele>578</ele>
        <time>2018-02-10T13:21:22Z</time>
      </trkpt>
      <trkpt lat="45.09136" lon="3.52404">
        <ele>577</ele>
        <time>2018-02-10T13:21:25Z</time>
      </trkpt>
      <trkpt lat="45.09117" lon="3.52485">
        <ele>576</ele>
        <time>2018-02-10T13:21:28Z</time>
      </trkpt>
      <trkpt lat="45.09083" lon="3.52588">
        <ele>577</ele>
        <time>2018-02-10T13:21:32Z</time>
      </trkpt>
      <trkpt lat="45.0905" lon="3.52656">
        <ele>578</ele>
        <time>2018-02-10T13:21:35Z</time>
      </trkpt>
      <trkpt lat="45.08998" lon="3.52736">
        <ele>578</ele>
        <time>2018-02-10T13:21:39Z</time>
      </trkpt>
      <trkpt lat="45.08942" lon="3.52818">
        <ele>580</ele>
        <time>2018-02-10T13:21:43Z</time>
      </trkpt>
      <trkpt lat="45.08887" lon="3.52895">
        <ele>580</ele>
        <time>2018-02-10T13:21:47Z</time>
      </trkpt>
      <trkpt lat="45.0883" lon="3.52976">
        <ele>580</ele>
        <time>2018-02-10T13:21:51Z</time>
      </trkpt>
      <trkpt lat="45.08791" lon="3.53034">
        <ele>581</ele>
        <time>2018-02-10T13:21:54Z</time>
      </trkpt>
      <trkpt lat="45.08741" lon="3.53092">
        <ele>575</ele>
        <time>2018-02-10T13:21:57Z</time>
      </trkpt>
      <trkpt lat="45.08688" lon="3.53172">
        <ele>576</ele>
        <time>2018-02-10T13:22:01Z</time>
      </trkpt>
      <trkpt lat="45.08649" lon="3.53233">
        <ele>574</ele>
        <time>2018-02-10T13:22:04Z</time>
      </trkpt>
      <trkpt lat="45.08587" lon="3.5329">
        <ele>574</ele>
        <time>2018-02-10T13:22:08Z</time>
      </trkpt>
      <trkpt lat="45.08475" lon="3.53335">
        <ele>576</ele>
        <time>2018-02-10T13:22:14Z</time>
      </trkpt>
      <trkpt lat="45.08391" lon="3.53337">
        <ele>575</ele>
        <time>2018-02-10T13:22:18Z</time>
      </trkpt>
      <trkpt lat="45.08337" lon="3.53305">
        <ele>578</ele>
        <time>2018-02-10T13:22:21Z</time>
      </trkpt>
      <trkpt lat="45.08261" lon="3.53263">
        <ele>577</ele>
        <time>2018-02-10T13:22:25Z</time>
      </trkpt>
      <trkpt lat="45.08186" lon="3.53223">
        <ele>579</ele>
        <time>2018-02-10T13:22:29Z</time>
      </trkpt>
      <trkpt lat="45.0813" lon="3.53192">
        <ele>579</ele>
        <time>2018-02-10T13:22:32Z</time>
      </trkpt>
      <trkpt lat="45.08055" lon="3.53147">
        <ele>580</ele>
        <time>2018-02-10T13:22:36Z</time>
      </trkpt>
      <trkpt lat="45.07989" lon="3.53086">
        <ele>580</ele>
        <time>2018-02-10T13:22:40Z</time>
      </trkpt>
      <trkpt lat="45.07947" lon="3.53026">
        <ele>579</ele>
        <time>2018-02-10T13:22:43Z</time>
      </trkpt>
      <trkpt lat="45.07898" lon="3.52934">
        <ele>579</ele>
        <time>2018-02-10T13:22:47Z</time>
      </trkpt>
      <trkpt lat="45.07865" lon="3.52865">
        <ele>580</ele>
        <time>2018-02-10T13:22:50Z</time>
      </trkpt>
      <trkpt lat="45.07812" lon="3.52787">
        <ele>581</ele>
        <time>2018-02-10T13:22:54Z</time>
      </trkpt>
      <trkpt lat="45.0776" lon="3.52742">
        <ele>580</ele>
        <time>2018-02-10T13:22:57Z</time>
      </trkpt>
      <trkpt lat="45.07682" lon="3.5272">
        <ele>582</ele>
        <time>2018-02-10T13:23:01Z</time>
      </trkpt>
      <trkpt lat="45.07604" lon="3.52728">
        <ele>582</ele>
        <time>2018-02-10T13:23:05Z</time>
      </trkpt>
      <trkpt lat="45.07528" lon="3.52754">
        <ele>581</ele>
        <time>2018-02-10T13:23:09Z</time>
      </trkpt>
      <trkpt lat="45.07454" lon="3.52794">
        <ele>584</ele>
        <time>2018-02-10T13:23:13Z</time>
      </trkpt>
      <trkpt lat="45.07397" lon="3.52825">
        <ele>583</ele>
        <time>2018-02-10T13:23:16Z</time>
      </trkpt>
      <trkpt lat="45.07327" lon="3.52871">
        <ele>586</ele>
        <time>2018-02-10T13:23:20Z</time>
      </trkpt>
      <trkpt lat="45.07261" lon="3.52925">
        <ele>587</ele>
        <time>2018-02-10T13:23:24Z</time>
      </trkpt>
      <trkpt lat="45.072" lon="3.52985">
        <ele>587</ele>
        <time>2018-02-10T13:23:28Z</time>
      </trkpt>
      <trkpt lat="45.07157" lon="3.53035">
        <ele>589</ele>
        <time>2018-02-10T13:23:31Z</time>
      </trkpt>
      <trkpt lat="45.07104" lon="3.53107">
        <ele>588</ele>
        <time>2018-02-10T13:23:35Z</time>
      </trkpt>
      <trkpt lat="45.07069" lon="3.53162">
        <ele>588</ele>
        <time>2018-02-10T13:23:38Z</time>
      </trkpt>
      <trkpt lat="45.07024" lon="3.53236">
        <ele>588</ele>
        <time>2018-02-10T13:23:42Z</time>
      </trkpt>
      <trkpt lat="45.06989" lon="3.53294">
        <ele>587</ele>
        <time>2018-02-10T13:23:45Z</time>
      </trkpt>
      <trkpt lat="45.06952" lon="3.53354">
        <ele>587</ele>
        <time>2018-02-10T13:23:48Z</time>
      </trkpt>
      <trkpt lat="45.06904" lon="3.53431">
        <ele>588</ele>
        <time>2018-02-10T13:23:52Z</time>
      </trkpt>
      <trkpt lat="45.06855" lon="3.53511">
        <ele>590</ele>
        <time>2018-02-10T13:23:56Z</time>
      </trkpt>
      <trkpt lat="45.06809" lon="3.53589">
        <ele>590</ele>
        <time>2018-02-10T13:24:00Z</time>
      </trkpt>
      <trkpt lat="45.06766" lon="3.53674">
        <ele>589</ele>
        <time>2018-02-10T13:24:04Z</time>
      </trkpt>
      <trkpt lat="45.06742" lon="3.53741">
        <ele>591</ele>
        <time>2018-02-10T13:24:07Z</time>
      </trkpt>
      <trkpt lat="45.06722" lon="3.53836">
        <ele>592</ele>
        <time>2018-02-10T13:24:11Z</time>
      </trkpt>
      <trkpt lat="45.06713" lon="3.53907">
        <ele>593</ele>
        <time>2018-02-10T13:24:14Z</time>
      </trkpt>
      <trkpt lat="45.0671" lon="3.53984">
        <ele>595</ele>
        <time>2018-02-10T13:24:17Z</time>
      </trkpt>
      <trkpt lat="45.06714" lon="3.54079">
        <ele>593</ele>
        <time>2018-02-10T13:24:21Z</time>
      </trkpt>
      <trkpt lat="45.06721" lon="3.5415">
        <ele>594</ele>
        <time>2018-02-10T13:24:24Z</time>
      </trkpt>
      <trkpt lat="45.06732" lon="3.54246">
        <ele>596</ele>
        <time>2018-02-10T13:24:28Z</time>
      </trkpt>
      <trkpt lat="45.06728" lon="3.54318">
        <ele>595</ele>
        <time>2018-02-10T13:24:31Z</time>
      </trkpt>
      <trkpt lat="45.06719" lon="3.54389">
        <ele>592</ele>
        <time>2018-02-10T13:24:34Z</time>
      </trkpt>
      <trkpt lat="45.06706" lon="3.54479">
        <ele>587</ele>
        <time>2018-02-10T13:24:38Z</time>
      </trkpt>
      <trkpt lat="45.06695" lon="3.54544">
        <ele>590</ele>
        <time>2018-02-10T13:24:41Z</time>
      </trkpt>
      <trkpt lat="45.06683" lon="3.54631">
        <ele>594</ele>
        <time>2018-02-10T13:24:45Z</time>
      </trkpt>
      <trkpt lat="45.06669" lon="3.54717">
        <ele>597</ele>
        <time>2018-02-10T13:24:49Z</time>
      </trkpt>
      <trkpt lat="45.06654" lon="3.54802">
        <ele>598</ele>
        <time>2018-02-10T13:24:53Z</time>
      </trkpt>
      <trkpt lat="45.06597" lon="3.54921">
        <ele>600</ele>
        <time>2018-02-10T13:25:00Z</time>
      </trkpt>
      <trkpt lat="45.06573" lon="3.54971">
        <ele>597</ele>
        <time>2018-02-10T13:25:03Z</time>
      </trkpt>
      <trkpt lat="45.06532" lon="3.55032">
        <ele>597</ele>
        <time>2018-02-10T13:25:07Z</time>
      </trkpt>
      <trkpt lat="45.06493" lon="3.55096">
        <ele>594</ele>
        <time>2018-02-10T13:25:11Z</time>
      </trkpt>
      <trkpt lat="45.06469" lon="3.55149">
        <ele>593</ele>
        <time>2018-02-10T13:25:14Z</time>
      </trkpt>
      <trkpt lat="45.06442" lon="3.55211">
        <ele>590</ele>
        <time>2018-02-10T13:25:18Z</time>
      </trkpt>
      <trkpt lat="45.06418" lon="3.55268">
        <ele>590</ele>
        <time>2018-02-10T13:25:21Z</time>
      </trkpt>
      <trkpt lat="45.06416" lon="3.55333">
        <ele>591</ele>
        <time>2018-02-10T13:25:24Z</time>
      </trkpt>
      <trkpt lat="45.06392" lon="3.55416">
        <ele>593</ele>
        <time>2018-02-10T13:25:28Z</time>
      </trkpt>
      <trkpt lat="45.06384" lon="3.55506">
        <ele>596</ele>
        <time>2018-02-10T13:25:32Z</time>
      </trkpt>
      <trkpt lat="45.06396" lon="3.55605">
        <ele>602</ele>
        <time>2018-02-10T13:25:36Z</time>
      </trkpt>
      <trkpt lat="45.06403" lon="3.55658">
        <ele>601</ele>
        <time>2018-02-10T13:25:38Z</time>
      </trkpt>
      <trkpt lat="45.06401" lon="3.55791">
        <ele>599</ele>
        <time>2018-02-10T13:25:43Z</time>
      </trkpt>
      <trkpt lat="45.06393" lon="3.55899">
        <ele>599</ele>
        <time>2018-02-10T13:25:47Z</time>
      </trkpt>
      <trkpt lat="45.06385" lon="3.56006">
        <ele>601</ele>
        <time>2018-02-10T13:25:51Z</time>
      </trkpt>
      <trkpt lat="45.06381" lon="3.56085">
        <ele>600</ele>
        <time>2018-02-10T13:25:54Z</time>
      </trkpt>
      <trkpt lat="45.06363" lon="3.56186">
        <ele>597</ele>
        <time>2018-02-10T13:25:58Z</time>
      </trkpt>
      <trkpt lat="45.06352" lon="3.56262">
        <ele>603</ele>
        <time>2018-02-10T13:26:01Z</time>
      </trkpt>
      <trkpt lat="45.06323" lon="3.56361">
        <ele>599</ele>
        <time>2018-02-10T13:26:05Z</time>
      </trkpt>
      <trkpt lat="45.06287" lon="3.56472">
        <ele>599</ele>
        <time>2018-02-10T13:26:09Z</time>
      </trkpt>
      <trkpt lat="45.06254" lon="3.56535">
        <ele>598</ele>
        <time>2018-02-10T13:26:12Z</time>
      </trkpt>
      <trkpt lat="45.06209" lon="3.56621">
        <ele>599</ele>
        <time>2018-02-10T13:26:16Z</time>
      </trkpt>
      <trkpt lat="45.0618" lon="3.5667">
        <ele>592</ele>
        <time>2018-02-10T13:26:19Z</time>
      </trkpt>
      <trkpt lat="45.06123" lon="3.56745">
        <ele>591</ele>
        <time>2018-02-10T13:26:23Z</time>
      </trkpt>
      <trkpt lat="45.06081" lon="3.56802">
        <ele>591</ele>
        <time>2018-02-10T13:26:26Z</time>
      </trkpt>
      <trkpt lat="45.06013" lon="3.56841">
        <ele>591</ele>
        <time>2018-02-10T13:26:30Z</time>
      </trkpt>
      <trkpt lat="45.05957" lon="3.56918">
        <ele>594</ele>
        <time>2018-02-10T13:26:34Z</time>
      </trkpt>
      <trkpt lat="45.05908" lon="3.5699">
        <ele>592</ele>
        <time>2018-02-10T13:26:38Z</time>
      </trkpt>
      <trkpt lat="45.05884" lon="3.57066">
        <ele>588</ele>
        <time>2018-02-10T13:26:41Z</time>
      </trkpt>
      <trkpt lat="45.05854" lon="3.57162">
        <ele>588</ele>
        <time>2018-02-10T13:26:45Z</time>
      </trkpt>
      <trkpt lat="45.05829" lon="3.57234">
        <ele>587</ele>
        <time>2018-02-10T13:26:48Z</time>
      </trkpt>
      <trkpt lat="45.05799" lon="3.5734">
        <ele>588</ele>
        <time>2018-02-10T13:26:52Z</time>
      </trkpt>
      <trkpt lat="45.05786" lon="3.5741">
        <ele>583</ele>
        <time>2018-02-10T13:26:55Z</time>
      </trkpt>
      <trkpt lat="45.05756" lon="3.57502">
        <ele>586</ele>
        <time>2018-02-10T13:26:59Z</time>
      </trkpt>
      <trkpt lat="45.0573" lon="3.57596">
        <ele>592</ele>
        <time>2018-02-10T13:27:03Z</time>
      </trkpt>
      <trkpt lat="45.05703" lon="3.57671">
        <ele>590</ele>
        <time>2018-02-10T13:27:07Z</time>
      </trkpt>
      <trkpt lat="45.05682" lon="3.5774">
        <ele>589</ele>
        <time>2018-02-10T13:27:11Z</time>
      </trkpt>
      <trkpt lat="45.05661" lon="3.57783">
        <ele>587</ele>
        <time>2018-02-10T13:27:14Z</time>
      </trkpt>
      <trkpt lat="45.05635" lon="3.57826">
        <ele>587</ele>
        <time>2018-02-10T13:27:18Z</time>
      </trkpt>
      <trkpt lat="45.05624" lon="3.57856">
        <ele>587</ele>
        <time>2018-02-10T13:27:21Z</time>
      </trkpt>
      <trkpt lat="45.05603" lon="3.5788">
        <ele>588</ele>
        <time>2018-02-10T13:27:25Z</time>
      </trkpt>
      <trkpt lat="45.05575" lon="3.579">
        <ele>593</ele>
        <time>2018-02-10T13:27:29Z</time>
      </trkpt>
      <trkpt lat="45.05554" lon="3.57912">
        <ele>590</ele>
        <time>2018-02-10T13:27:32Z</time>
      </trkpt>
      <trkpt lat="45.05525" lon="3.57928">
        <ele>585</ele>
        <time>2018-02-10T13:27:36Z</time>
      </trkpt>
      <trkpt lat="45.05495" lon="3.57936">
        <ele>584</ele>
        <time>2018-02-10T13:27:40Z</time>
      </trkpt>
      <trkpt lat="45.05475" lon="3.57938">
        <ele>583</ele>
        <time>2018-02-10T13:27:43Z</time>
      </trkpt>
      <trkpt lat="45.05437" lon="3.57935">
        <ele>586</ele>
        <time>2018-02-10T13:27:47Z</time>
      </trkpt>
      <trkpt lat="45.05404" lon="3.57939">
        <ele>584</ele>
        <time>2018-02-10T13:27:51Z</time>
      </trkpt>
      <trkpt lat="45.05374" lon="3.57941">
        <ele>587</ele>
        <time>2018-02-10T13:27:55Z</time>
      </trkpt>
      <trkpt lat="45.05342" lon="3.57936">
        <ele>589</ele>
        <time>2018-02-10T13:27:59Z</time>
      </trkpt>
      <trkpt lat="45.05317" lon="3.57926">
        <ele>583</ele>
        <time>2018-02-10T13:28:03Z</time>
      </trkpt>
      <trkpt lat="45.05296" lon="3.57925">
        <ele>585</ele>
        <time>2018-02-10T13:28:06Z</time>
      </trkpt>
      <trkpt lat="45.05268" lon="3.57915">
        <ele>581</ele>
        <time>2018-02-10T13:28:10Z</time>
      </trkpt>
      <trkpt lat="45.05238" lon="3.57911">
        <ele>580</ele>
        <time>2018-02-10T13:28:14Z</time>
      </trkpt>
      <trkpt lat="45.05207" lon="3.57922">
        <ele>582</ele>
        <time>2018-02-10T13:28:18Z</time>
      </trkpt>
      <trkpt lat="45.05187" lon="3.57927">
        <ele>580</ele>
        <time>2018-02-10T13:28:21Z</time>
      </trkpt>
      <trkpt lat="45.05157" lon="3.57931">
        <ele>582</ele>
        <time>2018-02-10T13:28:25Z</time>
      </trkpt>
      <trkpt lat="45.05133" lon="3.57939">
        <ele>585</ele>
        <time>2018-02-10T13:28:28Z</time>
      </trkpt>
      <trkpt lat="45.05112" lon="3.57941">
        <ele>582</ele>
        <time>2018-02-10T13:28:31Z</time>
      </trkpt>
      <trkpt lat="45.05083" lon="3.57939">
        <ele>583</ele>
        <time>2018-02-10T13:28:35Z</time>
      </trkpt>
      <trkpt lat="45.05066" lon="3.57951">
        <ele>583</ele>
        <time>2018-02-10T13:28:38Z</time>
      </trkpt>
      <trkpt lat="45.05037" lon="3.57969">
        <ele>588</ele>
        <time>2018-02-10T13:28:42Z</time>
      </trkpt>
      <trkpt lat="45.05019" lon="3.57969">
        <ele>586</ele>
        <time>2018-02-10T13:28:45Z</time>
      </trkpt>
      <trkpt lat="45.04995" lon="3.5798">
        <ele>586</ele>
        <time>2018-02-10T13:28:49Z</time>
      </trkpt>
      <trkpt lat="45.0496" lon="3.57997">
        <ele>586</ele>
        <time>2018-02-10T13:28:53Z</time>
      </trkpt>
      <trkpt lat="45.04931" lon="3.58019">
        <ele>585</ele>
        <time>2018-02-10T13:28:57Z</time>
      </trkpt>
      <trkpt lat="45.04915" lon="3.58037">
        <ele>584</ele>
        <time>2018-02-10T13:29:00Z</time>
      </trkpt>
      <trkpt lat="45.04902" lon="3.58054">
        <ele>581</ele>
        <time>2018-02-10T13:29:03Z</time>
      </trkpt>
      <trkpt lat="45.04884" lon="3.58072">
        <ele>577</ele>
        <time>2018-02-10T13:29:07Z</time>
      </trkpt>
      <trkpt lat="45.04858" lon="3.58096">
        <ele>577</ele>
        <time>2018-02-10T13:29:11Z</time>
      </trkpt>
      <trkpt lat="45.04817" lon="3.58127">
        <ele>577</ele>
        <time>2018-02-10T13:29:15Z</time>
      </trkpt>
      <trkpt lat="45.04787" lon="3.58151">
        <ele>577</ele>
        <time>2018-02-10T13:29:18Z</time>
      </trkpt>
      <trkpt lat="45.0475" lon="3.58188">
        <ele>578</ele>
        <time>2018-02-10T13:29:21Z</time>
      </trkpt>
      <trkpt lat="45.04708" lon="3.58207">
        <ele>575</ele>
        <time>2018-02-10T13:29:25Z</time>
      </trkpt>
      <trkpt lat="45.04668" lon="3.58274">
        <ele>581</ele>
        <time>2018-02-10T13:29:29Z</time>
      </trkpt>
      <trkpt lat="45.04625" lon="3.58346">
        <ele>584</ele>
        <time>2018-02-10T13:29:33Z</time>
      </trkpt>
      <trkpt lat="45.04597" lon="3.58442">
        <ele>586</ele>
        <time>2018-02-10T13:29:37Z</time>
      </trkpt>
      <trkpt lat="45.04578" lon="3.58564">
        <ele>590</ele>
        <time>2018-02-10T13:29:41Z</time>
      </trkpt>
      <trkpt lat="45.04569" lon="3.58649">
        <ele>590</ele>
        <time>2018-02-10T13:29:44Z</time>
      </trkpt>
      <trkpt lat="45.04579" lon="3.58754">
        <ele>589</ele>
        <time>2018-02-10T13:29:48Z</time>
      </trkpt>
      <trkpt lat="45.04575" lon="3.58828">
        <ele>591</ele>
        <time>2018-02-10T13:29:51Z</time>
      </trkpt>
      <trkpt lat="45.04558" lon="3.58915">
        <ele>586</ele>
        <time>2018-02-10T13:29:54Z</time>
      </trkpt>
      <trkpt lat="45.04503" lon="3.58986">
        <ele>587</ele>
        <time>2018-02-10T13:29:58Z</time>
      </trkpt>
      <trkpt lat="45.04458" lon="3.59026">
        <ele>587</ele>
        <time>2018-02-10T13:30:01Z</time>
      </trkpt>
      <trkpt lat="45.0439" lon="3.59066">
        <ele>584</ele>
        <time>2018-02-10T13:30:05Z</time>
      </trkpt>
      <trkpt lat="45.04312" lon="3.5906">
        <ele>582</ele>
        <time>2018-02-10T13:30:09Z</time>
      </trkpt>
      <trkpt lat="45.04242" lon="3.59026">
        <ele>580</ele>
        <time>2018-02-10T13:30:13Z</time>
      </trkpt>
      <trkpt lat="45.04205" lon="3.59009">
        <ele>582</ele>
        <time>2018-02-10T13:30:16Z</time>
      </trkpt>
      <trkpt lat="45.04155" lon="3.58924">
        <ele>587</ele>
        <time>2018-02-10T13:30:20Z</time>
      </trkpt>
      <trkpt lat="45.04129" lon="3.58854">
        <ele>587</ele>
        <time>2018-02-10T13:30:23Z</time>
      </trkpt>
      <trkpt lat="45.04109" lon="3.58785">
        <ele>589</ele>
        <time>2018-02-10T13:30:26Z</time>
      </trkpt>
      <trkpt lat="45.04083" lon="3.5869">
        <ele>591</ele>
        <time>2018-02-10T13:30:30Z</time>
      </trkpt>
      <trkpt lat="45.0405" lon="3.58626">
        <ele>594</ele>
        <time>2018-02-10T13:30:33Z</time>
      </trkpt>
      <trkpt lat="45.0401" lon="3.58573">
        <ele>596</ele>
        <time>2018-02-10T13:30:36Z</time>
      </trkpt>
      <trkpt lat="45.03949" lon="3.5852">
        <ele>602</ele>
        <time>2018-02-10T13:30:40Z</time>
      </trkpt>
      <trkpt lat="45.0388" lon="3.58489">
        <ele>601</ele>
        <time>2018-02-10T13:30:44Z</time>
      </trkpt>
      <trkpt lat="45.03811" lon="3.58488">
        <ele>601</ele>
        <time>2018-02-10T13:30:48Z</time>
      </trkpt>
      <trkpt lat="45.03756" lon="3.58508">
        <ele>603</ele>
        <time>2018-02-10T13:30:51Z</time>
      </trkpt>
      <trkpt lat="45.03704" lon="3.58544">
        <ele>604</ele>
        <time>2018-02-10T13:30:54Z</time>
      </trkpt>
      <trkpt lat="45.03644" lon="3.5859">
        <ele>601</ele>
        <time>2018-02-10T13:30:58Z</time>
      </trkpt>
      <trkpt lat="45.03592" lon="3.58631">
        <ele>601</ele>
        <time>2018-02-10T13:31:01Z</time>
      </trkpt>
      <trkpt lat="45.03526" lon="3.58681">
        <ele>602</ele>
        <time>2018-02-10T13:31:05Z</time>
      </trkpt>
      <trkpt lat="45.03477" lon="3.58719">
        <ele>601</ele>
        <time>2018-02-10T13:31:08Z</time>
      </trkpt>
      <trkpt lat="45.0343" lon="3.58761">
        <ele>604</ele>
        <time>2018-02-10T13:31:11Z</time>
      </trkpt>
      <trkpt lat="45.03382" lon="3.58801">
        <ele>605</ele>
        <time>2018-02-10T13:31:14Z</time>
      </trkpt>
      <trkpt lat="45.03336" lon="3.58848">
        <ele>605</ele>
        <time>2018-02-10T13:31:17Z</time>
      </trkpt>
      <trkpt lat="45.03277" lon="3.58908">
        <ele>604</ele>
        <time>2018-02-10T13:31:21Z</time>
      </trkpt>
      <trkpt lat="45.03222" lon="3.58943">
        <ele>604</ele>
        <time>2018-02-10T13:31:24Z</time>
      </trkpt>
      <trkpt lat="45.03179" lon="3.58973">
        <ele>602</ele>
        <time>2018-02-10T13:31:27Z</time>
      </trkpt>
      <trkpt lat="45.03107" lon="3.58983">
        <ele>603</ele>
        <time>2018-02-10T13:31:31Z</time>
      </trkpt>
      <trkpt lat="45.03052" lon="3.58997">
        <ele>601</ele>
        <time>2018-02-10T13:31:34Z</time>
      </trkpt>
      <trkpt lat="45.02988" lon="3.59014">
        <ele>598</ele>
        <time>2018-02-10T13:31:38Z</time>
      </trkpt>
      <trkpt lat="45.02932" lon="3.59026">
        <ele>603</ele>
        <time>2018-02-10T13:31:41Z</time>
      </trkpt>
      <trkpt lat="45.02863" lon="3.59042">
        <ele>602</ele>
        <time>2018-02-10T13:31:45Z</time>
      </trkpt>
      <trkpt lat="45.02809" lon="3.59063">
        <ele>603</ele>
        <time>2018-02-10T13:31:48Z</time>
      </trkpt>
      <trkpt lat="45.0274" lon="3.5911">
        <ele>605</ele>
        <time>2018-02-10T13:31:52Z</time>
      </trkpt>
      <trkpt lat="45.02686" lon="3.59178">
        <ele>608</ele>
        <time>2018-02-10T13:31:56Z</time>
      </trkpt>
      <trkpt lat="45.02657" lon="3.59232">
        <ele>603</ele>
        <time>2018-02-10T13:31:59Z</time>
      </trkpt>
      <trkpt lat="45.02642" lon="3.59319">
        <ele>601</ele>
        <time>2018-02-10T13:32:02Z</time>
      </trkpt>
      <trkpt lat="45.02614" lon="3.59413">
        <ele>599</ele>
        <time>2018-02-10T13:32:06Z</time>
      </trkpt>
      <trkpt lat="45.02591" lon="3.5949">
        <ele>602</ele>
        <time>2018-02-10T13:32:09Z</time>
      </trkpt>
      <trkpt lat="45.02556" lon="3.59581">
        <ele>604</ele>
        <time>2018-02-10T13:32:13Z</time>
      </trkpt>
      <trkpt lat="45.02524" lon="3.59648">
        <ele>604</ele>
        <time>2018-02-10T13:32:16Z</time>
      </trkpt>
      <trkpt lat="45.0239" lon="3.59724">
        <ele>608</ele>
        <time>2018-02-10T13:32:24Z</time>
      </trkpt>
      <trkpt lat="45.02306" lon="3.59759">
        <ele>610</ele>
        <time>2018-02-10T13:32:28Z</time>
      </trkpt>
      <trkpt lat="45.02236" lon="3.59801">
        <ele>609</ele>
        <time>2018-02-10T13:32:32Z</time>
      </trkpt>
      <trkpt lat="45.02176" lon="3.59865">
        <ele>610</ele>
        <time>2018-02-10T13:32:36Z</time>
      </trkpt>
      <trkpt lat="45.02137" lon="3.59952">
        <ele>611</ele>
        <time>2018-02-10T13:32:40Z</time>
      </trkpt>
      <trkpt lat="45.0211" lon="3.60052">
        <ele>611</ele>
        <time>2018-02-10T13:32:44Z</time>
      </trkpt>
      <trkpt lat="45.02117" lon="3.6015">
        <ele>610</ele>
        <time>2018-02-10T13:32:48Z</time>
      </trkpt>
      <trkpt lat="45.02123" lon="3.60223">
        <ele>608</ele>
        <time>2018-02-10T13:32:51Z</time>
      </trkpt>
      <trkpt lat="45.02149" lon="3.60329">
        <ele>608</ele>
        <time>2018-02-10T13:32:55Z</time>
      </trkpt>
      <trkpt lat="45.02175" lon="3.60397">
        <ele>607</ele>
        <time>2018-02-10T13:32:58Z</time>
      </trkpt>
      <trkpt lat="45.02209" lon="3.60463">
        <ele>605</ele>
        <time>2018-02-10T13:33:01Z</time>
      </trkpt>
      <trkpt lat="45.0224" lon="3.60534">
        <ele>601</ele>
        <time>2018-02-10T13:33:04Z</time>
      </trkpt>
      <trkpt lat="45.02268" lon="3.60622">
        <ele>601</ele>
        <time>2018-02-10T13:33:08Z</time>
      </trkpt>
      <trkpt lat="45.02278" lon="3.60754">
        <ele>601</ele>
        <time>2018-02-10T13:33:12Z</time>
      </trkpt>
      <trkpt lat="45.02256" lon="3.60836">
        <ele>602</ele>
        <time>2018-02-10T13:33:15Z</time>
      </trkpt>
      <trkpt lat="45.0226" lon="3.60902">
        <ele>603</ele>
        <time>2018-02-10T13:33:18Z</time>
      </trkpt>
      <trkpt lat="45.02251" lon="3.60983">
        <ele>605</ele>
        <time>2018-02-10T13:33:21Z</time>
      </trkpt>
      <trkpt lat="45.02238" lon="3.61084">
        <ele>607</ele>
        <time>2018-02-10T13:33:25Z</time>
      </trkpt>
      <trkpt lat="45.02213" lon="3.61181">
        <ele>605</ele>
        <time>2018-02-10T13:33:29Z</time>
      </trkpt>
      <trkpt lat="45.02173" lon="3.61244">
        <ele>604</ele>
        <time>2018-02-10T13:33:32Z</time>
      </trkpt>
      <trkpt lat="45.02137" lon="3.613">
        <ele>604</ele>
        <time>2018-02-10T13:33:35Z</time>
      </trkpt>
      <trkpt lat="45.02101" lon="3.61357">
        <ele>608</ele>
        <time>2018-02-10T13:33:38Z</time>
      </trkpt>
      <trkpt lat="45.02056" lon="3.61439">
        <ele>609</ele>
        <time>2018-02-10T13:33:42Z</time>
      </trkpt>
      <trkpt lat="45.02004" lon="3.6152">
        <ele>610</ele>
        <time>2018-02-10T13:33:46Z</time>
      </trkpt>
      <trkpt lat="45.01961" lon="3.61568">
        <ele>610</ele>
        <time>2018-02-10T13:33:49Z</time>
      </trkpt>
      <trkpt lat="45.01887" lon="3.61614">
        <ele>606</ele>
        <time>2018-02-10T13:33:53Z</time>
      </trkpt>
      <trkpt lat="45.01827" lon="3.61675">
        <ele>606</ele>
        <time>2018-02-10T13:33:57Z</time>
      </trkpt>
      <trkpt lat="45.0179" lon="3.61735">
        <ele>606</ele>
        <time>2018-02-10T13:34:00Z</time>
      </trkpt>
      <trkpt lat="45.01749" lon="3.61819">
        <ele>603</ele>
        <time>2018-02-10T13:34:04Z</time>
      </trkpt>
      <trkpt lat="45.0171" lon="3.61906">
        <ele>604</ele>
        <time>2018-02-10T13:34:08Z</time>
      </trkpt>
      <trkpt lat="45.01671" lon="3.61993">
        <ele>604</ele>
        <time>2018-02-10T13:34:12Z</time>
      </trkpt>
      <trkpt lat="45.01666" lon="3.62013">
        <ele>603</ele>
        <time>2018-02-10T13:34:13Z</time>
      </trkpt>
      <trkpt lat="45.01645" lon="3.62116">
        <ele>602</ele>
        <time>2018-02-10T13:34:17Z</time>
      </trkpt>
      <trkpt lat="45.01627" lon="3.62217">
        <ele>603</ele>
        <time>2018-02-10T13:34:21Z</time>
      </trkpt>
      <trkpt lat="45.01587" lon="3.62306">
        <ele>604</ele>
        <time>2018-02-10T13:34:25Z</time>
      </trkpt>
      <trkpt lat="45.01551" lon="3.62364">
        <ele>607</ele>
        <time>2018-02-10T13:34:28Z</time>
      </trkpt>
      <trkpt lat="45.01486" lon="3.62425">
        <ele>608</ele>
        <time>2018-02-10T13:34:32Z</time>
      </trkpt>
      <trkpt lat="45.01413" lon="3.62468">
        <ele>608</ele>
        <time>2018-02-10T13:34:36Z</time>
      </trkpt>
      <trkpt lat="45.0137" lon="3.62482">
        <ele>609</ele>
        <time>2018-02-10T13:34:39Z</time>
      </trkpt>
      <trkpt lat="45.01314" lon="3.62522">
        <ele>609</ele>
        <time>2018-02-10T13:34:42Z</time>
      </trkpt>
      <trkpt lat="45.01246" lon="3.62574">
        <ele>611</ele>
        <time>2018-02-10T13:34:46Z</time>
      </trkpt>
      <trkpt lat="45.01196" lon="3.62608">
        <ele>608</ele>
        <time>2018-02-10T13:34:49Z</time>
      </trkpt>
      <trkpt lat="45.01136" lon="3.62665">
        <ele>608</ele>
        <time>2018-02-10T13:34:53Z</time>
      </trkpt>
      <trkpt lat="45.01076" lon="3.62721">
        <ele>604</ele>
        <time>2018-02-10T13:34:57Z</time>
      </trkpt>
      <trkpt lat="45.0101" lon="3.62773">
        <ele>605</ele>
        <time>2018-02-10T13:35:01Z</time>
      </trkpt>
      <trkpt lat="45.00964" lon="3.62824">
        <ele>605</ele>
        <time>2018-02-10T13:35:04Z</time>
      </trkpt>
      <trkpt lat="45.00925" lon="3.6286">
        <ele>601</ele>
        <time>2018-02-10T13:35:07Z</time>
      </trkpt>
      <trkpt lat="45.00885" lon="3.62898">
        <ele>602</ele>
        <time>2018-02-10T13:35:10Z</time>
      </trkpt>
      <trkpt lat="45.00816" lon="3.62931">
        <ele>605</ele>
        <time>2018-02-10T13:35:14Z</time>
      </trkpt>
      <trkpt lat="45.0056" lon="3.62788">
        <ele>608</ele>
        <time>2018-02-10T13:35:30Z</time>
      </trkpt>
      <trkpt lat="45.0052" lon="3.62704">
        <ele>619</ele>
        <time>2018-02-10T13:35:34Z</time>
      </trkpt>
      <trkpt lat="45.00491" lon="3.6264">
        <ele>618</ele>
        <time>2018-02-10T13:35:37Z</time>
      </trkpt>
      <trkpt lat="45.00438" lon="3.62567">
        <ele>625</ele>
        <time>2018-02-10T13:35:41Z</time>
      </trkpt>
      <trkpt lat="45.00411" lon="3.62531">
        <ele>625</ele>
        <time>2018-02-10T13:35:43Z</time>
      </trkpt>
      <trkpt lat="45.00332" lon="3.62474">
        <ele>625</ele>
        <time>2018-02-10T13:35:48Z</time>
      </trkpt>
      <trkpt lat="45.00277" lon="3.62436">
        <ele>625</ele>
        <time>2018-02-10T13:35:51Z</time>
      </trkpt>
      <trkpt lat="45.00233" lon="3.62396">
        <ele>624</ele>
        <time>2018-02-10T13:35:54Z</time>
      </trkpt>
      <trkpt lat="45.00175" lon="3.62342">
        <ele>628</ele>
        <time>2018-02-10T13:35:58Z</time>
      </trkpt>
      <trkpt lat="45.0011" lon="3.62322">
        <ele>624</ele>
        <time>2018-02-10T13:36:02Z</time>
      </trkpt>
      <trkpt lat="45.0003" lon="3.6235">
        <ele>623</ele>
        <time>2018-02-10T13:36:06Z</time>
      </trkpt>
      <trkpt lat="44.99962" lon="3.62389">
        <ele>622</ele>
        <time>2018-02-10T13:36:10Z</time>
      </trkpt>
      <trkpt lat="44.99913" lon="3.6243">
        <ele>621</ele>
        <time>2018-02-10T13:36:13Z</time>
      </trkpt>
      <trkpt lat="44.99863" lon="3.62465">
        <ele>621</ele>
        <time>2018-02-10T13:36:16Z</time>
      </trkpt>
      <trkpt lat="44.99798" lon="3.62507">
        <ele>621</ele>
        <time>2018-02-10T13:36:20Z</time>
      </trkpt>
      <trkpt lat="44.99775" lon="3.62544">
        <ele>621</ele>
        <time>2018-02-10T13:36:23Z</time>
      </trkpt>
      <trkpt lat="44.99722" lon="3.62577">
        <ele>618</ele>
        <time>2018-02-10T13:36:26Z</time>
      </trkpt>
      <trkpt lat="44.99669" lon="3.62618">
        <ele>618</ele>
        <time>2018-02-10T13:36:30Z</time>
      </trkpt>
      <trkpt lat="44.99596" lon="3.62662">
        <ele>617</ele>
        <time>2018-02-10T13:36:34Z</time>
      </trkpt>
      <trkpt lat="44.99539" lon="3.62702">
        <ele>621</ele>
        <time>2018-02-10T13:36:38Z</time>
      </trkpt>
      <trkpt lat="44.99485" lon="3.62697">
        <ele>618</ele>
        <time>2018-02-10T13:36:41Z</time>
      </trkpt>
      <trkpt lat="44.9942" lon="3.62684">
        <ele>617</ele>
        <time>2018-02-10T13:36:45Z</time>
      </trkpt>
      <trkpt lat="44.99368" lon="3.62662">
        <ele>616</ele>
        <time>2018-02-10T13:36:48Z</time>
      </trkpt>
      <trkpt lat="44.99312" lon="3.62637">
        <ele>619</ele>
        <time>2018-02-10T13:36:51Z</time>
      </trkpt>
      <trkpt lat="44.99241" lon="3.62626">
        <ele>619</ele>
        <time>2018-02-10T13:36:55Z</time>
      </trkpt>
      <trkpt lat="44.99177" lon="3.62618">
        <ele>618</ele>
        <time>2018-02-10T13:36:59Z</time>
      </trkpt>
      <trkpt lat="44.99119" lon="3.62616">
        <ele>620</ele>
        <time>2018-02-10T13:37:03Z</time>
      </trkpt>
      <trkpt lat="44.99072" lon="3.62615">
        <ele>626</ele>
        <time>2018-02-10T13:37:06Z</time>
      </trkpt>
      <trkpt lat="44.98944" lon="3.6263">
        <ele>631</ele>
        <time>2018-02-10T13:37:15Z</time>
      </trkpt>
      <trkpt lat="44.9888" lon="3.62646">
        <ele>632</ele>
        <time>2018-02-10T13:37:19Z</time>
      </trkpt>
      <trkpt lat="44.98825" lon="3.62698">
        <ele>630</ele>
        <time>2018-02-10T13:37:23Z</time>
      </trkpt>
      <trkpt lat="44.98776" lon="3.62769">
        <ele>632</ele>
        <time>2018-02-10T13:37:27Z</time>
      </trkpt>
      <trkpt lat="44.98743" lon="3.62887">
        <ele>635</ele>
        <time>2018-02-10T13:37:32Z</time>
      </trkpt>
      <trkpt lat="44.98718" lon="3.62987">
        <ele>639</ele>
        <time>2018-02-10T13:37:36Z</time>
      </trkpt>
      <trkpt lat="44.98687" lon="3.63088">
        <ele>640</ele>
        <time>2018-02-10T13:37:40Z</time>
      </trkpt>
      <trkpt lat="44.98664" lon="3.6316">
        <ele>641</ele>
        <time>2018-02-10T13:37:43Z</time>
      </trkpt>
      <trkpt lat="44.9862" lon="3.63242">
        <ele>643</ele>
        <time>2018-02-10T13:37:47Z</time>
      </trkpt>
      <trkpt lat="44.98499" lon="3.63332">
        <ele>642</ele>
        <time>2018-02-10T13:37:55Z</time>
      </trkpt>
      <trkpt lat="44.98424" lon="3.63364">
        <ele>640</ele>
        <time>2018-02-10T13:37:59Z</time>
      </trkpt>
      <trkpt lat="44.98358" lon="3.63395">
        <ele>639</ele>
        <time>2018-02-10T13:38:03Z</time>
      </trkpt>
      <trkpt lat="44.98294" lon="3.63452">
        <ele>640</ele>
        <time>2018-02-10T13:38:07Z</time>
      </trkpt>
      <trkpt lat="44.9824" lon="3.63515">
        <ele>639</ele>
        <time>2018-02-10T13:38:11Z</time>
      </trkpt>
      <trkpt lat="44.98179" lon="3.63545">
        <ele>639</ele>
        <time>2018-02-10T13:38:14Z</time>
      </trkpt>
      <trkpt lat="44.98139" lon="3.63587">
        <ele>637</ele>
        <time>2018-02-10T13:38:17Z</time>
      </trkpt>
      <trkpt lat="44.98086" lon="3.63655">
        <ele>635</ele>
        <time>2018-02-10T13:38:21Z</time>
      </trkpt>
      <trkpt lat="44.98031" lon="3.63732">
        <ele>636</ele>
        <time>2018-02-10T13:38:25Z</time>
      </trkpt>
      <trkpt lat="44.97943" lon="3.6381">
        <ele>636</ele>
        <time>2018-02-10T13:38:31Z</time>
      </trkpt>
      <trkpt lat="44.97869" lon="3.63838">
        <ele>638</ele>
        <time>2018-02-10T13:38:35Z</time>
      </trkpt>
      <trkpt lat="44.97797" lon="3.63858">
        <ele>642</ele>
        <time>2018-02-10T13:38:39Z</time>
      </trkpt>
      <trkpt lat="44.9773" lon="3.63889">
        <ele>642</ele>
        <time>2018-02-10T13:38:43Z</time>
      </trkpt>
      <trkpt lat="44.97669" lon="3.63942">
        <ele>644</ele>
        <time>2018-02-10T13:38:47Z</time>
      </trkpt>
      <trkpt lat="44.9761" lon="3.64009">
        <ele>646</ele>
        <time>2018-02-10T13:38:51Z</time>
      </trkpt>
      <trkpt lat="44.97571" lon="3.64069">
        <ele>647</ele>
        <time>2018-02-10T13:38:54Z</time>
      </trkpt>
      <trkpt lat="44.97538" lon="3.6413">
        <ele>648</ele>
        <time>2018-02-10T13:38:57Z</time>
      </trkpt>
      <trkpt lat="44.97329" lon="3.64266">
        <ele>645</ele>
        <time>2018-02-10T13:39:08Z</time>
      </trkpt>
      <trkpt lat="44.97291" lon="3.64249">
        <ele>652</ele>
        <time>2018-02-10T13:39:12Z</time>
      </trkpt>
      <trkpt lat="44.9724" lon="3.64242">
        <ele>656</ele>
        <time>2018-02-10T13:39:15Z</time>
      </trkpt>
      <trkpt lat="44.97188" lon="3.64238">
        <ele>656</ele>
        <time>2018-02-10T13:39:18Z</time>
      </trkpt>
      <trkpt lat="44.9712" lon="3.64249">
        <ele>657</ele>
        <time>2018-02-10T13:39:22Z</time>
      </trkpt>
      <trkpt lat="44.97033" lon="3.64315">
        <ele>657</ele>
        <time>2018-02-10T13:39:28Z</time>
      </trkpt>
      <trkpt lat="44.96983" lon="3.64387">
        <ele>656</ele>
        <time>2018-02-10T13:39:32Z</time>
      </trkpt>
      <trkpt lat="44.96947" lon="3.6444">
        <ele>656</ele>
        <time>2018-02-10T13:39:35Z</time>
      </trkpt>
      <trkpt lat="44.96947" lon="3.64504">
        <ele>655</ele>
        <time>2018-02-10T13:39:38Z</time>
      </trkpt>
      <trkpt lat="44.9694" lon="3.64584">
        <ele>654</ele>
        <time>2018-02-10T13:39:42Z</time>
      </trkpt>
      <trkpt lat="44.96936" lon="3.64641">
        <ele>654</ele>
        <time>2018-02-10T13:39:45Z</time>
      </trkpt>
      <trkpt lat="44.96959" lon="3.64857">
        <ele>652</ele>
        <time>2018-02-10T13:40:01Z</time>
      </trkpt>
      <trkpt lat="44.96961" lon="3.64904">
        <ele>657</ele>
        <time>2018-02-10T13:40:05Z</time>
      </trkpt>
      <trkpt lat="44.96972" lon="3.64939">
        <ele>658</ele>
        <time>2018-02-10T13:40:09Z</time>
      </trkpt>
      <trkpt lat="44.96971" lon="3.64959">
        <ele>659</ele>
        <time>2018-02-10T13:40:12Z</time>
      </trkpt>
      <trkpt lat="44.96972" lon="3.64988">
        <ele>658</ele>
        <time>2018-02-10T13:40:16Z</time>
      </trkpt>
      <trkpt lat="44.96983" lon="3.65">
        <ele>659</ele>
        <time>2018-02-10T13:40:19Z</time>
      </trkpt>
      <trkpt lat="44.96976" lon="3.65015">
        <ele>660</ele>
        <time>2018-02-10T13:40:22Z</time>
      </trkpt>
      <trkpt lat="44.96982" lon="3.65027">
        <ele>661</ele>
        <time>2018-02-10T13:40:26Z</time>
      </trkpt>
      <trkpt lat="44.96984" lon="3.65035">
        <ele>661</ele>
        <time>2018-02-10T13:40:30Z</time>
      </trkpt>
      <trkpt lat="44.96982" lon="3.65037">
        <ele>662</ele>
        <time>2018-02-10T13:40:33Z</time>
      </trkpt>
      <trkpt lat="44.96982" lon="3.65037">
        <ele>660</ele>
        <time>2018-02-10T13:40:36Z</time>
      </trkpt>
      <trkpt lat="44.9698" lon="3.65035">
        <ele>661</ele>
        <time>2018-02-10T13:40:40Z</time>
      </trkpt>
      <trkpt lat="44.96982" lon="3.65031">
        <ele>660</ele>
        <time>2018-02-10T13:40:44Z</time>
      </trkpt>
      <trkpt lat="44.96982" lon="3.65029">
        <ele>660</ele>
        <time>2018-02-10T13:40:47Z</time>
      </trkpt>
      <trkpt lat="44.96982" lon="3.65028">
        <ele>660</ele>
        <time>2018-02-10T13:40:51Z</time>
      </trkpt>
      <trkpt lat="44.96982" lon="3.65028">
        <ele>660</ele>
        <time>2018-02-10T13:40:54Z</time>
      </trkpt>
      <trkpt lat="44.96982" lon="3.65028">
        <ele>660</ele>
        <time>2018-02-10T13:40:58Z</time>
      </trkpt>
      <trkpt lat="44.96982" lon="3.65028">
        <ele>660</ele>
        <time>2018-02-10T13:41:02Z</time>
      </trkpt>
      <trkpt lat="44.96982" lon="3.65028">
        <ele>660</ele>
        <time>2018-02-10T13:41:05Z</time>
      </trkpt>
      <trkpt lat="44.96982" lon="3.65028">
        <ele>660</ele>
        <time>2018-02-10T13:41:09Z</time>
      </trkpt>
      <trkpt lat="44.96982" lon="3.65028">
        <ele>660</ele>
        <time>2018-02-10T13:41:13Z</time>
      </trkpt>
      <trkpt lat="44.96982" lon="3.65028">
        <ele>660</ele>
        <time>2018-02-10T13:41:16Z</time>
      </trkpt>
      <trkpt lat="44.96982" lon="3.65028">
        <ele>660</ele>
        <time>2018-02-10T13:41:19Z</time>
      </trkpt>
      <trkpt lat="44.96982" lon="3.65028">
        <ele>660</ele>
        <time>2018-02-10T13:41:22Z</time>
      </trkpt>
      <trkpt lat="44.96982" lon="3.65028">
        <ele>660</ele>
        <time>2018-02-10T13:41:26Z</time>
      </trkpt>
      <trkpt lat="44.96982" lon="3.65028">
        <ele>660</ele>
        <time>2018-02-10T13:41:30Z</time>
      </trkpt>
      <trkpt lat="44.96982" lon="3.65028">
        <ele>660</ele>
        <time>2018-02-10T13:41:34Z</time>
      </trkpt>
      <trkpt lat="44.96982" lon="3.65028">
        <ele>660</ele>
        <time>2018-02-10T13:41:38Z</time>
      </trkpt>
      <trkpt lat="44.96982" lon="3.65028">
        <ele>660</ele>
        <time>2018-02-10T13:41:42Z</time>
      </trkpt>
      <trkpt lat="44.96982" lon="3.65028">
        <ele>660</ele>
        <time>2018-02-10T13:41:45Z</time>
      </trkpt>
      <trkpt lat="44.96982" lon="3.65028">
        <ele>660</ele>
        <time>2018-02-10T13:41:49Z</time>
      </trkpt>
      <trkpt lat="44.96982" lon="3.65028">
        <ele>660</ele>
        <time>2018-02-10T13:41:53Z</time>
      </trkpt>
      <trkpt lat="44.96982" lon="3.65028">
        <ele>660</ele>
        <time>2018-02-10T13:41:56Z</time>
      </trkpt>
      <trkpt lat="44.96982" lon="3.65028">
        <ele>660</ele>
        <time>2018-02-10T13:42:00Z</time>
      </trkpt>
      <trkpt lat="44.96982" lon="3.6505">
        <ele>662</ele>
        <time>2018-02-10T13:42:03Z</time>
      </trkpt>
      <trkpt lat="44.96968" lon="3.65112">
        <ele>666</ele>
        <time>2018-02-10T13:42:07Z</time>
      </trkpt>
      <trkpt lat="44.96964" lon="3.65143">
        <ele>660</ele>
        <time>2018-02-10T13:42:10Z</time>
      </trkpt>
      <trkpt lat="44.96962" lon="3.65177">
        <ele>660</ele>
        <time>2018-02-10T13:42:13Z</time>
      </trkpt>
      <trkpt lat="44.96947" lon="3.65221">
        <ele>658</ele>
        <time>2018-02-10T13:42:16Z</time>
      </trkpt>
      <trkpt lat="44.96942" lon="3.65277">
        <ele>662</ele>
        <time>2018-02-10T13:42:20Z</time>
      </trkpt>
      <trkpt lat="44.9694" lon="3.65315">
        <ele>661</ele>
        <time>2018-02-10T13:42:23Z</time>
      </trkpt>
      <trkpt lat="44.96934" lon="3.65368">
        <ele>662</ele>
        <time>2018-02-10T13:42:27Z</time>
      </trkpt>
      <trkpt lat="44.96935" lon="3.65423">
        <ele>663</ele>
        <time>2018-02-10T13:42:31Z</time>
      </trkpt>
      <trkpt lat="44.9694" lon="3.65462">
        <ele>665</ele>
        <time>2018-02-10T13:42:34Z</time>
      </trkpt>
      <trkpt lat="44.96952" lon="3.65512">
        <ele>667</ele>
        <time>2018-02-10T13:42:38Z</time>
      </trkpt>
      <trkpt lat="44.96959" lon="3.65565">
        <ele>666</ele>
        <time>2018-02-10T13:42:42Z</time>
      </trkpt>
      <trkpt lat="44.9697" lon="3.65616">
        <ele>668</ele>
        <time>2018-02-10T13:42:46Z</time>
      </trkpt>
      <trkpt lat="44.96977" lon="3.65671">
        <ele>669</ele>
        <time>2018-02-10T13:42:50Z</time>
      </trkpt>
      <trkpt lat="44.96983" lon="3.65722">
        <ele>674</ele>
        <time>2018-02-10T13:42:54Z</time>
      </trkpt>
      <trkpt lat="44.96988" lon="3.65762">
        <ele>672</ele>
        <time>2018-02-10T13:42:57Z</time>
      </trkpt>
      <trkpt lat="44.96995" lon="3.65803">
        <ele>673</ele>
        <time>2018-02-10T13:43:00Z</time>
      </trkpt>
      <trkpt lat="44.96998" lon="3.65855">
        <ele>674</ele>
        <time>2018-02-10T13:43:04Z</time>
      </trkpt>
      <trkpt lat="44.97001" lon="3.65898">
        <ele>673</ele>
        <time>2018-02-10T13:43:07Z</time>
      </trkpt>
      <trkpt lat="44.96997" lon="3.65954">
        <ele>671</ele>
        <time>2018-02-10T13:43:11Z</time>
      </trkpt>
      <trkpt lat="44.96991" lon="3.65993">
        <ele>670</ele>
        <time>2018-02-10T13:43:14Z</time>
      </trkpt>
      <trkpt lat="44.96981" lon="3.66047">
        <ele>668</ele>
        <time>2018-02-10T13:43:18Z</time>
      </trkpt>
      <trkpt lat="44.96968" lon="3.66102">
        <ele>667</ele>
        <time>2018-02-10T13:43:22Z</time>
      </trkpt>
      <trkpt lat="44.96962" lon="3.6614">
        <ele>670</ele>
        <time>2018-02-10T13:43:25Z</time>
      </trkpt>
      <trkpt lat="44.96962" lon="3.66181">
        <ele>670</ele>
        <time>2018-02-10T13:43:28Z</time>
      </trkpt>
      <trkpt lat="44.96963" lon="3.66241">
        <ele>669</ele>
        <time>2018-02-10T13:43:32Z</time>
      </trkpt>
      <trkpt lat="44.96978" lon="3.66296">
        <ele>669</ele>
        <time>2018-02-10T13:43:36Z</time>
      </trkpt>
      <trkpt lat="44.96995" lon="3.66341">
        <ele>669</ele>
        <time>2018-02-10T13:43:39Z</time>
      </trkpt>
      <trkpt lat="44.97001" lon="3.66382">
        <ele>669</ele>
        <time>2018-02-10T13:43:42Z</time>
      </trkpt>
      <trkpt lat="44.97042" lon="3.66402">
        <ele>667</ele>
        <time>2018-02-10T13:43:46Z</time>
      </trkpt>
      <trkpt lat="44.97064" lon="3.66447">
        <ele>668</ele>
        <time>2018-02-10T13:43:50Z</time>
      </trkpt>
      <trkpt lat="44.97066" lon="3.66507">
        <ele>667</ele>
        <time>2018-02-10T13:43:54Z</time>
      </trkpt>
      <trkpt lat="44.97065" lon="3.66549">
        <ele>673</ele>
        <time>2018-02-10T13:43:57Z</time>
      </trkpt>
      <trkpt lat="44.97064" lon="3.66608">
        <ele>677</ele>
        <time>2018-02-10T13:44:01Z</time>
      </trkpt>
      <trkpt lat="44.97057" lon="3.66651">
        <ele>674</ele>
        <time>2018-02-10T13:44:04Z</time>
      </trkpt>
      <trkpt lat="44.97046" lon="3.66706">
        <ele>675</ele>
        <time>2018-02-10T13:44:08Z</time>
      </trkpt>
      <trkpt lat="44.97026" lon="3.66774">
        <ele>674</ele>
        <time>2018-02-10T13:44:13Z</time>
      </trkpt>
      <trkpt lat="44.96909" lon="3.66986">
        <ele>674</ele>
        <time>2018-02-10T13:44:31Z</time>
      </trkpt>
      <trkpt lat="44.96898" lon="3.67009">
        <ele>677</ele>
        <time>2018-02-10T13:44:34Z</time>
      </trkpt>
      <trkpt lat="44.96876" lon="3.6706">
        <ele>679</ele>
        <time>2018-02-10T13:44:38Z</time>
      </trkpt>
      <trkpt lat="44.96862" lon="3.67091">
        <ele>680</ele>
        <time>2018-02-10T13:44:41Z</time>
      </trkpt>
      <trkpt lat="44.96857" lon="3.67138">
        <ele>676</ele>
        <time>2018-02-10T13:44:45Z</time>
      </trkpt>
      <trkpt lat="44.96857" lon="3.67192">
        <ele>676</ele>
        <time>2018-02-10T13:44:49Z</time>
      </trkpt>
      <trkpt lat="44.96843" lon="3.67242">
        <ele>669</ele>
        <time>2018-02-10T13:44:53Z</time>
      </trkpt>
      <trkpt lat="44.9684" lon="3.67277">
        <ele>668</ele>
        <time>2018-02-10T13:44:56Z</time>
      </trkpt>
      <trkpt lat="44.96897" lon="3.6744">
        <ele>667</ele>
        <time>2018-02-10T13:45:09Z</time>
      </trkpt>
      <trkpt lat="44.96953" lon="3.67457">
        <ele>677</ele>
        <time>2018-02-10T13:45:12Z</time>
      </trkpt>
      <trkpt lat="44.96983" lon="3.675">
        <ele>678</ele>
        <time>2018-02-10T13:45:16Z</time>
      </trkpt>
      <trkpt lat="44.96745" lon="3.68161">
        <ele>674</ele>
        <time>2018-02-10T13:46:14Z</time>
      </trkpt>
      <trkpt lat="44.96717" lon="3.68172">
        <ele>678</ele>
        <time>2018-02-10T13:46:18Z</time>
      </trkpt>
      <trkpt lat="44.96693" lon="3.68193">
        <ele>687</ele>
        <time>2018-02-10T13:46:21Z</time>
      </trkpt>
      <trkpt lat="44.96658" lon="3.6823">
        <ele>686</ele>
        <time>2018-02-10T13:46:25Z</time>
      </trkpt>
      <trkpt lat="44.96627" lon="3.68261">
        <ele>685</ele>
        <time>2018-02-10T13:46:29Z</time>
      </trkpt>
      <trkpt lat="44.96604" lon="3.68283">
        <ele>685</ele>
        <time>2018-02-10T13:46:32Z</time>
      </trkpt>
      <trkpt lat="44.96377" lon="3.68384">
        <ele>678</ele>
        <time>2018-02-10T13:46:56Z</time>
      </trkpt>
      <trkpt lat="44.96321" lon="3.68384">
        <ele>670</ele>
        <time>2018-02-10T13:47:00Z</time>
      </trkpt>
      <trkpt lat="44.963" lon="3.68374">
        <ele>666</ele>
        <time>2018-02-10T13:47:03Z</time>
      </trkpt>
      <trkpt lat="44.96212" lon="3.68379">
        <ele>672</ele>
        <time>2018-02-10T13:47:14Z</time>
      </trkpt>
      <trkpt lat="44.96182" lon="3.68391">
        <ele>668</ele>
        <time>2018-02-10T13:47:17Z</time>
      </trkpt>
      <trkpt lat="44.96146" lon="3.6841">
        <ele>668</ele>
        <time>2018-02-10T13:47:21Z</time>
      </trkpt>
      <trkpt lat="44.96111" lon="3.6843">
        <ele>670</ele>
        <time>2018-02-10T13:47:25Z</time>
      </trkpt>
      <trkpt lat="44.96073" lon="3.68458">
        <ele>673</ele>
        <time>2018-02-10T13:47:29Z</time>
      </trkpt>
      <trkpt lat="44.95997" lon="3.68537">
        <ele>674</ele>
        <time>2018-02-10T13:47:41Z</time>
      </trkpt>
      <trkpt lat="44.95964" lon="3.68582">
        <ele>672</ele>
        <time>2018-02-10T13:47:45Z</time>
      </trkpt>
      <trkpt lat="44.95917" lon="3.68615">
        <ele>677</ele>
        <time>2018-02-10T13:47:48Z</time>
      </trkpt>
      <trkpt lat="44.95894" lon="3.68614">
        <ele>673</ele>
        <time>2018-02-10T13:47:51Z</time>
      </trkpt>
      <trkpt lat="44.95862" lon="3.68636">
        <ele>673</ele>
        <time>2018-02-10T13:47:54Z</time>
      </trkpt>
      <trkpt lat="44.95825" lon="3.6867">
        <ele>675</ele>
        <time>2018-02-10T13:47:58Z</time>
      </trkpt>
      <trkpt lat="44.95311" lon="3.68782">
        <ele>684</ele>
        <time>2018-02-10T13:49:04Z</time>
      </trkpt>
      <trkpt lat="44.95267" lon="3.68739">
        <ele>690</ele>
        <time>2018-02-10T13:49:08Z</time>
      </trkpt>
      <trkpt lat="44.95247" lon="3.68694">
        <ele>693</ele>
        <time>2018-02-10T13:49:12Z</time>
      </trkpt>
      <trkpt lat="44.95221" lon="3.68661">
        <ele>695</ele>
        <time>2018-02-10T13:49:16Z</time>
      </trkpt>
      <trkpt lat="44.95194" lon="3.68622">
        <ele>695</ele>
        <time>2018-02-10T13:49:20Z</time>
      </trkpt>
      <trkpt lat="44.95176" lon="3.68597">
        <ele>694</ele>
        <time>2018-02-10T13:49:23Z</time>
      </trkpt>
      <trkpt lat="44.95137" lon="3.6857">
        <ele>695</ele>
        <time>2018-02-10T13:49:27Z</time>
      </trkpt>
      <trkpt lat="44.95106" lon="3.6854">
        <ele>688</ele>
        <time>2018-02-10T13:49:31Z</time>
      </trkpt>
      <trkpt lat="44.95074" lon="3.685">
        <ele>687</ele>
        <time>2018-02-10T13:49:35Z</time>
      </trkpt>
      <trkpt lat="44.94995" lon="3.68386">
        <ele>689</ele>
        <time>2018-02-10T13:49:46Z</time>
      </trkpt>
      <trkpt lat="44.95029" lon="3.67882">
        <ele>710</ele>
        <time>2018-02-10T13:50:26Z</time>
      </trkpt>
      <trkpt lat="44.95045" lon="3.67844">
        <ele>713</ele>
        <time>2018-02-10T13:50:29Z</time>
      </trkpt>
      <trkpt lat="44.95076" lon="3.67783">
        <ele>687</ele>
        <time>2018-02-10T13:50:33Z</time>
      </trkpt>
      <trkpt lat="44.95079" lon="3.67742">
        <ele>695</ele>
        <time>2018-02-10T13:50:36Z</time>
      </trkpt>
      <trkpt lat="44.9505" lon="3.67644">
        <ele>694</ele>
        <time>2018-02-10T13:50:45Z</time>
      </trkpt>
      <trkpt lat="44.95041" lon="3.67565">
        <ele>697</ele>
        <time>2018-02-10T13:50:49Z</time>
      </trkpt>
      <trkpt lat="44.95022" lon="3.67531">
        <ele>703</ele>
        <time>2018-02-10T13:50:52Z</time>
      </trkpt>
      <trkpt lat="44.95002" lon="3.67497">
        <ele>706</ele>
        <time>2018-02-10T13:50:55Z</time>
      </trkpt>
      <trkpt lat="44.94979" lon="3.67459">
        <ele>705</ele>
        <time>2018-02-10T13:50:59Z</time>
      </trkpt>
      <trkpt lat="44.94954" lon="3.67438">
        <ele>707</ele>
        <time>2018-02-10T13:51:02Z</time>
      </trkpt>
      <trkpt lat="44.9493" lon="3.6742">
        <ele>707</ele>
        <time>2018-02-10T13:51:05Z</time>
      </trkpt>
      <trkpt lat="44.9483" lon="3.67398">
        <ele>709</ele>
        <time>2018-02-10T13:51:16Z</time>
      </trkpt>
      <trkpt lat="44.94789" lon="3.67401">
        <ele>707</ele>
        <time>2018-02-10T13:51:20Z</time>
      </trkpt>
      <trkpt lat="44.94753" lon="3.67385">
        <ele>710</ele>
        <time>2018-02-10T13:51:24Z</time>
      </trkpt>
      <trkpt lat="44.94724" lon="3.67385">
        <ele>710</ele>
        <time>2018-02-10T13:51:27Z</time>
      </trkpt>
      <trkpt lat="44.94688" lon="3.67383">
        <ele>710</ele>
        <time>2018-02-10T13:51:31Z</time>
      </trkpt>
      <trkpt lat="44.94662" lon="3.67373">
        <ele>710</ele>
        <time>2018-02-10T13:51:34Z</time>
      </trkpt>
      <trkpt lat="44.94641" lon="3.67379">
        <ele>709</ele>
        <time>2018-02-10T13:51:37Z</time>
      </trkpt>
      <trkpt lat="44.94584" lon="3.67397">
        <ele>707</ele>
        <time>2018-02-10T13:51:41Z</time>
      </trkpt>
      <trkpt lat="44.94536" lon="3.67409">
        <ele>709</ele>
        <time>2018-02-10T13:51:45Z</time>
      </trkpt>
      <trkpt lat="44.94497" lon="3.67415">
        <ele>713</ele>
        <time>2018-02-10T13:51:49Z</time>
      </trkpt>
      <trkpt lat="44.94466" lon="3.67424">
        <ele>714</ele>
        <time>2018-02-10T13:51:52Z</time>
      </trkpt>
      <trkpt lat="44.94431" lon="3.67425">
        <ele>716</ele>
        <time>2018-02-10T13:51:56Z</time>
      </trkpt>
      <trkpt lat="44.94396" lon="3.67425">
        <ele>715</ele>
        <time>2018-02-10T13:51:59Z</time>
      </trkpt>
      <trkpt lat="44.94362" lon="3.67423">
        <ele>709</ele>
        <time>2018-02-10T13:52:03Z</time>
      </trkpt>
      <trkpt lat="44.94325" lon="3.6742">
        <ele>711</ele>
        <time>2018-02-10T13:52:07Z</time>
      </trkpt>
      <trkpt lat="44.94284" lon="3.67412">
        <ele>714</ele>
        <time>2018-02-10T13:52:11Z</time>
      </trkpt>
      <trkpt lat="44.94254" lon="3.67406">
        <ele>712</ele>
        <time>2018-02-10T13:52:14Z</time>
      </trkpt>
      <trkpt lat="44.94215" lon="3.67401">
        <ele>711</ele>
        <time>2018-02-10T13:52:18Z</time>
      </trkpt>
      <trkpt lat="44.94188" lon="3.67396">
        <ele>713</ele>
        <time>2018-02-10T13:52:21Z</time>
      </trkpt>
      <trkpt lat="44.94154" lon="3.67392">
        <ele>716</ele>
        <time>2018-02-10T13:52:25Z</time>
      </trkpt>
      <trkpt lat="44.94128" lon="3.67387">
        <ele>714</ele>
        <time>2018-02-10T13:52:28Z</time>
      </trkpt>
      <trkpt lat="44.94091" lon="3.67391">
        <ele>714</ele>
        <time>2018-02-10T13:52:32Z</time>
      </trkpt>
      <trkpt lat="44.94061" lon="3.67396">
        <ele>711</ele>
        <time>2018-02-10T13:52:35Z</time>
      </trkpt>
      <trkpt lat="44.94027" lon="3.67409">
        <ele>712</ele>
        <time>2018-02-10T13:52:39Z</time>
      </trkpt>
      <trkpt lat="44.93991" lon="3.67428">
        <ele>712</ele>
        <time>2018-02-10T13:52:43Z</time>
      </trkpt>
      <trkpt lat="44.93962" lon="3.67444">
        <ele>712</ele>
        <time>2018-02-10T13:52:46Z</time>
      </trkpt>
      <trkpt lat="44.93938" lon="3.67466">
        <ele>713</ele>
        <time>2018-02-10T13:52:49Z</time>
      </trkpt>
      <trkpt lat="44.93876" lon="3.67527">
        <ele>714</ele>
        <time>2018-02-10T13:52:56Z</time>
      </trkpt>
      <trkpt lat="44.93859" lon="3.67546">
        <ele>716</ele>
        <time>2018-02-10T13:52:58Z</time>
      </trkpt>
      <trkpt lat="44.93821" lon="3.67606">
        <ele>718</ele>
        <time>2018-02-10T13:53:04Z</time>
      </trkpt>
      <trkpt lat="44.93794" lon="3.67641">
        <ele>717</ele>
        <time>2018-02-10T13:53:08Z</time>
      </trkpt>
      <trkpt lat="44.9377" lon="3.6767">
        <ele>717</ele>
        <time>2018-02-10T13:53:11Z</time>
      </trkpt>
      <trkpt lat="44.93747" lon="3.67712">
        <ele>718</ele>
        <time>2018-02-10T13:53:15Z</time>
      </trkpt>
      <trkpt lat="44.93723" lon="3.67759">
        <ele>715</ele>
        <time>2018-02-10T13:53:19Z</time>
      </trkpt>
      <trkpt lat="44.93695" lon="3.67797">
        <ele>715</ele>
        <time>2018-02-10T13:53:23Z</time>
      </trkpt>
      <trkpt lat="44.93668" lon="3.67837">
        <ele>713</ele>
        <time>2018-02-10T13:53:27Z</time>
      </trkpt>
      <trkpt lat="44.93651" lon="3.67868">
        <ele>713</ele>
        <time>2018-02-10T13:53:30Z</time>
      </trkpt>
      <trkpt lat="44.93639" lon="3.67887">
        <ele>712</ele>
        <time>2018-02-10T13:53:32Z</time>
      </trkpt>
      <trkpt lat="44.93613" lon="3.67931">
        <ele>713</ele>
        <time>2018-02-10T13:53:36Z</time>
      </trkpt>
      <trkpt lat="44.93597" lon="3.67967">
        <ele>712</ele>
        <time>2018-02-10T13:53:39Z</time>
      </trkpt>
      <trkpt lat="44.9357" lon="3.68011">
        <ele>712</ele>
        <time>2018-02-10T13:53:43Z</time>
      </trkpt>
      <trkpt lat="44.93554" lon="3.68062">
        <ele>710</ele>
        <time>2018-02-10T13:53:47Z</time>
      </trkpt>
      <trkpt lat="44.93529" lon="3.68088">
        <ele>713</ele>
        <time>2018-02-10T13:53:50Z</time>
      </trkpt>
      <trkpt lat="44.93491" lon="3.68117">
        <ele>713</ele>
        <time>2018-02-10T13:53:54Z</time>
      </trkpt>
      <trkpt lat="44.93473" lon="3.68146">
        <ele>715</ele>
        <time>2018-02-10T13:53:57Z</time>
      </trkpt>
      <trkpt lat="44.9344" lon="3.68178">
        <ele>716</ele>
        <time>2018-02-10T13:54:01Z</time>
      </trkpt>
      <trkpt lat="44.93406" lon="3.68204">
        <ele>719</ele>
        <time>2018-02-10T13:54:05Z</time>
      </trkpt>
      <trkpt lat="44.93378" lon="3.68223">
        <ele>719</ele>
        <time>2018-02-10T13:54:08Z</time>
      </trkpt>
      <trkpt lat="44.93348" lon="3.68244">
        <ele>715</ele>
        <time>2018-02-10T13:54:12Z</time>
      </trkpt>
      <trkpt lat="44.9332" lon="3.68254">
        <ele>714</ele>
        <time>2018-02-10T13:54:15Z</time>
      </trkpt>
      <trkpt lat="44.93292" lon="3.6826">
        <ele>715</ele>
        <time>2018-02-10T13:54:18Z</time>
      </trkpt>
      <trkpt lat="44.9326" lon="3.68265">
        <ele>716</ele>
        <time>2018-02-10T13:54:21Z</time>
      </trkpt>
      <trkpt lat="44.93219" lon="3.68265">
        <ele>717</ele>
        <time>2018-02-10T13:54:25Z</time>
      </trkpt>
      <trkpt lat="44.93177" lon="3.68264">
        <ele>720</ele>
        <time>2018-02-10T13:54:29Z</time>
      </trkpt>
      <trkpt lat="44.93141" lon="3.68266">
        <ele>721</ele>
        <time>2018-02-10T13:54:33Z</time>
      </trkpt>
      <trkpt lat="44.93095" lon="3.6826">
        <ele>722</ele>
        <time>2018-02-10T13:54:37Z</time>
      </trkpt>
      <trkpt lat="44.93055" lon="3.68258">
        <ele>721</ele>
        <time>2018-02-10T13:54:41Z</time>
      </trkpt>
      <trkpt lat="44.93011" lon="3.68258">
        <ele>724</ele>
        <time>2018-02-10T13:54:45Z</time>
      </trkpt>
      <trkpt lat="44.92976" lon="3.68264">
        <ele>723</ele>
        <time>2018-02-10T13:54:49Z</time>
      </trkpt>
      <trkpt lat="44.92935" lon="3.6827">
        <ele>724</ele>
        <time>2018-02-10T13:54:53Z</time>
      </trkpt>
      <trkpt lat="44.92897" lon="3.68276">
        <ele>720</ele>
        <time>2018-02-10T13:54:57Z</time>
      </trkpt>
      <trkpt lat="44.92863" lon="3.68281">
        <ele>720</ele>
        <time>2018-02-10T13:55:01Z</time>
      </trkpt>
      <trkpt lat="44.92824" lon="3.68288">
        <ele>717</ele>
        <time>2018-02-10T13:55:05Z</time>
      </trkpt>
      <trkpt lat="44.92785" lon="3.68286">
        <ele>719</ele>
        <time>2018-02-10T13:55:09Z</time>
      </trkpt>
      <trkpt lat="44.92746" lon="3.68281">
        <ele>720</ele>
        <time>2018-02-10T13:55:13Z</time>
      </trkpt>
      <trkpt lat="44.92726" lon="3.68275">
        <ele>719</ele>
        <time>2018-02-10T13:55:16Z</time>
      </trkpt>
      <trkpt lat="44.92718" lon="3.68274">
        <ele>719</ele>
        <time>2018-02-10T13:55:19Z</time>
      </trkpt>
      <trkpt lat="44.92668" lon="3.68243">
        <ele>715</ele>
        <time>2018-02-10T13:55:22Z</time>
      </trkpt>
      <trkpt lat="44.9264" lon="3.6824">
        <ele>713</ele>
        <time>2018-02-10T13:55:25Z</time>
      </trkpt>
      <trkpt lat="44.92594" lon="3.68214">
        <ele>717</ele>
        <time>2018-02-10T13:55:29Z</time>
      </trkpt>
      <trkpt lat="44.92566" lon="3.68197">
        <ele>715</ele>
        <time>2018-02-10T13:55:32Z</time>
      </trkpt>
      <trkpt lat="44.92534" lon="3.68166">
        <ele>718</ele>
        <time>2018-02-10T13:55:36Z</time>
      </trkpt>
      <trkpt lat="44.92503" lon="3.68133">
        <ele>717</ele>
        <time>2018-02-10T13:55:40Z</time>
      </trkpt>
      <trkpt lat="44.9248" lon="3.68103">
        <ele>717</ele>
        <time>2018-02-10T13:55:43Z</time>
      </trkpt>
      <trkpt lat="44.92451" lon="3.68064">
        <ele>716</ele>
        <time>2018-02-10T13:55:47Z</time>
      </trkpt>
      <trkpt lat="44.92426" lon="3.68021">
        <ele>717</ele>
        <time>2018-02-10T13:55:51Z</time>
      </trkpt>
      <trkpt lat="44.92402" lon="3.67991">
        <ele>720</ele>
        <time>2018-02-10T13:55:54Z</time>
      </trkpt>
      <trkpt lat="44.92385" lon="3.67962">
        <ele>720</ele>
        <time>2018-02-10T13:55:57Z</time>
      </trkpt>
      <trkpt lat="44.92356" lon="3.67921">
        <ele>721</ele>
        <time>2018-02-10T13:56:01Z</time>
      </trkpt>
      <trkpt lat="44.92328" lon="3.67882">
        <ele>717</ele>
        <time>2018-02-10T13:56:05Z</time>
      </trkpt>
      <trkpt lat="44.92308" lon="3.67852">
        <ele>718</ele>
        <time>2018-02-10T13:56:08Z</time>
      </trkpt>
      <trkpt lat="44.92272" lon="3.67803">
        <ele>716</ele>
        <time>2018-02-10T13:56:13Z</time>
      </trkpt>
      <trkpt lat="44.92252" lon="3.67775">
        <ele>714</ele>
        <time>2018-02-10T13:56:16Z</time>
      </trkpt>
      <trkpt lat="44.92227" lon="3.67735">
        <ele>711</ele>
        <time>2018-02-10T13:56:20Z</time>
      </trkpt>
      <trkpt lat="44.92201" lon="3.67695">
        <ele>712</ele>
        <time>2018-02-10T13:56:24Z</time>
      </trkpt>
      <trkpt lat="44.92184" lon="3.67662">
        <ele>713</ele>
        <time>2018-02-10T13:56:27Z</time>
      </trkpt>
      <trkpt lat="44.92154" lon="3.67623">
        <ele>716</ele>
        <time>2018-02-10T13:56:31Z</time>
      </trkpt>
      <trkpt lat="44.92123" lon="3.67584">
        <ele>719</ele>
        <time>2018-02-10T13:56:35Z</time>
      </trkpt>
      <trkpt lat="44.92108" lon="3.67555">
        <ele>719</ele>
        <time>2018-02-10T13:56:38Z</time>
      </trkpt>
      <trkpt lat="44.92086" lon="3.67525">
        <ele>720</ele>
        <time>2018-02-10T13:56:41Z</time>
      </trkpt>
      <trkpt lat="44.92059" lon="3.67488">
        <ele>720</ele>
        <time>2018-02-10T13:56:45Z</time>
      </trkpt>
      <trkpt lat="44.92034" lon="3.67454">
        <ele>720</ele>
        <time>2018-02-10T13:56:49Z</time>
      </trkpt>
      <trkpt lat="44.92013" lon="3.6743">
        <ele>720</ele>
        <time>2018-02-10T13:56:52Z</time>
      </trkpt>
      <trkpt lat="44.91988" lon="3.67399">
        <ele>718</ele>
        <time>2018-02-10T13:56:56Z</time>
      </trkpt>
      <trkpt lat="44.91962" lon="3.67378">
        <ele>718</ele>
        <time>2018-02-10T13:57:00Z</time>
      </trkpt>
      <trkpt lat="44.91934" lon="3.67363">
        <ele>722</ele>
        <time>2018-02-10T13:57:04Z</time>
      </trkpt>
      <trkpt lat="44.9192" lon="3.67354">
        <ele>721</ele>
        <time>2018-02-10T13:57:07Z</time>
      </trkpt>
      <trkpt lat="44.91899" lon="3.67335">
        <ele>721</ele>
        <time>2018-02-10T13:57:10Z</time>
      </trkpt>
      <trkpt lat="44.91916" lon="3.67328">
        <ele>721</ele>
        <time>2018-02-10T13:57:14Z</time>
      </trkpt>
      <trkpt lat="44.91915" lon="3.67343">
        <ele>721</ele>
        <time>2018-02-10T13:57:17Z</time>
      </trkpt>
      <trkpt lat="44.91919" lon="3.67348">
        <ele>722</ele>
        <time>2018-02-10T13:57:20Z</time>
      </trkpt>
      <trkpt lat="44.91913" lon="3.67351">
        <ele>722</ele>
        <time>2018-02-10T13:57:23Z</time>
      </trkpt>
      <trkpt lat="44.91905" lon="3.67349">
        <ele>723</ele>
        <time>2018-02-10T13:57:27Z</time>
      </trkpt>
      <trkpt lat="44.91901" lon="3.67346">
        <ele>719</ele>
        <time>2018-02-10T13:57:30Z</time>
      </trkpt>
      <trkpt lat="44.91897" lon="3.67346">
        <ele>720</ele>
        <time>2018-02-10T13:57:34Z</time>
      </trkpt>
      <trkpt lat="44.91898" lon="3.67346">
        <ele>719</ele>
        <time>2018-02-10T13:57:37Z</time>
      </trkpt>
      <trkpt lat="44.91898" lon="3.67346">
        <ele>720</ele>
        <time>2018-02-10T13:57:41Z</time>
      </trkpt>
      <trkpt lat="44.91898" lon="3.67346">
        <ele>720</ele>
        <time>2018-02-10T13:57:44Z</time>
      </trkpt>
      <trkpt lat="44.91898" lon="3.67346">
        <ele>720</ele>
        <time>2018-02-10T13:57:48Z</time>
      </trkpt>
      <trkpt lat="44.91898" lon="3.67346">
        <ele>720</ele>
        <time>2018-02-10T13:57:52Z</time>
      </trkpt>
      <trkpt lat="44.91898" lon="3.67346">
        <ele>720</ele>
        <time>2018-02-10T13:57:55Z</time>
      </trkpt>
      <trkpt lat="44.91898" lon="3.67346">
        <ele>720</ele>
        <time>2018-02-10T13:57:59Z</time>
      </trkpt>
      <trkpt lat="44.91892" lon="3.67343">
        <ele>718</ele>
        <time>2018-02-10T13:58:02Z</time>
      </trkpt>
      <trkpt lat="44.9187" lon="3.6733">
        <ele>714</ele>
        <time>2018-02-10T13:58:05Z</time>
      </trkpt>
      <trkpt lat="44.9184" lon="3.6732">
        <ele>710</ele>
        <time>2018-02-10T13:58:09Z</time>
      </trkpt>
      <trkpt lat="44.91812" lon="3.67313">
        <ele>711</ele>
        <time>2018-02-10T13:58:13Z</time>
      </trkpt>
      <trkpt lat="44.91778" lon="3.67309">
        <ele>711</ele>
        <time>2018-02-10T13:58:17Z</time>
      </trkpt>
      <trkpt lat="44.9175" lon="3.67306">
        <ele>713</ele>
        <time>2018-02-10T13:58:20Z</time>
      </trkpt>
      <trkpt lat="44.91731" lon="3.67298">
        <ele>713</ele>
        <time>2018-02-10T13:58:23Z</time>
      </trkpt>
      <trkpt lat="44.91683" lon="3.67307">
        <ele>713</ele>
        <time>2018-02-10T13:58:27Z</time>
      </trkpt>
      <trkpt lat="44.9165" lon="3.67315">
        <ele>715</ele>
        <time>2018-02-10T13:58:30Z</time>
      </trkpt>
      <trkpt lat="44.9162" lon="3.6733">
        <ele>714</ele>
        <time>2018-02-10T13:58:33Z</time>
      </trkpt>
      <trkpt lat="44.91586" lon="3.67351">
        <ele>714</ele>
        <time>2018-02-10T13:58:37Z</time>
      </trkpt>
      <trkpt lat="44.91561" lon="3.67373">
        <ele>714</ele>
        <time>2018-02-10T13:58:40Z</time>
      </trkpt>
      <trkpt lat="44.91539" lon="3.67388">
        <ele>710</ele>
        <time>2018-02-10T13:58:43Z</time>
      </trkpt>
      <trkpt lat="44.91507" lon="3.67405">
        <ele>712</ele>
        <time>2018-02-10T13:58:47Z</time>
      </trkpt>
      <trkpt lat="44.91482" lon="3.67426">
        <ele>712</ele>
        <time>2018-02-10T13:58:50Z</time>
      </trkpt>
      <trkpt lat="44.91448" lon="3.67452">
        <ele>703</ele>
        <time>2018-02-10T13:58:54Z</time>
      </trkpt>
      <trkpt lat="44.91415" lon="3.67482">
        <ele>703</ele>
        <time>2018-02-10T13:58:58Z</time>
      </trkpt>
      <trkpt lat="44.91392" lon="3.67503">
        <ele>703</ele>
        <time>2018-02-10T13:59:01Z</time>
      </trkpt>
      <trkpt lat="44.91369" lon="3.67528">
        <ele>704</ele>
        <time>2018-02-10T13:59:04Z</time>
      </trkpt>
      <trkpt lat="44.91326" lon="3.67549">
        <ele>702</ele>
        <time>2018-02-10T13:59:08Z</time>
      </trkpt>
      <trkpt lat="44.913" lon="3.67571">
        <ele>704</ele>
        <time>2018-02-10T13:59:11Z</time>
      </trkpt>
      <trkpt lat="44.91263" lon="3.67592">
        <ele>702</ele>
        <time>2018-02-10T13:59:15Z</time>
      </trkpt>
      <trkpt lat="44.91223" lon="3.67604">
        <ele>700</ele>
        <time>2018-02-10T13:59:19Z</time>
      </trkpt>
      <trkpt lat="44.91181" lon="3.67618">
        <ele>701</ele>
        <time>2018-02-10T13:59:23Z</time>
      </trkpt>
      <trkpt lat="44.9114" lon="3.67635">
        <ele>703</ele>
        <time>2018-02-10T13:59:27Z</time>
      </trkpt>
      <trkpt lat="44.91104" lon="3.67644">
        <ele>702</ele>
        <time>2018-02-10T13:59:30Z</time>
      </trkpt>
      <trkpt lat="44.91069" lon="3.67651">
        <ele>702</ele>
        <time>2018-02-10T13:59:33Z</time>
      </trkpt>
      <trkpt lat="44.91061" lon="3.67668">
        <ele>703</ele>
        <time>2018-02-10T13:59:36Z</time>
      </trkpt>
      <trkpt lat="44.91026" lon="3.67672">
        <ele>702</ele>
        <time>2018-02-10T13:59:39Z</time>
      </trkpt>
      <trkpt lat="44.90996" lon="3.67671">
        <ele>706</ele>
        <time>2018-02-10T13:59:42Z</time>
      </trkpt>
      <trkpt lat="44.90961" lon="3.67684">
        <ele>709</ele>
        <time>2018-02-10T13:59:46Z</time>
      </trkpt>
      <trkpt lat="44.90922" lon="3.6769">
        <ele>707</ele>
        <time>2018-02-10T13:59:50Z</time>
      </trkpt>
      <trkpt lat="44.90893" lon="3.67689">
        <ele>706</ele>
        <time>2018-02-10T13:59:53Z</time>
      </trkpt>
      <trkpt lat="44.90845" lon="3.67689">
        <ele>708</ele>
        <time>2018-02-10T13:59:57Z</time>
      </trkpt>
      <trkpt lat="44.90817" lon="3.67684">
        <ele>710</ele>
        <time>2018-02-10T14:00:00Z</time>
      </trkpt>
      <trkpt lat="44.90784" lon="3.67672">
        <ele>712</ele>
        <time>2018-02-10T14:00:03Z</time>
      </trkpt>
      <trkpt lat="44.9075" lon="3.67668">
        <ele>712</ele>
        <time>2018-02-10T14:00:07Z</time>
      </trkpt>
      <trkpt lat="44.90707" lon="3.67656">
        <ele>716</ele>
        <time>2018-02-10T14:00:11Z</time>
      </trkpt>
      <trkpt lat="44.90664" lon="3.67655">
        <ele>719</ele>
        <time>2018-02-10T14:00:15Z</time>
      </trkpt>
      <trkpt lat="44.90623" lon="3.67657">
        <ele>721</ele>
        <time>2018-02-10T14:00:19Z</time>
      </trkpt>
      <trkpt lat="44.90588" lon="3.67648">
        <ele>724</ele>
        <time>2018-02-10T14:00:22Z</time>
      </trkpt>
      <trkpt lat="44.90543" lon="3.67598">
        <ele>732</ele>
        <time>2018-02-10T14:00:26Z</time>
      </trkpt>
      <trkpt lat="44.90526" lon="3.67617">
        <ele>733</ele>
        <time>2018-02-10T14:00:30Z</time>
      </trkpt>
      <trkpt lat="44.90497" lon="3.67626">
        <ele>732</ele>
        <time>2018-02-10T14:00:33Z</time>
      </trkpt>
      <trkpt lat="44.90452" lon="3.67622">
        <ele>729</ele>
        <time>2018-02-10T14:00:37Z</time>
      </trkpt>
      <trkpt lat="44.90411" lon="3.67611">
        <ele>730</ele>
        <time>2018-02-10T14:00:41Z</time>
      </trkpt>
      <trkpt lat="44.90388" lon="3.67606">
        <ele>725</ele>
        <time>2018-02-10T14:00:44Z</time>
      </trkpt>
      <trkpt lat="44.90347" lon="3.67597">
        <ele>726</ele>
        <time>2018-02-10T14:00:48Z</time>
      </trkpt>
      <trkpt lat="44.90315" lon="3.67588">
        <ele>729</ele>
        <time>2018-02-10T14:00:51Z</time>
      </trkpt>
      <trkpt lat="44.90273" lon="3.67573">
        <ele>729</ele>
        <time>2018-02-10T14:00:55Z</time>
      </trkpt>
      <trkpt lat="44.90239" lon="3.67563">
        <ele>729</ele>
        <time>2018-02-10T14:00:59Z</time>
      </trkpt>
      <trkpt lat="44.90207" lon="3.67548">
        <ele>730</ele>
        <time>2018-02-10T14:01:02Z</time>
      </trkpt>
      <trkpt lat="44.90172" lon="3.67533">
        <ele>732</ele>
        <time>2018-02-10T14:01:06Z</time>
      </trkpt>
      <trkpt lat="44.9013" lon="3.67523">
        <ele>734</ele>
        <time>2018-02-10T14:01:10Z</time>
      </trkpt>
      <trkpt lat="44.90099" lon="3.6751">
        <ele>735</ele>
        <time>2018-02-10T14:01:13Z</time>
      </trkpt>
      <trkpt lat="44.90075" lon="3.67501">
        <ele>734</ele>
        <time>2018-02-10T14:01:16Z</time>
      </trkpt>
      <trkpt lat="44.9003" lon="3.67482">
        <ele>737</ele>
        <time>2018-02-10T14:01:22Z</time>
      </trkpt>
      <trkpt lat="44.89989" lon="3.67472">
        <ele>739</ele>
        <time>2018-02-10T14:01:26Z</time>
      </trkpt>
      <trkpt lat="44.89959" lon="3.67459">
        <ele>739</ele>
        <time>2018-02-10T14:01:29Z</time>
      </trkpt>
      <trkpt lat="44.89919" lon="3.67446">
        <ele>738</ele>
        <time>2018-02-10T14:01:33Z</time>
      </trkpt>
      <trkpt lat="44.89877" lon="3.67442">
        <ele>736</ele>
        <time>2018-02-10T14:01:37Z</time>
      </trkpt>
      <trkpt lat="44.89677" lon="3.67614">
        <ele>731</ele>
        <time>2018-02-10T14:02:04Z</time>
      </trkpt>
      <trkpt lat="44.89651" lon="3.67646">
        <ele>730</ele>
        <time>2018-02-10T14:02:07Z</time>
      </trkpt>
      <trkpt lat="44.89615" lon="3.67681">
        <ele>730</ele>
        <time>2018-02-10T14:02:11Z</time>
      </trkpt>
      <trkpt lat="44.89604" lon="3.67719">
        <ele>730</ele>
        <time>2018-02-10T14:02:14Z</time>
      </trkpt>
      <trkpt lat="44.89601" lon="3.67761">
        <ele>732</ele>
        <time>2018-02-10T14:02:17Z</time>
      </trkpt>
      <trkpt lat="44.89603" lon="3.67817">
        <ele>737</ele>
        <time>2018-02-10T14:02:21Z</time>
      </trkpt>
      <trkpt lat="44.89603" lon="3.67862">
        <ele>738</ele>
        <time>2018-02-10T14:02:24Z</time>
      </trkpt>
      <trkpt lat="44.89612" lon="3.67908">
        <ele>737</ele>
        <time>2018-02-10T14:02:28Z</time>
      </trkpt>
      <trkpt lat="44.89625" lon="3.67948">
        <ele>739</ele>
        <time>2018-02-10T14:02:31Z</time>
      </trkpt>
      <trkpt lat="44.89646" lon="3.68003">
        <ele>741</ele>
        <time>2018-02-10T14:02:35Z</time>
      </trkpt>
      <trkpt lat="44.89667" lon="3.68051">
        <ele>740</ele>
        <time>2018-02-10T14:02:39Z</time>
      </trkpt>
      <trkpt lat="44.89681" lon="3.68076">
        <ele>743</ele>
        <time>2018-02-10T14:02:42Z</time>
      </trkpt>
      <trkpt lat="44.89709" lon="3.68115">
        <ele>742</ele>
        <time>2018-02-10T14:02:46Z</time>
      </trkpt>
      <trkpt lat="44.89741" lon="3.68151">
        <ele>744</ele>
        <time>2018-02-10T14:02:50Z</time>
      </trkpt>
      <trkpt lat="44.89773" lon="3.68194">
        <ele>739</ele>
        <time>2018-02-10T14:02:55Z</time>
      </trkpt>
      <trkpt lat="44.89806" lon="3.68227">
        <ele>741</ele>
        <time>2018-02-10T14:02:59Z</time>
      </trkpt>
      <trkpt lat="44.8983" lon="3.68254">
        <ele>742</ele>
        <time>2018-02-10T14:03:02Z</time>
      </trkpt>
      <trkpt lat="44.89851" lon="3.68283">
        <ele>743</ele>
        <time>2018-02-10T14:03:05Z</time>
      </trkpt>
      <trkpt lat="44.89878" lon="3.68324">
        <ele>742</ele>
        <time>2018-02-10T14:03:09Z</time>
      </trkpt>
      <trkpt lat="44.89893" lon="3.68365">
        <ele>745</ele>
        <time>2018-02-10T14:03:12Z</time>
      </trkpt>
      <trkpt lat="44.89913" lon="3.68408">
        <ele>747</ele>
        <time>2018-02-10T14:03:16Z</time>
      </trkpt>
      <trkpt lat="44.8992" lon="3.68441">
        <ele>738</ele>
        <time>2018-02-10T14:03:19Z</time>
      </trkpt>
      <trkpt lat="44.89927" lon="3.68479">
        <ele>736</ele>
        <time>2018-02-10T14:03:22Z</time>
      </trkpt>
      <trkpt lat="44.89932" lon="3.68517">
        <ele>734</ele>
        <time>2018-02-10T14:03:25Z</time>
      </trkpt>
      <trkpt lat="44.8992" lon="3.68565">
        <ele>735</ele>
        <time>2018-02-10T14:03:29Z</time>
      </trkpt>
      <trkpt lat="44.89914" lon="3.68629">
        <ele>736</ele>
        <time>2018-02-10T14:03:34Z</time>
      </trkpt>
      <trkpt lat="44.89919" lon="3.68668">
        <ele>735</ele>
        <time>2018-02-10T14:03:37Z</time>
      </trkpt>
      <trkpt lat="44.89905" lon="3.68705">
        <ele>736</ele>
        <time>2018-02-10T14:03:40Z</time>
      </trkpt>
      <trkpt lat="44.89885" lon="3.68751">
        <ele>733</ele>
        <time>2018-02-10T14:03:44Z</time>
      </trkpt>
      <trkpt lat="44.89857" lon="3.68789">
        <ele>732</ele>
        <time>2018-02-10T14:03:48Z</time>
      </trkpt>
      <trkpt lat="44.89839" lon="3.68821">
        <ele>733</ele>
        <time>2018-02-10T14:03:51Z</time>
      </trkpt>
      <trkpt lat="44.898" lon="3.68854">
        <ele>731</ele>
        <time>2018-02-10T14:03:55Z</time>
      </trkpt>
      <trkpt lat="44.89768" lon="3.68887">
        <ele>732</ele>
        <time>2018-02-10T14:03:59Z</time>
      </trkpt>
      <trkpt lat="44.89744" lon="3.68911">
        <ele>732</ele>
        <time>2018-02-10T14:04:02Z</time>
      </trkpt>
      <trkpt lat="44.8972" lon="3.68937">
        <ele>732</ele>
        <time>2018-02-10T14:04:05Z</time>
      </trkpt>
      <trkpt lat="44.89696" lon="3.68963">
        <ele>732</ele>
        <time>2018-02-10T14:04:08Z</time>
      </trkpt>
      <trkpt lat="44.89665" lon="3.68997">
        <ele>733</ele>
        <time>2018-02-10T14:04:12Z</time>
      </trkpt>
      <trkpt lat="44.89642" lon="3.69026">
        <ele>734</ele>
        <time>2018-02-10T14:04:15Z</time>
      </trkpt>
      <trkpt lat="44.89619" lon="3.69051">
        <ele>734</ele>
        <time>2018-02-10T14:04:18Z</time>
      </trkpt>
      <trkpt lat="44.89588" lon="3.69084">
        <ele>734</ele>
        <time>2018-02-10T14:04:22Z</time>
      </trkpt>
      <trkpt lat="44.89557" lon="3.69118">
        <ele>735</ele>
        <time>2018-02-10T14:04:26Z</time>
      </trkpt>
      <trkpt lat="44.89525" lon="3.6915">
        <ele>737</ele>
        <time>2018-02-10T14:04:30Z</time>
      </trkpt>
      <trkpt lat="44.89493" lon="3.6918">
        <ele>736</ele>
        <time>2018-02-10T14:04:34Z</time>
      </trkpt>
      <trkpt lat="44.89466" lon="3.69212">
        <ele>736</ele>
        <time>2018-02-10T14:04:38Z</time>
      </trkpt>
      <trkpt lat="44.89445" lon="3.69237">
        <ele>736</ele>
        <time>2018-02-10T14:04:41Z</time>
      </trkpt>
      <trkpt lat="44.89424" lon="3.69262">
        <ele>737</ele>
        <time>2018-02-10T14:04:44Z</time>
      </trkpt>
      <trkpt lat="44.89397" lon="3.69295">
        <ele>739</ele>
        <time>2018-02-10T14:04:48Z</time>
      </trkpt>
      <trkpt lat="44.89377" lon="3.69328">
        <ele>740</ele>
        <time>2018-02-10T14:04:51Z</time>
      </trkpt>
      <trkpt lat="44.89367" lon="3.69346">
        <ele>740</ele>
        <time>2018-02-10T14:04:54Z</time>
      </trkpt>
      <trkpt lat="44.89317" lon="3.69376">
        <ele>740</ele>
        <time>2018-02-10T14:04:58Z</time>
      </trkpt>
      <trkpt lat="44.89277" lon="3.69402">
        <ele>736</ele>
        <time>2018-02-10T14:05:02Z</time>
      </trkpt>
      <trkpt lat="44.89255" lon="3.69423">
        <ele>737</ele>
        <time>2018-02-10T14:05:05Z</time>
      </trkpt>
      <trkpt lat="44.89218" lon="3.69439">
        <ele>736</ele>
        <time>2018-02-10T14:05:09Z</time>
      </trkpt>
      <trkpt lat="44.89192" lon="3.69435">
        <ele>737</ele>
        <time>2018-02-10T14:05:12Z</time>
      </trkpt>
      <trkpt lat="44.89146" lon="3.69431">
        <ele>738</ele>
        <time>2018-02-10T14:05:16Z</time>
      </trkpt>
      <trkpt lat="44.89119" lon="3.69436">
        <ele>739</ele>
        <time>2018-02-10T14:05:19Z</time>
      </trkpt>
      <trkpt lat="44.89073" lon="3.69418">
        <ele>741</ele>
        <time>2018-02-10T14:05:23Z</time>
      </trkpt>
      <trkpt lat="44.89003" lon="3.69404">
        <ele>741</ele>
        <time>2018-02-10T14:05:30Z</time>
      </trkpt>
      <trkpt lat="44.88957" lon="3.69408">
        <ele>740</ele>
        <time>2018-02-10T14:05:34Z</time>
      </trkpt>
      <trkpt lat="44.88938" lon="3.6942">
        <ele>739</ele>
        <time>2018-02-10T14:05:37Z</time>
      </trkpt>
      <trkpt lat="44.88903" lon="3.69433">
        <ele>742</ele>
        <time>2018-02-10T14:05:41Z</time>
      </trkpt>
      <trkpt lat="44.88875" lon="3.6944">
        <ele>742</ele>
        <time>2018-02-10T14:05:44Z</time>
      </trkpt>
      <trkpt lat="44.88844" lon="3.69437">
        <ele>740</ele>
        <time>2018-02-10T14:05:47Z</time>
      </trkpt>
      <trkpt lat="44.88815" lon="3.69453">
        <ele>741</ele>
        <time>2018-02-10T14:05:51Z</time>
      </trkpt>
      <trkpt lat="44.88775" lon="3.69439">
        <ele>740</ele>
        <time>2018-02-10T14:05:55Z</time>
      </trkpt>
      <trkpt lat="44.88734" lon="3.69424">
        <ele>748</ele>
        <time>2018-02-10T14:05:58Z</time>
      </trkpt>
      <trkpt lat="44.88713" lon="3.69409">
        <ele>743</ele>
        <time>2018-02-10T14:06:01Z</time>
      </trkpt>
      <trkpt lat="44.88677" lon="3.69376">
        <ele>751</ele>
        <time>2018-02-10T14:06:05Z</time>
      </trkpt>
      <trkpt lat="44.88646" lon="3.69354">
        <ele>751</ele>
        <time>2018-02-10T14:06:08Z</time>
      </trkpt>
      <trkpt lat="44.88623" lon="3.69338">
        <ele>755</ele>
        <time>2018-02-10T14:06:11Z</time>
      </trkpt>
      <trkpt lat="44.88246" lon="3.69639">
        <ele>754</ele>
        <time>2018-02-10T14:06:59Z</time>
      </trkpt>
      <trkpt lat="44.88217" lon="3.69657">
        <ele>751</ele>
        <time>2018-02-10T14:07:03Z</time>
      </trkpt>
      <trkpt lat="44.8819" lon="3.69687">
        <ele>749</ele>
        <time>2018-02-10T14:07:06Z</time>
      </trkpt>
      <trkpt lat="44.88147" lon="3.69705">
        <ele>747</ele>
        <time>2018-02-10T14:07:09Z</time>
      </trkpt>
      <trkpt lat="44.88119" lon="3.69726">
        <ele>749</ele>
        <time>2018-02-10T14:07:13Z</time>
      </trkpt>
      <trkpt lat="44.88087" lon="3.69753">
        <ele>753</ele>
        <time>2018-02-10T14:07:17Z</time>
      </trkpt>
      <trkpt lat="44.88056" lon="3.69774">
        <ele>752</ele>
        <time>2018-02-10T14:07:21Z</time>
      </trkpt>
      <trkpt lat="44.8771" lon="3.70192">
        <ele>753</ele>
        <time>2018-02-10T14:08:09Z</time>
      </trkpt>
      <trkpt lat="44.87686" lon="3.70239">
        <ele>760</ele>
        <time>2018-02-10T14:08:13Z</time>
      </trkpt>
      <trkpt lat="44.8766" lon="3.70284">
        <ele>761</ele>
        <time>2018-02-10T14:08:17Z</time>
      </trkpt>
      <trkpt lat="44.87646" lon="3.70303">
        <ele>754</ele>
        <time>2018-02-10T14:08:20Z</time>
      </trkpt>
      <trkpt lat="44.87619" lon="3.70344">
        <ele>752</ele>
        <time>2018-02-10T14:08:24Z</time>
      </trkpt>
      <trkpt lat="44.87603" lon="3.70397">
        <ele>751</ele>
        <time>2018-02-10T14:08:28Z</time>
      </trkpt>
      <trkpt lat="44.87577" lon="3.70437">
        <ele>749</ele>
        <time>2018-02-10T14:08:32Z</time>
      </trkpt>
      <trkpt lat="44.87552" lon="3.7048">
        <ele>750</ele>
        <time>2018-02-10T14:08:36Z</time>
      </trkpt>
      <trkpt lat="44.87536" lon="3.70517">
        <ele>752</ele>
        <time>2018-02-10T14:08:39Z</time>
      </trkpt>
      <trkpt lat="44.87513" lon="3.70558">
        <ele>750</ele>
        <time>2018-02-10T14:08:43Z</time>
      </trkpt>
      <trkpt lat="44.87489" lon="3.70585">
        <ele>750</ele>
        <time>2018-02-10T14:08:46Z</time>
      </trkpt>
      <trkpt lat="44.87452" lon="3.70612">
        <ele>750</ele>
        <time>2018-02-10T14:08:50Z</time>
      </trkpt>
      <trkpt lat="44.87436" lon="3.70634">
        <ele>750</ele>
        <time>2018-02-10T14:08:53Z</time>
      </trkpt>
      <trkpt lat="44.87415" lon="3.70663">
        <ele>748</ele>
        <time>2018-02-10T14:08:57Z</time>
      </trkpt>
      <trkpt lat="44.87377" lon="3.7067">
        <ele>749</ele>
        <time>2018-02-10T14:09:00Z</time>
      </trkpt>
      <trkpt lat="44.8734" lon="3.70672">
        <ele>749</ele>
        <time>2018-02-10T14:09:03Z</time>
      </trkpt>
      <trkpt lat="44.87305" lon="3.70681">
        <ele>753</ele>
        <time>2018-02-10T14:09:07Z</time>
      </trkpt>
      <trkpt lat="44.87258" lon="3.70677">
        <ele>753</ele>
        <time>2018-02-10T14:09:10Z</time>
      </trkpt>
      <trkpt lat="44.8724" lon="3.70692">
        <ele>752</ele>
        <time>2018-02-10T14:09:13Z</time>
      </trkpt>
      <trkpt lat="44.87199" lon="3.70705">
        <ele>760</ele>
        <time>2018-02-10T14:09:17Z</time>
      </trkpt>
      <trkpt lat="44.87177" lon="3.70724">
        <ele>761</ele>
        <time>2018-02-10T14:09:20Z</time>
      </trkpt>
      <trkpt lat="44.87147" lon="3.70746">
        <ele>763</ele>
        <time>2018-02-10T14:09:23Z</time>
      </trkpt>
      <trkpt lat="44.87115" lon="3.70783">
        <ele>763</ele>
        <time>2018-02-10T14:09:27Z</time>
      </trkpt>
      <trkpt lat="44.87083" lon="3.70807">
        <ele>760</ele>
        <time>2018-02-10T14:09:30Z</time>
      </trkpt>
      <trkpt lat="44.87058" lon="3.70843">
        <ele>755</ele>
        <time>2018-02-10T14:09:34Z</time>
      </trkpt>
      <trkpt lat="44.87098" lon="3.71136">
        <ele>760</ele>
        <time>2018-02-10T14:09:56Z</time>
      </trkpt>
      <trkpt lat="44.87119" lon="3.71192">
        <ele>764</ele>
        <time>2018-02-10T14:10:00Z</time>
      </trkpt>
      <trkpt lat="44.87131" lon="3.71233">
        <ele>768</ele>
        <time>2018-02-10T14:10:03Z</time>
      </trkpt>
      <trkpt lat="44.8714" lon="3.71288">
        <ele>770</ele>
        <time>2018-02-10T14:10:07Z</time>
      </trkpt>
      <trkpt lat="44.87144" lon="3.71331">
        <ele>772</ele>
        <time>2018-02-10T14:10:10Z</time>
      </trkpt>
      <trkpt lat="44.87141" lon="3.71388">
        <ele>771</ele>
        <time>2018-02-10T14:10:14Z</time>
      </trkpt>
      <trkpt lat="44.87136" lon="3.71431">
        <ele>770</ele>
        <time>2018-02-10T14:10:17Z</time>
      </trkpt>
      <trkpt lat="44.87132" lon="3.71485">
        <ele>773</ele>
        <time>2018-02-10T14:10:21Z</time>
      </trkpt>
      <trkpt lat="44.87115" lon="3.71524">
        <ele>774</ele>
        <time>2018-02-10T14:10:24Z</time>
      </trkpt>
      <trkpt lat="44.87096" lon="3.71577">
        <ele>771</ele>
        <time>2018-02-10T14:10:28Z</time>
      </trkpt>
      <trkpt lat="44.87059" lon="3.71659">
        <ele>774</ele>
        <time>2018-02-10T14:10:36Z</time>
      </trkpt>
      <trkpt lat="44.87004" lon="3.71679">
        <ele>772</ele>
        <time>2018-02-10T14:10:40Z</time>
      </trkpt>
      <trkpt lat="44.86981" lon="3.71707">
        <ele>772</ele>
        <time>2018-02-10T14:10:43Z</time>
      </trkpt>
      <trkpt lat="44.86946" lon="3.7174">
        <ele>767</ele>
        <time>2018-02-10T14:10:47Z</time>
      </trkpt>
      <trkpt lat="44.86919" lon="3.71763">
        <ele>765</ele>
        <time>2018-02-10T14:10:50Z</time>
      </trkpt>
      <trkpt lat="44.86889" lon="3.718">
        <ele>769</ele>
        <time>2018-02-10T14:10:54Z</time>
      </trkpt>
      <trkpt lat="44.86852" lon="3.71822">
        <ele>769</ele>
        <time>2018-02-10T14:10:58Z</time>
      </trkpt>
      <trkpt lat="44.86819" lon="3.71845">
        <ele>770</ele>
        <time>2018-02-10T14:11:02Z</time>
      </trkpt>
      <trkpt lat="44.8681" lon="3.71844">
        <ele>772</ele>
        <time>2018-02-10T14:11:03Z</time>
      </trkpt>
      <trkpt lat="44.86761" lon="3.71884">
        <ele>774</ele>
        <time>2018-02-10T14:11:09Z</time>
      </trkpt>
      <trkpt lat="44.86748" lon="3.71902">
        <ele>773</ele>
        <time>2018-02-10T14:11:11Z</time>
      </trkpt>
      <trkpt lat="44.86704" lon="3.71916">
        <ele>775</ele>
        <time>2018-02-10T14:11:15Z</time>
      </trkpt>
      <trkpt lat="44.86643" lon="3.71924">
        <ele>775</ele>
        <time>2018-02-10T14:11:21Z</time>
      </trkpt>
      <trkpt lat="44.8661" lon="3.71926">
        <ele>777</ele>
        <time>2018-02-10T14:11:24Z</time>
      </trkpt>
      <trkpt lat="44.86576" lon="3.7193">
        <ele>774</ele>
        <time>2018-02-10T14:11:28Z</time>
      </trkpt>
      <trkpt lat="44.86533" lon="3.71921">
        <ele>774</ele>
        <time>2018-02-10T14:11:32Z</time>
      </trkpt>
      <trkpt lat="44.86506" lon="3.71917">
        <ele>771</ele>
        <time>2018-02-10T14:11:35Z</time>
      </trkpt>
      <trkpt lat="44.8646" lon="3.71903">
        <ele>773</ele>
        <time>2018-02-10T14:11:39Z</time>
      </trkpt>
      <trkpt lat="44.86418" lon="3.71897">
        <ele>774</ele>
        <time>2018-02-10T14:11:43Z</time>
      </trkpt>
      <trkpt lat="44.86381" lon="3.71905">
        <ele>774</ele>
        <time>2018-02-10T14:11:47Z</time>
      </trkpt>
      <trkpt lat="44.86348" lon="3.71919">
        <ele>772</ele>
        <time>2018-02-10T14:11:51Z</time>
      </trkpt>
      <trkpt lat="44.86283" lon="3.72195">
        <ele>775</ele>
        <time>2018-02-10T14:12:15Z</time>
      </trkpt>
      <trkpt lat="44.86248" lon="3.72228">
        <ele>779</ele>
        <time>2018-02-10T14:12:19Z</time>
      </trkpt>
      <trkpt lat="44.86223" lon="3.72254">
        <ele>778</ele>
        <time>2018-02-10T14:12:22Z</time>
      </trkpt>
      <trkpt lat="44.86182" lon="3.72272">
        <ele>774</ele>
        <time>2018-02-10T14:12:25Z</time>
      </trkpt>
      <trkpt lat="44.86163" lon="3.72308">
        <ele>773</ele>
        <time>2018-02-10T14:12:28Z</time>
      </trkpt>
      <trkpt lat="44.86142" lon="3.72371">
        <ele>776</ele>
        <time>2018-02-10T14:12:33Z</time>
      </trkpt>
      <trkpt lat="44.86129" lon="3.72408">
        <ele>776</ele>
        <time>2018-02-10T14:12:36Z</time>
      </trkpt>
      <trkpt lat="44.86114" lon="3.72459">
        <ele>774</ele>
        <time>2018-02-10T14:12:40Z</time>
      </trkpt>
      <trkpt lat="44.86098" lon="3.7251">
        <ele>774</ele>
        <time>2018-02-10T14:12:44Z</time>
      </trkpt>
      <trkpt lat="44.86072" lon="3.72625">
        <ele>775</ele>
        <time>2018-02-10T14:12:53Z</time>
      </trkpt>
      <trkpt lat="44.86086" lon="3.72681">
        <ele>777</ele>
        <time>2018-02-10T14:12:57Z</time>
      </trkpt>
      <trkpt lat="44.86089" lon="3.72741">
        <ele>784</ele>
        <time>2018-02-10T14:13:01Z</time>
      </trkpt>
      <trkpt lat="44.8609" lon="3.72784">
        <ele>786</ele>
        <time>2018-02-10T14:13:04Z</time>
      </trkpt>
      <trkpt lat="44.86088" lon="3.72827">
        <ele>788</ele>
        <time>2018-02-10T14:13:07Z</time>
      </trkpt>
      <trkpt lat="44.86075" lon="3.72884">
        <ele>784</ele>
        <time>2018-02-10T14:13:11Z</time>
      </trkpt>
      <trkpt lat="44.8607" lon="3.72923">
        <ele>782</ele>
        <time>2018-02-10T14:13:14Z</time>
      </trkpt>
      <trkpt lat="44.86058" lon="3.72977">
        <ele>784</ele>
        <time>2018-02-10T14:13:18Z</time>
      </trkpt>
      <trkpt lat="44.86044" lon="3.73014">
        <ele>785</ele>
        <time>2018-02-10T14:13:21Z</time>
      </trkpt>
      <trkpt lat="44.86028" lon="3.7305">
        <ele>784</ele>
        <time>2018-02-10T14:13:24Z</time>
      </trkpt>
      <trkpt lat="44.86011" lon="3.73086">
        <ele>784</ele>
        <time>2018-02-10T14:13:27Z</time>
      </trkpt>
      <trkpt lat="44.85988" lon="3.7313">
        <ele>783</ele>
        <time>2018-02-10T14:13:31Z</time>
      </trkpt>
      <trkpt lat="44.85967" lon="3.73179">
        <ele>781</ele>
        <time>2018-02-10T14:13:35Z</time>
      </trkpt>
      <trkpt lat="44.85955" lon="3.73229">
        <ele>782</ele>
        <time>2018-02-10T14:13:39Z</time>
      </trkpt>
      <trkpt lat="44.85933" lon="3.73279">
        <ele>783</ele>
        <time>2018-02-10T14:13:43Z</time>
      </trkpt>
      <trkpt lat="44.85927" lon="3.73333">
        <ele>784</ele>
        <time>2018-02-10T14:13:47Z</time>
      </trkpt>
      <trkpt lat="44.85932" lon="3.734">
        <ele>784</ele>
        <time>2018-02-10T14:13:52Z</time>
      </trkpt>
      <trkpt lat="44.85927" lon="3.73453">
        <ele>781</ele>
        <time>2018-02-10T14:13:56Z</time>
      </trkpt>
      <trkpt lat="44.85921" lon="3.73496">
        <ele>783</ele>
        <time>2018-02-10T14:13:59Z</time>
      </trkpt>
      <trkpt lat="44.85933" lon="3.73555">
        <ele>786</ele>
        <time>2018-02-10T14:14:03Z</time>
      </trkpt>
      <trkpt lat="44.8593" lon="3.73597">
        <ele>788</ele>
        <time>2018-02-10T14:14:06Z</time>
      </trkpt>
      <trkpt lat="44.85907" lon="3.73644">
        <ele>784</ele>
        <time>2018-02-10T14:14:10Z</time>
      </trkpt>
      <trkpt lat="44.85882" lon="3.73683">
        <ele>785</ele>
        <time>2018-02-10T14:14:14Z</time>
      </trkpt>
      <trkpt lat="44.85858" lon="3.7373">
        <ele>785</ele>
        <time>2018-02-10T14:14:18Z</time>
      </trkpt>
      <trkpt lat="44.8584" lon="3.73759">
        <ele>785</ele>
        <time>2018-02-10T14:14:21Z</time>
      </trkpt>
      <trkpt lat="44.85796" lon="3.73787">
        <ele>784</ele>
        <time>2018-02-10T14:14:25Z</time>
      </trkpt>
      <trkpt lat="44.85787" lon="3.73803">
        <ele>784</ele>
        <time>2018-02-10T14:14:28Z</time>
      </trkpt>
      <trkpt lat="44.85761" lon="3.73817">
        <ele>783</ele>
        <time>2018-02-10T14:14:31Z</time>
      </trkpt>
      <trkpt lat="44.85729" lon="3.73834">
        <ele>783</ele>
        <time>2018-02-10T14:14:35Z</time>
      </trkpt>
      <trkpt lat="44.857" lon="3.73827">
        <ele>783</ele>
        <time>2018-02-10T14:14:38Z</time>
      </trkpt>
      <trkpt lat="44.85663" lon="3.73815">
        <ele>783</ele>
        <time>2018-02-10T14:14:41Z</time>
      </trkpt>
      <trkpt lat="44.85381" lon="3.73684">
        <ele>782</ele>
        <time>2018-02-10T14:15:08Z</time>
      </trkpt>
      <trkpt lat="44.85375" lon="3.7365">
        <ele>782</ele>
        <time>2018-02-10T14:15:11Z</time>
      </trkpt>
      <trkpt lat="44.85325" lon="3.7365">
        <ele>782</ele>
        <time>2018-02-10T14:15:15Z</time>
      </trkpt>
      <trkpt lat="44.853" lon="3.7364">
        <ele>782</ele>
        <time>2018-02-10T14:15:18Z</time>
      </trkpt>
      <trkpt lat="44.85268" lon="3.73644">
        <ele>782</ele>
        <time>2018-02-10T14:15:22Z</time>
      </trkpt>
      <trkpt lat="44.85255" lon="3.73645">
        <ele>782</ele>
        <time>2018-02-10T14:15:25Z</time>
      </trkpt>
      <trkpt lat="44.85204" lon="3.73685">
        <ele>784</ele>
        <time>2018-02-10T14:15:29Z</time>
      </trkpt>
      <trkpt lat="44.8517" lon="3.73707">
        <ele>782</ele>
        <time>2018-02-10T14:15:33Z</time>
      </trkpt>
      <trkpt lat="44.85134" lon="3.73758">
        <ele>785</ele>
        <time>2018-02-10T14:15:37Z</time>
      </trkpt>
      <trkpt lat="44.85111" lon="3.73781">
        <ele>785</ele>
        <time>2018-02-10T14:15:40Z</time>
      </trkpt>
      <trkpt lat="44.85071" lon="3.73796">
        <ele>783</ele>
        <time>2018-02-10T14:15:44Z</time>
      </trkpt>
      <trkpt lat="44.85033" lon="3.73826">
        <ele>781</ele>
        <time>2018-02-10T14:15:48Z</time>
      </trkpt>
      <trkpt lat="44.85" lon="3.73849">
        <ele>782</ele>
        <time>2018-02-10T14:15:51Z</time>
      </trkpt>
      <trkpt lat="44.84966" lon="3.73876">
        <ele>784</ele>
        <time>2018-02-10T14:15:55Z</time>
      </trkpt>
      <trkpt lat="44.84935" lon="3.73898">
        <ele>786</ele>
        <time>2018-02-10T14:15:59Z</time>
      </trkpt>
      <trkpt lat="44.849" lon="3.73905">
        <ele>784</ele>
        <time>2018-02-10T14:16:02Z</time>
      </trkpt>
      <trkpt lat="44.84857" lon="3.73906">
        <ele>786</ele>
        <time>2018-02-10T14:16:06Z</time>
      </trkpt>
      <trkpt lat="44.84825" lon="3.73908">
        <ele>786</ele>
        <time>2018-02-10T14:16:10Z</time>
      </trkpt>
      <trkpt lat="44.84597" lon="3.73889">
        <ele>790</ele>
        <time>2018-02-10T14:16:32Z</time>
      </trkpt>
      <trkpt lat="44.8457" lon="3.73882">
        <ele>791</ele>
        <time>2018-02-10T14:16:35Z</time>
      </trkpt>
      <trkpt lat="44.84545" lon="3.73885">
        <ele>790</ele>
        <time>2018-02-10T14:16:38Z</time>
      </trkpt>
      <trkpt lat="44.84515" lon="3.73883">
        <ele>793</ele>
        <time>2018-02-10T14:16:41Z</time>
      </trkpt>
      <trkpt lat="44.84486" lon="3.73878">
        <ele>791</ele>
        <time>2018-02-10T14:16:44Z</time>
      </trkpt>
      <trkpt lat="44.84171" lon="3.73558">
        <ele>809</ele>
        <time>2018-02-10T14:17:24Z</time>
      </trkpt>
      <trkpt lat="44.84143" lon="3.73523">
        <ele>803</ele>
        <time>2018-02-10T14:17:28Z</time>
      </trkpt>
      <trkpt lat="44.84108" lon="3.73498">
        <ele>800</ele>
        <time>2018-02-10T14:17:32Z</time>
      </trkpt>
      <trkpt lat="44.84076" lon="3.73477">
        <ele>794</ele>
        <time>2018-02-10T14:17:36Z</time>
      </trkpt>
      <trkpt lat="44.84049" lon="3.73469">
        <ele>794</ele>
        <time>2018-02-10T14:17:39Z</time>
      </trkpt>
      <trkpt lat="44.84004" lon="3.73467">
        <ele>794</ele>
        <time>2018-02-10T14:17:43Z</time>
      </trkpt>
      <trkpt lat="44.83969" lon="3.73479">
        <ele>794</ele>
        <time>2018-02-10T14:17:46Z</time>
      </trkpt>
      <trkpt lat="44.8393" lon="3.73496">
        <ele>795</ele>
        <time>2018-02-10T14:17:50Z</time>
      </trkpt>
      <trkpt lat="44.83897" lon="3.73519">
        <ele>795</ele>
        <time>2018-02-10T14:17:54Z</time>
      </trkpt>
      <trkpt lat="44.83871" lon="3.73542">
        <ele>795</ele>
        <time>2018-02-10T14:17:57Z</time>
      </trkpt>
      <trkpt lat="44.83844" lon="3.73583">
        <ele>797</ele>
        <time>2018-02-10T14:18:01Z</time>
      </trkpt>
      <trkpt lat="44.83819" lon="3.73627">
        <ele>797</ele>
        <time>2018-02-10T14:18:05Z</time>
      </trkpt>
      <trkpt lat="44.83804" lon="3.73664">
        <ele>797</ele>
        <time>2018-02-10T14:18:08Z</time>
      </trkpt>
      <trkpt lat="44.83794" lon="3.73703">
        <ele>798</ele>
        <time>2018-02-10T14:18:11Z</time>
      </trkpt>
      <trkpt lat="44.83785" lon="3.73755">
        <ele>799</ele>
        <time>2018-02-10T14:18:15Z</time>
      </trkpt>
      <trkpt lat="44.83783" lon="3.73793">
        <ele>798</ele>
        <time>2018-02-10T14:18:18Z</time>
      </trkpt>
      <trkpt lat="44.83784" lon="3.73831">
        <ele>799</ele>
        <time>2018-02-10T14:18:21Z</time>
      </trkpt>
      <trkpt lat="44.83786" lon="3.73884">
        <ele>801</ele>
        <time>2018-02-10T14:18:25Z</time>
      </trkpt>
      <trkpt lat="44.83791" lon="3.73936">
        <ele>802</ele>
        <time>2018-02-10T14:18:29Z</time>
      </trkpt>
      <trkpt lat="44.83795" lon="3.73987">
        <ele>801</ele>
        <time>2018-02-10T14:18:33Z</time>
      </trkpt>
      <trkpt lat="44.838" lon="3.74041">
        <ele>804</ele>
        <time>2018-02-10T14:18:37Z</time>
      </trkpt>
      <trkpt lat="44.83803" lon="3.74085">
        <ele>805</ele>
        <time>2018-02-10T14:18:40Z</time>
      </trkpt>
      <trkpt lat="44.83806" lon="3.74129">
        <ele>809</ele>
        <time>2018-02-10T14:18:43Z</time>
      </trkpt>
      <trkpt lat="44.83804" lon="3.74173">
        <ele>810</ele>
        <time>2018-02-10T14:18:46Z</time>
      </trkpt>
      <trkpt lat="44.83793" lon="3.74226">
        <ele>807</ele>
        <time>2018-02-10T14:18:50Z</time>
      </trkpt>
      <trkpt lat="44.83784" lon="3.74265">
        <ele>807</ele>
        <time>2018-02-10T14:18:53Z</time>
      </trkpt>
      <trkpt lat="44.83763" lon="3.74314">
        <ele>805</ele>
        <time>2018-02-10T14:18:57Z</time>
      </trkpt>
      <trkpt lat="44.83738" lon="3.7436">
        <ele>803</ele>
        <time>2018-02-10T14:19:01Z</time>
      </trkpt>
      <trkpt lat="44.83702" lon="3.74404">
        <ele>801</ele>
        <time>2018-02-10T14:19:05Z</time>
      </trkpt>
      <trkpt lat="44.83661" lon="3.74443">
        <ele>803</ele>
        <time>2018-02-10T14:19:09Z</time>
      </trkpt>
      <trkpt lat="44.83626" lon="3.74467">
        <ele>806</ele>
        <time>2018-02-10T14:19:12Z</time>
      </trkpt>
      <trkpt lat="44.83571" lon="3.74489">
        <ele>806</ele>
        <time>2018-02-10T14:19:16Z</time>
      </trkpt>
      <trkpt lat="44.83526" lon="3.74504">
        <ele>806</ele>
        <time>2018-02-10T14:19:19Z</time>
      </trkpt>
      <trkpt lat="44.83464" lon="3.74515">
        <ele>807</ele>
        <time>2018-02-10T14:19:23Z</time>
      </trkpt>
      <trkpt lat="44.83412" lon="3.74516">
        <ele>805</ele>
        <time>2018-02-10T14:19:26Z</time>
      </trkpt>
      <trkpt lat="44.83348" lon="3.74515">
        <ele>807</ele>
        <time>2018-02-10T14:19:30Z</time>
      </trkpt>
      <trkpt lat="44.83276" lon="3.74523">
        <ele>809</ele>
        <time>2018-02-10T14:19:34Z</time>
      </trkpt>
      <trkpt lat="44.8322" lon="3.74549">
        <ele>810</ele>
        <time>2018-02-10T14:19:38Z</time>
      </trkpt>
      <trkpt lat="44.82983" lon="3.74605">
        <ele>808</ele>
        <time>2018-02-10T14:19:52Z</time>
      </trkpt>
      <trkpt lat="44.82931" lon="3.74659">
        <ele>808</ele>
        <time>2018-02-10T14:19:56Z</time>
      </trkpt>
      <trkpt lat="44.82895" lon="3.74716">
        <ele>807</ele>
        <time>2018-02-10T14:19:59Z</time>
      </trkpt>
      <trkpt lat="44.82857" lon="3.74795">
        <ele>805</ele>
        <time>2018-02-10T14:20:03Z</time>
      </trkpt>
      <trkpt lat="44.82822" lon="3.74883">
        <ele>807</ele>
        <time>2018-02-10T14:20:07Z</time>
      </trkpt>
      <trkpt lat="44.82388" lon="3.74926">
        <ele>808</ele>
        <time>2018-02-10T14:20:34Z</time>
      </trkpt>
      <trkpt lat="44.82323" lon="3.74945">
        <ele>809</ele>
        <time>2018-02-10T14:20:38Z</time>
      </trkpt>
      <trkpt lat="44.82274" lon="3.74969">
        <ele>814</ele>
        <time>2018-02-10T14:20:41Z</time>
      </trkpt>
      <trkpt lat="44.82218" lon="3.75026">
        <ele>815</ele>
        <time>2018-02-10T14:20:45Z</time>
      </trkpt>
      <trkpt lat="44.82164" lon="3.75088">
        <ele>821</ele>
        <time>2018-02-10T14:20:49Z</time>
      </trkpt>
      <trkpt lat="44.82108" lon="3.75144">
        <ele>820</ele>
        <time>2018-02-10T14:20:53Z</time>
      </trkpt>
      <trkpt lat="44.82074" lon="3.75195">
        <ele>821</ele>
        <time>2018-02-10T14:20:56Z</time>
      </trkpt>
      <trkpt lat="44.8204" lon="3.7528">
        <ele>824</ele>
        <time>2018-02-10T14:21:00Z</time>
      </trkpt>
      <trkpt lat="44.8202" lon="3.75345">
        <ele>827</ele>
        <time>2018-02-10T14:21:03Z</time>
      </trkpt>
      <trkpt lat="44.81993" lon="3.75394">
        <ele>830</ele>
        <time>2018-02-10T14:21:06Z</time>
      </trkpt>
      <trkpt lat="44.81944" lon="3.75444">
        <ele>829</ele>
        <time>2018-02-10T14:21:10Z</time>
      </trkpt>
      <trkpt lat="44.81893" lon="3.75475">
        <ele>831</ele>
        <time>2018-02-10T14:21:14Z</time>
      </trkpt>
      <trkpt lat="44.81838" lon="3.7549">
        <ele>833</ele>
        <time>2018-02-10T14:21:18Z</time>
      </trkpt>
      <trkpt lat="44.81782" lon="3.75497">
        <ele>831</ele>
        <time>2018-02-10T14:21:22Z</time>
      </trkpt>
      <trkpt lat="44.81725" lon="3.75517">
        <ele>830</ele>
        <time>2018-02-10T14:21:26Z</time>
      </trkpt>
      <trkpt lat="44.81676" lon="3.75553">
        <ele>831</ele>
        <time>2018-02-10T14:21:30Z</time>
      </trkpt>
      <trkpt lat="44.81645" lon="3.75595">
        <ele>830</ele>
        <time>2018-02-10T14:21:33Z</time>
      </trkpt>
      <trkpt lat="44.81612" lon="3.75656">
        <ele>829</ele>
        <time>2018-02-10T14:21:37Z</time>
      </trkpt>
      <trkpt lat="44.81585" lon="3.75718">
        <ele>830</ele>
        <time>2018-02-10T14:21:41Z</time>
      </trkpt>
      <trkpt lat="44.81573" lon="3.75791">
        <ele>830</ele>
        <time>2018-02-10T14:21:45Z</time>
      </trkpt>
      <trkpt lat="44.81563" lon="3.75861">
        <ele>829</ele>
        <time>2018-02-10T14:21:49Z</time>
      </trkpt>
      <trkpt lat="44.81555" lon="3.75912">
        <ele>829</ele>
        <time>2018-02-10T14:21:52Z</time>
      </trkpt>
      <trkpt lat="44.81537" lon="3.75956">
        <ele>829</ele>
        <time>2018-02-10T14:21:55Z</time>
      </trkpt>
      <trkpt lat="44.81451" lon="3.76001">
        <ele>832</ele>
        <time>2018-02-10T14:21:59Z</time>
      </trkpt>
      <trkpt lat="44.81417" lon="3.7603">
        <ele>833</ele>
        <time>2018-02-10T14:22:02Z</time>
      </trkpt>
      <trkpt lat="44.81364" lon="3.76059">
        <ele>833</ele>
        <time>2018-02-10T14:22:06Z</time>
      </trkpt>
      <trkpt lat="44.81317" lon="3.76064">
        <ele>832</ele>
        <time>2018-02-10T14:22:09Z</time>
      </trkpt>
      <trkpt lat="44.81265" lon="3.76064">
        <ele>835</ele>
        <time>2018-02-10T14:22:13Z</time>
      </trkpt>
      <trkpt lat="44.81204" lon="3.76064">
        <ele>839</ele>
        <time>2018-02-10T14:22:17Z</time>
      </trkpt>
      <trkpt lat="44.8116" lon="3.7607">
        <ele>840</ele>
        <time>2018-02-10T14:22:21Z</time>
      </trkpt>
      <trkpt lat="44.81115" lon="3.76073">
        <ele>840</ele>
        <time>2018-02-10T14:22:24Z</time>
      </trkpt>
      <trkpt lat="44.81059" lon="3.76092">
        <ele>840</ele>
        <time>2018-02-10T14:22:28Z</time>
      </trkpt>
      <trkpt lat="44.8101" lon="3.76113">
        <ele>840</ele>
        <time>2018-02-10T14:22:32Z</time>
      </trkpt>
      <trkpt lat="44.80946" lon="3.76133">
        <ele>840</ele>
        <time>2018-02-10T14:22:36Z</time>
      </trkpt>
      <trkpt lat="44.80904" lon="3.76179">
        <ele>840</ele>
        <time>2018-02-10T14:22:40Z</time>
      </trkpt>
      <trkpt lat="44.80865" lon="3.76217">
        <ele>840</ele>
        <time>2018-02-10T14:22:43Z</time>
      </trkpt>
      <trkpt lat="44.80813" lon="3.76262">
        <ele>840</ele>
        <time>2018-02-10T14:22:47Z</time>
      </trkpt>
      <trkpt lat="44.80764" lon="3.76311">
        <ele>837</ele>
        <time>2018-02-10T14:22:51Z</time>
      </trkpt>
      <trkpt lat="44.80402" lon="3.7704">
        <ele>844</ele>
        <time>2018-02-10T14:23:34Z</time>
      </trkpt>
      <trkpt lat="44.80383" lon="3.77092">
        <ele>847</ele>
        <time>2018-02-10T14:23:37Z</time>
      </trkpt>
      <trkpt lat="44.80367" lon="3.77149">
        <ele>849</ele>
        <time>2018-02-10T14:23:40Z</time>
      </trkpt>
      <trkpt lat="44.80338" lon="3.77222">
        <ele>851</ele>
        <time>2018-02-10T14:23:44Z</time>
      </trkpt>
      <trkpt lat="44.80003" lon="3.77524">
        <ele>849</ele>
        <time>2018-02-10T14:24:06Z</time>
      </trkpt>
      <trkpt lat="44.79961" lon="3.77563">
        <ele>849</ele>
        <time>2018-02-10T14:24:09Z</time>
      </trkpt>
      <trkpt lat="44.79908" lon="3.77613">
        <ele>849</ele>
        <time>2018-02-10T14:24:13Z</time>
      </trkpt>
      <trkpt lat="44.79899" lon="3.77793">
        <ele>851</ele>
        <time>2018-02-10T14:24:20Z</time>
      </trkpt>
      <trkpt lat="44.79881" lon="3.77875">
        <ele>855</ele>
        <time>2018-02-10T14:24:24Z</time>
      </trkpt>
      <trkpt lat="44.79834" lon="3.77946">
        <ele>855</ele>
        <time>2018-02-10T14:24:28Z</time>
      </trkpt>
      <trkpt lat="44.79773" lon="3.77992">
        <ele>859</ele>
        <time>2018-02-10T14:24:32Z</time>
      </trkpt>
      <trkpt lat="44.79609" lon="3.78261">
        <ele>858</ele>
        <time>2018-02-10T14:24:48Z</time>
      </trkpt>
      <trkpt lat="44.7958" lon="3.78346">
        <ele>872</ele>
        <time>2018-02-10T14:24:52Z</time>
      </trkpt>
      <trkpt lat="44.79553" lon="3.78431">
        <ele>874</ele>
        <time>2018-02-10T14:24:56Z</time>
      </trkpt>
      <trkpt lat="44.79521" lon="3.7849">
        <ele>872</ele>
        <time>2018-02-10T14:24:59Z</time>
      </trkpt>
      <trkpt lat="44.79489" lon="3.7855">
        <ele>872</ele>
        <time>2018-02-10T14:25:02Z</time>
      </trkpt>
      <trkpt lat="44.79455" lon="3.78625">
        <ele>872</ele>
        <time>2018-02-10T14:25:06Z</time>
      </trkpt>
      <trkpt lat="44.7943" lon="3.78685">
        <ele>873</ele>
        <time>2018-02-10T14:25:09Z</time>
      </trkpt>
      <trkpt lat="44.79388" lon="3.78766">
        <ele>874</ele>
        <time>2018-02-10T14:25:13Z</time>
      </trkpt>
      <trkpt lat="44.79346" lon="3.7881">
        <ele>877</ele>
        <time>2018-02-10T14:25:16Z</time>
      </trkpt>
      <trkpt lat="44.79305" lon="3.7885">
        <ele>877</ele>
        <time>2018-02-10T14:25:19Z</time>
      </trkpt>
      <trkpt lat="44.79246" lon="3.78898">
        <ele>880</ele>
        <time>2018-02-10T14:25:23Z</time>
      </trkpt>
      <trkpt lat="44.79197" lon="3.78963">
        <ele>880</ele>
        <time>2018-02-10T14:25:27Z</time>
      </trkpt>
      <trkpt lat="44.79155" lon="3.79033">
        <ele>878</ele>
        <time>2018-02-10T14:25:31Z</time>
      </trkpt>
      <trkpt lat="44.79103" lon="3.79097">
        <ele>881</ele>
        <time>2018-02-10T14:25:35Z</time>
      </trkpt>
      <trkpt lat="44.79049" lon="3.79154">
        <ele>883</ele>
        <time>2018-02-10T14:25:39Z</time>
      </trkpt>
      <trkpt lat="44.78995" lon="3.79216">
        <ele>882</ele>
        <time>2018-02-10T14:25:43Z</time>
      </trkpt>
      <trkpt lat="44.78953" lon="3.79292">
        <ele>879</ele>
        <time>2018-02-10T14:25:47Z</time>
      </trkpt>
      <trkpt lat="44.78916" lon="3.79351">
        <ele>877</ele>
        <time>2018-02-10T14:25:50Z</time>
      </trkpt>
      <trkpt lat="44.78869" lon="3.7942">
        <ele>880</ele>
        <time>2018-02-10T14:25:54Z</time>
      </trkpt>
      <trkpt lat="44.78835" lon="3.79473">
        <ele>880</ele>
        <time>2018-02-10T14:25:57Z</time>
      </trkpt>
      <trkpt lat="44.78792" lon="3.79546">
        <ele>880</ele>
        <time>2018-02-10T14:26:01Z</time>
      </trkpt>
      <trkpt lat="44.78754" lon="3.7963">
        <ele>881</ele>
        <time>2018-02-10T14:26:05Z</time>
      </trkpt>
      <trkpt lat="44.7872" lon="3.79686">
        <ele>881</ele>
        <time>2018-02-10T14:26:08Z</time>
      </trkpt>
      <trkpt lat="44.78691" lon="3.79744">
        <ele>882</ele>
        <time>2018-02-10T14:26:11Z</time>
      </trkpt>
      <trkpt lat="44.78659" lon="3.79805">
        <ele>882</ele>
        <time>2018-02-10T14:26:14Z</time>
      </trkpt>
      <trkpt lat="44.78624" lon="3.79885">
        <ele>882</ele>
        <time>2018-02-10T14:26:18Z</time>
      </trkpt>
      <trkpt lat="44.78599" lon="3.79938">
        <ele>883</ele>
        <time>2018-02-10T14:26:21Z</time>
      </trkpt>
      <trkpt lat="44.78547" lon="3.80012">
        <ele>884</ele>
        <time>2018-02-10T14:26:25Z</time>
      </trkpt>
      <trkpt lat="44.78494" lon="3.80075">
        <ele>882</ele>
        <time>2018-02-10T14:26:29Z</time>
      </trkpt>
      <trkpt lat="44.78458" lon="3.80117">
        <ele>888</ele>
        <time>2018-02-10T14:26:32Z</time>
      </trkpt>
      <trkpt lat="44.78395" lon="3.80166">
        <ele>893</ele>
        <time>2018-02-10T14:26:36Z</time>
      </trkpt>
      <trkpt lat="44.78354" lon="3.80207">
        <ele>893</ele>
        <time>2018-02-10T14:26:39Z</time>
      </trkpt>
      <trkpt lat="44.78316" lon="3.80246">
        <ele>891</ele>
        <time>2018-02-10T14:26:42Z</time>
      </trkpt>
      <trkpt lat="44.78275" lon="3.80298">
        <ele>892</ele>
        <time>2018-02-10T14:26:45Z</time>
      </trkpt>
      <trkpt lat="44.78205" lon="3.80333">
        <ele>891</ele>
        <time>2018-02-10T14:26:49Z</time>
      </trkpt>
      <trkpt lat="44.78158" lon="3.80349">
        <ele>890</ele>
        <time>2018-02-10T14:26:52Z</time>
      </trkpt>
      <trkpt lat="44.7809" lon="3.80338">
        <ele>894</ele>
        <time>2018-02-10T14:26:56Z</time>
      </trkpt>
      <trkpt lat="44.78024" lon="3.80319">
        <ele>894</ele>
        <time>2018-02-10T14:27:00Z</time>
      </trkpt>
      <trkpt lat="44.77882" lon="3.80318">
        <ele>894</ele>
        <time>2018-02-10T14:27:09Z</time>
      </trkpt>
      <trkpt lat="44.77811" lon="3.80353">
        <ele>895</ele>
        <time>2018-02-10T14:27:13Z</time>
      </trkpt>
      <trkpt lat="44.77751" lon="3.80393">
        <ele>895</ele>
        <time>2018-02-10T14:27:17Z</time>
      </trkpt>
      <trkpt lat="44.77667" lon="3.80437">
        <ele>894</ele>
        <time>2018-02-10T14:27:22Z</time>
      </trkpt>
      <trkpt lat="44.776" lon="3.80458">
        <ele>897</ele>
        <time>2018-02-10T14:27:26Z</time>
      </trkpt>
      <trkpt lat="44.77532" lon="3.80481">
        <ele>897</ele>
        <time>2018-02-10T14:27:30Z</time>
      </trkpt>
      <trkpt lat="44.77491" lon="3.80491">
        <ele>897</ele>
        <time>2018-02-10T14:27:33Z</time>
      </trkpt>
      <trkpt lat="44.77442" lon="3.80513">
        <ele>898</ele>
        <time>2018-02-10T14:27:36Z</time>
      </trkpt>
      <trkpt lat="44.77383" lon="3.80542">
        <ele>898</ele>
        <time>2018-02-10T14:27:40Z</time>
      </trkpt>
      <trkpt lat="44.77299" lon="3.80554">
        <ele>900</ele>
        <time>2018-02-10T14:27:44Z</time>
      </trkpt>
      <trkpt lat="44.77234" lon="3.80519">
        <ele>902</ele>
        <time>2018-02-10T14:27:48Z</time>
      </trkpt>
      <trkpt lat="44.77181" lon="3.80497">
        <ele>905</ele>
        <time>2018-02-10T14:27:51Z</time>
      </trkpt>
      <trkpt lat="44.76973" lon="3.80494">
        <ele>903</ele>
        <time>2018-02-10T14:28:04Z</time>
      </trkpt>
      <trkpt lat="44.7692" lon="3.80559">
        <ele>904</ele>
        <time>2018-02-10T14:28:08Z</time>
      </trkpt>
      <trkpt lat="44.76886" lon="3.80606">
        <ele>902</ele>
        <time>2018-02-10T14:28:11Z</time>
      </trkpt>
      <trkpt lat="44.76846" lon="3.80683">
        <ele>902</ele>
        <time>2018-02-10T14:28:15Z</time>
      </trkpt>
      <trkpt lat="44.76808" lon="3.80761">
        <ele>902</ele>
        <time>2018-02-10T14:28:19Z</time>
      </trkpt>
      <trkpt lat="44.76763" lon="3.80834">
        <ele>905</ele>
        <time>2018-02-10T14:28:23Z</time>
      </trkpt>
      <trkpt lat="44.76735" lon="3.8089">
        <ele>910</ele>
        <time>2018-02-10T14:28:26Z</time>
      </trkpt>
      <trkpt lat="44.76726" lon="3.81248">
        <ele>912</ele>
        <time>2018-02-10T14:28:41Z</time>
      </trkpt>
      <trkpt lat="44.76746" lon="3.81335">
        <ele>911</ele>
        <time>2018-02-10T14:28:45Z</time>
      </trkpt>
      <trkpt lat="44.76761" lon="3.81406">
        <ele>910</ele>
        <time>2018-02-10T14:28:48Z</time>
      </trkpt>
      <trkpt lat="44.7678" lon="3.81501">
        <ele>910</ele>
        <time>2018-02-10T14:28:52Z</time>
      </trkpt>
      <trkpt lat="44.76824" lon="3.81615">
        <ele>911</ele>
        <time>2018-02-10T14:28:58Z</time>
      </trkpt>
      <trkpt lat="44.7684" lon="3.81695">
        <ele>912</ele>
        <time>2018-02-10T14:29:01Z</time>
      </trkpt>
      <trkpt lat="44.76899" lon="3.81775">
        <ele>914</ele>
        <time>2018-02-10T14:29:05Z</time>
      </trkpt>
      <trkpt lat="44.76963" lon="3.81836">
        <ele>916</ele>
        <time>2018-02-10T14:29:09Z</time>
      </trkpt>
      <trkpt lat="44.77044" lon="3.81859">
        <ele>919</ele>
        <time>2018-02-10T14:29:13Z</time>
      </trkpt>
      <trkpt lat="44.77119" lon="3.81877">
        <ele>917</ele>
        <time>2018-02-10T14:29:17Z</time>
      </trkpt>
      <trkpt lat="44.77191" lon="3.81927">
        <ele>919</ele>
        <time>2018-02-10T14:29:21Z</time>
      </trkpt>
      <trkpt lat="44.77241" lon="3.82003">
        <ele>920</ele>
        <time>2018-02-10T14:29:25Z</time>
      </trkpt>
      <trkpt lat="44.7727" lon="3.82078">
        <ele>919</ele>
        <time>2018-02-10T14:29:28Z</time>
      </trkpt>
      <trkpt lat="44.77292" lon="3.82191">
        <ele>923</ele>
        <time>2018-02-10T14:29:32Z</time>
      </trkpt>
      <trkpt lat="44.77322" lon="3.82267">
        <ele>923</ele>
        <time>2018-02-10T14:29:35Z</time>
      </trkpt>
      <trkpt lat="44.77347" lon="3.82342">
        <ele>919</ele>
        <time>2018-02-10T14:29:38Z</time>
      </trkpt>
      <trkpt lat="44.77365" lon="3.82416">
        <ele>917</ele>
        <time>2018-02-10T14:29:41Z</time>
      </trkpt>
      <trkpt lat="44.77385" lon="3.82528">
        <ele>918</ele>
        <time>2018-02-10T14:29:45Z</time>
      </trkpt>
      <trkpt lat="44.77368" lon="3.82608">
        <ele>917</ele>
        <time>2018-02-10T14:29:48Z</time>
      </trkpt>
      <trkpt lat="44.7739" lon="3.82699">
        <ele>919</ele>
        <time>2018-02-10T14:29:52Z</time>
      </trkpt>
      <trkpt lat="44.7741" lon="3.82795">
        <ele>919</ele>
        <time>2018-02-10T14:29:56Z</time>
      </trkpt>
      <trkpt lat="44.77425" lon="3.82891">
        <ele>922</ele>
        <time>2018-02-10T14:30:00Z</time>
      </trkpt>
      <trkpt lat="44.77455" lon="3.82967">
        <ele>924</ele>
        <time>2018-02-10T14:30:03Z</time>
      </trkpt>
      <trkpt lat="44.77364" lon="3.83407">
        <ele>926</ele>
        <time>2018-02-10T14:30:24Z</time>
      </trkpt>
      <trkpt lat="44.77314" lon="3.83484">
        <ele>924</ele>
        <time>2018-02-10T14:30:28Z</time>
      </trkpt>
      <trkpt lat="44.7729" lon="3.8355">
        <ele>930</ele>
        <time>2018-02-10T14:30:31Z</time>
      </trkpt>
      <trkpt lat="44.77283" lon="3.83652">
        <ele>935</ele>
        <time>2018-02-10T14:30:35Z</time>
      </trkpt>
      <trkpt lat="44.77291" lon="3.83733">
        <ele>942</ele>
        <time>2018-02-10T14:30:38Z</time>
      </trkpt>
      <trkpt lat="44.77285" lon="3.83827">
        <ele>941</ele>
        <time>2018-02-10T14:30:42Z</time>
      </trkpt>
      <trkpt lat="44.77281" lon="3.83904">
        <ele>947</ele>
        <time>2018-02-10T14:30:45Z</time>
      </trkpt>
      <trkpt lat="44.77261" lon="3.83976">
        <ele>951</ele>
        <time>2018-02-10T14:30:48Z</time>
      </trkpt>
      <trkpt lat="44.77221" lon="3.84073">
        <ele>949</ele>
        <time>2018-02-10T14:30:52Z</time>
      </trkpt>
      <trkpt lat="44.77176" lon="3.84132">
        <ele>948</ele>
        <time>2018-02-10T14:30:55Z</time>
      </trkpt>
      <trkpt lat="44.77113" lon="3.84195">
        <ele>948</ele>
        <time>2018-02-10T14:30:59Z</time>
      </trkpt>
      <trkpt lat="44.77037" lon="3.84234">
        <ele>948</ele>
        <time>2018-02-10T14:31:03Z</time>
      </trkpt>
      <trkpt lat="44.76961" lon="3.84246">
        <ele>948</ele>
        <time>2018-02-10T14:31:07Z</time>
      </trkpt>
      <trkpt lat="44.76901" lon="3.84242">
        <ele>947</ele>
        <time>2018-02-10T14:31:10Z</time>
      </trkpt>
      <trkpt lat="44.76826" lon="3.84233">
        <ele>945</ele>
        <time>2018-02-10T14:31:14Z</time>
      </trkpt>
      <trkpt lat="44.7677" lon="3.84211">
        <ele>944</ele>
        <time>2018-02-10T14:31:17Z</time>
      </trkpt>
      <trkpt lat="44.76707" lon="3.84151">
        <ele>942</ele>
        <time>2018-02-10T14:31:21Z</time>
      </trkpt>
      <trkpt lat="44.76665" lon="3.841">
        <ele>943</ele>
        <time>2018-02-10T14:31:24Z</time>
      </trkpt>
      <trkpt lat="44.7661" lon="3.84038">
        <ele>944</ele>
        <time>2018-02-10T14:31:28Z</time>
      </trkpt>
      <trkpt lat="44.76548" lon="3.83981">
        <ele>944</ele>
        <time>2018-02-10T14:31:32Z</time>
      </trkpt>
      <trkpt lat="44.76503" lon="3.83944">
        <ele>945</ele>
        <time>2018-02-10T14:31:35Z</time>
      </trkpt>
      <trkpt lat="44.76441" lon="3.83903">
        <ele>945</ele>
        <time>2018-02-10T14:31:39Z</time>
      </trkpt>
      <trkpt lat="44.76371" lon="3.83875">
        <ele>945</ele>
        <time>2018-02-10T14:31:43Z</time>
      </trkpt>
      <trkpt lat="44.76311" lon="3.83838">
        <ele>948</ele>
        <time>2018-02-10T14:31:47Z</time>
      </trkpt>
      <trkpt lat="44.76263" lon="3.83806">
        <ele>947</ele>
        <time>2018-02-10T14:31:50Z</time>
      </trkpt>
      <trkpt lat="44.76202" lon="3.83765">
        <ele>948</ele>
        <time>2018-02-10T14:31:54Z</time>
      </trkpt>
      <trkpt lat="44.76141" lon="3.83722">
        <ele>948</ele>
        <time>2018-02-10T14:31:58Z</time>
      </trkpt>
      <trkpt lat="44.76079" lon="3.83678">
        <ele>947</ele>
        <time>2018-02-10T14:32:02Z</time>
      </trkpt>
      <trkpt lat="44.76038" lon="3.83635">
        <ele>946</ele>
        <time>2018-02-10T14:32:05Z</time>
      </trkpt>
      <trkpt lat="44.75966" lon="3.83524">
        <ele>946</ele>
        <time>2018-02-10T14:32:11Z</time>
      </trkpt>
      <trkpt lat="44.75947" lon="3.83437">
        <ele>946</ele>
        <time>2018-02-10T14:32:15Z</time>
      </trkpt>
      <trkpt lat="44.75908" lon="3.83388">
        <ele>947</ele>
        <time>2018-02-10T14:32:18Z</time>
      </trkpt>
      <trkpt lat="44.75841" lon="3.83334">
        <ele>947</ele>
        <time>2018-02-10T14:32:22Z</time>
      </trkpt>
      <trkpt lat="44.75775" lon="3.83276">
        <ele>945</ele>
        <time>2018-02-10T14:32:26Z</time>
      </trkpt>
      <trkpt lat="44.75739" lon="3.83207">
        <ele>947</ele>
        <time>2018-02-10T14:32:29Z</time>
      </trkpt>
      <trkpt lat="44.757" lon="3.83105">
        <ele>950</ele>
        <time>2018-02-10T14:32:33Z</time>
      </trkpt>
      <trkpt lat="44.75668" lon="3.83036">
        <ele>951</ele>
        <time>2018-02-10T14:32:36Z</time>
      </trkpt>
      <trkpt lat="44.75604" lon="3.82966">
        <ele>952</ele>
        <time>2018-02-10T14:32:40Z</time>
      </trkpt>
      <trkpt lat="44.7553" lon="3.82926">
        <ele>950</ele>
        <time>2018-02-10T14:32:44Z</time>
      </trkpt>
      <trkpt lat="44.75471" lon="3.82922">
        <ele>948</ele>
        <time>2018-02-10T14:32:47Z</time>
      </trkpt>
      <trkpt lat="44.75396" lon="3.82945">
        <ele>947</ele>
        <time>2018-02-10T14:32:51Z</time>
      </trkpt>
      <trkpt lat="44.7533" lon="3.83003">
        <ele>948</ele>
        <time>2018-02-10T14:32:55Z</time>
      </trkpt>
      <trkpt lat="44.75289" lon="3.83065">
        <ele>947</ele>
        <time>2018-02-10T14:32:58Z</time>
      </trkpt>
      <trkpt lat="44.75243" lon="3.8316">
        <ele>950</ele>
        <time>2018-02-10T14:33:02Z</time>
      </trkpt>
      <trkpt lat="44.75209" lon="3.83229">
        <ele>949</ele>
        <time>2018-02-10T14:33:05Z</time>
      </trkpt>
      <trkpt lat="44.75159" lon="3.83313">
        <ele>948</ele>
        <time>2018-02-10T14:33:09Z</time>
      </trkpt>
      <trkpt lat="44.75116" lon="3.83373">
        <ele>948</ele>
        <time>2018-02-10T14:33:12Z</time>
      </trkpt>
      <trkpt lat="44.75051" lon="3.83441">
        <ele>949</ele>
        <time>2018-02-10T14:33:16Z</time>
      </trkpt>
      <trkpt lat="44.74977" lon="3.83478">
        <ele>948</ele>
        <time>2018-02-10T14:33:20Z</time>
      </trkpt>
      <trkpt lat="44.74918" lon="3.83484">
        <ele>948</ele>
        <time>2018-02-10T14:33:23Z</time>
      </trkpt>
      <trkpt lat="44.74858" lon="3.83477">
        <ele>947</ele>
        <time>2018-02-10T14:33:26Z</time>
      </trkpt>
      <trkpt lat="44.74778" lon="3.83468">
        <ele>949</ele>
        <time>2018-02-10T14:33:30Z</time>
      </trkpt>
      <trkpt lat="44.74719" lon="3.83458">
        <ele>947</ele>
        <time>2018-02-10T14:33:33Z</time>
      </trkpt>
      <trkpt lat="44.74661" lon="3.83472">
        <ele>946</ele>
        <time>2018-02-10T14:33:36Z</time>
      </trkpt>
      <trkpt lat="44.74606" lon="3.83502">
        <ele>947</ele>
        <time>2018-02-10T14:33:39Z</time>
      </trkpt>
      <trkpt lat="44.74536" lon="3.83553">
        <ele>947</ele>
        <time>2018-02-10T14:33:43Z</time>
      </trkpt>
      <trkpt lat="44.74468" lon="3.83599">
        <ele>945</ele>
        <time>2018-02-10T14:33:47Z</time>
      </trkpt>
      <trkpt lat="44.74398" lon="3.83645">
        <ele>946</ele>
        <time>2018-02-10T14:33:51Z</time>
      </trkpt>
      <trkpt lat="44.74348" lon="3.83681">
        <ele>945</ele>
        <time>2018-02-10T14:33:54Z</time>
      </trkpt>
      <trkpt lat="44.74278" lon="3.83728">
        <ele>947</ele>
        <time>2018-02-10T14:33:58Z</time>
      </trkpt>
      <trkpt lat="44.74212" lon="3.83772">
        <ele>946</ele>
        <time>2018-02-10T14:34:02Z</time>
      </trkpt>
      <trkpt lat="44.74148" lon="3.83823">
        <ele>946</ele>
        <time>2018-02-10T14:34:06Z</time>
      </trkpt>
      <trkpt lat="44.74095" lon="3.83889">
        <ele>949</ele>
        <time>2018-02-10T14:34:10Z</time>
      </trkpt>
      <trkpt lat="44.74064" lon="3.83952">
        <ele>954</ele>
        <time>2018-02-10T14:34:13Z</time>
      </trkpt>
      <trkpt lat="44.74044" lon="3.83995">
        <ele>956</ele>
        <time>2018-02-10T14:34:15Z</time>
      </trkpt>
      <trkpt lat="44.73995" lon="3.8413">
        <ele>958</ele>
        <time>2018-02-10T14:34:21Z</time>
      </trkpt>
      <trkpt lat="44.7397" lon="3.84194">
        <ele>957</ele>
        <time>2018-02-10T14:34:24Z</time>
      </trkpt>
      <trkpt lat="44.73938" lon="3.84279">
        <ele>955</ele>
        <time>2018-02-10T14:34:28Z</time>
      </trkpt>
      <trkpt lat="44.7391" lon="3.84361">
        <ele>958</ele>
        <time>2018-02-10T14:34:32Z</time>
      </trkpt>
      <trkpt lat="44.73879" lon="3.84444">
        <ele>956</ele>
        <time>2018-02-10T14:34:36Z</time>
      </trkpt>
      <trkpt lat="44.73855" lon="3.84504">
        <ele>957</ele>
        <time>2018-02-10T14:34:39Z</time>
      </trkpt>
      <trkpt lat="44.73834" lon="3.84556">
        <ele>955</ele>
        <time>2018-02-10T14:34:42Z</time>
      </trkpt>
      <trkpt lat="44.73809" lon="3.84628">
        <ele>957</ele>
        <time>2018-02-10T14:34:46Z</time>
      </trkpt>
      <trkpt lat="44.73788" lon="3.84692">
        <ele>959</ele>
        <time>2018-02-10T14:34:50Z</time>
      </trkpt>
      <trkpt lat="44.73766" lon="3.84752">
        <ele>960</ele>
        <time>2018-02-10T14:34:54Z</time>
      </trkpt>
      <trkpt lat="44.73752" lon="3.84795">
        <ele>962</ele>
        <time>2018-02-10T14:34:57Z</time>
      </trkpt>
      <trkpt lat="44.73738" lon="3.84833">
        <ele>963</ele>
        <time>2018-02-10T14:35:00Z</time>
      </trkpt>
      <trkpt lat="44.7372" lon="3.84881">
        <ele>962</ele>
        <time>2018-02-10T14:35:04Z</time>
      </trkpt>
      <trkpt lat="44.73708" lon="3.84915">
        <ele>963</ele>
        <time>2018-02-10T14:35:07Z</time>
      </trkpt>
      <trkpt lat="44.73696" lon="3.8495">
        <ele>963</ele>
        <time>2018-02-10T14:35:10Z</time>
      </trkpt>
      <trkpt lat="44.73681" lon="3.84992">
        <ele>965</ele>
        <time>2018-02-10T14:35:14Z</time>
      </trkpt>
      <trkpt lat="44.73668" lon="3.85033">
        <ele>966</ele>
        <time>2018-02-10T14:35:18Z</time>
      </trkpt>
      <trkpt lat="44.73654" lon="3.8507">
        <ele>966</ele>
        <time>2018-02-10T14:35:22Z</time>
      </trkpt>
      <trkpt lat="44.73641" lon="3.85104">
        <ele>967</ele>
        <time>2018-02-10T14:35:26Z</time>
      </trkpt>
      <trkpt lat="44.7363" lon="3.85129">
        <ele>968</ele>
        <time>2018-02-10T14:35:29Z</time>
      </trkpt>
      <trkpt lat="44.73612" lon="3.85157">
        <ele>966</ele>
        <time>2018-02-10T14:35:33Z</time>
      </trkpt>
      <trkpt lat="44.73604" lon="3.85178">
        <ele>964</ele>
        <time>2018-02-10T14:35:36Z</time>
      </trkpt>
      <trkpt lat="44.73591" lon="3.85206">
        <ele>963</ele>
        <time>2018-02-10T14:35:39Z</time>
      </trkpt>
      <trkpt lat="44.73579" lon="3.85239">
        <ele>963</ele>
        <time>2018-02-10T14:35:43Z</time>
      </trkpt>
      <trkpt lat="44.73562" lon="3.85271">
        <ele>958</ele>
        <time>2018-02-10T14:35:47Z</time>
      </trkpt>
      <trkpt lat="44.73542" lon="3.85303">
        <ele>957</ele>
        <time>2018-02-10T14:35:51Z</time>
      </trkpt>
      <trkpt lat="44.73522" lon="3.8533">
        <ele>956</ele>
        <time>2018-02-10T14:35:55Z</time>
      </trkpt>
      <trkpt lat="44.73503" lon="3.85361">
        <ele>955</ele>
        <time>2018-02-10T14:35:59Z</time>
      </trkpt>
      <trkpt lat="44.73493" lon="3.8538">
        <ele>956</ele>
        <time>2018-02-10T14:36:02Z</time>
      </trkpt>
      <trkpt lat="44.73474" lon="3.8541">
        <ele>955</ele>
        <time>2018-02-10T14:36:06Z</time>
      </trkpt>
      <trkpt lat="44.73455" lon="3.85438">
        <ele>956</ele>
        <time>2018-02-10T14:36:10Z</time>
      </trkpt>
      <trkpt lat="44.7344" lon="3.8546">
        <ele>956</ele>
        <time>2018-02-10T14:36:13Z</time>
      </trkpt>
      <trkpt lat="44.7343" lon="3.85484">
        <ele>955</ele>
        <time>2018-02-10T14:36:16Z</time>
      </trkpt>
      <trkpt lat="44.73412" lon="3.8551">
        <ele>955</ele>
        <time>2018-02-10T14:36:20Z</time>
      </trkpt>
      <trkpt lat="44.73399" lon="3.85532">
        <ele>956</ele>
        <time>2018-02-10T14:36:23Z</time>
      </trkpt>
      <trkpt lat="44.73381" lon="3.85559">
        <ele>958</ele>
        <time>2018-02-10T14:36:27Z</time>
      </trkpt>
      <trkpt lat="44.73363" lon="3.85582">
        <ele>960</ele>
        <time>2018-02-10T14:36:31Z</time>
      </trkpt>
      <trkpt lat="44.7335" lon="3.85602">
        <ele>959</ele>
        <time>2018-02-10T14:36:34Z</time>
      </trkpt>
      <trkpt lat="44.73335" lon="3.85631">
        <ele>958</ele>
        <time>2018-02-10T14:36:38Z</time>
      </trkpt>
      <trkpt lat="44.73325" lon="3.85654">
        <ele>958</ele>
        <time>2018-02-10T14:36:42Z</time>
      </trkpt>
      <trkpt lat="44.73313" lon="3.85703">
        <ele>1007</ele>
        <time>2018-02-10T14:37:19Z</time>
      </trkpt>
      <trkpt lat="44.73304" lon="3.85708">
        <ele>965</ele>
        <time>2018-02-10T14:37:23Z</time>
      </trkpt>
      <trkpt lat="44.73297" lon="3.85698">
        <ele>956</ele>
        <time>2018-02-10T14:37:26Z</time>
      </trkpt>
      <trkpt lat="44.73299" lon="3.85692">
        <ele>966</ele>
        <time>2018-02-10T14:37:29Z</time>
      </trkpt>
      <trkpt lat="44.73305" lon="3.85686">
        <ele>967</ele>
        <time>2018-02-10T14:37:33Z</time>
      </trkpt>
      <trkpt lat="44.73309" lon="3.85682">
        <ele>972</ele>
        <time>2018-02-10T14:37:36Z</time>
      </trkpt>
      <trkpt lat="44.73311" lon="3.85681">
        <ele>973</ele>
        <time>2018-02-10T14:37:40Z</time>
      </trkpt>
      <trkpt lat="44.73311" lon="3.85681">
        <ele>974</ele>
        <time>2018-02-10T14:37:44Z</time>
      </trkpt>
      <trkpt lat="44.7331" lon="3.85681">
        <ele>969</ele>
        <time>2018-02-10T14:37:48Z</time>
      </trkpt>
      <trkpt lat="44.73309" lon="3.8568">
        <ele>966</ele>
        <time>2018-02-10T14:37:52Z</time>
      </trkpt>
      <trkpt lat="44.73309" lon="3.8568">
        <ele>967</ele>
        <time>2018-02-10T14:37:55Z</time>
      </trkpt>
      <trkpt lat="44.7331" lon="3.85681">
        <ele>967</ele>
        <time>2018-02-10T14:37:58Z</time>
      </trkpt>
      <trkpt lat="44.7331" lon="3.85681">
        <ele>966</ele>
        <time>2018-02-10T14:38:02Z</time>
      </trkpt>
      <trkpt lat="44.73307" lon="3.85684">
        <ele>965</ele>
        <time>2018-02-10T14:38:06Z</time>
      </trkpt>
      <trkpt lat="44.73304" lon="3.85687">
        <ele>963</ele>
        <time>2018-02-10T14:38:09Z</time>
      </trkpt>
      <trkpt lat="44.73303" lon="3.85688">
        <ele>962</ele>
        <time>2018-02-10T14:38:12Z</time>
      </trkpt>
      <trkpt lat="44.73303" lon="3.85687">
        <ele>963</ele>
        <time>2018-02-10T14:38:16Z</time>
      </trkpt>
      <trkpt lat="44.73302" lon="3.85685">
        <ele>961</ele>
        <time>2018-02-10T14:38:20Z</time>
      </trkpt>
      <trkpt lat="44.73301" lon="3.85685">
        <ele>961</ele>
        <time>2018-02-10T14:38:23Z</time>
      </trkpt>
      <trkpt lat="44.73301" lon="3.85686">
        <ele>960</ele>
        <time>2018-02-10T14:38:27Z</time>
      </trkpt>
      <trkpt lat="44.733" lon="3.85689">
        <ele>961</ele>
        <time>2018-02-10T14:38:30Z</time>
      </trkpt>
      <trkpt lat="44.73297" lon="3.85701">
        <ele>961</ele>
        <time>2018-02-10T14:38:34Z</time>
      </trkpt>
      <trkpt lat="44.73291" lon="3.85713">
        <ele>961</ele>
        <time>2018-02-10T14:38:38Z</time>
      </trkpt>
      <trkpt lat="44.73286" lon="3.85718">
        <ele>958</ele>
        <time>2018-02-10T14:38:41Z</time>
      </trkpt>
      <trkpt lat="44.73286" lon="3.85721">
        <ele>955</ele>
        <time>2018-02-10T14:38:44Z</time>
      </trkpt>
      <trkpt lat="44.73279" lon="3.85726">
        <ele>953</ele>
        <time>2018-02-10T14:38:48Z</time>
      </trkpt>
      <trkpt lat="44.73274" lon="3.85731">
        <ele>953</ele>
        <time>2018-02-10T14:38:52Z</time>
      </trkpt>
      <trkpt lat="44.73271" lon="3.85735">
        <ele>953</ele>
        <time>2018-02-10T14:38:56Z</time>
      </trkpt>
      <trkpt lat="44.73264" lon="3.85737">
        <ele>951</ele>
        <time>2018-02-10T14:39:00Z</time>
      </trkpt>
      <trkpt lat="44.73259" lon="3.85739">
        <ele>949</ele>
        <time>2018-02-10T14:39:03Z</time>
      </trkpt>
      <trkpt lat="44.73258" lon="3.85743">
        <ele>947</ele>
        <time>2018-02-10T14:39:06Z</time>
      </trkpt>
      <trkpt lat="44.73255" lon="3.85748">
        <ele>946</ele>
        <time>2018-02-10T14:39:10Z</time>
      </trkpt>
      <trkpt lat="44.73258" lon="3.85746">
        <ele>950</ele>
        <time>2018-02-10T14:39:14Z</time>
      </trkpt>
      <trkpt lat="44.73258" lon="3.85746">
        <ele>949</ele>
        <time>2018-02-10T14:39:17Z</time>
      </trkpt>
      <trkpt lat="44.73256" lon="3.85746">
        <ele>948</ele>
        <time>2018-02-10T14:39:20Z</time>
      </trkpt>
      <trkpt lat="44.73258" lon="3.8574">
        <ele>952</ele>
        <time>2018-02-10T14:39:24Z</time>
      </trkpt>
      <trkpt lat="44.7326" lon="3.85733">
        <ele>951</ele>
        <time>2018-02-10T14:39:27Z</time>
      </trkpt>
      <trkpt lat="44.7326" lon="3.85727">
        <ele>951</ele>
        <time>2018-02-10T14:39:30Z</time>
      </trkpt>
      <trkpt lat="44.73263" lon="3.85716">
        <ele>953</ele>
        <time>2018-02-10T14:39:34Z</time>
      </trkpt>
      <trkpt lat="44.73269" lon="3.85711">
        <ele>954</ele>
        <time>2018-02-10T14:39:37Z</time>
      </trkpt>
      <trkpt lat="44.73277" lon="3.85711">
        <ele>955</ele>
        <time>2018-02-10T14:39:41Z</time>
      </trkpt>
      <trkpt lat="44.73282" lon="3.85711">
        <ele>956</ele>
        <time>2018-02-10T14:39:45Z</time>
      </trkpt>
      <trkpt lat="44.73283" lon="3.85711">
        <ele>957</ele>
        <time>2018-02-10T14:39:48Z</time>
      </trkpt>
      <trkpt lat="44.73284" lon="3.85711">
        <ele>958</ele>
        <time>2018-02-10T14:39:51Z</time>
      </trkpt>
      <trkpt lat="44.73285" lon="3.85711">
        <ele>958</ele>
        <time>2018-02-10T14:39:55Z</time>
      </trkpt>
      <trkpt lat="44.73285" lon="3.85711">
        <ele>959</ele>
        <time>2018-02-10T14:39:59Z</time>
      </trkpt>
      <trkpt lat="44.73286" lon="3.85711">
        <ele>959</ele>
        <time>2018-02-10T14:40:02Z</time>
      </trkpt>
      <trkpt lat="44.73286" lon="3.85711">
        <ele>959</ele>
        <time>2018-02-10T14:40:06Z</time>
      </trkpt>
      <trkpt lat="44.73286" lon="3.85711">
        <ele>959</ele>
        <time>2018-02-10T14:40:10Z</time>
      </trkpt>
      <trkpt lat="44.73286" lon="3.85711">
        <ele>959</ele>
        <time>2018-02-10T14:40:14Z</time>
      </trkpt>
      <trkpt lat="44.73286" lon="3.85711">
        <ele>959</ele>
        <time>2018-02-10T14:40:18Z</time>
      </trkpt>
      <trkpt lat="44.73286" lon="3.85711">
        <ele>959</ele>
        <time>2018-02-10T14:40:21Z</time>
      </trkpt>
      <trkpt lat="44.73286" lon="3.85711">
        <ele>959</ele>
        <time>2018-02-10T14:40:25Z</time>
      </trkpt>
      <trkpt lat="44.73286" lon="3.85711">
        <ele>959</ele>
        <time>2018-02-10T14:40:28Z</time>
      </trkpt>
      <trkpt lat="44.73286" lon="3.85711">
        <ele>959</ele>
        <time>2018-02-10T14:40:32Z</time>
      </trkpt>
      <trkpt lat="44.73286" lon="3.85711">
        <ele>959</ele>
        <time>2018-02-10T14:40:36Z</time>
      </trkpt>
      <trkpt lat="44.73286" lon="3.85711">
        <ele>959</ele>
        <time>2018-02-10T14:40:40Z</time>
      </trkpt>
      <trkpt lat="44.73286" lon="3.85711">
        <ele>959</ele>
        <time>2018-02-10T14:40:43Z</time>
      </trkpt>
      <trkpt lat="44.73286" lon="3.85711">
        <ele>959</ele>
        <time>2018-02-10T14:40:46Z</time>
      </trkpt>
      <trkpt lat="44.73286" lon="3.85711">
        <ele>959</ele>
        <time>2018-02-10T14:40:49Z</time>
      </trkpt>
      <trkpt lat="44.73286" lon="3.85711">
        <ele>959</ele>
        <time>2018-02-10T14:40:53Z</time>
      </trkpt>
      <trkpt lat="44.73286" lon="3.85711">
        <ele>959</ele>
        <time>2018-02-10T14:40:57Z</time>
      </trkpt>
      <trkpt lat="44.73286" lon="3.85711">
        <ele>959</ele>
        <time>2018-02-10T14:41:00Z</time>
      </trkpt>
      <trkpt lat="44.73286" lon="3.85711">
        <ele>959</ele>
        <time>2018-02-10T14:41:04Z</time>
      </trkpt>
      <trkpt lat="44.73286" lon="3.85711">
        <ele>959</ele>
        <time>2018-02-10T14:41:07Z</time>
      </trkpt>
      <trkpt lat="44.73286" lon="3.85711">
        <ele>959</ele>
        <time>2018-02-10T14:41:11Z</time>
      </trkpt>
      <trkpt lat="44.73286" lon="3.85711">
        <ele>959</ele>
        <time>2018-02-10T14:41:15Z</time>
      </trkpt>
      <trkpt lat="44.73286" lon="3.85711">
        <ele>959</ele>
        <time>2018-02-10T14:41:18Z</time>
      </trkpt>
      <trkpt lat="44.73286" lon="3.85711">
        <ele>959</ele>
        <time>2018-02-10T14:41:22Z</time>
      </trkpt>
      <trkpt lat="44.73286" lon="3.85711">
        <ele>959</ele>
        <time>2018-02-10T14:41:26Z</time>
      </trkpt>
      <trkpt lat="44.73286" lon="3.85712">
        <ele>959</ele>
        <time>2018-02-10T14:41:29Z</time>
      </trkpt>
      <trkpt lat="44.73286" lon="3.85712">
        <ele>959</ele>
        <time>2018-02-10T14:41:32Z</time>
      </trkpt>
      <trkpt lat="44.73286" lon="3.85712">
        <ele>959</ele>
        <time>2018-02-10T14:41:35Z</time>
      </trkpt>
      <trkpt lat="44.73276" lon="3.85754">
        <ele>958</ele>
        <time>2018-02-10T14:41:39Z</time>
      </trkpt>
      <trkpt lat="44.73264" lon="3.8579">
        <ele>961</ele>
        <time>2018-02-10T14:41:42Z</time>
      </trkpt>
      <trkpt lat="44.73217" lon="3.85839">
        <ele>961</ele>
        <time>2018-02-10T14:41:46Z</time>
      </trkpt>
      <trkpt lat="44.73205" lon="3.85863">
        <ele>959</ele>
        <time>2018-02-10T14:41:49Z</time>
      </trkpt>
      <trkpt lat="44.732" lon="3.85873">
        <ele>956</ele>
        <time>2018-02-10T14:41:53Z</time>
      </trkpt>
      <trkpt lat="44.73195" lon="3.85889">
        <ele>958</ele>
        <time>2018-02-10T14:41:56Z</time>
      </trkpt>
      <trkpt lat="44.73166" lon="3.8592">
        <ele>958</ele>
        <time>2018-02-10T14:42:00Z</time>
      </trkpt>
      <trkpt lat="44.73136" lon="3.85964">
        <ele>951</ele>
        <time>2018-02-10T14:42:04Z</time>
      </trkpt>
      <trkpt lat="44.7312" lon="3.85987">
        <ele>952</ele>
        <time>2018-02-10T14:42:08Z</time>
      </trkpt>
      <trkpt lat="44.73101" lon="3.86026">
        <ele>952</ele>
        <time>2018-02-10T14:42:12Z</time>
      </trkpt>
      <trkpt lat="44.73088" lon="3.86056">
        <ele>953</ele>
        <time>2018-02-10T14:42:15Z</time>
      </trkpt>
      <trkpt lat="44.73049" lon="3.86115">
        <ele>956</ele>
        <time>2018-02-10T14:42:19Z</time>
      </trkpt>
      <trkpt lat="44.73015" lon="3.86159">
        <ele>953</ele>
        <time>2018-02-10T14:42:22Z</time>
      </trkpt>
      <trkpt lat="44.72988" lon="3.86198">
        <ele>957</ele>
        <time>2018-02-10T14:42:25Z</time>
      </trkpt>
      <trkpt lat="44.72965" lon="3.86253">
        <ele>954</ele>
        <time>2018-02-10T14:42:28Z</time>
      </trkpt>
      <trkpt lat="44.72938" lon="3.86303">
        <ele>951</ele>
        <time>2018-02-10T14:42:32Z</time>
      </trkpt>
      <trkpt lat="44.72874" lon="3.8637">
        <ele>958</ele>
        <time>2018-02-10T14:42:36Z</time>
      </trkpt>
      <trkpt lat="44.72815" lon="3.86411">
        <ele>961</ele>
        <time>2018-02-10T14:42:40Z</time>
      </trkpt>
      <trkpt lat="44.72761" lon="3.86435">
        <ele>962</ele>
        <time>2018-02-10T14:42:43Z</time>
      </trkpt>
      <trkpt lat="44.72708" lon="3.86449">
        <ele>962</ele>
        <time>2018-02-10T14:42:46Z</time>
      </trkpt>
      <trkpt lat="44.7263" lon="3.86448">
        <ele>964</ele>
        <time>2018-02-10T14:42:50Z</time>
      </trkpt>
      <trkpt lat="44.72548" lon="3.86428">
        <ele>967</ele>
        <time>2018-02-10T14:42:54Z</time>
      </trkpt>
      <trkpt lat="44.7248" lon="3.86377">
        <ele>965</ele>
        <time>2018-02-10T14:42:58Z</time>
      </trkpt>
      <trkpt lat="44.72432" lon="3.8633">
        <ele>969</ele>
        <time>2018-02-10T14:43:01Z</time>
      </trkpt>
      <trkpt lat="44.72365" lon="3.86273">
        <ele>967</ele>
        <time>2018-02-10T14:43:05Z</time>
      </trkpt>
      <trkpt lat="44.72291" lon="3.86238">
        <ele>971</ele>
        <time>2018-02-10T14:43:09Z</time>
      </trkpt>
      <trkpt lat="44.72208" lon="3.86233">
        <ele>971</ele>
        <time>2018-02-10T14:43:13Z</time>
      </trkpt>
      <trkpt lat="44.72154" lon="3.86247">
        <ele>974</ele>
        <time>2018-02-10T14:43:16Z</time>
      </trkpt>
      <trkpt lat="44.72081" lon="3.86288">
        <ele>972</ele>
        <time>2018-02-10T14:43:20Z</time>
      </trkpt>
      <trkpt lat="44.72008" lon="3.86335">
        <ele>971</ele>
        <time>2018-02-10T14:43:24Z</time>
      </trkpt>
      <trkpt lat="44.71955" lon="3.86375">
        <ele>971</ele>
        <time>2018-02-10T14:43:27Z</time>
      </trkpt>
      <trkpt lat="44.71908" lon="3.86425">
        <ele>972</ele>
        <time>2018-02-10T14:43:30Z</time>
      </trkpt>
      <trkpt lat="44.71847" lon="3.86502">
        <ele>968</ele>
        <time>2018-02-10T14:43:34Z</time>
      </trkpt>
      <trkpt lat="44.71801" lon="3.86542">
        <ele>970</ele>
        <time>2018-02-10T14:43:37Z</time>
      </trkpt>
      <trkpt lat="44.71725" lon="3.86572">
        <ele>970</ele>
        <time>2018-02-10T14:43:41Z</time>
      </trkpt>
      <trkpt lat="44.71664" lon="3.86571">
        <ele>974</ele>
        <time>2018-02-10T14:43:44Z</time>
      </trkpt>
      <trkpt lat="44.71587" lon="3.8654">
        <ele>973</ele>
        <time>2018-02-10T14:43:48Z</time>
      </trkpt>
      <trkpt lat="44.71521" lon="3.86471">
        <ele>973</ele>
        <time>2018-02-10T14:43:52Z</time>
      </trkpt>
      <trkpt lat="44.71457" lon="3.864">
        <ele>975</ele>
        <time>2018-02-10T14:43:56Z</time>
      </trkpt>
      <trkpt lat="44.71403" lon="3.86365">
        <ele>974</ele>
        <time>2018-02-10T14:43:59Z</time>
      </trkpt>
      <trkpt lat="44.7133" lon="3.86341">
        <ele>979</ele>
        <time>2018-02-10T14:44:03Z</time>
      </trkpt>
      <trkpt lat="44.71275" lon="3.8634">
        <ele>978</ele>
        <time>2018-02-10T14:44:06Z</time>
      </trkpt>
      <trkpt lat="44.71204" lon="3.86377">
        <ele>983</ele>
        <time>2018-02-10T14:44:10Z</time>
      </trkpt>
      <trkpt lat="44.71142" lon="3.86445">
        <ele>985</ele>
        <time>2018-02-10T14:44:14Z</time>
      </trkpt>
      <trkpt lat="44.71099" lon="3.86546">
        <ele>984</ele>
        <time>2018-02-10T14:44:18Z</time>
      </trkpt>
      <trkpt lat="44.71076" lon="3.8662">
        <ele>983</ele>
        <time>2018-02-10T14:44:21Z</time>
      </trkpt>
      <trkpt lat="44.71054" lon="3.86695">
        <ele>983</ele>
        <time>2018-02-10T14:44:24Z</time>
      </trkpt>
      <trkpt lat="44.71032" lon="3.86767">
        <ele>984</ele>
        <time>2018-02-10T14:44:27Z</time>
      </trkpt>
      <trkpt lat="44.70995" lon="3.86874">
        <ele>983</ele>
        <time>2018-02-10T14:44:31Z</time>
      </trkpt>
      <trkpt lat="44.7098" lon="3.86949">
        <ele>984</ele>
        <time>2018-02-10T14:44:34Z</time>
      </trkpt>
      <trkpt lat="44.70968" lon="3.87039">
        <ele>985</ele>
        <time>2018-02-10T14:44:37Z</time>
      </trkpt>
      <trkpt lat="44.70942" lon="3.87119">
        <ele>987</ele>
        <time>2018-02-10T14:44:40Z</time>
      </trkpt>
      <trkpt lat="44.70875" lon="3.872">
        <ele>987</ele>
        <time>2018-02-10T14:44:44Z</time>
      </trkpt>
      <trkpt lat="44.70829" lon="3.87253">
        <ele>991</ele>
        <time>2018-02-10T14:44:47Z</time>
      </trkpt>
      <trkpt lat="44.70781" lon="3.8729">
        <ele>992</ele>
        <time>2018-02-10T14:44:50Z</time>
      </trkpt>
      <trkpt lat="44.70708" lon="3.87319">
        <ele>992</ele>
        <time>2018-02-10T14:44:54Z</time>
      </trkpt>
      <trkpt lat="44.7063" lon="3.87313">
        <ele>995</ele>
        <time>2018-02-10T14:44:58Z</time>
      </trkpt>
      <trkpt lat="44.70578" lon="3.87293">
        <ele>992</ele>
        <time>2018-02-10T14:45:01Z</time>
      </trkpt>
      <trkpt lat="44.70506" lon="3.87227">
        <ele>992</ele>
        <time>2018-02-10T14:45:05Z</time>
      </trkpt>
      <trkpt lat="44.70472" lon="3.87158">
        <ele>992</ele>
        <time>2018-02-10T14:45:08Z</time>
      </trkpt>
      <trkpt lat="44.70429" lon="3.87066">
        <ele>992</ele>
        <time>2018-02-10T14:45:12Z</time>
      </trkpt>
      <trkpt lat="44.70383" lon="3.87008">
        <ele>992</ele>
        <time>2018-02-10T14:45:15Z</time>
      </trkpt>
      <trkpt lat="44.7033" lon="3.86967">
        <ele>991</ele>
        <time>2018-02-10T14:45:18Z</time>
      </trkpt>
      <trkpt lat="44.70272" lon="3.86943">
        <ele>991</ele>
        <time>2018-02-10T14:45:21Z</time>
      </trkpt>
      <trkpt lat="44.70128" lon="3.86961">
        <ele>989</ele>
        <time>2018-02-10T14:45:29Z</time>
      </trkpt>
      <trkpt lat="44.70054" lon="3.87031">
        <ele>985</ele>
        <time>2018-02-10T14:45:33Z</time>
      </trkpt>
      <trkpt lat="44.69971" lon="3.87059">
        <ele>988</ele>
        <time>2018-02-10T14:45:37Z</time>
      </trkpt>
      <trkpt lat="44.6991" lon="3.87058">
        <ele>987</ele>
        <time>2018-02-10T14:45:40Z</time>
      </trkpt>
      <trkpt lat="44.69833" lon="3.87094">
        <ele>988</ele>
        <time>2018-02-10T14:45:44Z</time>
      </trkpt>
      <trkpt lat="44.69766" lon="3.8715">
        <ele>987</ele>
        <time>2018-02-10T14:45:48Z</time>
      </trkpt>
      <trkpt lat="44.69725" lon="3.87253">
        <ele>990</ele>
        <time>2018-02-10T14:45:52Z</time>
      </trkpt>
      <trkpt lat="44.69692" lon="3.87368">
        <ele>994</ele>
        <time>2018-02-10T14:45:56Z</time>
      </trkpt>
      <trkpt lat="44.69691" lon="3.8745">
        <ele>994</ele>
        <time>2018-02-10T14:45:59Z</time>
      </trkpt>
      <trkpt lat="44.69706" lon="3.87532">
        <ele>993</ele>
        <time>2018-02-10T14:46:02Z</time>
      </trkpt>
      <trkpt lat="44.69725" lon="3.87645">
        <ele>993</ele>
        <time>2018-02-10T14:46:06Z</time>
      </trkpt>
      <trkpt lat="44.69748" lon="3.87742">
        <ele>990</ele>
        <time>2018-02-10T14:46:10Z</time>
      </trkpt>
      <trkpt lat="44.69775" lon="3.87823">
        <ele>989</ele>
        <time>2018-02-10T14:46:13Z</time>
      </trkpt>
      <trkpt lat="44.69801" lon="3.87929">
        <ele>990</ele>
        <time>2018-02-10T14:46:17Z</time>
      </trkpt>
      <trkpt lat="44.69833" lon="3.88031">
        <ele>992</ele>
        <time>2018-02-10T14:46:21Z</time>
      </trkpt>
      <trkpt lat="44.69859" lon="3.88106">
        <ele>992</ele>
        <time>2018-02-10T14:46:24Z</time>
      </trkpt>
      <trkpt lat="44.69862" lon="3.88235">
        <ele>990</ele>
        <time>2018-02-10T14:46:28Z</time>
      </trkpt>
      <trkpt lat="44.69844" lon="3.88328">
        <ele>992</ele>
        <time>2018-02-10T14:46:32Z</time>
      </trkpt>
      <trkpt lat="44.69813" lon="3.88434">
        <ele>995</ele>
        <time>2018-02-10T14:46:36Z</time>
      </trkpt>
      <trkpt lat="44.69778" lon="3.88502">
        <ele>998</ele>
        <time>2018-02-10T14:46:39Z</time>
      </trkpt>
      <trkpt lat="44.69698" lon="3.88562">
        <ele>997</ele>
        <time>2018-02-10T14:46:43Z</time>
      </trkpt>
      <trkpt lat="44.69626" lon="3.88596">
        <ele>996</ele>
        <time>2018-02-10T14:46:47Z</time>
      </trkpt>
      <trkpt lat="44.69568" lon="3.88618">
        <ele>998</ele>
        <time>2018-02-10T14:46:50Z</time>
      </trkpt>
      <trkpt lat="44.69489" lon="3.88641">
        <ele>996</ele>
        <time>2018-02-10T14:46:54Z</time>
      </trkpt>
      <trkpt lat="44.69431" lon="3.88663">
        <ele>996</ele>
        <time>2018-02-10T14:46:57Z</time>
      </trkpt>
      <trkpt lat="44.69347" lon="3.88651">
        <ele>995</ele>
        <time>2018-02-10T14:47:01Z</time>
      </trkpt>
      <trkpt lat="44.69271" lon="3.88609">
        <ele>991</ele>
        <time>2018-02-10T14:47:05Z</time>
      </trkpt>
      <trkpt lat="44.69203" lon="3.88541">
        <ele>993</ele>
        <time>2018-02-10T14:47:09Z</time>
      </trkpt>
      <trkpt lat="44.69158" lon="3.8845">
        <ele>996</ele>
        <time>2018-02-10T14:47:13Z</time>
      </trkpt>
      <trkpt lat="44.6912" lon="3.88379">
        <ele>997</ele>
        <time>2018-02-10T14:47:16Z</time>
      </trkpt>
      <trkpt lat="44.69077" lon="3.88291">
        <ele>1000</ele>
        <time>2018-02-10T14:47:20Z</time>
      </trkpt>
      <trkpt lat="44.69028" lon="3.88198">
        <ele>998</ele>
        <time>2018-02-10T14:47:24Z</time>
      </trkpt>
      <trkpt lat="44.68991" lon="3.88135">
        <ele>998</ele>
        <time>2018-02-10T14:47:27Z</time>
      </trkpt>
      <trkpt lat="44.6895" lon="3.88074">
        <ele>996</ele>
        <time>2018-02-10T14:47:30Z</time>
      </trkpt>
      <trkpt lat="44.68889" lon="3.88015">
        <ele>995</ele>
        <time>2018-02-10T14:47:34Z</time>
      </trkpt>
      <trkpt lat="44.68836" lon="3.87987">
        <ele>993</ele>
        <time>2018-02-10T14:47:37Z</time>
      </trkpt>
      <trkpt lat="44.68783" lon="3.87955">
        <ele>992</ele>
        <time>2018-02-10T14:47:40Z</time>
      </trkpt>
      <trkpt lat="44.68732" lon="3.87933">
        <ele>989</ele>
        <time>2018-02-10T14:47:43Z</time>
      </trkpt>
      <trkpt lat="44.68685" lon="3.87904">
        <ele>985</ele>
        <time>2018-02-10T14:47:46Z</time>
      </trkpt>
      <trkpt lat="44.6862" lon="3.87838">
        <ele>984</ele>
        <time>2018-02-10T14:47:50Z</time>
      </trkpt>
      <trkpt lat="44.68578" lon="3.87779">
        <ele>984</ele>
        <time>2018-02-10T14:47:53Z</time>
      </trkpt>
      <trkpt lat="44.68513" lon="3.87714">
        <ele>981</ele>
        <time>2018-02-10T14:47:57Z</time>
      </trkpt>
      <trkpt lat="44.68467" lon="3.87675">
        <ele>984</ele>
        <time>2018-02-10T14:48:00Z</time>
      </trkpt>
      <trkpt lat="44.68396" lon="3.87626">
        <ele>985</ele>
        <time>2018-02-10T14:48:04Z</time>
      </trkpt>
      <trkpt lat="44.68343" lon="3.8759">
        <ele>986</ele>
        <time>2018-02-10T14:48:07Z</time>
      </trkpt>
      <trkpt lat="44.68273" lon="3.87528">
        <ele>986</ele>
        <time>2018-02-10T14:48:11Z</time>
      </trkpt>
      <trkpt lat="44.68215" lon="3.87463">
        <ele>988</ele>
        <time>2018-02-10T14:48:15Z</time>
      </trkpt>
      <trkpt lat="44.68148" lon="3.87404">
        <ele>990</ele>
        <time>2018-02-10T14:48:19Z</time>
      </trkpt>
      <trkpt lat="44.68083" lon="3.87345">
        <ele>993</ele>
        <time>2018-02-10T14:48:23Z</time>
      </trkpt>
      <trkpt lat="44.68032" lon="3.87293">
        <ele>993</ele>
        <time>2018-02-10T14:48:26Z</time>
      </trkpt>
      <trkpt lat="44.67987" lon="3.87249">
        <ele>994</ele>
        <time>2018-02-10T14:48:29Z</time>
      </trkpt>
      <trkpt lat="44.67935" lon="3.87205">
        <ele>994</ele>
        <time>2018-02-10T14:48:32Z</time>
      </trkpt>
      <trkpt lat="44.67866" lon="3.87169">
        <ele>991</ele>
        <time>2018-02-10T14:48:36Z</time>
      </trkpt>
      <trkpt lat="44.67787" lon="3.87149">
        <ele>993</ele>
        <time>2018-02-10T14:48:40Z</time>
      </trkpt>
      <trkpt lat="44.677" lon="3.87133">
        <ele>992</ele>
        <time>2018-02-10T14:48:44Z</time>
      </trkpt>
      <trkpt lat="44.67655" lon="3.87163">
        <ele>994</ele>
        <time>2018-02-10T14:48:47Z</time>
      </trkpt>
      <trkpt lat="44.67583" lon="3.87206">
        <ele>992</ele>
        <time>2018-02-10T14:48:51Z</time>
      </trkpt>
      <trkpt lat="44.67524" lon="3.87279">
        <ele>995</ele>
        <time>2018-02-10T14:48:55Z</time>
      </trkpt>
      <trkpt lat="44.67481" lon="3.87331">
        <ele>993</ele>
        <time>2018-02-10T14:48:58Z</time>
      </trkpt>
      <trkpt lat="44.67435" lon="3.87418">
        <ele>989</ele>
        <time>2018-02-10T14:49:02Z</time>
      </trkpt>
      <trkpt lat="44.67414" lon="3.87493">
        <ele>994</ele>
        <time>2018-02-10T14:49:05Z</time>
      </trkpt>
      <trkpt lat="44.67388" lon="3.87596">
        <ele>991</ele>
        <time>2018-02-10T14:49:09Z</time>
      </trkpt>
      <trkpt lat="44.67347" lon="3.87668">
        <ele>991</ele>
        <time>2018-02-10T14:49:12Z</time>
      </trkpt>
      <trkpt lat="44.67298" lon="3.87706">
        <ele>990</ele>
        <time>2018-02-10T14:49:15Z</time>
      </trkpt>
      <trkpt lat="44.67224" lon="3.87756">
        <ele>987</ele>
        <time>2018-02-10T14:49:19Z</time>
      </trkpt>
      <trkpt lat="44.67149" lon="3.87765">
        <ele>984</ele>
        <time>2018-02-10T14:49:23Z</time>
      </trkpt>
      <trkpt lat="44.67096" lon="3.87754">
        <ele>984</ele>
        <time>2018-02-10T14:49:26Z</time>
      </trkpt>
      <trkpt lat="44.67017" lon="3.87745">
        <ele>982</ele>
        <time>2018-02-10T14:49:30Z</time>
      </trkpt>
      <trkpt lat="44.66963" lon="3.87733">
        <ele>987</ele>
        <time>2018-02-10T14:49:33Z</time>
      </trkpt>
      <trkpt lat="44.66883" lon="3.87726">
        <ele>989</ele>
        <time>2018-02-10T14:49:37Z</time>
      </trkpt>
      <trkpt lat="44.66809" lon="3.87749">
        <ele>991</ele>
        <time>2018-02-10T14:49:41Z</time>
      </trkpt>
      <trkpt lat="44.66741" lon="3.87797">
        <ele>991</ele>
        <time>2018-02-10T14:49:45Z</time>
      </trkpt>
      <trkpt lat="44.66677" lon="3.87863">
        <ele>994</ele>
        <time>2018-02-10T14:49:49Z</time>
      </trkpt>
      <trkpt lat="44.66639" lon="3.87928">
        <ele>993</ele>
        <time>2018-02-10T14:49:52Z</time>
      </trkpt>
      <trkpt lat="44.66591" lon="3.88028">
        <ele>996</ele>
        <time>2018-02-10T14:49:56Z</time>
      </trkpt>
      <trkpt lat="44.66551" lon="3.88096">
        <ele>997</ele>
        <time>2018-02-10T14:49:59Z</time>
      </trkpt>
      <trkpt lat="44.66484" lon="3.88166">
        <ele>1000</ele>
        <time>2018-02-10T14:50:03Z</time>
      </trkpt>
      <trkpt lat="44.66416" lon="3.88209">
        <ele>997</ele>
        <time>2018-02-10T14:50:07Z</time>
      </trkpt>
      <trkpt lat="44.66355" lon="3.88229">
        <ele>997</ele>
        <time>2018-02-10T14:50:10Z</time>
      </trkpt>
      <trkpt lat="44.66271" lon="3.8821">
        <ele>998</ele>
        <time>2018-02-10T14:50:14Z</time>
      </trkpt>
      <trkpt lat="44.66208" lon="3.88205">
        <ele>998</ele>
        <time>2018-02-10T14:50:17Z</time>
      </trkpt>
      <trkpt lat="44.66126" lon="3.88206">
        <ele>999</ele>
        <time>2018-02-10T14:50:21Z</time>
      </trkpt>
      <trkpt lat="44.66045" lon="3.88204">
        <ele>998</ele>
        <time>2018-02-10T14:50:25Z</time>
      </trkpt>
      <trkpt lat="44.65959" lon="3.88196">
        <ele>998</ele>
        <time>2018-02-10T14:50:29Z</time>
      </trkpt>
      <trkpt lat="44.65916" lon="3.88194">
        <ele>995</ele>
        <time>2018-02-10T14:50:32Z</time>
      </trkpt>
      <trkpt lat="44.65852" lon="3.88194">
        <ele>996</ele>
        <time>2018-02-10T14:50:35Z</time>
      </trkpt>
      <trkpt lat="44.65798" lon="3.88183">
        <ele>1000</ele>
        <time>2018-02-10T14:50:38Z</time>
      </trkpt>
      <trkpt lat="44.6573" lon="3.88214">
        <ele>996</ele>
        <time>2018-02-10T14:50:42Z</time>
      </trkpt>
      <trkpt lat="44.65668" lon="3.88272">
        <ele>1000</ele>
        <time>2018-02-10T14:50:46Z</time>
      </trkpt>
      <trkpt lat="44.65625" lon="3.88299">
        <ele>1000</ele>
        <time>2018-02-10T14:50:49Z</time>
      </trkpt>
      <trkpt lat="44.65588" lon="3.8834">
        <ele>1000</ele>
        <time>2018-02-10T14:50:53Z</time>
      </trkpt>
      <trkpt lat="44.65569" lon="3.88454">
        <ele>1000</ele>
        <time>2018-02-10T14:50:57Z</time>
      </trkpt>
      <trkpt lat="44.65519" lon="3.8854">
        <ele>1001</ele>
        <time>2018-02-10T14:51:01Z</time>
      </trkpt>
      <trkpt lat="44.6552" lon="3.88647">
        <ele>1002</ele>
        <time>2018-02-10T14:51:05Z</time>
      </trkpt>
      <trkpt lat="44.65524" lon="3.88735">
        <ele>1002</ele>
        <time>2018-02-10T14:51:09Z</time>
      </trkpt>
      <trkpt lat="44.65517" lon="3.88826">
        <ele>1002</ele>
        <time>2018-02-10T14:51:12Z</time>
      </trkpt>
      <trkpt lat="44.65534" lon="3.88947">
        <ele>1003</ele>
        <time>2018-02-10T14:51:16Z</time>
      </trkpt>
      <trkpt lat="44.65528" lon="3.89029">
        <ele>1005</ele>
        <time>2018-02-10T14:51:20Z</time>
      </trkpt>
      <trkpt lat="44.65488" lon="3.89082">
        <ele>1005</ele>
        <time>2018-02-10T14:51:23Z</time>
      </trkpt>
      <trkpt lat="44.65442" lon="3.89171">
        <ele>1002</ele>
        <time>2018-02-10T14:51:27Z</time>
      </trkpt>
      <trkpt lat="44.65356" lon="3.89186">
        <ele>1007</ele>
        <time>2018-02-10T14:51:31Z</time>
      </trkpt>
      <trkpt lat="44.65293" lon="3.892">
        <ele>1013</ele>
        <time>2018-02-10T14:51:34Z</time>
      </trkpt>
      <trkpt lat="44.6522" lon="3.89208">
        <ele>1022</ele>
        <time>2018-02-10T14:51:38Z</time>
      </trkpt>
      <trkpt lat="44.65166" lon="3.89218">
        <ele>1021</ele>
        <time>2018-02-10T14:51:41Z</time>
      </trkpt>
      <trkpt lat="44.65111" lon="3.89239">
        <ele>1023</ele>
        <time>2018-02-10T14:51:44Z</time>
      </trkpt>
      <trkpt lat="44.65056" lon="3.89276">
        <ele>1022</ele>
        <time>2018-02-10T14:51:47Z</time>
      </trkpt>
      <trkpt lat="44.64984" lon="3.89339">
        <ele>1018</ele>
        <time>2018-02-10T14:51:51Z</time>
      </trkpt>
      <trkpt lat="44.64931" lon="3.89371">
        <ele>1022</ele>
        <time>2018-02-10T14:51:54Z</time>
      </trkpt>
      <trkpt lat="44.64854" lon="3.89401">
        <ele>1019</ele>
        <time>2018-02-10T14:51:58Z</time>
      </trkpt>
      <trkpt lat="44.64776" lon="3.89425">
        <ele>1020</ele>
        <time>2018-02-10T14:52:02Z</time>
      </trkpt>
      <trkpt lat="44.6472" lon="3.8943">
        <ele>1021</ele>
        <time>2018-02-10T14:52:05Z</time>
      </trkpt>
      <trkpt lat="44.6466" lon="3.8944">
        <ele>1021</ele>
        <time>2018-02-10T14:52:08Z</time>
      </trkpt>
      <trkpt lat="44.64581" lon="3.89451">
        <ele>1022</ele>
        <time>2018-02-10T14:52:12Z</time>
      </trkpt>
      <trkpt lat="44.64505" lon="3.89464">
        <ele>1026</ele>
        <time>2018-02-10T14:52:16Z</time>
      </trkpt>
      <trkpt lat="44.64426" lon="3.89476">
        <ele>1026</ele>
        <time>2018-02-10T14:52:20Z</time>
      </trkpt>
      <trkpt lat="44.64347" lon="3.89476">
        <ele>1024</ele>
        <time>2018-02-10T14:52:24Z</time>
      </trkpt>
      <trkpt lat="44.64294" lon="3.89447">
        <ele>1023</ele>
        <time>2018-02-10T14:52:27Z</time>
      </trkpt>
      <trkpt lat="44.64234" lon="3.89415">
        <ele>1025</ele>
        <time>2018-02-10T14:52:30Z</time>
      </trkpt>
      <trkpt lat="44.64171" lon="3.8936">
        <ele>1024</ele>
        <time>2018-02-10T14:52:34Z</time>
      </trkpt>
      <trkpt lat="44.64124" lon="3.89313">
        <ele>1023</ele>
        <time>2018-02-10T14:52:37Z</time>
      </trkpt>
      <trkpt lat="44.64053" lon="3.89279">
        <ele>1021</ele>
        <time>2018-02-10T14:52:41Z</time>
      </trkpt>
      <trkpt lat="44.63972" lon="3.89268">
        <ele>1020</ele>
        <time>2018-02-10T14:52:45Z</time>
      </trkpt>
      <trkpt lat="44.63915" lon="3.89279">
        <ele>1021</ele>
        <time>2018-02-10T14:52:48Z</time>
      </trkpt>
      <trkpt lat="44.63838" lon="3.89301">
        <ele>1020</ele>
        <time>2018-02-10T14:52:52Z</time>
      </trkpt>
      <trkpt lat="44.63782" lon="3.89317">
        <ele>1019</ele>
        <time>2018-02-10T14:52:55Z</time>
      </trkpt>
      <trkpt lat="44.63724" lon="3.89334">
        <ele>1017</ele>
        <time>2018-02-10T14:52:58Z</time>
      </trkpt>
      <trkpt lat="44.63644" lon="3.89341">
        <ele>1019</ele>
        <time>2018-02-10T14:53:02Z</time>
      </trkpt>
      <trkpt lat="44.63567" lon="3.8933">
        <ele>1019</ele>
        <time>2018-02-10T14:53:06Z</time>
      </trkpt>
      <trkpt lat="44.63491" lon="3.89307">
        <ele>1019</ele>
        <time>2018-02-10T14:53:10Z</time>
      </trkpt>
      <trkpt lat="44.63409" lon="3.89311">
        <ele>1019</ele>
        <time>2018-02-10T14:53:14Z</time>
      </trkpt>
      <trkpt lat="44.63351" lon="3.8931">
        <ele>1024</ele>
        <time>2018-02-10T14:53:17Z</time>
      </trkpt>
      <trkpt lat="44.63296" lon="3.89319">
        <ele>1025</ele>
        <time>2018-02-10T14:53:20Z</time>
      </trkpt>
      <trkpt lat="44.63207" lon="3.89331">
        <ele>1028</ele>
        <time>2018-02-10T14:53:24Z</time>
      </trkpt>
      <trkpt lat="44.63133" lon="3.89343">
        <ele>1026</ele>
        <time>2018-02-10T14:53:28Z</time>
      </trkpt>
      <trkpt lat="44.63059" lon="3.89355">
        <ele>1025</ele>
        <time>2018-02-10T14:53:32Z</time>
      </trkpt>
      <trkpt lat="44.63044" lon="3.89356">
        <ele>1025</ele>
        <time>2018-02-10T14:53:33Z</time>
      </trkpt>
      <trkpt lat="44.62872" lon="3.8938">
        <ele>1024</ele>
        <time>2018-02-10T14:53:42Z</time>
      </trkpt>
      <trkpt lat="44.62811" lon="3.89388">
        <ele>1023</ele>
        <time>2018-02-10T14:53:45Z</time>
      </trkpt>
      <trkpt lat="44.62731" lon="3.89404">
        <ele>1022</ele>
        <time>2018-02-10T14:53:49Z</time>
      </trkpt>
      <trkpt lat="44.62672" lon="3.89415">
        <ele>1023</ele>
        <time>2018-02-10T14:53:52Z</time>
      </trkpt>
      <trkpt lat="44.62595" lon="3.89423">
        <ele>1026</ele>
        <time>2018-02-10T14:53:56Z</time>
      </trkpt>
      <trkpt lat="44.62514" lon="3.89436">
        <ele>1027</ele>
        <time>2018-02-10T14:54:00Z</time>
      </trkpt>
      <trkpt lat="44.62456" lon="3.89444">
        <ele>1029</ele>
        <time>2018-02-10T14:54:03Z</time>
      </trkpt>
      <trkpt lat="44.62378" lon="3.89439">
        <ele>1030</ele>
        <time>2018-02-10T14:54:07Z</time>
      </trkpt>
      <trkpt lat="44.62326" lon="3.89425">
        <ele>1032</ele>
        <time>2018-02-10T14:54:10Z</time>
      </trkpt>
      <trkpt lat="44.62271" lon="3.89404">
        <ele>1035</ele>
        <time>2018-02-10T14:54:13Z</time>
      </trkpt>
      <trkpt lat="44.62196" lon="3.89385">
        <ele>1034</ele>
        <time>2018-02-10T14:54:17Z</time>
      </trkpt>
      <trkpt lat="44.62122" lon="3.89388">
        <ele>1033</ele>
        <time>2018-02-10T14:54:21Z</time>
      </trkpt>
      <trkpt lat="44.62071" lon="3.89392">
        <ele>1034</ele>
        <time>2018-02-10T14:54:24Z</time>
      </trkpt>
      <trkpt lat="44.61992" lon="3.89404">
        <ele>1035</ele>
        <time>2018-02-10T14:54:28Z</time>
      </trkpt>
      <trkpt lat="44.61912" lon="3.89419">
        <ele>1034</ele>
        <time>2018-02-10T14:54:32Z</time>
      </trkpt>
      <trkpt lat="44.61835" lon="3.89427">
        <ele>1034</ele>
        <time>2018-02-10T14:54:36Z</time>
      </trkpt>
      <trkpt lat="44.61774" lon="3.89433">
        <ele>1034</ele>
        <time>2018-02-10T14:54:39Z</time>
      </trkpt>
      <trkpt lat="44.61702" lon="3.89448">
        <ele>1037</ele>
        <time>2018-02-10T14:54:43Z</time>
      </trkpt>
      <trkpt lat="44.61622" lon="3.89458">
        <ele>1039</ele>
        <time>2018-02-10T14:54:47Z</time>
      </trkpt>
      <trkpt lat="44.61566" lon="3.89479">
        <ele>1039</ele>
        <time>2018-02-10T14:54:50Z</time>
      </trkpt>
      <trkpt lat="44.61496" lon="3.89521">
        <ele>1040</ele>
        <time>2018-02-10T14:54:54Z</time>
      </trkpt>
      <trkpt lat="44.61446" lon="3.89563">
        <ele>1042</ele>
        <time>2018-02-10T14:54:57Z</time>
      </trkpt>
      <trkpt lat="44.61396" lon="3.89609">
        <ele>1043</ele>
        <time>2018-02-10T14:55:00Z</time>
      </trkpt>
      <trkpt lat="44.61348" lon="3.89659">
        <ele>1045</ele>
        <time>2018-02-10T14:55:03Z</time>
      </trkpt>
      <trkpt lat="44.61295" lon="3.89737">
        <ele>1047</ele>
        <time>2018-02-10T14:55:07Z</time>
      </trkpt>
      <trkpt lat="44.61256" lon="3.89833">
        <ele>1049</ele>
        <time>2018-02-10T14:55:11Z</time>
      </trkpt>
      <trkpt lat="44.61235" lon="3.89909">
        <ele>1051</ele>
        <time>2018-02-10T14:55:14Z</time>
      </trkpt>
      <trkpt lat="44.61224" lon="3.90017">
        <ele>1052</ele>
        <time>2018-02-10T14:55:18Z</time>
      </trkpt>
      <trkpt lat="44.61219" lon="3.90126">
        <ele>1052</ele>
        <time>2018-02-10T14:55:22Z</time>
      </trkpt>
      <trkpt lat="44.61206" lon="3.90205">
        <ele>1054</ele>
        <time>2018-02-10T14:55:25Z</time>
      </trkpt>
      <trkpt lat="44.61177" lon="3.90308">
        <ele>1057</ele>
        <time>2018-02-10T14:55:29Z</time>
      </trkpt>
      <trkpt lat="44.61145" lon="3.90378">
        <ele>1056</ele>
        <time>2018-02-10T14:55:32Z</time>
      </trkpt>
      <trkpt lat="44.61091" lon="3.90454">
        <ele>1057</ele>
        <time>2018-02-10T14:55:36Z</time>
      </trkpt>
      <trkpt lat="44.61026" lon="3.90516">
        <ele>1060</ele>
        <time>2018-02-10T14:55:40Z</time>
      </trkpt>
      <trkpt lat="44.60954" lon="3.90555">
        <ele>1061</ele>
        <time>2018-02-10T14:55:44Z</time>
      </trkpt>
      <trkpt lat="44.60897" lon="3.90568">
        <ele>1062</ele>
        <time>2018-02-10T14:55:47Z</time>
      </trkpt>
      <trkpt lat="44.60839" lon="3.9057">
        <ele>1059</ele>
        <time>2018-02-10T14:55:50Z</time>
      </trkpt>
      <trkpt lat="44.60779" lon="3.90568">
        <ele>1060</ele>
        <time>2018-02-10T14:55:53Z</time>
      </trkpt>
      <trkpt lat="44.60704" lon="3.90565">
        <ele>1063</ele>
        <time>2018-02-10T14:55:57Z</time>
      </trkpt>
      <trkpt lat="44.60627" lon="3.90563">
        <ele>1063</ele>
        <time>2018-02-10T14:56:01Z</time>
      </trkpt>
      <trkpt lat="44.60573" lon="3.9056">
        <ele>1064</ele>
        <time>2018-02-10T14:56:04Z</time>
      </trkpt>
      <trkpt lat="44.60503" lon="3.9056">
        <ele>1065</ele>
        <time>2018-02-10T14:56:08Z</time>
      </trkpt>
      <trkpt lat="44.60454" lon="3.90536">
        <ele>1064</ele>
        <time>2018-02-10T14:56:11Z</time>
      </trkpt>
      <trkpt lat="44.6037" lon="3.90512">
        <ele>1065</ele>
        <time>2018-02-10T14:56:15Z</time>
      </trkpt>
      <trkpt lat="44.60325" lon="3.90495">
        <ele>1065</ele>
        <time>2018-02-10T14:56:18Z</time>
      </trkpt>
      <trkpt lat="44.6026" lon="3.90492">
        <ele>1066</ele>
        <time>2018-02-10T14:56:22Z</time>
      </trkpt>
      <trkpt lat="44.60214" lon="3.90495">
        <ele>1063</ele>
        <time>2018-02-10T14:56:25Z</time>
      </trkpt>
      <trkpt lat="44.60163" lon="3.90502">
        <ele>1065</ele>
        <time>2018-02-10T14:56:29Z</time>
      </trkpt>
      <trkpt lat="44.60104" lon="3.90496">
        <ele>1067</ele>
        <time>2018-02-10T14:56:33Z</time>
      </trkpt>
      <trkpt lat="44.60058" lon="3.90489">
        <ele>1068</ele>
        <time>2018-02-10T14:56:37Z</time>
      </trkpt>
      <trkpt lat="44.60026" lon="3.90464">
        <ele>1070</ele>
        <time>2018-02-10T14:56:40Z</time>
      </trkpt>
      <trkpt lat="44.5999" lon="3.90441">
        <ele>1069</ele>
        <time>2018-02-10T14:56:43Z</time>
      </trkpt>
      <trkpt lat="44.59949" lon="3.90415">
        <ele>1069</ele>
        <time>2018-02-10T14:56:47Z</time>
      </trkpt>
      <trkpt lat="44.5992" lon="3.90397">
        <ele>1068</ele>
        <time>2018-02-10T14:56:50Z</time>
      </trkpt>
      <trkpt lat="44.59881" lon="3.90365">
        <ele>1068</ele>
        <time>2018-02-10T14:56:54Z</time>
      </trkpt>
      <trkpt lat="44.59828" lon="3.90363">
        <ele>1068</ele>
        <time>2018-02-10T14:56:57Z</time>
      </trkpt>
      <trkpt lat="44.59768" lon="3.90307">
        <ele>1068</ele>
        <time>2018-02-10T14:57:03Z</time>
      </trkpt>
      <trkpt lat="44.59727" lon="3.90324">
        <ele>1063</ele>
        <time>2018-02-10T14:57:07Z</time>
      </trkpt>
      <trkpt lat="44.59692" lon="3.9033">
        <ele>1061</ele>
        <time>2018-02-10T14:57:10Z</time>
      </trkpt>
      <trkpt lat="44.59659" lon="3.90343">
        <ele>1066</ele>
        <time>2018-02-10T14:57:13Z</time>
      </trkpt>
      <trkpt lat="44.59623" lon="3.90357">
        <ele>1068</ele>
        <time>2018-02-10T14:57:17Z</time>
      </trkpt>
      <trkpt lat="44.59577" lon="3.9037">
        <ele>1061</ele>
        <time>2018-02-10T14:57:21Z</time>
      </trkpt>
      <trkpt lat="44.59549" lon="3.90379">
        <ele>1064</ele>
        <time>2018-02-10T14:57:24Z</time>
      </trkpt>
      <trkpt lat="44.59518" lon="3.90391">
        <ele>1063</ele>
        <time>2018-02-10T14:57:28Z</time>
      </trkpt>
      <trkpt lat="44.59491" lon="3.90403">
        <ele>1063</ele>
        <time>2018-02-10T14:57:31Z</time>
      </trkpt>
      <trkpt lat="44.59461" lon="3.90411">
        <ele>1059</ele>
        <time>2018-02-10T14:57:35Z</time>
      </trkpt>
      <trkpt lat="44.59434" lon="3.90414">
        <ele>1059</ele>
        <time>2018-02-10T14:57:39Z</time>
      </trkpt>
      <trkpt lat="44.5941" lon="3.90413">
        <ele>1060</ele>
        <time>2018-02-10T14:57:42Z</time>
      </trkpt>
      <trkpt lat="44.59382" lon="3.90419">
        <ele>1062</ele>
        <time>2018-02-10T14:57:46Z</time>
      </trkpt>
      <trkpt lat="44.59369" lon="3.90418">
        <ele>1062</ele>
        <time>2018-02-10T14:57:49Z</time>
      </trkpt>
      <trkpt lat="44.59357" lon="3.90416">
        <ele>1062</ele>
        <time>2018-02-10T14:57:52Z</time>
      </trkpt>
      <trkpt lat="44.59343" lon="3.90412">
        <ele>1061</ele>
        <time>2018-02-10T14:57:55Z</time>
      </trkpt>
      <trkpt lat="44.59328" lon="3.9041">
        <ele>1059</ele>
        <time>2018-02-10T14:57:59Z</time>
      </trkpt>
      <trkpt lat="44.59333" lon="3.90418">
        <ele>1061</ele>
        <time>2018-02-10T14:58:03Z</time>
      </trkpt>
      <trkpt lat="44.59334" lon="3.9042">
        <ele>1057</ele>
        <time>2018-02-10T14:58:07Z</time>
      </trkpt>
      <trkpt lat="44.59335" lon="3.90419">
        <ele>1056</ele>
        <time>2018-02-10T14:58:11Z</time>
      </trkpt>
      <trkpt lat="44.59334" lon="3.90417">
        <ele>1059</ele>
        <time>2018-02-10T14:58:15Z</time>
      </trkpt>
      <trkpt lat="44.59333" lon="3.90417">
        <ele>1059</ele>
        <time>2018-02-10T14:58:19Z</time>
      </trkpt>
      <trkpt lat="44.5933" lon="3.90415">
        <ele>1057</ele>
        <time>2018-02-10T14:58:22Z</time>
      </trkpt>
      <trkpt lat="44.59321" lon="3.90412">
        <ele>1056</ele>
        <time>2018-02-10T14:58:25Z</time>
      </trkpt>
      <trkpt lat="44.59314" lon="3.9041">
        <ele>1057</ele>
        <time>2018-02-10T14:58:28Z</time>
      </trkpt>
      <trkpt lat="44.59308" lon="3.90408">
        <ele>1058</ele>
        <time>2018-02-10T14:58:32Z</time>
      </trkpt>
      <trkpt lat="44.59306" lon="3.90407">
        <ele>1055</ele>
        <time>2018-02-10T14:58:36Z</time>
      </trkpt>
      <trkpt lat="44.59306" lon="3.90406">
        <ele>1056</ele>
        <time>2018-02-10T14:58:39Z</time>
      </trkpt>
      <trkpt lat="44.59306" lon="3.90406">
        <ele>1056</ele>
        <time>2018-02-10T14:58:43Z</time>
      </trkpt>
      <trkpt lat="44.59305" lon="3.90407">
        <ele>1058</ele>
        <time>2018-02-10T14:58:46Z</time>
      </trkpt>
      <trkpt lat="44.59304" lon="3.90406">
        <ele>1061</ele>
        <time>2018-02-10T14:58:50Z</time>
      </trkpt>
      <trkpt lat="44.59304" lon="3.90404">
        <ele>1062</ele>
        <time>2018-02-10T14:58:53Z</time>
      </trkpt>
      <trkpt lat="44.59303" lon="3.90404">
        <ele>1063</ele>
        <time>2018-02-10T14:58:56Z</time>
      </trkpt>
      <trkpt lat="44.59303" lon="3.90403">
        <ele>1063</ele>
        <time>2018-02-10T14:59:00Z</time>
      </trkpt>
      <trkpt lat="44.59303" lon="3.90403">
        <ele>1064</ele>
        <time>2018-02-10T14:59:04Z</time>
      </trkpt>
      <trkpt lat="44.59303" lon="3.90402">
        <ele>1068</ele>
        <time>2018-02-10T14:59:09Z</time>
      </trkpt>
      <trkpt lat="44.59302" lon="3.90402">
        <ele>1068</ele>
        <time>2018-02-10T14:59:13Z</time>
      </trkpt>
      <trkpt lat="44.59302" lon="3.90402">
        <ele>1067</ele>
        <time>2018-02-10T14:59:17Z</time>
      </trkpt>
      <trkpt lat="44.59303" lon="3.90403">
        <ele>1067</ele>
        <time>2018-02-10T14:59:21Z</time>
      </trkpt>
      <trkpt lat="44.59304" lon="3.90404">
        <ele>1065</ele>
        <time>2018-02-10T14:59:25Z</time>
      </trkpt>
      <trkpt lat="44.59306" lon="3.90405">
        <ele>1065</ele>
        <time>2018-02-10T14:59:29Z</time>
      </trkpt>
      <trkpt lat="44.5931" lon="3.90405">
        <ele>1064</ele>
        <time>2018-02-10T14:59:33Z</time>
      </trkpt>
      <trkpt lat="44.59316" lon="3.90406">
        <ele>1066</ele>
        <time>2018-02-10T14:59:36Z</time>
      </trkpt>
      <trkpt lat="44.59323" lon="3.90407">
        <ele>1068</ele>
        <time>2018-02-10T14:59:39Z</time>
      </trkpt>
      <trkpt lat="44.59332" lon="3.90409">
        <ele>1068</ele>
        <time>2018-02-10T14:59:42Z</time>
      </trkpt>
      <trkpt lat="44.59341" lon="3.90411">
        <ele>1069</ele>
        <time>2018-02-10T14:59:46Z</time>
      </trkpt>
      <trkpt lat="44.59347" lon="3.90413">
        <ele>1068</ele>
        <time>2018-02-10T14:59:49Z</time>
      </trkpt>
      <trkpt lat="44.5935" lon="3.90413">
        <ele>1072</ele>
        <time>2018-02-10T14:59:53Z</time>
      </trkpt>
      <trkpt lat="44.59353" lon="3.90414">
        <ele>1072</ele>
        <time>2018-02-10T14:59:57Z</time>
      </trkpt>
      <trkpt lat="44.59352" lon="3.90416">
        <ele>1073</ele>
        <time>2018-02-10T15:00:00Z</time>
      </trkpt>
      <trkpt lat="44.59345" lon="3.90418">
        <ele>1074</ele>
        <time>2018-02-10T15:00:04Z</time>
      </trkpt>
      <trkpt lat="44.59336" lon="3.90419">
        <ele>1075</ele>
        <time>2018-02-10T15:00:07Z</time>
      </trkpt>
      <trkpt lat="44.5933" lon="3.90415">
        <ele>1074</ele>
        <time>2018-02-10T15:00:10Z</time>
      </trkpt>
      <trkpt lat="44.59332" lon="3.90414">
        <ele>1071</ele>
        <time>2018-02-10T15:00:13Z</time>
      </trkpt>
      <trkpt lat="44.59333" lon="3.90414">
        <ele>1073</ele>
        <time>2018-02-10T15:00:16Z</time>
      </trkpt>
      <trkpt lat="44.59333" lon="3.90415">
        <ele>1074</ele>
        <time>2018-02-10T15:00:20Z</time>
      </trkpt>
      <trkpt lat="44.59333" lon="3.90415">
        <ele>1073</ele>
        <time>2018-02-10T15:00:24Z</time>
      </trkpt>
      <trkpt lat="44.59334" lon="3.90414">
        <ele>1072</ele>
        <time>2018-02-10T15:00:27Z</time>
      </trkpt>
      <trkpt lat="44.59333" lon="3.90414">
        <ele>1072</ele>
        <time>2018-02-10T15:00:31Z</time>
      </trkpt>
      <trkpt lat="44.59333" lon="3.90414">
        <ele>1072</ele>
        <time>2018-02-10T15:00:35Z</time>
      </trkpt>
      <trkpt lat="44.59333" lon="3.90414">
        <ele>1072</ele>
        <time>2018-02-10T15:00:38Z</time>
      </trkpt>
      <trkpt lat="44.59333" lon="3.90414">
        <ele>1072</ele>
        <time>2018-02-10T15:00:41Z</time>
      </trkpt>
      <trkpt lat="44.59333" lon="3.90414">
        <ele>1072</ele>
        <time>2018-02-10T15:00:44Z</time>
      </trkpt>
      <trkpt lat="44.59333" lon="3.90414">
        <ele>1072</ele>
        <time>2018-02-10T15:00:48Z</time>
      </trkpt>
      <trkpt lat="44.59333" lon="3.90414">
        <ele>1072</ele>
        <time>2018-02-10T15:00:51Z</time>
      </trkpt>
      <trkpt lat="44.59333" lon="3.90414">
        <ele>1072</ele>
        <time>2018-02-10T15:00:55Z</time>
      </trkpt>
      <trkpt lat="44.59333" lon="3.90414">
        <ele>1072</ele>
        <time>2018-02-10T15:00:59Z</time>
      </trkpt>
      <trkpt lat="44.59333" lon="3.90414">
        <ele>1072</ele>
        <time>2018-02-10T15:01:03Z</time>
      </trkpt>
      <trkpt lat="44.59333" lon="3.90414">
        <ele>1072</ele>
        <time>2018-02-10T15:01:07Z</time>
      </trkpt>
      <trkpt lat="44.59333" lon="3.90414">
        <ele>1072</ele>
        <time>2018-02-10T15:01:11Z</time>
      </trkpt>
      <trkpt lat="44.59333" lon="3.90414">
        <ele>1072</ele>
        <time>2018-02-10T15:01:14Z</time>
      </trkpt>
      <trkpt lat="44.59333" lon="3.90414">
        <ele>1072</ele>
        <time>2018-02-10T15:01:18Z</time>
      </trkpt>
      <trkpt lat="44.59333" lon="3.90414">
        <ele>1072</ele>
        <time>2018-02-10T15:01:22Z</time>
      </trkpt>
      <trkpt lat="44.59333" lon="3.90414">
        <ele>1072</ele>
        <time>2018-02-10T15:01:25Z</time>
      </trkpt>
      <trkpt lat="44.59333" lon="3.90414">
        <ele>1072</ele>
        <time>2018-02-10T15:01:29Z</time>
      </trkpt>
      <trkpt lat="44.59333" lon="3.90414">
        <ele>1072</ele>
        <time>2018-02-10T15:01:32Z</time>
      </trkpt>
      <trkpt lat="44.59333" lon="3.90414">
        <ele>1072</ele>
        <time>2018-02-10T15:01:36Z</time>
      </trkpt>
      <trkpt lat="44.59333" lon="3.90414">
        <ele>1072</ele>
        <time>2018-02-10T15:01:39Z</time>
      </trkpt>
      <trkpt lat="44.59333" lon="3.90414">
        <ele>1072</ele>
        <time>2018-02-10T15:01:43Z</time>
      </trkpt>
      <trkpt lat="44.59333" lon="3.90414">
        <ele>1072</ele>
        <time>2018-02-10T15:01:46Z</time>
      </trkpt>
      <trkpt lat="44.59333" lon="3.90414">
        <ele>1072</ele>
        <time>2018-02-10T15:01:50Z</time>
      </trkpt>
      <trkpt lat="44.59333" lon="3.90414">
        <ele>1072</ele>
        <time>2018-02-10T15:01:54Z</time>
      </trkpt>
      <trkpt lat="44.59333" lon="3.90414">
        <ele>1072</ele>
        <time>2018-02-10T15:01:57Z</time>
      </trkpt>
      <trkpt lat="44.59333" lon="3.90414">
        <ele>1072</ele>
        <time>2018-02-10T15:02:00Z</time>
      </trkpt>
      <trkpt lat="44.59333" lon="3.90414">
        <ele>1072</ele>
        <time>2018-02-10T15:02:03Z</time>
      </trkpt>
      <trkpt lat="44.59333" lon="3.90414">
        <ele>1072</ele>
        <time>2018-02-10T15:02:07Z</time>
      </trkpt>
      <trkpt lat="44.59333" lon="3.90414">
        <ele>1072</ele>
        <time>2018-02-10T15:02:10Z</time>
      </trkpt>
      <trkpt lat="44.59333" lon="3.90414">
        <ele>1072</ele>
        <time>2018-02-10T15:02:14Z</time>
      </trkpt>
      <trkpt lat="44.59333" lon="3.90414">
        <ele>1072</ele>
        <time>2018-02-10T15:02:18Z</time>
      </trkpt>
      <trkpt lat="44.59333" lon="3.90414">
        <ele>1072</ele>
        <time>2018-02-10T15:02:22Z</time>
      </trkpt>
      <trkpt lat="44.59333" lon="3.90414">
        <ele>1072</ele>
        <time>2018-02-10T15:02:26Z</time>
      </trkpt>
      <trkpt lat="44.59333" lon="3.90414">
        <ele>1072</ele>
        <time>2018-02-10T15:02:29Z</time>
      </trkpt>
      <trkpt lat="44.59333" lon="3.90414">
        <ele>1072</ele>
        <time>2018-02-10T15:02:33Z</time>
      </trkpt>
      <trkpt lat="44.59333" lon="3.90414">
        <ele>1072</ele>
        <time>2018-02-10T15:02:37Z</time>
      </trkpt>
      <trkpt lat="44.59333" lon="3.90414">
        <ele>1072</ele>
        <time>2018-02-10T15:02:41Z</time>
      </trkpt>
      <trkpt lat="44.59333" lon="3.90414">
        <ele>1072</ele>
        <time>2018-02-10T15:02:44Z</time>
      </trkpt>
      <trkpt lat="44.59333" lon="3.90414">
        <ele>1072</ele>
        <time>2018-02-10T15:02:48Z</time>
      </trkpt>
      <trkpt lat="44.59333" lon="3.90414">
        <ele>1072</ele>
        <time>2018-02-10T15:02:52Z</time>
      </trkpt>
      <trkpt lat="44.59333" lon="3.90414">
        <ele>1072</ele>
        <time>2018-02-10T15:02:56Z</time>
      </trkpt>
      <trkpt lat="44.59333" lon="3.90414">
        <ele>1072</ele>
        <time>2018-02-10T15:02:59Z</time>
      </trkpt>
      <trkpt lat="44.59333" lon="3.90414">
        <ele>1072</ele>
        <time>2018-02-10T15:03:03Z</time>
      </trkpt>
      <trkpt lat="44.59333" lon="3.90414">
        <ele>1072</ele>
        <time>2018-02-10T15:03:07Z</time>
      </trkpt>
      <trkpt lat="44.59333" lon="3.90414">
        <ele>1072</ele>
        <time>2018-02-10T15:03:11Z</time>
      </trkpt>
      <trkpt lat="44.59333" lon="3.90414">
        <ele>1072</ele>
        <time>2018-02-10T15:03:14Z</time>
      </trkpt>
      <trkpt lat="44.59333" lon="3.90414">
        <ele>1072</ele>
        <time>2018-02-10T15:03:17Z</time>
      </trkpt>
      <trkpt lat="44.59333" lon="3.90414">
        <ele>1072</ele>
        <time>2018-02-10T15:03:21Z</time>
      </trkpt>
      <trkpt lat="44.59334" lon="3.90414">
        <ele>1072</ele>
        <time>2018-02-10T15:03:25Z</time>
      </trkpt>
      <trkpt lat="44.59334" lon="3.90414">
        <ele>1072</ele>
        <time>2018-02-10T15:03:29Z</time>
      </trkpt>
      <trkpt lat="44.59334" lon="3.90414">
        <ele>1072</ele>
        <time>2018-02-10T15:03:33Z</time>
      </trkpt>
      <trkpt lat="44.59334" lon="3.90414">
        <ele>1072</ele>
        <time>2018-02-10T15:03:37Z</time>
      </trkpt>
      <trkpt lat="44.59334" lon="3.90414">
        <ele>1072</ele>
        <time>2018-02-10T15:03:40Z</time>
      </trkpt>
      <trkpt lat="44.59334" lon="3.90414">
        <ele>1072</ele>
        <time>2018-02-10T15:03:43Z</time>
      </trkpt>
      <trkpt lat="44.59334" lon="3.90414">
        <ele>1072</ele>
        <time>2018-02-10T15:03:47Z</time>
      </trkpt>
      <trkpt lat="44.59334" lon="3.90414">
        <ele>1072</ele>
        <time>2018-02-10T15:03:51Z</time>
      </trkpt>
      <trkpt lat="44.59334" lon="3.90414">
        <ele>1072</ele>
        <time>2018-02-10T15:03:55Z</time>
      </trkpt>
      <trkpt lat="44.59334" lon="3.90414">
        <ele>1072</ele>
        <time>2018-02-10T15:03:59Z</time>
      </trkpt>
      <trkpt lat="44.59334" lon="3.90414">
        <ele>1072</ele>
        <time>2018-02-10T15:04:02Z</time>
      </trkpt>
      <trkpt lat="44.59334" lon="3.90414">
        <ele>1072</ele>
        <time>2018-02-10T15:04:05Z</time>
      </trkpt>
      <trkpt lat="44.59334" lon="3.90414">
        <ele>1072</ele>
        <time>2018-02-10T15:04:09Z</time>
      </trkpt>
      <trkpt lat="44.59334" lon="3.90414">
        <ele>1072</ele>
        <time>2018-02-10T15:04:12Z</time>
      </trkpt>
      <trkpt lat="44.59334" lon="3.90414">
        <ele>1072</ele>
        <time>2018-02-10T15:04:16Z</time>
      </trkpt>
      <trkpt lat="44.59334" lon="3.90414">
        <ele>1072</ele>
        <time>2018-02-10T15:04:19Z</time>
      </trkpt>
      <trkpt lat="44.59334" lon="3.90414">
        <ele>1072</ele>
        <time>2018-02-10T15:04:23Z</time>
      </trkpt>
      <trkpt lat="44.59333" lon="3.90414">
        <ele>1072</ele>
        <time>2018-02-10T15:04:26Z</time>
      </trkpt>
      <trkpt lat="44.59333" lon="3.90414">
        <ele>1072</ele>
        <time>2018-02-10T15:04:30Z</time>
      </trkpt>
      <trkpt lat="44.59333" lon="3.90414">
        <ele>1072</ele>
        <time>2018-02-10T15:04:34Z</time>
      </trkpt>
      <trkpt lat="44.59333" lon="3.90414">
        <ele>1072</ele>
        <time>2018-02-10T15:04:37Z</time>
      </trkpt>
      <trkpt lat="44.59333" lon="3.90414">
        <ele>1072</ele>
        <time>2018-02-10T15:04:40Z</time>
      </trkpt>
      <trkpt lat="44.59333" lon="3.90414">
        <ele>1072</ele>
        <time>2018-02-10T15:04:44Z</time>
      </trkpt>
      <trkpt lat="44.59333" lon="3.90414">
        <ele>1072</ele>
        <time>2018-02-10T15:04:48Z</time>
      </trkpt>
      <trkpt lat="44.59333" lon="3.90414">
        <ele>1072</ele>
        <time>2018-02-10T15:04:52Z</time>
      </trkpt>
      <trkpt lat="44.59333" lon="3.90414">
        <ele>1072</ele>
        <time>2018-02-10T15:04:56Z</time>
      </trkpt>
      <trkpt lat="44.59334" lon="3.90414">
        <ele>1072</ele>
        <time>2018-02-10T15:04:59Z</time>
      </trkpt>
      <trkpt lat="44.59334" lon="3.90414">
        <ele>1072</ele>
        <time>2018-02-10T15:05:03Z</time>
      </trkpt>
      <trkpt lat="44.59334" lon="3.90414">
        <ele>1072</ele>
        <time>2018-02-10T15:05:06Z</time>
      </trkpt>
      <trkpt lat="44.59333" lon="3.90414">
        <ele>1072</ele>
        <time>2018-02-10T15:05:10Z</time>
      </trkpt>
      <trkpt lat="44.59333" lon="3.90414">
        <ele>1072</ele>
        <time>2018-02-10T15:05:14Z</time>
      </trkpt>
      <trkpt lat="44.59333" lon="3.90414">
        <ele>1072</ele>
        <time>2018-02-10T15:05:18Z</time>
      </trkpt>
      <trkpt lat="44.59334" lon="3.90414">
        <ele>1072</ele>
        <time>2018-02-10T15:05:22Z</time>
      </trkpt>
      <trkpt lat="44.59334" lon="3.90414">
        <ele>1072</ele>
        <time>2018-02-10T15:05:26Z</time>
      </trkpt>
      <trkpt lat="44.59334" lon="3.90414">
        <ele>1072</ele>
        <time>2018-02-10T15:05:29Z</time>
      </trkpt>
      <trkpt lat="44.59334" lon="3.90414">
        <ele>1072</ele>
        <time>2018-02-10T15:05:33Z</time>
      </trkpt>
      <trkpt lat="44.59334" lon="3.90414">
        <ele>1072</ele>
        <time>2018-02-10T15:05:36Z</time>
      </trkpt>
      <trkpt lat="44.59334" lon="3.90414">
        <ele>1072</ele>
        <time>2018-02-10T15:05:40Z</time>
      </trkpt>
      <trkpt lat="44.59334" lon="3.90414">
        <ele>1072</ele>
        <time>2018-02-10T15:05:44Z</time>
      </trkpt>
      <trkpt lat="44.59334" lon="3.90414">
        <ele>1072</ele>
        <time>2018-02-10T15:05:47Z</time>
      </trkpt>
      <trkpt lat="44.59334" lon="3.90414">
        <ele>1072</ele>
        <time>2018-02-10T15:05:50Z</time>
      </trkpt>
      <trkpt lat="44.59334" lon="3.90414">
        <ele>1072</ele>
        <time>2018-02-10T15:05:54Z</time>
      </trkpt>
      <trkpt lat="44.59334" lon="3.90414">
        <ele>1072</ele>
        <time>2018-02-10T15:05:57Z</time>
      </trkpt>
      <trkpt lat="44.59334" lon="3.90414">
        <ele>1072</ele>
        <time>2018-02-10T15:06:00Z</time>
      </trkpt>
      <trkpt lat="44.59334" lon="3.90414">
        <ele>1072</ele>
        <time>2018-02-10T15:06:04Z</time>
      </trkpt>
      <trkpt lat="44.59334" lon="3.90414">
        <ele>1072</ele>
        <time>2018-02-10T15:06:07Z</time>
      </trkpt>
      <trkpt lat="44.59334" lon="3.90414">
        <ele>1072</ele>
        <time>2018-02-10T15:06:11Z</time>
      </trkpt>
      <trkpt lat="44.59334" lon="3.90414">
        <ele>1072</ele>
        <time>2018-02-10T15:06:15Z</time>
      </trkpt>
      <trkpt lat="44.59334" lon="3.90414">
        <ele>1072</ele>
        <time>2018-02-10T15:06:18Z</time>
      </trkpt>
      <trkpt lat="44.59334" lon="3.90414">
        <ele>1072</ele>
        <time>2018-02-10T15:06:21Z</time>
      </trkpt>
      <trkpt lat="44.59334" lon="3.90414">
        <ele>1072</ele>
        <time>2018-02-10T15:06:25Z</time>
      </trkpt>
      <trkpt lat="44.59334" lon="3.90414">
        <ele>1072</ele>
        <time>2018-02-10T15:06:28Z</time>
      </trkpt>
      <trkpt lat="44.59334" lon="3.90414">
        <ele>1072</ele>
        <time>2018-02-10T15:06:32Z</time>
      </trkpt>
      <trkpt lat="44.59334" lon="3.90414">
        <ele>1072</ele>
        <time>2018-02-10T15:06:36Z</time>
      </trkpt>
      <trkpt lat="44.59334" lon="3.90414">
        <ele>1072</ele>
        <time>2018-02-10T15:06:39Z</time>
      </trkpt>
      <trkpt lat="44.59334" lon="3.90414">
        <ele>1072</ele>
        <time>2018-02-10T15:06:43Z</time>
      </trkpt>
      <trkpt lat="44.59334" lon="3.90414">
        <ele>1072</ele>
        <time>2018-02-10T15:06:47Z</time>
      </trkpt>
      <trkpt lat="44.59334" lon="3.90414">
        <ele>1072</ele>
        <time>2018-02-10T15:06:51Z</time>
      </trkpt>
      <trkpt lat="44.59334" lon="3.90414">
        <ele>1072</ele>
        <time>2018-02-10T15:06:54Z</time>
      </trkpt>
      <trkpt lat="44.59334" lon="3.90414">
        <ele>1072</ele>
        <time>2018-02-10T15:06:57Z</time>
      </trkpt>
      <trkpt lat="44.59334" lon="3.90414">
        <ele>1072</ele>
        <time>2018-02-10T15:07:01Z</time>
      </trkpt>
      <trkpt lat="44.59334" lon="3.90414">
        <ele>1072</ele>
        <time>2018-02-10T15:07:05Z</time>
      </trkpt>
      <trkpt lat="44.59334" lon="3.90414">
        <ele>1072</ele>
        <time>2018-02-10T15:07:08Z</time>
      </trkpt>
      <trkpt lat="44.59334" lon="3.90415">
        <ele>1072</ele>
        <time>2018-02-10T15:07:11Z</time>
      </trkpt>
      <trkpt lat="44.59334" lon="3.90415">
        <ele>1072</ele>
        <time>2018-02-10T15:07:15Z</time>
      </trkpt>
      <trkpt lat="44.59334" lon="3.90415">
        <ele>1072</ele>
        <time>2018-02-10T15:07:18Z</time>
      </trkpt>
      <trkpt lat="44.59334" lon="3.90415">
        <ele>1072</ele>
        <time>2018-02-10T15:07:22Z</time>
      </trkpt>
      <trkpt lat="44.59334" lon="3.90415">
        <ele>1072</ele>
        <time>2018-02-10T15:07:25Z</time>
      </trkpt>
      <trkpt lat="44.59334" lon="3.90415">
        <ele>1072</ele>
        <time>2018-02-10T15:07:28Z</time>
      </trkpt>
      <trkpt lat="44.59334" lon="3.90415">
        <ele>1072</ele>
        <time>2018-02-10T15:07:31Z</time>
      </trkpt>
      <trkpt lat="44.59334" lon="3.90415">
        <ele>1072</ele>
        <time>2018-02-10T15:07:35Z</time>
      </trkpt>
      <trkpt lat="44.59334" lon="3.90415">
        <ele>1072</ele>
        <time>2018-02-10T15:07:38Z</time>
      </trkpt>
      <trkpt lat="44.59334" lon="3.90415">
        <ele>1072</ele>
        <time>2018-02-10T15:07:42Z</time>
      </trkpt>
      <trkpt lat="44.59334" lon="3.90415">
        <ele>1072</ele>
        <time>2018-02-10T15:07:46Z</time>
      </trkpt>
      <trkpt lat="44.59334" lon="3.90415">
        <ele>1072</ele>
        <time>2018-02-10T15:07:49Z</time>
      </trkpt>
      <trkpt lat="44.59334" lon="3.90415">
        <ele>1072</ele>
        <time>2018-02-10T15:07:53Z</time>
      </trkpt>
      <trkpt lat="44.59334" lon="3.90415">
        <ele>1072</ele>
        <time>2018-02-10T15:07:56Z</time>
      </trkpt>
      <trkpt lat="44.59334" lon="3.90415">
        <ele>1072</ele>
        <time>2018-02-10T15:07:59Z</time>
      </trkpt>
      <trkpt lat="44.59334" lon="3.90415">
        <ele>1072</ele>
        <time>2018-02-10T15:08:03Z</time>
      </trkpt>
      <trkpt lat="44.59334" lon="3.90415">
        <ele>1072</ele>
        <time>2018-02-10T15:08:06Z</time>
      </trkpt>
      <trkpt lat="44.59334" lon="3.90415">
        <ele>1072</ele>
        <time>2018-02-10T15:08:09Z</time>
      </trkpt>
      <trkpt lat="44.59334" lon="3.90415">
        <ele>1072</ele>
        <time>2018-02-10T15:08:13Z</time>
      </trkpt>
      <trkpt lat="44.59334" lon="3.90415">
        <ele>1072</ele>
        <time>2018-02-10T15:08:16Z</time>
      </trkpt>
      <trkpt lat="44.59334" lon="3.90415">
        <ele>1072</ele>
        <time>2018-02-10T15:08:20Z</time>
      </trkpt>
      <trkpt lat="44.5933" lon="3.90415">
        <ele>1070</ele>
        <time>2018-02-10T15:08:24Z</time>
      </trkpt>
      <trkpt lat="44.59316" lon="3.9041">
        <ele>1072</ele>
        <time>2018-02-10T15:08:28Z</time>
      </trkpt>
      <trkpt lat="44.59304" lon="3.90406">
        <ele>1070</ele>
        <time>2018-02-10T15:08:31Z</time>
      </trkpt>
      <trkpt lat="44.59292" lon="3.90404">
        <ele>1070</ele>
        <time>2018-02-10T15:08:34Z</time>
      </trkpt>
      <trkpt lat="44.59278" lon="3.90397">
        <ele>1073</ele>
        <time>2018-02-10T15:08:37Z</time>
      </trkpt>
      <trkpt lat="44.59259" lon="3.90388">
        <ele>1071</ele>
        <time>2018-02-10T15:08:41Z</time>
      </trkpt>
      <trkpt lat="44.59245" lon="3.90383">
        <ele>1076</ele>
        <time>2018-02-10T15:08:44Z</time>
      </trkpt>
      <trkpt lat="44.59223" lon="3.9038">
        <ele>1078</ele>
        <time>2018-02-10T15:08:48Z</time>
      </trkpt>
      <trkpt lat="44.59211" lon="3.90375">
        <ele>1077</ele>
        <time>2018-02-10T15:08:51Z</time>
      </trkpt>
      <trkpt lat="44.592" lon="3.9037">
        <ele>1077</ele>
        <time>2018-02-10T15:08:54Z</time>
      </trkpt>
      <trkpt lat="44.59185" lon="3.90365">
        <ele>1078</ele>
        <time>2018-02-10T15:08:58Z</time>
      </trkpt>
      <trkpt lat="44.59173" lon="3.90364">
        <ele>1078</ele>
        <time>2018-02-10T15:09:01Z</time>
      </trkpt>
      <trkpt lat="44.59153" lon="3.90348">
        <ele>1071</ele>
        <time>2018-02-10T15:09:05Z</time>
      </trkpt>
      <trkpt lat="44.59139" lon="3.90345">
        <ele>1070</ele>
        <time>2018-02-10T15:09:08Z</time>
      </trkpt>
      <trkpt lat="44.59118" lon="3.90335">
        <ele>1068</ele>
        <time>2018-02-10T15:09:12Z</time>
      </trkpt>
      <trkpt lat="44.59098" lon="3.90331">
        <ele>1071</ele>
        <time>2018-02-10T15:09:16Z</time>
      </trkpt>
      <trkpt lat="44.59079" lon="3.90333">
        <ele>1073</ele>
        <time>2018-02-10T15:09:20Z</time>
      </trkpt>
      <trkpt lat="44.59067" lon="3.90322">
        <ele>1071</ele>
        <time>2018-02-10T15:09:23Z</time>
      </trkpt>
      <trkpt lat="44.59046" lon="3.90314">
        <ele>1074</ele>
        <time>2018-02-10T15:09:27Z</time>
      </trkpt>
      <trkpt lat="44.59028" lon="3.90308">
        <ele>1074</ele>
        <time>2018-02-10T15:09:30Z</time>
      </trkpt>
      <trkpt lat="44.59011" lon="3.90303">
        <ele>1072</ele>
        <time>2018-02-10T15:09:33Z</time>
      </trkpt>
      <trkpt lat="44.58986" lon="3.903">
        <ele>1076</ele>
        <time>2018-02-10T15:09:37Z</time>
      </trkpt>
      <trkpt lat="44.58962" lon="3.90293">
        <ele>1075</ele>
        <time>2018-02-10T15:09:41Z</time>
      </trkpt>
      <trkpt lat="44.58939" lon="3.9029">
        <ele>1075</ele>
        <time>2018-02-10T15:09:45Z</time>
      </trkpt>
      <trkpt lat="44.58915" lon="3.90288">
        <ele>1073</ele>
        <time>2018-02-10T15:09:49Z</time>
      </trkpt>
      <trkpt lat="44.58896" lon="3.90283">
        <ele>1073</ele>
        <time>2018-02-10T15:09:52Z</time>
      </trkpt>
      <trkpt lat="44.58868" lon="3.90278">
        <ele>1072</ele>
        <time>2018-02-10T15:09:56Z</time>
      </trkpt>
      <trkpt lat="44.58838" lon="3.90277">
        <ele>1074</ele>
        <time>2018-02-10T15:10:00Z</time>
      </trkpt>
      <trkpt lat="44.58801" lon="3.90274">
        <ele>1072</ele>
        <time>2018-02-10T15:10:04Z</time>
      </trkpt>
      <trkpt lat="44.58773" lon="3.90271">
        <ele>1072</ele>
        <time>2018-02-10T15:10:07Z</time>
      </trkpt>
      <trkpt lat="44.58728" lon="3.90268">
        <ele>1074</ele>
        <time>2018-02-10T15:10:11Z</time>
      </trkpt>
      <trkpt lat="44.5869" lon="3.90265">
        <ele>1073</ele>
        <time>2018-02-10T15:10:14Z</time>
      </trkpt>
      <trkpt lat="44.5864" lon="3.90259">
        <ele>1075</ele>
        <time>2018-02-10T15:10:18Z</time>
      </trkpt>
      <trkpt lat="44.5858" lon="3.90246">
        <ele>1078</ele>
        <time>2018-02-10T15:10:22Z</time>
      </trkpt>
      <trkpt lat="44.58521" lon="3.90239">
        <ele>1078</ele>
        <time>2018-02-10T15:10:26Z</time>
      </trkpt>
      <trkpt lat="44.58477" lon="3.90237">
        <ele>1079</ele>
        <time>2018-02-10T15:10:29Z</time>
      </trkpt>
      <trkpt lat="44.5842" lon="3.9025">
        <ele>1078</ele>
        <time>2018-02-10T15:10:33Z</time>
      </trkpt>
      <trkpt lat="44.57517" lon="3.90918">
        <ele>1074</ele>
        <time>2018-02-10T15:11:26Z</time>
      </trkpt>
      <trkpt lat="44.57456" lon="3.91">
        <ele>1075</ele>
        <time>2018-02-10T15:11:30Z</time>
      </trkpt>
      <trkpt lat="44.57079" lon="3.91261">
        <ele>1071</ele>
        <time>2018-02-10T15:11:51Z</time>
      </trkpt>
      <trkpt lat="44.57" lon="3.91287">
        <ele>1075</ele>
        <time>2018-02-10T15:11:55Z</time>
      </trkpt>
      <trkpt lat="44.56926" lon="3.9133">
        <ele>1075</ele>
        <time>2018-02-10T15:11:59Z</time>
      </trkpt>
      <trkpt lat="44.56877" lon="3.9137">
        <ele>1074</ele>
        <time>2018-02-10T15:12:02Z</time>
      </trkpt>
      <trkpt lat="44.56711" lon="3.9151">
        <ele>1072</ele>
        <time>2018-02-10T15:12:12Z</time>
      </trkpt>
      <trkpt lat="44.56646" lon="3.91555">
        <ele>1068</ele>
        <time>2018-02-10T15:12:16Z</time>
      </trkpt>
      <trkpt lat="44.56562" lon="3.91538">
        <ele>1070</ele>
        <time>2018-02-10T15:12:20Z</time>
      </trkpt>
      <trkpt lat="44.56486" lon="3.91495">
        <ele>1067</ele>
        <time>2018-02-10T15:12:24Z</time>
      </trkpt>
      <trkpt lat="44.56412" lon="3.91452">
        <ele>1062</ele>
        <time>2018-02-10T15:12:28Z</time>
      </trkpt>
      <trkpt lat="44.56357" lon="3.91423">
        <ele>1062</ele>
        <time>2018-02-10T15:12:31Z</time>
      </trkpt>
      <trkpt lat="44.56302" lon="3.91396">
        <ele>1062</ele>
        <time>2018-02-10T15:12:34Z</time>
      </trkpt>
      <trkpt lat="44.5613" lon="3.91408">
        <ele>1060</ele>
        <time>2018-02-10T15:12:43Z</time>
      </trkpt>
      <trkpt lat="44.56052" lon="3.91439">
        <ele>1058</ele>
        <time>2018-02-10T15:12:47Z</time>
      </trkpt>
      <trkpt lat="44.55977" lon="3.91469">
        <ele>1056</ele>
        <time>2018-02-10T15:12:51Z</time>
      </trkpt>
      <trkpt lat="44.5592" lon="3.9149">
        <ele>1053</ele>
        <time>2018-02-10T15:12:54Z</time>
      </trkpt>
      <trkpt lat="44.54917" lon="3.91676">
        <ele>1041</ele>
        <time>2018-02-10T15:13:46Z</time>
      </trkpt>
      <trkpt lat="44.54839" lon="3.91631">
        <ele>1032</ele>
        <time>2018-02-10T15:13:50Z</time>
      </trkpt>
      <trkpt lat="44.54767" lon="3.91604">
        <ele>1024</ele>
        <time>2018-02-10T15:13:54Z</time>
      </trkpt>
      <trkpt lat="44.54688" lon="3.91572">
        <ele>1019</ele>
        <time>2018-02-10T15:13:58Z</time>
      </trkpt>
      <trkpt lat="44.54613" lon="3.91547">
        <ele>1012</ele>
        <time>2018-02-10T15:14:02Z</time>
      </trkpt>
      <trkpt lat="44.54095" lon="3.91472">
        <ele>1009</ele>
        <time>2018-02-10T15:14:28Z</time>
      </trkpt>
      <trkpt lat="44.54017" lon="3.91504">
        <ele>1004</ele>
        <time>2018-02-10T15:14:32Z</time>
      </trkpt>
      <trkpt lat="44.53936" lon="3.91506">
        <ele>1004</ele>
        <time>2018-02-10T15:14:36Z</time>
      </trkpt>
      <trkpt lat="44.5386" lon="3.91508">
        <ele>993</ele>
        <time>2018-02-10T15:14:40Z</time>
      </trkpt>
      <trkpt lat="44.53648" lon="3.91491">
        <ele>992</ele>
        <time>2018-02-10T15:14:51Z</time>
      </trkpt>
      <trkpt lat="44.53575" lon="3.91416">
        <ele>987</ele>
        <time>2018-02-10T15:14:55Z</time>
      </trkpt>
      <trkpt lat="44.53507" lon="3.91358">
        <ele>987</ele>
        <time>2018-02-10T15:14:59Z</time>
      </trkpt>
      <trkpt lat="44.53439" lon="3.913">
        <ele>984</ele>
        <time>2018-02-10T15:15:03Z</time>
      </trkpt>
      <trkpt lat="44.53375" lon="3.91248">
        <ele>981</ele>
        <time>2018-02-10T15:15:07Z</time>
      </trkpt>
      <trkpt lat="44.5325" lon="3.9115">
        <ele>981</ele>
        <time>2018-02-10T15:15:14Z</time>
      </trkpt>
      <trkpt lat="44.53203" lon="3.91108">
        <ele>973</ele>
        <time>2018-02-10T15:15:17Z</time>
      </trkpt>
      <trkpt lat="44.53153" lon="3.91066">
        <ele>972</ele>
        <time>2018-02-10T15:15:20Z</time>
      </trkpt>
      <trkpt lat="44.53099" lon="3.91029">
        <ele>972</ele>
        <time>2018-02-10T15:15:23Z</time>
      </trkpt>
      <trkpt lat="44.53022" lon="3.90991">
        <ele>968</ele>
        <time>2018-02-10T15:15:27Z</time>
      </trkpt>
      <trkpt lat="44.52968" lon="3.90979">
        <ele>967</ele>
        <time>2018-02-10T15:15:30Z</time>
      </trkpt>
      <trkpt lat="44.52909" lon="3.90972">
        <ele>966</ele>
        <time>2018-02-10T15:15:33Z</time>
      </trkpt>
      <trkpt lat="44.52825" lon="3.90962">
        <ele>964</ele>
        <time>2018-02-10T15:15:37Z</time>
      </trkpt>
      <trkpt lat="44.52785" lon="3.90961">
        <ele>963</ele>
        <time>2018-02-10T15:15:39Z</time>
      </trkpt>
      <trkpt lat="44.52687" lon="3.90949">
        <ele>960</ele>
        <time>2018-02-10T15:15:44Z</time>
      </trkpt>
      <trkpt lat="44.52606" lon="3.90935">
        <ele>961</ele>
        <time>2018-02-10T15:15:48Z</time>
      </trkpt>
      <trkpt lat="44.52527" lon="3.9096">
        <ele>959</ele>
        <time>2018-02-10T15:15:52Z</time>
      </trkpt>
      <trkpt lat="44.52453" lon="3.91009">
        <ele>958</ele>
        <time>2018-02-10T15:15:56Z</time>
      </trkpt>
      <trkpt lat="44.52407" lon="3.91064">
        <ele>956</ele>
        <time>2018-02-10T15:15:59Z</time>
      </trkpt>
      <trkpt lat="44.5236" lon="3.91129">
        <ele>954</ele>
        <time>2018-02-10T15:16:02Z</time>
      </trkpt>
      <trkpt lat="44.52293" lon="3.91201">
        <ele>953</ele>
        <time>2018-02-10T15:16:06Z</time>
      </trkpt>
      <trkpt lat="44.52216" lon="3.91234">
        <ele>950</ele>
        <time>2018-02-10T15:16:10Z</time>
      </trkpt>
      <trkpt lat="44.52139" lon="3.9124">
        <ele>949</ele>
        <time>2018-02-10T15:16:14Z</time>
      </trkpt>
      <trkpt lat="44.52083" lon="3.9121">
        <ele>947</ele>
        <time>2018-02-10T15:16:17Z</time>
      </trkpt>
      <trkpt lat="44.52013" lon="3.91153">
        <ele>942</ele>
        <time>2018-02-10T15:16:21Z</time>
      </trkpt>
      <trkpt lat="44.5195" lon="3.91091">
        <ele>939</ele>
        <time>2018-02-10T15:16:25Z</time>
      </trkpt>
      <trkpt lat="44.51875" lon="3.9105">
        <ele>937</ele>
        <time>2018-02-10T15:16:29Z</time>
      </trkpt>
      <trkpt lat="44.51818" lon="3.91037">
        <ele>936</ele>
        <time>2018-02-10T15:16:32Z</time>
      </trkpt>
      <trkpt lat="44.5174" lon="3.91023">
        <ele>934</ele>
        <time>2018-02-10T15:16:36Z</time>
      </trkpt>
      <trkpt lat="44.51633" lon="3.91128">
        <ele>933</ele>
        <time>2018-02-10T15:16:42Z</time>
      </trkpt>
      <trkpt lat="44.51598" lon="3.91188">
        <ele>927</ele>
        <time>2018-02-10T15:16:45Z</time>
      </trkpt>
      <trkpt lat="44.51557" lon="3.91251">
        <ele>921</ele>
        <time>2018-02-10T15:16:48Z</time>
      </trkpt>
      <trkpt lat="44.51493" lon="3.91303">
        <ele>918</ele>
        <time>2018-02-10T15:16:52Z</time>
      </trkpt>
      <trkpt lat="44.51432" lon="3.9133">
        <ele>918</ele>
        <time>2018-02-10T15:16:55Z</time>
      </trkpt>
      <trkpt lat="44.51376" lon="3.91338">
        <ele>917</ele>
        <time>2018-02-10T15:16:58Z</time>
      </trkpt>
      <trkpt lat="44.51298" lon="3.91311">
        <ele>916</ele>
        <time>2018-02-10T15:17:02Z</time>
      </trkpt>
      <trkpt lat="44.51245" lon="3.91277">
        <ele>914</ele>
        <time>2018-02-10T15:17:05Z</time>
      </trkpt>
      <trkpt lat="44.51191" lon="3.91241">
        <ele>915</ele>
        <time>2018-02-10T15:17:08Z</time>
      </trkpt>
      <trkpt lat="44.51115" lon="3.91203">
        <ele>914</ele>
        <time>2018-02-10T15:17:12Z</time>
      </trkpt>
      <trkpt lat="44.51056" lon="3.91194">
        <ele>916</ele>
        <time>2018-02-10T15:17:15Z</time>
      </trkpt>
      <trkpt lat="44.50977" lon="3.91207">
        <ele>917</ele>
        <time>2018-02-10T15:17:19Z</time>
      </trkpt>
      <trkpt lat="44.50926" lon="3.91239">
        <ele>910</ele>
        <time>2018-02-10T15:17:22Z</time>
      </trkpt>
      <trkpt lat="44.50879" lon="3.91288">
        <ele>899</ele>
        <time>2018-02-10T15:17:25Z</time>
      </trkpt>
      <trkpt lat="44.50817" lon="3.91365">
        <ele>897</ele>
        <time>2018-02-10T15:17:29Z</time>
      </trkpt>
      <trkpt lat="44.50751" lon="3.91442">
        <ele>896</ele>
        <time>2018-02-10T15:17:33Z</time>
      </trkpt>
      <trkpt lat="44.50722" lon="3.9149">
        <ele>890</ele>
        <time>2018-02-10T15:17:36Z</time>
      </trkpt>
      <trkpt lat="44.50638" lon="3.91736">
        <ele>888</ele>
        <time>2018-02-10T15:17:46Z</time>
      </trkpt>
      <trkpt lat="44.50645" lon="3.91856">
        <ele>888</ele>
        <time>2018-02-10T15:17:50Z</time>
      </trkpt>
      <trkpt lat="44.50664" lon="3.9194">
        <ele>885</ele>
        <time>2018-02-10T15:17:53Z</time>
      </trkpt>
      <trkpt lat="44.5068" lon="3.92023">
        <ele>885</ele>
        <time>2018-02-10T15:17:56Z</time>
      </trkpt>
      <trkpt lat="44.50689" lon="3.92107">
        <ele>884</ele>
        <time>2018-02-10T15:17:59Z</time>
      </trkpt>
      <trkpt lat="44.50623" lon="3.92338">
        <ele>882</ele>
        <time>2018-02-10T15:18:08Z</time>
      </trkpt>
      <trkpt lat="44.50578" lon="3.92438">
        <ele>877</ele>
        <time>2018-02-10T15:18:12Z</time>
      </trkpt>
      <trkpt lat="44.50584" lon="3.92545">
        <ele>874</ele>
        <time>2018-02-10T15:18:16Z</time>
      </trkpt>
      <trkpt lat="44.5056" lon="3.92617">
        <ele>870</ele>
        <time>2018-02-10T15:18:19Z</time>
      </trkpt>
      <trkpt lat="44.50519" lon="3.92711">
        <ele>867</ele>
        <time>2018-02-10T15:18:23Z</time>
      </trkpt>
      <trkpt lat="44.50482" lon="3.92756">
        <ele>863</ele>
        <time>2018-02-10T15:18:26Z</time>
      </trkpt>
      <trkpt lat="44.50393" lon="3.92819">
        <ele>863</ele>
        <time>2018-02-10T15:18:30Z</time>
      </trkpt>
      <trkpt lat="44.50341" lon="3.92865">
        <ele>858</ele>
        <time>2018-02-10T15:18:33Z</time>
      </trkpt>
      <trkpt lat="44.50277" lon="3.92928">
        <ele>854</ele>
        <time>2018-02-10T15:18:37Z</time>
      </trkpt>
      <trkpt lat="44.50233" lon="3.92983">
        <ele>848</ele>
        <time>2018-02-10T15:18:40Z</time>
      </trkpt>
      <trkpt lat="44.50182" lon="3.93073">
        <ele>843</ele>
        <time>2018-02-10T15:18:44Z</time>
      </trkpt>
      <trkpt lat="44.50138" lon="3.93162">
        <ele>843</ele>
        <time>2018-02-10T15:18:48Z</time>
      </trkpt>
      <trkpt lat="44.50101" lon="3.93224">
        <ele>842</ele>
        <time>2018-02-10T15:18:51Z</time>
      </trkpt>
      <trkpt lat="44.50047" lon="3.93293">
        <ele>843</ele>
        <time>2018-02-10T15:18:55Z</time>
      </trkpt>
      <trkpt lat="44.4998" lon="3.93357">
        <ele>846</ele>
        <time>2018-02-10T15:18:59Z</time>
      </trkpt>
      <trkpt lat="44.49901" lon="3.93397">
        <ele>842</ele>
        <time>2018-02-10T15:19:03Z</time>
      </trkpt>
      <trkpt lat="44.49825" lon="3.93406">
        <ele>843</ele>
        <time>2018-02-10T15:19:07Z</time>
      </trkpt>
      <trkpt lat="44.48724" lon="3.92181">
        <ele>836</ele>
        <time>2018-02-10T15:20:20Z</time>
      </trkpt>
      <trkpt lat="44.48666" lon="3.92136">
        <ele>828</ele>
        <time>2018-02-10T15:20:23Z</time>
      </trkpt>
      <trkpt lat="44.48584" lon="3.92123">
        <ele>821</ele>
        <time>2018-02-10T15:20:27Z</time>
      </trkpt>
      <trkpt lat="44.48505" lon="3.92137">
        <ele>820</ele>
        <time>2018-02-10T15:20:31Z</time>
      </trkpt>
      <trkpt lat="44.48452" lon="3.92161">
        <ele>816</ele>
        <time>2018-02-10T15:20:34Z</time>
      </trkpt>
      <trkpt lat="44.48396" lon="3.92184">
        <ele>816</ele>
        <time>2018-02-10T15:20:37Z</time>
      </trkpt>
      <trkpt lat="44.48315" lon="3.92204">
        <ele>817</ele>
        <time>2018-02-10T15:20:41Z</time>
      </trkpt>
      <trkpt lat="44.48258" lon="3.92197">
        <ele>810</ele>
        <time>2018-02-10T15:20:44Z</time>
      </trkpt>
      <trkpt lat="44.48183" lon="3.92185">
        <ele>807</ele>
        <time>2018-02-10T15:20:48Z</time>
      </trkpt>
      <trkpt lat="44.48104" lon="3.92167">
        <ele>809</ele>
        <time>2018-02-10T15:20:52Z</time>
      </trkpt>
      <trkpt lat="44.48055" lon="3.92155">
        <ele>804</ele>
        <time>2018-02-10T15:20:55Z</time>
      </trkpt>
      <trkpt lat="44.47979" lon="3.92139">
        <ele>803</ele>
        <time>2018-02-10T15:20:59Z</time>
      </trkpt>
      <trkpt lat="44.47905" lon="3.92122">
        <ele>804</ele>
        <time>2018-02-10T15:21:03Z</time>
      </trkpt>
      <trkpt lat="44.47856" lon="3.92118">
        <ele>804</ele>
        <time>2018-02-10T15:21:06Z</time>
      </trkpt>
      <trkpt lat="44.47789" lon="3.92108">
        <ele>804</ele>
        <time>2018-02-10T15:21:10Z</time>
      </trkpt>
      <trkpt lat="44.47635" lon="3.92083">
        <ele>802</ele>
        <time>2018-02-10T15:21:22Z</time>
      </trkpt>
      <trkpt lat="44.47584" lon="3.92081">
        <ele>802</ele>
        <time>2018-02-10T15:21:25Z</time>
      </trkpt>
      <trkpt lat="44.47535" lon="3.92089">
        <ele>804</ele>
        <time>2018-02-10T15:21:28Z</time>
      </trkpt>
      <trkpt lat="44.47477" lon="3.92117">
        <ele>805</ele>
        <time>2018-02-10T15:21:32Z</time>
      </trkpt>
      <trkpt lat="44.47435" lon="3.92135">
        <ele>805</ele>
        <time>2018-02-10T15:21:35Z</time>
      </trkpt>
      <trkpt lat="44.47391" lon="3.92146">
        <ele>805</ele>
        <time>2018-02-10T15:21:38Z</time>
      </trkpt>
      <trkpt lat="44.47292" lon="3.92153">
        <ele>804</ele>
        <time>2018-02-10T15:21:45Z</time>
      </trkpt>
      <trkpt lat="44.47234" lon="3.92141">
        <ele>803</ele>
        <time>2018-02-10T15:21:49Z</time>
      </trkpt>
      <trkpt lat="44.47169" lon="3.92125">
        <ele>802</ele>
        <time>2018-02-10T15:21:53Z</time>
      </trkpt>
      <trkpt lat="44.47117" lon="3.92129">
        <ele>803</ele>
        <time>2018-02-10T15:21:56Z</time>
      </trkpt>
      <trkpt lat="44.4707" lon="3.9212">
        <ele>802</ele>
        <time>2018-02-10T15:21:59Z</time>
      </trkpt>
      <trkpt lat="44.47002" lon="3.92106">
        <ele>797</ele>
        <time>2018-02-10T15:22:03Z</time>
      </trkpt>
      <trkpt lat="44.46715" lon="3.91799">
        <ele>795</ele>
        <time>2018-02-10T15:22:23Z</time>
      </trkpt>
      <trkpt lat="44.46647" lon="3.9175">
        <ele>792</ele>
        <time>2018-02-10T15:22:27Z</time>
      </trkpt>
      <trkpt lat="44.46571" lon="3.91735">
        <ele>790</ele>
        <time>2018-02-10T15:22:31Z</time>
      </trkpt>
      <trkpt lat="44.46376" lon="3.91741">
        <ele>789</ele>
        <time>2018-02-10T15:22:41Z</time>
      </trkpt>
      <trkpt lat="44.46318" lon="3.91752">
        <ele>785</ele>
        <time>2018-02-10T15:22:44Z</time>
      </trkpt>
      <trkpt lat="44.46247" lon="3.91795">
        <ele>784</ele>
        <time>2018-02-10T15:22:48Z</time>
      </trkpt>
      <trkpt lat="44.45914" lon="3.91906">
        <ele>780</ele>
        <time>2018-02-10T15:23:05Z</time>
      </trkpt>
      <trkpt lat="44.45855" lon="3.91962">
        <ele>771</ele>
        <time>2018-02-10T15:23:09Z</time>
      </trkpt>
      <trkpt lat="44.45802" lon="3.92035">
        <ele>772</ele>
        <time>2018-02-10T15:23:13Z</time>
      </trkpt>
      <trkpt lat="44.45786" lon="3.92087">
        <ele>747</ele>
        <time>2018-02-10T15:23:16Z</time>
      </trkpt>
      <trkpt lat="44.45731" lon="3.92167">
        <ele>743</ele>
        <time>2018-02-10T15:23:20Z</time>
      </trkpt>
      <trkpt lat="44.4568" lon="3.92249">
        <ele>745</ele>
        <time>2018-02-10T15:23:24Z</time>
      </trkpt>
      <trkpt lat="44.45643" lon="3.92297">
        <ele>740</ele>
        <time>2018-02-10T15:23:27Z</time>
      </trkpt>
      <trkpt lat="44.45589" lon="3.92321">
        <ele>721</ele>
        <time>2018-02-10T15:23:30Z</time>
      </trkpt>
      <trkpt lat="44.45504" lon="3.92338">
        <ele>710</ele>
        <time>2018-02-10T15:23:34Z</time>
      </trkpt>
      <trkpt lat="44.45241" lon="3.92146">
        <ele>705</ele>
        <time>2018-02-10T15:23:50Z</time>
      </trkpt>
      <trkpt lat="44.45205" lon="3.92095">
        <ele>704</ele>
        <time>2018-02-10T15:23:53Z</time>
      </trkpt>
      <trkpt lat="44.45142" lon="3.92058">
        <ele>704</ele>
        <time>2018-02-10T15:23:57Z</time>
      </trkpt>
      <trkpt lat="44.45091" lon="3.92036">
        <ele>705</ele>
        <time>2018-02-10T15:24:00Z</time>
      </trkpt>
      <trkpt lat="44.45041" lon="3.92028">
        <ele>704</ele>
        <time>2018-02-10T15:24:03Z</time>
      </trkpt>
      <trkpt lat="44.44973" lon="3.91985">
        <ele>703</ele>
        <time>2018-02-10T15:24:07Z</time>
      </trkpt>
      <trkpt lat="44.44823" lon="3.91829">
        <ele>697</ele>
        <time>2018-02-10T15:24:19Z</time>
      </trkpt>
      <trkpt lat="44.44777" lon="3.91739">
        <ele>674</ele>
        <time>2018-02-10T15:24:23Z</time>
      </trkpt>
      <trkpt lat="44.4473" lon="3.91706">
        <ele>677</ele>
        <time>2018-02-10T15:24:26Z</time>
      </trkpt>
      <trkpt lat="44.44669" lon="3.91681">
        <ele>670</ele>
        <time>2018-02-10T15:24:29Z</time>
      </trkpt>
      <trkpt lat="44.44619" lon="3.91665">
        <ele>669</ele>
        <time>2018-02-10T15:24:32Z</time>
      </trkpt>
      <trkpt lat="44.44556" lon="3.91658">
        <ele>668</ele>
        <time>2018-02-10T15:24:36Z</time>
      </trkpt>
      <trkpt lat="44.44497" lon="3.91652">
        <ele>667</ele>
        <time>2018-02-10T15:24:40Z</time>
      </trkpt>
      <trkpt lat="44.43936" lon="3.919">
        <ele>668</ele>
        <time>2018-02-10T15:25:20Z</time>
      </trkpt>
      <trkpt lat="44.43922" lon="3.91957">
        <ele>659</ele>
        <time>2018-02-10T15:25:24Z</time>
      </trkpt>
      <trkpt lat="44.43914" lon="3.92026">
        <ele>658</ele>
        <time>2018-02-10T15:25:28Z</time>
      </trkpt>
      <trkpt lat="44.43919" lon="3.92086">
        <ele>656</ele>
        <time>2018-02-10T15:25:32Z</time>
      </trkpt>
      <trkpt lat="44.43923" lon="3.92147">
        <ele>657</ele>
        <time>2018-02-10T15:25:36Z</time>
      </trkpt>
      <trkpt lat="44.43926" lon="3.92183">
        <ele>658</ele>
        <time>2018-02-10T15:25:39Z</time>
      </trkpt>
      <trkpt lat="44.43927" lon="3.92225">
        <ele>659</ele>
        <time>2018-02-10T15:25:42Z</time>
      </trkpt>
      <trkpt lat="44.43939" lon="3.92272">
        <ele>658</ele>
        <time>2018-02-10T15:25:46Z</time>
      </trkpt>
      <trkpt lat="44.43949" lon="3.92321">
        <ele>660</ele>
        <time>2018-02-10T15:25:50Z</time>
      </trkpt>
      <trkpt lat="44.43949" lon="3.92341">
        <ele>655</ele>
        <time>2018-02-10T15:25:53Z</time>
      </trkpt>
      <trkpt lat="44.43947" lon="3.9237">
        <ele>655</ele>
        <time>2018-02-10T15:25:56Z</time>
      </trkpt>
      <trkpt lat="44.43942" lon="3.9238">
        <ele>655</ele>
        <time>2018-02-10T15:26:00Z</time>
      </trkpt>
      <trkpt lat="44.43953" lon="3.92379">
        <ele>660</ele>
        <time>2018-02-10T15:26:04Z</time>
      </trkpt>
      <trkpt lat="44.43957" lon="3.92379">
        <ele>664</ele>
        <time>2018-02-10T15:26:38Z</time>
      </trkpt>
      <trkpt lat="44.43957" lon="3.92379">
        <ele>665</ele>
        <time>2018-02-10T15:26:41Z</time>
      </trkpt>
      <trkpt lat="44.43957" lon="3.92379">
        <ele>664</ele>
        <time>2018-02-10T15:26:45Z</time>
      </trkpt>
      <trkpt lat="44.43957" lon="3.9238">
        <ele>664</ele>
        <time>2018-02-10T15:26:49Z</time>
      </trkpt>
      <trkpt lat="44.43957" lon="3.9238">
        <ele>664</ele>
        <time>2018-02-10T15:26:53Z</time>
      </trkpt>
      <trkpt lat="44.43957" lon="3.92379">
        <ele>664</ele>
        <time>2018-02-10T15:26:56Z</time>
      </trkpt>
      <trkpt lat="44.43957" lon="3.9238">
        <ele>664</ele>
        <time>2018-02-10T15:27:00Z</time>
      </trkpt>
      <trkpt lat="44.43967" lon="3.92415">
        <ele>660</ele>
        <time>2018-02-10T15:27:03Z</time>
      </trkpt>
      <trkpt lat="44.43974" lon="3.92476">
        <ele>660</ele>
        <time>2018-02-10T15:27:07Z</time>
      </trkpt>
      <trkpt lat="44.43984" lon="3.9251">
        <ele>657</ele>
        <time>2018-02-10T15:27:10Z</time>
      </trkpt>
      <trkpt lat="44.43988" lon="3.9256">
        <ele>653</ele>
        <time>2018-02-10T15:27:14Z</time>
      </trkpt>
      <trkpt lat="44.43995" lon="3.92614">
        <ele>656</ele>
        <time>2018-02-10T15:27:18Z</time>
      </trkpt>
      <trkpt lat="44.43999" lon="3.92654">
        <ele>656</ele>
        <time>2018-02-10T15:27:21Z</time>
      </trkpt>
      <trkpt lat="44.44006" lon="3.92711">
        <ele>656</ele>
        <time>2018-02-10T15:27:25Z</time>
      </trkpt>
      <trkpt lat="44.44016" lon="3.92772">
        <ele>658</ele>
        <time>2018-02-10T15:27:29Z</time>
      </trkpt>
      <trkpt lat="44.44019" lon="3.92817">
        <ele>656</ele>
        <time>2018-02-10T15:27:32Z</time>
      </trkpt>
      <trkpt lat="44.43841" lon="3.93132">
        <ele>656</ele>
        <time>2018-02-10T15:27:53Z</time>
      </trkpt>
      <trkpt lat="44.43789" lon="3.93166">
        <ele>654</ele>
        <time>2018-02-10T15:27:56Z</time>
      </trkpt>
      <trkpt lat="44.43732" lon="3.93204">
        <ele>653</ele>
        <time>2018-02-10T15:28:00Z</time>
      </trkpt>
      <trkpt lat="44.43675" lon="3.93245">
        <ele>655</ele>
        <time>2018-02-10T15:28:03Z</time>
      </trkpt>
      <trkpt lat="44.43639" lon="3.93286">
        <ele>654</ele>
        <time>2018-02-10T15:28:06Z</time>
      </trkpt>
      <trkpt lat="44.43587" lon="3.9334">
        <ele>652</ele>
        <time>2018-02-10T15:28:10Z</time>
      </trkpt>
      <trkpt lat="44.43532" lon="3.93386">
        <ele>657</ele>
        <time>2018-02-10T15:28:14Z</time>
      </trkpt>
      <trkpt lat="44.43479" lon="3.93406">
        <ele>658</ele>
        <time>2018-02-10T15:28:17Z</time>
      </trkpt>
      <trkpt lat="44.43404" lon="3.93399">
        <ele>660</ele>
        <time>2018-02-10T15:28:21Z</time>
      </trkpt>
      <trkpt lat="44.43343" lon="3.93396">
        <ele>657</ele>
        <time>2018-02-10T15:28:25Z</time>
      </trkpt>
      <trkpt lat="44.42929" lon="3.93677">
        <ele>655</ele>
        <time>2018-02-10T15:28:52Z</time>
      </trkpt>
      <trkpt lat="44.42884" lon="3.93677">
        <ele>646</ele>
        <time>2018-02-10T15:28:55Z</time>
      </trkpt>
      <trkpt lat="44.4283" lon="3.93657">
        <ele>651</ele>
        <time>2018-02-10T15:28:58Z</time>
      </trkpt>
      <trkpt lat="44.42785" lon="3.93624">
        <ele>648</ele>
        <time>2018-02-10T15:29:01Z</time>
      </trkpt>
      <trkpt lat="44.42724" lon="3.93583">
        <ele>648</ele>
        <time>2018-02-10T15:29:05Z</time>
      </trkpt>
      <trkpt lat="44.42656" lon="3.93562">
        <ele>650</ele>
        <time>2018-02-10T15:29:09Z</time>
      </trkpt>
      <trkpt lat="44.42602" lon="3.93565">
        <ele>651</ele>
        <time>2018-02-10T15:29:12Z</time>
      </trkpt>
      <trkpt lat="44.42554" lon="3.93583">
        <ele>651</ele>
        <time>2018-02-10T15:29:15Z</time>
      </trkpt>
      <trkpt lat="44.4249" lon="3.93638">
        <ele>655</ele>
        <time>2018-02-10T15:29:19Z</time>
      </trkpt>
      <trkpt lat="44.42431" lon="3.93674">
        <ele>654</ele>
        <time>2018-02-10T15:29:23Z</time>
      </trkpt>
      <trkpt lat="44.42372" lon="3.93688">
        <ele>652</ele>
        <time>2018-02-10T15:29:27Z</time>
      </trkpt>
      <trkpt lat="44.42301" lon="3.93688">
        <ele>651</ele>
        <time>2018-02-10T15:29:31Z</time>
      </trkpt>
      <trkpt lat="44.41924" lon="3.93124">
        <ele>647</ele>
        <time>2018-02-10T15:30:02Z</time>
      </trkpt>
      <trkpt lat="44.41891" lon="3.93075">
        <ele>649</ele>
        <time>2018-02-10T15:30:05Z</time>
      </trkpt>
      <trkpt lat="44.41838" lon="3.93016">
        <ele>650</ele>
        <time>2018-02-10T15:30:09Z</time>
      </trkpt>
      <trkpt lat="44.41792" lon="3.92972">
        <ele>648</ele>
        <time>2018-02-10T15:30:12Z</time>
      </trkpt>
      <trkpt lat="44.41722" lon="3.92965">
        <ele>643</ele>
        <time>2018-02-10T15:30:16Z</time>
      </trkpt>
      <trkpt lat="44.41663" lon="3.92971">
        <ele>642</ele>
        <time>2018-02-10T15:30:19Z</time>
      </trkpt>
      <trkpt lat="44.41453" lon="3.9316">
        <ele>638</ele>
        <time>2018-02-10T15:30:32Z</time>
      </trkpt>
      <trkpt lat="44.41456" lon="3.933">
        <ele>644</ele>
        <time>2018-02-10T15:30:36Z</time>
      </trkpt>
      <trkpt lat="44.41442" lon="3.93382">
        <ele>645</ele>
        <time>2018-02-10T15:30:39Z</time>
      </trkpt>
      <trkpt lat="44.41426" lon="3.93484">
        <ele>650</ele>
        <time>2018-02-10T15:30:43Z</time>
      </trkpt>
      <trkpt lat="44.41388" lon="3.93575">
        <ele>651</ele>
        <time>2018-02-10T15:30:47Z</time>
      </trkpt>
      <trkpt lat="44.41335" lon="3.93641">
        <ele>647</ele>
        <time>2018-02-10T15:30:51Z</time>
      </trkpt>
      <trkpt lat="44.41268" lon="3.93691">
        <ele>644</ele>
        <time>2018-02-10T15:30:55Z</time>
      </trkpt>
      <trkpt lat="44.41216" lon="3.93711">
        <ele>645</ele>
        <time>2018-02-10T15:30:58Z</time>
      </trkpt>
      <trkpt lat="44.40833" lon="3.93549">
        <ele>647</ele>
        <time>2018-02-10T15:31:20Z</time>
      </trkpt>
      <trkpt lat="44.40779" lon="3.93526">
        <ele>645</ele>
        <time>2018-02-10T15:31:23Z</time>
      </trkpt>
      <trkpt lat="44.40702" lon="3.93521">
        <ele>647</ele>
        <time>2018-02-10T15:31:27Z</time>
      </trkpt>
      <trkpt lat="44.40646" lon="3.93527">
        <ele>648</ele>
        <time>2018-02-10T15:31:30Z</time>
      </trkpt>
      <trkpt lat="44.4057" lon="3.93538">
        <ele>651</ele>
        <time>2018-02-10T15:31:34Z</time>
      </trkpt>
      <trkpt lat="44.40499" lon="3.93518">
        <ele>641</ele>
        <time>2018-02-10T15:31:38Z</time>
      </trkpt>
      <trkpt lat="44.40446" lon="3.935">
        <ele>638</ele>
        <time>2018-02-10T15:31:41Z</time>
      </trkpt>
      <trkpt lat="44.40369" lon="3.93484">
        <ele>641</ele>
        <time>2018-02-10T15:31:45Z</time>
      </trkpt>
      <trkpt lat="44.40293" lon="3.93476">
        <ele>638</ele>
        <time>2018-02-10T15:31:49Z</time>
      </trkpt>
      <trkpt lat="44.40238" lon="3.93484">
        <ele>639</ele>
        <time>2018-02-10T15:31:52Z</time>
      </trkpt>
      <trkpt lat="44.40183" lon="3.93499">
        <ele>638</ele>
        <time>2018-02-10T15:31:55Z</time>
      </trkpt>
      <trkpt lat="44.40017" lon="3.93474">
        <ele>640</ele>
        <time>2018-02-10T15:32:04Z</time>
      </trkpt>
      <trkpt lat="44.39966" lon="3.93462">
        <ele>635</ele>
        <time>2018-02-10T15:32:07Z</time>
      </trkpt>
      <trkpt lat="44.39892" lon="3.93473">
        <ele>640</ele>
        <time>2018-02-10T15:32:11Z</time>
      </trkpt>
      <trkpt lat="44.39817" lon="3.93498">
        <ele>640</ele>
        <time>2018-02-10T15:32:15Z</time>
      </trkpt>
      <trkpt lat="44.39751" lon="3.93533">
        <ele>640</ele>
        <time>2018-02-10T15:32:19Z</time>
      </trkpt>
      <trkpt lat="44.3968" lon="3.93562">
        <ele>640</ele>
        <time>2018-02-10T15:32:23Z</time>
      </trkpt>
      <trkpt lat="44.39634" lon="3.93602">
        <ele>639</ele>
        <time>2018-02-10T15:32:26Z</time>
      </trkpt>
      <trkpt lat="44.3957" lon="3.93654">
        <ele>640</ele>
        <time>2018-02-10T15:32:30Z</time>
      </trkpt>
      <trkpt lat="44.39509" lon="3.93709">
        <ele>639</ele>
        <time>2018-02-10T15:32:34Z</time>
      </trkpt>
      <trkpt lat="44.39447" lon="3.93766">
        <ele>639</ele>
        <time>2018-02-10T15:32:38Z</time>
      </trkpt>
      <trkpt lat="44.39397" lon="3.93799">
        <ele>637</ele>
        <time>2018-02-10T15:32:41Z</time>
      </trkpt>
      <trkpt lat="44.39348" lon="3.93849">
        <ele>637</ele>
        <time>2018-02-10T15:32:44Z</time>
      </trkpt>
      <trkpt lat="44.39284" lon="3.93896">
        <ele>638</ele>
        <time>2018-02-10T15:32:48Z</time>
      </trkpt>
      <trkpt lat="44.39235" lon="3.93914">
        <ele>640</ele>
        <time>2018-02-10T15:32:51Z</time>
      </trkpt>
      <trkpt lat="44.39158" lon="3.93946">
        <ele>643</ele>
        <time>2018-02-10T15:32:55Z</time>
      </trkpt>
      <trkpt lat="44.3911" lon="3.93954">
        <ele>637</ele>
        <time>2018-02-10T15:32:58Z</time>
      </trkpt>
      <trkpt lat="44.39058" lon="3.93946">
        <ele>635</ele>
        <time>2018-02-10T15:33:01Z</time>
      </trkpt>
      <trkpt lat="44.39005" lon="3.93931">
        <ele>632</ele>
        <time>2018-02-10T15:33:04Z</time>
      </trkpt>
      <trkpt lat="44.38951" lon="3.9393">
        <ele>638</ele>
        <time>2018-02-10T15:33:07Z</time>
      </trkpt>
      <trkpt lat="44.38899" lon="3.9394">
        <ele>638</ele>
        <time>2018-02-10T15:33:10Z</time>
      </trkpt>
      <trkpt lat="44.3882" lon="3.93983">
        <ele>638</ele>
        <time>2018-02-10T15:33:14Z</time>
      </trkpt>
      <trkpt lat="44.38769" lon="3.9405">
        <ele>644</ele>
        <time>2018-02-10T15:33:18Z</time>
      </trkpt>
      <trkpt lat="44.38716" lon="3.94118">
        <ele>642</ele>
        <time>2018-02-10T15:33:22Z</time>
      </trkpt>
      <trkpt lat="44.38311" lon="3.94527">
        <ele>643</ele>
        <time>2018-02-10T15:33:48Z</time>
      </trkpt>
      <trkpt lat="44.38259" lon="3.94594">
        <ele>645</ele>
        <time>2018-02-10T15:33:52Z</time>
      </trkpt>
      <trkpt lat="44.38222" lon="3.94634">
        <ele>650</ele>
        <time>2018-02-10T15:33:55Z</time>
      </trkpt>
      <trkpt lat="44.38194" lon="3.94701">
        <ele>647</ele>
        <time>2018-02-10T15:33:58Z</time>
      </trkpt>
      <trkpt lat="44.3817" lon="3.9479">
        <ele>632</ele>
        <time>2018-02-10T15:34:02Z</time>
      </trkpt>
      <trkpt lat="44.38149" lon="3.94864">
        <ele>628</ele>
        <time>2018-02-10T15:34:05Z</time>
      </trkpt>
      <trkpt lat="44.38139" lon="3.94964">
        <ele>624</ele>
        <time>2018-02-10T15:34:09Z</time>
      </trkpt>
      <trkpt lat="44.38136" lon="3.9504">
        <ele>621</ele>
        <time>2018-02-10T15:34:12Z</time>
      </trkpt>
      <trkpt lat="44.38124" lon="3.95134">
        <ele>617</ele>
        <time>2018-02-10T15:34:16Z</time>
      </trkpt>
      <trkpt lat="44.38119" lon="3.95229">
        <ele>613</ele>
        <time>2018-02-10T15:34:20Z</time>
      </trkpt>
      <trkpt lat="44.38106" lon="3.95325">
        <ele>612</ele>
        <time>2018-02-10T15:34:24Z</time>
      </trkpt>
      <trkpt lat="44.3808" lon="3.95407">
        <ele>614</ele>
        <time>2018-02-10T15:34:28Z</time>
      </trkpt>
      <trkpt lat="44.38054" lon="3.95485">
        <ele>615</ele>
        <time>2018-02-10T15:34:32Z</time>
      </trkpt>
      <trkpt lat="44.37814" lon="3.95584">
        <ele>614</ele>
        <time>2018-02-10T15:34:45Z</time>
      </trkpt>
      <trkpt lat="44.37747" lon="3.95532">
        <ele>612</ele>
        <time>2018-02-10T15:34:49Z</time>
      </trkpt>
      <trkpt lat="44.3769" lon="3.95517">
        <ele>612</ele>
        <time>2018-02-10T15:34:52Z</time>
      </trkpt>
      <trkpt lat="44.3764" lon="3.95497">
        <ele>611</ele>
        <time>2018-02-10T15:34:55Z</time>
      </trkpt>
      <trkpt lat="44.37553" lon="3.95463">
        <ele>609</ele>
        <time>2018-02-10T15:35:00Z</time>
      </trkpt>
      <trkpt lat="44.37492" lon="3.95423">
        <ele>600</ele>
        <time>2018-02-10T15:35:04Z</time>
      </trkpt>
      <trkpt lat="44.37443" lon="3.95392">
        <ele>594</ele>
        <time>2018-02-10T15:35:07Z</time>
      </trkpt>
      <trkpt lat="44.3738" lon="3.95345">
        <ele>587</ele>
        <time>2018-02-10T15:35:11Z</time>
      </trkpt>
      <trkpt lat="44.3732" lon="3.95312">
        <ele>587</ele>
        <time>2018-02-10T15:35:15Z</time>
      </trkpt>
      <trkpt lat="44.37259" lon="3.95259">
        <ele>586</ele>
        <time>2018-02-10T15:35:19Z</time>
      </trkpt>
      <trkpt lat="44.37219" lon="3.95212">
        <ele>586</ele>
        <time>2018-02-10T15:35:22Z</time>
      </trkpt>
      <trkpt lat="44.37176" lon="3.95151">
        <ele>587</ele>
        <time>2018-02-10T15:35:26Z</time>
      </trkpt>
      <trkpt lat="44.37149" lon="3.95086">
        <ele>590</ele>
        <time>2018-02-10T15:35:29Z</time>
      </trkpt>
      <trkpt lat="44.37108" lon="3.95034">
        <ele>586</ele>
        <time>2018-02-10T15:35:32Z</time>
      </trkpt>
      <trkpt lat="44.37068" lon="3.94991">
        <ele>586</ele>
        <time>2018-02-10T15:35:35Z</time>
      </trkpt>
      <trkpt lat="44.36425" lon="3.95094">
        <ele>579</ele>
        <time>2018-02-10T15:36:14Z</time>
      </trkpt>
      <trkpt lat="44.36333" lon="3.95091">
        <ele>583</ele>
        <time>2018-02-10T15:36:18Z</time>
      </trkpt>
      <trkpt lat="44.3627" lon="3.95089">
        <ele>578</ele>
        <time>2018-02-10T15:36:22Z</time>
      </trkpt>
      <trkpt lat="44.36225" lon="3.95106">
        <ele>574</ele>
        <time>2018-02-10T15:36:25Z</time>
      </trkpt>
      <trkpt lat="44.36168" lon="3.95144">
        <ele>571</ele>
        <time>2018-02-10T15:36:29Z</time>
      </trkpt>
      <trkpt lat="44.36133" lon="3.952">
        <ele>568</ele>
        <time>2018-02-10T15:36:33Z</time>
      </trkpt>
      <trkpt lat="44.36097" lon="3.95271">
        <ele>565</ele>
        <time>2018-02-10T15:36:37Z</time>
      </trkpt>
      <trkpt lat="44.36044" lon="3.9537">
        <ele>565</ele>
        <time>2018-02-10T15:36:42Z</time>
      </trkpt>
      <trkpt lat="44.36014" lon="3.9543">
        <ele>564</ele>
        <time>2018-02-10T15:36:45Z</time>
      </trkpt>
      <trkpt lat="44.35996" lon="3.95518">
        <ele>563</ele>
        <time>2018-02-10T15:36:49Z</time>
      </trkpt>
      <trkpt lat="44.35982" lon="3.95609">
        <ele>556</ele>
        <time>2018-02-10T15:36:53Z</time>
      </trkpt>
      <trkpt lat="44.3596" lon="3.957">
        <ele>554</ele>
        <time>2018-02-10T15:36:57Z</time>
      </trkpt>
      <trkpt lat="44.35921" lon="3.9576">
        <ele>552</ele>
        <time>2018-02-10T15:37:00Z</time>
      </trkpt>
      <trkpt lat="44.3587" lon="3.95835">
        <ele>552</ele>
        <time>2018-02-10T15:37:04Z</time>
      </trkpt>
      <trkpt lat="44.358" lon="3.95859">
        <ele>551</ele>
        <time>2018-02-10T15:37:08Z</time>
      </trkpt>
      <trkpt lat="44.35727" lon="3.95866">
        <ele>551</ele>
        <time>2018-02-10T15:37:12Z</time>
      </trkpt>
      <trkpt lat="44.35517" lon="3.95772">
        <ele>550</ele>
        <time>2018-02-10T15:37:25Z</time>
      </trkpt>
      <trkpt lat="44.35469" lon="3.95737">
        <ele>549</ele>
        <time>2018-02-10T15:37:28Z</time>
      </trkpt>
      <trkpt lat="44.35403" lon="3.957">
        <ele>551</ele>
        <time>2018-02-10T15:37:32Z</time>
      </trkpt>
      <trkpt lat="44.35342" lon="3.95649">
        <ele>549</ele>
        <time>2018-02-10T15:37:36Z</time>
      </trkpt>
      <trkpt lat="44.35279" lon="3.95595">
        <ele>541</ele>
        <time>2018-02-10T15:37:40Z</time>
      </trkpt>
      <trkpt lat="44.35218" lon="3.95547">
        <ele>542</ele>
        <time>2018-02-10T15:37:44Z</time>
      </trkpt>
      <trkpt lat="44.34909" lon="3.95253">
        <ele>541</ele>
        <time>2018-02-10T15:38:10Z</time>
      </trkpt>
      <trkpt lat="44.34877" lon="3.95249">
        <ele>541</ele>
        <time>2018-02-10T15:38:13Z</time>
      </trkpt>
      <trkpt lat="44.3484" lon="3.95219">
        <ele>536</ele>
        <time>2018-02-10T15:38:17Z</time>
      </trkpt>
      <trkpt lat="44.34814" lon="3.95216">
        <ele>534</ele>
        <time>2018-02-10T15:38:20Z</time>
      </trkpt>
      <trkpt lat="44.34785" lon="3.95202">
        <ele>532</ele>
        <time>2018-02-10T15:38:24Z</time>
      </trkpt>
      <trkpt lat="44.34761" lon="3.95192">
        <ele>530</ele>
        <time>2018-02-10T15:38:27Z</time>
      </trkpt>
      <trkpt lat="44.34747" lon="3.95176">
        <ele>529</ele>
        <time>2018-02-10T15:38:30Z</time>
      </trkpt>
      <trkpt lat="44.34732" lon="3.95173">
        <ele>528</ele>
        <time>2018-02-10T15:38:33Z</time>
      </trkpt>
      <trkpt lat="44.34719" lon="3.95166">
        <ele>526</ele>
        <time>2018-02-10T15:38:37Z</time>
      </trkpt>
      <trkpt lat="44.34716" lon="3.9517">
        <ele>526</ele>
        <time>2018-02-10T15:38:40Z</time>
      </trkpt>
      <trkpt lat="44.34712" lon="3.95166">
        <ele>526</ele>
        <time>2018-02-10T15:38:44Z</time>
      </trkpt>
      <trkpt lat="44.34714" lon="3.95163">
        <ele>526</ele>
        <time>2018-02-10T15:38:47Z</time>
      </trkpt>
      <trkpt lat="44.34714" lon="3.95168">
        <ele>525</ele>
        <time>2018-02-10T15:38:51Z</time>
      </trkpt>
      <trkpt lat="44.34714" lon="3.9517">
        <ele>525</ele>
        <time>2018-02-10T15:38:54Z</time>
      </trkpt>
      <trkpt lat="44.34714" lon="3.95169">
        <ele>524</ele>
        <time>2018-02-10T15:38:58Z</time>
      </trkpt>
      <trkpt lat="44.34715" lon="3.95169">
        <ele>525</ele>
        <time>2018-02-10T15:39:01Z</time>
      </trkpt>
      <trkpt lat="44.34714" lon="3.95169">
        <ele>525</ele>
        <time>2018-02-10T15:39:04Z</time>
      </trkpt>
      <trkpt lat="44.34714" lon="3.95169">
        <ele>525</ele>
        <time>2018-02-10T15:39:08Z</time>
      </trkpt>
      <trkpt lat="44.34714" lon="3.95169">
        <ele>525</ele>
        <time>2018-02-10T15:39:12Z</time>
      </trkpt>
      <trkpt lat="44.34714" lon="3.95169">
        <ele>525</ele>
        <time>2018-02-10T15:39:16Z</time>
      </trkpt>
      <trkpt lat="44.34714" lon="3.95169">
        <ele>525</ele>
        <time>2018-02-10T15:39:19Z</time>
      </trkpt>
      <trkpt lat="44.34714" lon="3.95169">
        <ele>525</ele>
        <time>2018-02-10T15:39:22Z</time>
      </trkpt>
      <trkpt lat="44.34702" lon="3.95166">
        <ele>524</ele>
        <time>2018-02-10T15:39:26Z</time>
      </trkpt>
      <trkpt lat="44.34653" lon="3.95154">
        <ele>528</ele>
        <time>2018-02-10T15:39:30Z</time>
      </trkpt>
      <trkpt lat="44.34617" lon="3.95131">
        <ele>530</ele>
        <time>2018-02-10T15:39:33Z</time>
      </trkpt>
      <trkpt lat="44.34575" lon="3.95112">
        <ele>529</ele>
        <time>2018-02-10T15:39:37Z</time>
      </trkpt>
      <trkpt lat="44.34522" lon="3.95096">
        <ele>530</ele>
        <time>2018-02-10T15:39:41Z</time>
      </trkpt>
      <trkpt lat="44.34482" lon="3.9509">
        <ele>529</ele>
        <time>2018-02-10T15:39:44Z</time>
      </trkpt>
      <trkpt lat="44.34426" lon="3.95102">
        <ele>528</ele>
        <time>2018-02-10T15:39:48Z</time>
      </trkpt>
      <trkpt lat="44.34375" lon="3.9512">
        <ele>527</ele>
        <time>2018-02-10T15:39:52Z</time>
      </trkpt>
      <trkpt lat="44.34318" lon="3.95142">
        <ele>524</ele>
        <time>2018-02-10T15:39:56Z</time>
      </trkpt>
      <trkpt lat="44.34274" lon="3.95144">
        <ele>525</ele>
        <time>2018-02-10T15:39:59Z</time>
      </trkpt>
      <trkpt lat="44.3423" lon="3.9514">
        <ele>526</ele>
        <time>2018-02-10T15:40:02Z</time>
      </trkpt>
      <trkpt lat="44.3418" lon="3.95144">
        <ele>520</ele>
        <time>2018-02-10T15:40:06Z</time>
      </trkpt>
      <trkpt lat="44.34139" lon="3.95159">
        <ele>517</ele>
        <time>2018-02-10T15:40:09Z</time>
      </trkpt>
      <trkpt lat="44.34086" lon="3.95185">
        <ele>515</ele>
        <time>2018-02-10T15:40:13Z</time>
      </trkpt>
      <trkpt lat="44.34048" lon="3.95199">
        <ele>519</ele>
        <time>2018-02-10T15:40:16Z</time>
      </trkpt>
      <trkpt lat="44.33989" lon="3.95227">
        <ele>517</ele>
        <time>2018-02-10T15:40:20Z</time>
      </trkpt>
      <trkpt lat="44.3394" lon="3.95247">
        <ele>514</ele>
        <time>2018-02-10T15:40:24Z</time>
      </trkpt>
      <trkpt lat="44.33884" lon="3.95275">
        <ele>514</ele>
        <time>2018-02-10T15:40:28Z</time>
      </trkpt>
      <trkpt lat="44.33837" lon="3.953">
        <ele>513</ele>
        <time>2018-02-10T15:40:32Z</time>
      </trkpt>
      <trkpt lat="44.33794" lon="3.95318">
        <ele>492</ele>
        <time>2018-02-10T15:40:36Z</time>
      </trkpt>
      <trkpt lat="44.33745" lon="3.95358">
        <ele>492</ele>
        <time>2018-02-10T15:40:40Z</time>
      </trkpt>
      <trkpt lat="44.33695" lon="3.95397">
        <ele>492</ele>
        <time>2018-02-10T15:40:44Z</time>
      </trkpt>
      <trkpt lat="44.33648" lon="3.95443">
        <ele>487</ele>
        <time>2018-02-10T15:40:48Z</time>
      </trkpt>
      <trkpt lat="44.33614" lon="3.95475">
        <ele>487</ele>
        <time>2018-02-10T15:40:51Z</time>
      </trkpt>
      <trkpt lat="44.33565" lon="3.95514">
        <ele>486</ele>
        <time>2018-02-10T15:40:55Z</time>
      </trkpt>
      <trkpt lat="44.33523" lon="3.95562">
        <ele>488</ele>
        <time>2018-02-10T15:40:59Z</time>
      </trkpt>
      <trkpt lat="44.33502" lon="3.95603">
        <ele>488</ele>
        <time>2018-02-10T15:41:02Z</time>
      </trkpt>
      <trkpt lat="44.33475" lon="3.95661">
        <ele>486</ele>
        <time>2018-02-10T15:41:05Z</time>
      </trkpt>
      <trkpt lat="44.3347" lon="3.95731">
        <ele>486</ele>
        <time>2018-02-10T15:41:09Z</time>
      </trkpt>
      <trkpt lat="44.33455" lon="3.95806">
        <ele>489</ele>
        <time>2018-02-10T15:41:13Z</time>
      </trkpt>
      <trkpt lat="44.33451" lon="3.9588">
        <ele>491</ele>
        <time>2018-02-10T15:41:17Z</time>
      </trkpt>
      <trkpt lat="44.33449" lon="3.95934">
        <ele>491</ele>
        <time>2018-02-10T15:41:20Z</time>
      </trkpt>
      <trkpt lat="44.33452" lon="3.96008">
        <ele>493</ele>
        <time>2018-02-10T15:41:24Z</time>
      </trkpt>
      <trkpt lat="44.33428" lon="3.96077">
        <ele>495</ele>
        <time>2018-02-10T15:41:28Z</time>
      </trkpt>
      <trkpt lat="44.33408" lon="3.9613">
        <ele>493</ele>
        <time>2018-02-10T15:41:31Z</time>
      </trkpt>
      <trkpt lat="44.33382" lon="3.96193">
        <ele>494</ele>
        <time>2018-02-10T15:41:35Z</time>
      </trkpt>
      <trkpt lat="44.33347" lon="3.96264">
        <ele>496</ele>
        <time>2018-02-10T15:41:39Z</time>
      </trkpt>
      <trkpt lat="44.3333" lon="3.9631">
        <ele>497</ele>
        <time>2018-02-10T15:41:42Z</time>
      </trkpt>
      <trkpt lat="44.33169" lon="3.96528">
        <ele>496</ele>
        <time>2018-02-10T15:41:58Z</time>
      </trkpt>
      <trkpt lat="44.33123" lon="3.96565">
        <ele>497</ele>
        <time>2018-02-10T15:42:02Z</time>
      </trkpt>
      <trkpt lat="44.3287" lon="3.96712">
        <ele>494</ele>
        <time>2018-02-10T15:42:21Z</time>
      </trkpt>
      <trkpt lat="44.32819" lon="3.96733">
        <ele>497</ele>
        <time>2018-02-10T15:42:25Z</time>
      </trkpt>
      <trkpt lat="44.32764" lon="3.96739">
        <ele>489</ele>
        <time>2018-02-10T15:42:29Z</time>
      </trkpt>
      <trkpt lat="44.32711" lon="3.96733">
        <ele>489</ele>
        <time>2018-02-10T15:42:33Z</time>
      </trkpt>
      <trkpt lat="44.32658" lon="3.96717">
        <ele>487</ele>
        <time>2018-02-10T15:42:37Z</time>
      </trkpt>
      <trkpt lat="44.32606" lon="3.96694">
        <ele>486</ele>
        <time>2018-02-10T15:42:41Z</time>
      </trkpt>
      <trkpt lat="44.32565" lon="3.96686">
        <ele>485</ele>
        <time>2018-02-10T15:42:44Z</time>
      </trkpt>
      <trkpt lat="44.32513" lon="3.96664">
        <ele>477</ele>
        <time>2018-02-10T15:42:48Z</time>
      </trkpt>
      <trkpt lat="44.32464" lon="3.96646">
        <ele>471</ele>
        <time>2018-02-10T15:42:52Z</time>
      </trkpt>
      <trkpt lat="44.32271" lon="3.96649">
        <ele>470</ele>
        <time>2018-02-10T15:43:05Z</time>
      </trkpt>
      <trkpt lat="44.32231" lon="3.96661">
        <ele>466</ele>
        <time>2018-02-10T15:43:08Z</time>
      </trkpt>
      <trkpt lat="44.32061" lon="3.97098">
        <ele>461</ele>
        <time>2018-02-10T15:43:36Z</time>
      </trkpt>
      <trkpt lat="44.32078" lon="3.97154">
        <ele>446</ele>
        <time>2018-02-10T15:43:40Z</time>
      </trkpt>
      <trkpt lat="44.3208" lon="3.97223">
        <ele>449</ele>
        <time>2018-02-10T15:43:44Z</time>
      </trkpt>
      <trkpt lat="44.32082" lon="3.97277">
        <ele>449</ele>
        <time>2018-02-10T15:43:47Z</time>
      </trkpt>
      <trkpt lat="44.32084" lon="3.9735">
        <ele>449</ele>
        <time>2018-02-10T15:43:51Z</time>
      </trkpt>
      <trkpt lat="44.31905" lon="3.97607">
        <ele>449</ele>
        <time>2018-02-10T15:44:07Z</time>
      </trkpt>
      <trkpt lat="44.31861" lon="3.97647">
        <ele>444</ele>
        <time>2018-02-10T15:44:11Z</time>
      </trkpt>
      <trkpt lat="44.31825" lon="3.97679">
        <ele>442</ele>
        <time>2018-02-10T15:44:14Z</time>
      </trkpt>
      <trkpt lat="44.31794" lon="3.97706">
        <ele>439</ele>
        <time>2018-02-10T15:44:17Z</time>
      </trkpt>
      <trkpt lat="44.31756" lon="3.97736">
        <ele>434</ele>
        <time>2018-02-10T15:44:20Z</time>
      </trkpt>
      <trkpt lat="44.31712" lon="3.97781">
        <ele>429</ele>
        <time>2018-02-10T15:44:24Z</time>
      </trkpt>
      <trkpt lat="44.31679" lon="3.97808">
        <ele>428</ele>
        <time>2018-02-10T15:44:27Z</time>
      </trkpt>
      <trkpt lat="44.31628" lon="3.97834">
        <ele>429</ele>
        <time>2018-02-10T15:44:31Z</time>
      </trkpt>
      <trkpt lat="44.31588" lon="3.97845">
        <ele>428</ele>
        <time>2018-02-10T15:44:34Z</time>
      </trkpt>
      <trkpt lat="44.31544" lon="3.97856">
        <ele>428</ele>
        <time>2018-02-10T15:44:37Z</time>
      </trkpt>
      <trkpt lat="44.31493" lon="3.97835">
        <ele>424</ele>
        <time>2018-02-10T15:44:41Z</time>
      </trkpt>
      <trkpt lat="44.31434" lon="3.9782">
        <ele>422</ele>
        <time>2018-02-10T15:44:45Z</time>
      </trkpt>
      <trkpt lat="44.31388" lon="3.97805">
        <ele>421</ele>
        <time>2018-02-10T15:44:48Z</time>
      </trkpt>
      <trkpt lat="44.31336" lon="3.9778">
        <ele>423</ele>
        <time>2018-02-10T15:44:52Z</time>
      </trkpt>
      <trkpt lat="44.31296" lon="3.97775">
        <ele>423</ele>
        <time>2018-02-10T15:44:55Z</time>
      </trkpt>
      <trkpt lat="44.31258" lon="3.97764">
        <ele>415</ele>
        <time>2018-02-10T15:44:58Z</time>
      </trkpt>
      <trkpt lat="44.31205" lon="3.97743">
        <ele>408</ele>
        <time>2018-02-10T15:45:02Z</time>
      </trkpt>
      <trkpt lat="44.31166" lon="3.97757">
        <ele>405</ele>
        <time>2018-02-10T15:45:05Z</time>
      </trkpt>
      <trkpt lat="44.31118" lon="3.97774">
        <ele>404</ele>
        <time>2018-02-10T15:45:09Z</time>
      </trkpt>
      <trkpt lat="44.31066" lon="3.978">
        <ele>403</ele>
        <time>2018-02-10T15:45:13Z</time>
      </trkpt>
      <trkpt lat="44.3104" lon="3.9784">
        <ele>400</ele>
        <time>2018-02-10T15:45:16Z</time>
      </trkpt>
      <trkpt lat="44.30995" lon="3.97878">
        <ele>403</ele>
        <time>2018-02-10T15:45:20Z</time>
      </trkpt>
      <trkpt lat="44.30956" lon="3.97905">
        <ele>402</ele>
        <time>2018-02-10T15:45:23Z</time>
      </trkpt>
      <trkpt lat="44.30916" lon="3.97944">
        <ele>402</ele>
        <time>2018-02-10T15:45:27Z</time>
      </trkpt>
      <trkpt lat="44.30891" lon="3.97962">
        <ele>403</ele>
        <time>2018-02-10T15:45:30Z</time>
      </trkpt>
      <trkpt lat="44.3086" lon="3.98012">
        <ele>401</ele>
        <time>2018-02-10T15:45:33Z</time>
      </trkpt>
      <trkpt lat="44.30835" lon="3.98068">
        <ele>400</ele>
        <time>2018-02-10T15:45:36Z</time>
      </trkpt>
      <trkpt lat="44.30803" lon="3.98136">
        <ele>395</ele>
        <time>2018-02-10T15:45:40Z</time>
      </trkpt>
      <trkpt lat="44.30783" lon="3.98182">
        <ele>394</ele>
        <time>2018-02-10T15:45:43Z</time>
      </trkpt>
      <trkpt lat="44.3076" lon="3.98244">
        <ele>392</ele>
        <time>2018-02-10T15:45:47Z</time>
      </trkpt>
      <trkpt lat="44.30738" lon="3.98301">
        <ele>392</ele>
        <time>2018-02-10T15:45:50Z</time>
      </trkpt>
      <trkpt lat="44.30733" lon="3.9837">
        <ele>390</ele>
        <time>2018-02-10T15:45:54Z</time>
      </trkpt>
      <trkpt lat="44.30724" lon="3.98443">
        <ele>388</ele>
        <time>2018-02-10T15:45:58Z</time>
      </trkpt>
      <trkpt lat="44.30721" lon="3.9849">
        <ele>385</ele>
        <time>2018-02-10T15:46:01Z</time>
      </trkpt>
      <trkpt lat="44.30715" lon="3.98556">
        <ele>387</ele>
        <time>2018-02-10T15:46:05Z</time>
      </trkpt>
      <trkpt lat="44.30696" lon="3.98614">
        <ele>386</ele>
        <time>2018-02-10T15:46:09Z</time>
      </trkpt>
      <trkpt lat="44.30619" lon="3.98712">
        <ele>385</ele>
        <time>2018-02-10T15:46:18Z</time>
      </trkpt>
      <trkpt lat="44.30574" lon="3.98729">
        <ele>385</ele>
        <time>2018-02-10T15:46:22Z</time>
      </trkpt>
      <trkpt lat="44.30531" lon="3.98732">
        <ele>384</ele>
        <time>2018-02-10T15:46:25Z</time>
      </trkpt>
      <trkpt lat="44.30488" lon="3.98737">
        <ele>380</ele>
        <time>2018-02-10T15:46:28Z</time>
      </trkpt>
      <trkpt lat="44.30448" lon="3.98735">
        <ele>381</ele>
        <time>2018-02-10T15:46:31Z</time>
      </trkpt>
      <trkpt lat="44.30401" lon="3.98711">
        <ele>380</ele>
        <time>2018-02-10T15:46:35Z</time>
      </trkpt>
      <trkpt lat="44.30375" lon="3.98674">
        <ele>380</ele>
        <time>2018-02-10T15:46:38Z</time>
      </trkpt>
      <trkpt lat="44.30345" lon="3.9862">
        <ele>378</ele>
        <time>2018-02-10T15:46:42Z</time>
      </trkpt>
      <trkpt lat="44.30332" lon="3.98569">
        <ele>380</ele>
        <time>2018-02-10T15:46:45Z</time>
      </trkpt>
      <trkpt lat="44.3032" lon="3.98523">
        <ele>379</ele>
        <time>2018-02-10T15:46:48Z</time>
      </trkpt>
      <trkpt lat="44.30324" lon="3.98457">
        <ele>377</ele>
        <time>2018-02-10T15:46:52Z</time>
      </trkpt>
      <trkpt lat="44.30328" lon="3.98407">
        <ele>378</ele>
        <time>2018-02-10T15:46:55Z</time>
      </trkpt>
      <trkpt lat="44.30333" lon="3.98339">
        <ele>381</ele>
        <time>2018-02-10T15:46:59Z</time>
      </trkpt>
      <trkpt lat="44.30335" lon="3.98267">
        <ele>384</ele>
        <time>2018-02-10T15:47:03Z</time>
      </trkpt>
      <trkpt lat="44.30326" lon="3.98202">
        <ele>384</ele>
        <time>2018-02-10T15:47:07Z</time>
      </trkpt>
      <trkpt lat="44.30315" lon="3.98157">
        <ele>381</ele>
        <time>2018-02-10T15:47:10Z</time>
      </trkpt>
      <trkpt lat="44.30301" lon="3.98109">
        <ele>379</ele>
        <time>2018-02-10T15:47:13Z</time>
      </trkpt>
      <trkpt lat="44.30269" lon="3.98066">
        <ele>379</ele>
        <time>2018-02-10T15:47:17Z</time>
      </trkpt>
      <trkpt lat="44.30242" lon="3.98039">
        <ele>378</ele>
        <time>2018-02-10T15:47:20Z</time>
      </trkpt>
      <trkpt lat="44.30213" lon="3.9801">
        <ele>377</ele>
        <time>2018-02-10T15:47:23Z</time>
      </trkpt>
      <trkpt lat="44.30167" lon="3.97981">
        <ele>377</ele>
        <time>2018-02-10T15:47:27Z</time>
      </trkpt>
      <trkpt lat="44.30126" lon="3.97963">
        <ele>379</ele>
        <time>2018-02-10T15:47:31Z</time>
      </trkpt>
      <trkpt lat="44.3009" lon="3.97952">
        <ele>376</ele>
        <time>2018-02-10T15:47:34Z</time>
      </trkpt>
      <trkpt lat="44.30042" lon="3.97938">
        <ele>375</ele>
        <time>2018-02-10T15:47:38Z</time>
      </trkpt>
      <trkpt lat="44.29997" lon="3.97919">
        <ele>376</ele>
        <time>2018-02-10T15:47:42Z</time>
      </trkpt>
      <trkpt lat="44.29964" lon="3.97912">
        <ele>374</ele>
        <time>2018-02-10T15:47:45Z</time>
      </trkpt>
      <trkpt lat="44.29925" lon="3.97903">
        <ele>374</ele>
        <time>2018-02-10T15:47:48Z</time>
      </trkpt>
      <trkpt lat="44.29882" lon="3.97873">
        <ele>371</ele>
        <time>2018-02-10T15:47:52Z</time>
      </trkpt>
      <trkpt lat="44.29832" lon="3.97872">
        <ele>371</ele>
        <time>2018-02-10T15:47:56Z</time>
      </trkpt>
      <trkpt lat="44.29796" lon="3.97862">
        <ele>376</ele>
        <time>2018-02-10T15:47:59Z</time>
      </trkpt>
      <trkpt lat="44.29754" lon="3.97849">
        <ele>376</ele>
        <time>2018-02-10T15:48:03Z</time>
      </trkpt>
      <trkpt lat="44.29708" lon="3.97833">
        <ele>377</ele>
        <time>2018-02-10T15:48:07Z</time>
      </trkpt>
      <trkpt lat="44.2966" lon="3.97835">
        <ele>378</ele>
        <time>2018-02-10T15:48:11Z</time>
      </trkpt>
      <trkpt lat="44.29619" lon="3.97831">
        <ele>378</ele>
        <time>2018-02-10T15:48:14Z</time>
      </trkpt>
      <trkpt lat="44.29585" lon="3.97868">
        <ele>378</ele>
        <time>2018-02-10T15:48:17Z</time>
      </trkpt>
      <trkpt lat="44.29546" lon="3.97853">
        <ele>378</ele>
        <time>2018-02-10T15:48:20Z</time>
      </trkpt>
      <trkpt lat="44.29494" lon="3.97855">
        <ele>380</ele>
        <time>2018-02-10T15:48:24Z</time>
      </trkpt>
      <trkpt lat="44.29439" lon="3.97859">
        <ele>378</ele>
        <time>2018-02-10T15:48:28Z</time>
      </trkpt>
      <trkpt lat="44.29404" lon="3.9788">
        <ele>377</ele>
        <time>2018-02-10T15:48:31Z</time>
      </trkpt>
      <trkpt lat="44.2937" lon="3.97893">
        <ele>376</ele>
        <time>2018-02-10T15:48:34Z</time>
      </trkpt>
      <trkpt lat="44.29322" lon="3.97915">
        <ele>376</ele>
        <time>2018-02-10T15:48:38Z</time>
      </trkpt>
      <trkpt lat="44.29282" lon="3.97946">
        <ele>376</ele>
        <time>2018-02-10T15:48:41Z</time>
      </trkpt>
      <trkpt lat="44.29246" lon="3.97959">
        <ele>377</ele>
        <time>2018-02-10T15:48:44Z</time>
      </trkpt>
      <trkpt lat="44.29202" lon="3.97968">
        <ele>373</ele>
        <time>2018-02-10T15:48:48Z</time>
      </trkpt>
      <trkpt lat="44.29155" lon="3.97994">
        <ele>367</ele>
        <time>2018-02-10T15:48:52Z</time>
      </trkpt>
      <trkpt lat="44.29118" lon="3.98017">
        <ele>367</ele>
        <time>2018-02-10T15:48:55Z</time>
      </trkpt>
      <trkpt lat="44.29072" lon="3.98052">
        <ele>370</ele>
        <time>2018-02-10T15:48:59Z</time>
      </trkpt>
      <trkpt lat="44.29039" lon="3.98084">
        <ele>369</ele>
        <time>2018-02-10T15:49:02Z</time>
      </trkpt>
      <trkpt lat="44.28999" lon="3.98127">
        <ele>368</ele>
        <time>2018-02-10T15:49:06Z</time>
      </trkpt>
      <trkpt lat="44.28957" lon="3.98175">
        <ele>372</ele>
        <time>2018-02-10T15:49:10Z</time>
      </trkpt>
      <trkpt lat="44.28923" lon="3.98202">
        <ele>376</ele>
        <time>2018-02-10T15:49:13Z</time>
      </trkpt>
      <trkpt lat="44.28889" lon="3.98224">
        <ele>377</ele>
        <time>2018-02-10T15:49:16Z</time>
      </trkpt>
      <trkpt lat="44.28836" lon="3.98238">
        <ele>373</ele>
        <time>2018-02-10T15:49:20Z</time>
      </trkpt>
      <trkpt lat="44.27381" lon="3.97332">
        <ele>378</ele>
        <time>2018-02-10T15:51:19Z</time>
      </trkpt>
      <trkpt lat="44.27345" lon="3.9728">
        <ele>370</ele>
        <time>2018-02-10T15:51:23Z</time>
      </trkpt>
      <trkpt lat="44.27292" lon="3.97245">
        <ele>369</ele>
        <time>2018-02-10T15:51:27Z</time>
      </trkpt>
      <trkpt lat="44.27253" lon="3.97202">
        <ele>364</ele>
        <time>2018-02-10T15:51:31Z</time>
      </trkpt>
      <trkpt lat="44.27205" lon="3.97182">
        <ele>364</ele>
        <time>2018-02-10T15:51:35Z</time>
      </trkpt>
      <trkpt lat="44.27171" lon="3.97161">
        <ele>364</ele>
        <time>2018-02-10T15:51:38Z</time>
      </trkpt>
      <trkpt lat="44.27105" lon="3.97161">
        <ele>364</ele>
        <time>2018-02-10T15:51:42Z</time>
      </trkpt>
      <trkpt lat="44.27071" lon="3.9714">
        <ele>364</ele>
        <time>2018-02-10T15:51:45Z</time>
      </trkpt>
      <trkpt lat="44.27008" lon="3.97132">
        <ele>366</ele>
        <time>2018-02-10T15:51:49Z</time>
      </trkpt>
      <trkpt lat="44.26953" lon="3.97115">
        <ele>365</ele>
        <time>2018-02-10T15:51:53Z</time>
      </trkpt>
      <trkpt lat="44.26912" lon="3.97103">
        <ele>364</ele>
        <time>2018-02-10T15:51:56Z</time>
      </trkpt>
      <trkpt lat="44.26866" lon="3.97081">
        <ele>362</ele>
        <time>2018-02-10T15:51:59Z</time>
      </trkpt>
      <trkpt lat="44.26829" lon="3.97052">
        <ele>362</ele>
        <time>2018-02-10T15:52:02Z</time>
      </trkpt>
      <trkpt lat="44.26794" lon="3.97029">
        <ele>363</ele>
        <time>2018-02-10T15:52:05Z</time>
      </trkpt>
      <trkpt lat="44.26759" lon="3.96983">
        <ele>355</ele>
        <time>2018-02-10T15:52:09Z</time>
      </trkpt>
      <trkpt lat="44.26703" lon="3.96963">
        <ele>355</ele>
        <time>2018-02-10T15:52:13Z</time>
      </trkpt>
      <trkpt lat="44.26663" lon="3.96961">
        <ele>357</ele>
        <time>2018-02-10T15:52:16Z</time>
      </trkpt>
      <trkpt lat="44.2662" lon="3.96978">
        <ele>355</ele>
        <time>2018-02-10T15:52:19Z</time>
      </trkpt>
      <trkpt lat="44.26578" lon="3.97003">
        <ele>358</ele>
        <time>2018-02-10T15:52:22Z</time>
      </trkpt>
      <trkpt lat="44.2653" lon="3.97031">
        <ele>348</ele>
        <time>2018-02-10T15:52:26Z</time>
      </trkpt>
      <trkpt lat="44.26493" lon="3.97048">
        <ele>349</ele>
        <time>2018-02-10T15:52:29Z</time>
      </trkpt>
      <trkpt lat="44.26448" lon="3.97084">
        <ele>346</ele>
        <time>2018-02-10T15:52:33Z</time>
      </trkpt>
      <trkpt lat="44.26399" lon="3.97109">
        <ele>349</ele>
        <time>2018-02-10T15:52:37Z</time>
      </trkpt>
      <trkpt lat="44.26352" lon="3.97156">
        <ele>355</ele>
        <time>2018-02-10T15:52:41Z</time>
      </trkpt>
      <trkpt lat="44.26317" lon="3.97198">
        <ele>355</ele>
        <time>2018-02-10T15:52:44Z</time>
      </trkpt>
      <trkpt lat="44.26243" lon="3.97391">
        <ele>356</ele>
        <time>2018-02-10T15:52:54Z</time>
      </trkpt>
      <trkpt lat="44.26239" lon="3.97422">
        <ele>348</ele>
        <time>2018-02-10T15:52:57Z</time>
      </trkpt>
      <trkpt lat="44.26205" lon="3.97486">
        <ele>348</ele>
        <time>2018-02-10T15:53:01Z</time>
      </trkpt>
      <trkpt lat="44.26113" lon="3.97555">
        <ele>346</ele>
        <time>2018-02-10T15:53:09Z</time>
      </trkpt>
      <trkpt lat="44.2606" lon="3.97602">
        <ele>347</ele>
        <time>2018-02-10T15:53:13Z</time>
      </trkpt>
      <trkpt lat="44.26006" lon="3.97617">
        <ele>341</ele>
        <time>2018-02-10T15:53:17Z</time>
      </trkpt>
      <trkpt lat="44.25967" lon="3.97628">
        <ele>335</ele>
        <time>2018-02-10T15:53:20Z</time>
      </trkpt>
      <trkpt lat="44.25922" lon="3.97646">
        <ele>335</ele>
        <time>2018-02-10T15:53:24Z</time>
      </trkpt>
      <trkpt lat="44.25872" lon="3.97622">
        <ele>336</ele>
        <time>2018-02-10T15:53:27Z</time>
      </trkpt>
      <trkpt lat="44.25803" lon="3.97621">
        <ele>338</ele>
        <time>2018-02-10T15:53:31Z</time>
      </trkpt>
      <trkpt lat="44.25764" lon="3.97626">
        <ele>342</ele>
        <time>2018-02-10T15:53:34Z</time>
      </trkpt>
      <trkpt lat="44.2573" lon="3.97625">
        <ele>345</ele>
        <time>2018-02-10T15:53:37Z</time>
      </trkpt>
      <trkpt lat="44.25676" lon="3.97612">
        <ele>341</ele>
        <time>2018-02-10T15:53:41Z</time>
      </trkpt>
      <trkpt lat="44.25636" lon="3.97605">
        <ele>342</ele>
        <time>2018-02-10T15:53:44Z</time>
      </trkpt>
      <trkpt lat="44.25578" lon="3.97599">
        <ele>341</ele>
        <time>2018-02-10T15:53:48Z</time>
      </trkpt>
      <trkpt lat="44.25528" lon="3.97596">
        <ele>341</ele>
        <time>2018-02-10T15:53:52Z</time>
      </trkpt>
      <trkpt lat="44.25495" lon="3.97592">
        <ele>340</ele>
        <time>2018-02-10T15:53:55Z</time>
      </trkpt>
      <trkpt lat="44.25443" lon="3.97575">
        <ele>344</ele>
        <time>2018-02-10T15:53:58Z</time>
      </trkpt>
      <trkpt lat="44.25397" lon="3.97568">
        <ele>344</ele>
        <time>2018-02-10T15:54:01Z</time>
      </trkpt>
      <trkpt lat="44.25343" lon="3.97559">
        <ele>347</ele>
        <time>2018-02-10T15:54:05Z</time>
      </trkpt>
      <trkpt lat="44.25288" lon="3.97566">
        <ele>347</ele>
        <time>2018-02-10T15:54:09Z</time>
      </trkpt>
      <trkpt lat="44.25048" lon="3.97717">
        <ele>342</ele>
        <time>2018-02-10T15:54:28Z</time>
      </trkpt>
      <trkpt lat="44.25037" lon="3.9775">
        <ele>339</ele>
        <time>2018-02-10T15:54:31Z</time>
      </trkpt>
      <trkpt lat="44.25009" lon="3.97807">
        <ele>339</ele>
        <time>2018-02-10T15:54:35Z</time>
      </trkpt>
      <trkpt lat="44.24995" lon="3.97854">
        <ele>338</ele>
        <time>2018-02-10T15:54:38Z</time>
      </trkpt>
      <trkpt lat="44.25025" lon="3.98167">
        <ele>336</ele>
        <time>2018-02-10T15:54:55Z</time>
      </trkpt>
      <trkpt lat="44.25037" lon="3.98226">
        <ele>340</ele>
        <time>2018-02-10T15:54:58Z</time>
      </trkpt>
      <trkpt lat="44.2504" lon="3.98285">
        <ele>339</ele>
        <time>2018-02-10T15:55:01Z</time>
      </trkpt>
      <trkpt lat="44.24975" lon="3.98476">
        <ele>338</ele>
        <time>2018-02-10T15:55:14Z</time>
      </trkpt>
      <trkpt lat="44.24915" lon="3.98562">
        <ele>337</ele>
        <time>2018-02-10T15:55:18Z</time>
      </trkpt>
      <trkpt lat="44.24897" lon="3.98555">
        <ele>336</ele>
        <time>2018-02-10T15:55:21Z</time>
      </trkpt>
      <trkpt lat="44.2485" lon="3.98583">
        <ele>335</ele>
        <time>2018-02-10T15:55:24Z</time>
      </trkpt>
      <trkpt lat="44.24809" lon="3.98585">
        <ele>330</ele>
        <time>2018-02-10T15:55:27Z</time>
      </trkpt>
      <trkpt lat="44.24759" lon="3.98577">
        <ele>326</ele>
        <time>2018-02-10T15:55:31Z</time>
      </trkpt>
      <trkpt lat="44.24702" lon="3.98563">
        <ele>324</ele>
        <time>2018-02-10T15:55:35Z</time>
      </trkpt>
      <trkpt lat="44.24645" lon="3.9855">
        <ele>326</ele>
        <time>2018-02-10T15:55:39Z</time>
      </trkpt>
      <trkpt lat="44.24593" lon="3.98572">
        <ele>324</ele>
        <time>2018-02-10T15:55:43Z</time>
      </trkpt>
      <trkpt lat="44.24546" lon="3.98593">
        <ele>326</ele>
        <time>2018-02-10T15:55:46Z</time>
      </trkpt>
      <trkpt lat="44.24494" lon="3.98622">
        <ele>322</ele>
        <time>2018-02-10T15:55:50Z</time>
      </trkpt>
      <trkpt lat="44.2444" lon="3.98639">
        <ele>323</ele>
        <time>2018-02-10T15:55:54Z</time>
      </trkpt>
      <trkpt lat="44.24387" lon="3.98654">
        <ele>322</ele>
        <time>2018-02-10T15:55:58Z</time>
      </trkpt>
      <trkpt lat="44.24329" lon="3.98653">
        <ele>319</ele>
        <time>2018-02-10T15:56:02Z</time>
      </trkpt>
      <trkpt lat="44.24278" lon="3.98658">
        <ele>311</ele>
        <time>2018-02-10T15:56:06Z</time>
      </trkpt>
      <trkpt lat="44.24244" lon="3.98653">
        <ele>310</ele>
        <time>2018-02-10T15:56:09Z</time>
      </trkpt>
      <trkpt lat="44.24191" lon="3.98657">
        <ele>309</ele>
        <time>2018-02-10T15:56:13Z</time>
      </trkpt>
      <trkpt lat="44.24142" lon="3.98662">
        <ele>308</ele>
        <time>2018-02-10T15:56:17Z</time>
      </trkpt>
      <trkpt lat="44.24108" lon="3.98656">
        <ele>310</ele>
        <time>2018-02-10T15:56:20Z</time>
      </trkpt>
      <trkpt lat="44.24073" lon="3.98657">
        <ele>311</ele>
        <time>2018-02-10T15:56:23Z</time>
      </trkpt>
      <trkpt lat="44.24014" lon="3.98657">
        <ele>311</ele>
        <time>2018-02-10T15:56:27Z</time>
      </trkpt>
      <trkpt lat="44.23971" lon="3.98664">
        <ele>310</ele>
        <time>2018-02-10T15:56:30Z</time>
      </trkpt>
      <trkpt lat="44.23921" lon="3.98677">
        <ele>303</ele>
        <time>2018-02-10T15:56:34Z</time>
      </trkpt>
      <trkpt lat="44.23882" lon="3.98692">
        <ele>299</ele>
        <time>2018-02-10T15:56:37Z</time>
      </trkpt>
      <trkpt lat="44.23831" lon="3.98711">
        <ele>298</ele>
        <time>2018-02-10T15:56:41Z</time>
      </trkpt>
      <trkpt lat="44.23781" lon="3.98743">
        <ele>299</ele>
        <time>2018-02-10T15:56:45Z</time>
      </trkpt>
      <trkpt lat="44.23749" lon="3.9877">
        <ele>299</ele>
        <time>2018-02-10T15:56:48Z</time>
      </trkpt>
      <trkpt lat="44.23623" lon="3.99022">
        <ele>296</ele>
        <time>2018-02-10T15:57:06Z</time>
      </trkpt>
      <trkpt lat="44.23567" lon="3.99062">
        <ele>300</ele>
        <time>2018-02-10T15:57:09Z</time>
      </trkpt>
      <trkpt lat="44.23512" lon="3.99101">
        <ele>298</ele>
        <time>2018-02-10T15:57:13Z</time>
      </trkpt>
      <trkpt lat="44.23462" lon="3.99129">
        <ele>300</ele>
        <time>2018-02-10T15:57:17Z</time>
      </trkpt>
      <trkpt lat="44.23417" lon="3.99137">
        <ele>297</ele>
        <time>2018-02-10T15:57:20Z</time>
      </trkpt>
      <trkpt lat="44.2336" lon="3.99158">
        <ele>295</ele>
        <time>2018-02-10T15:57:24Z</time>
      </trkpt>
      <trkpt lat="44.23307" lon="3.99179">
        <ele>292</ele>
        <time>2018-02-10T15:57:28Z</time>
      </trkpt>
      <trkpt lat="44.23261" lon="3.99207">
        <ele>287</ele>
        <time>2018-02-10T15:57:32Z</time>
      </trkpt>
      <trkpt lat="44.23223" lon="3.99233">
        <ele>288</ele>
        <time>2018-02-10T15:57:35Z</time>
      </trkpt>
      <trkpt lat="44.23179" lon="3.99278">
        <ele>289</ele>
        <time>2018-02-10T15:57:39Z</time>
      </trkpt>
      <trkpt lat="44.23152" lon="3.99319">
        <ele>286</ele>
        <time>2018-02-10T15:57:42Z</time>
      </trkpt>
      <trkpt lat="44.2312" lon="3.99376">
        <ele>278</ele>
        <time>2018-02-10T15:57:46Z</time>
      </trkpt>
      <trkpt lat="44.23089" lon="3.99439">
        <ele>279</ele>
        <time>2018-02-10T15:57:50Z</time>
      </trkpt>
      <trkpt lat="44.23064" lon="3.99503">
        <ele>278</ele>
        <time>2018-02-10T15:57:54Z</time>
      </trkpt>
      <trkpt lat="44.23046" lon="3.99563">
        <ele>276</ele>
        <time>2018-02-10T15:57:58Z</time>
      </trkpt>
      <trkpt lat="44.23038" lon="3.99649">
        <ele>273</ele>
        <time>2018-02-10T15:58:01Z</time>
      </trkpt>
      <trkpt lat="44.23064" lon="3.99707">
        <ele>274</ele>
        <time>2018-02-10T15:58:04Z</time>
      </trkpt>
      <trkpt lat="44.23076" lon="3.99755">
        <ele>274</ele>
        <time>2018-02-10T15:58:07Z</time>
      </trkpt>
      <trkpt lat="44.23094" lon="3.99827">
        <ele>276</ele>
        <time>2018-02-10T15:58:11Z</time>
      </trkpt>
      <trkpt lat="44.23108" lon="3.999">
        <ele>273</ele>
        <time>2018-02-10T15:58:15Z</time>
      </trkpt>
      <trkpt lat="44.23133" lon="3.9995">
        <ele>272</ele>
        <time>2018-02-10T15:58:18Z</time>
      </trkpt>
      <trkpt lat="44.23156" lon="4.00014">
        <ele>272</ele>
        <time>2018-02-10T15:58:22Z</time>
      </trkpt>
      <trkpt lat="44.23177" lon="4.00084">
        <ele>269</ele>
        <time>2018-02-10T15:58:26Z</time>
      </trkpt>
      <trkpt lat="44.23197" lon="4.0016">
        <ele>269</ele>
        <time>2018-02-10T15:58:30Z</time>
      </trkpt>
      <trkpt lat="44.23201" lon="4.00222">
        <ele>270</ele>
        <time>2018-02-10T15:58:33Z</time>
      </trkpt>
      <trkpt lat="44.23203" lon="4.00272">
        <ele>267</ele>
        <time>2018-02-10T15:58:36Z</time>
      </trkpt>
      <trkpt lat="44.23203" lon="4.00338">
        <ele>265</ele>
        <time>2018-02-10T15:58:40Z</time>
      </trkpt>
      <trkpt lat="44.23182" lon="4.00413">
        <ele>265</ele>
        <time>2018-02-10T15:58:44Z</time>
      </trkpt>
      <trkpt lat="44.23165" lon="4.00469">
        <ele>264</ele>
        <time>2018-02-10T15:58:47Z</time>
      </trkpt>
      <trkpt lat="44.23143" lon="4.00535">
        <ele>264</ele>
        <time>2018-02-10T15:58:51Z</time>
      </trkpt>
      <trkpt lat="44.23116" lon="4.00575">
        <ele>265</ele>
        <time>2018-02-10T15:58:54Z</time>
      </trkpt>
      <trkpt lat="44.23082" lon="4.0063">
        <ele>265</ele>
        <time>2018-02-10T15:58:57Z</time>
      </trkpt>
      <trkpt lat="44.2306" lon="4.00659">
        <ele>264</ele>
        <time>2018-02-10T15:59:00Z</time>
      </trkpt>
      <trkpt lat="44.23028" lon="4.00712">
        <ele>260</ele>
        <time>2018-02-10T15:59:04Z</time>
      </trkpt>
      <trkpt lat="44.23002" lon="4.00765">
        <ele>260</ele>
        <time>2018-02-10T15:59:07Z</time>
      </trkpt>
      <trkpt lat="44.2297" lon="4.00824">
        <ele>257</ele>
        <time>2018-02-10T15:59:11Z</time>
      </trkpt>
      <trkpt lat="44.22937" lon="4.00884">
        <ele>258</ele>
        <time>2018-02-10T15:59:15Z</time>
      </trkpt>
      <trkpt lat="44.22912" lon="4.00925">
        <ele>256</ele>
        <time>2018-02-10T15:59:18Z</time>
      </trkpt>
      <trkpt lat="44.22888" lon="4.00983">
        <ele>256</ele>
        <time>2018-02-10T15:59:21Z</time>
      </trkpt>
      <trkpt lat="44.22872" lon="4.01032">
        <ele>256</ele>
        <time>2018-02-10T15:59:25Z</time>
      </trkpt>
      <trkpt lat="44.22846" lon="4.01075">
        <ele>257</ele>
        <time>2018-02-10T15:59:28Z</time>
      </trkpt>
      <trkpt lat="44.22812" lon="4.01118">
        <ele>255</ele>
        <time>2018-02-10T15:59:31Z</time>
      </trkpt>
      <trkpt lat="44.22767" lon="4.01155">
        <ele>253</ele>
        <time>2018-02-10T15:59:35Z</time>
      </trkpt>
      <trkpt lat="44.22727" lon="4.01182">
        <ele>254</ele>
        <time>2018-02-10T15:59:38Z</time>
      </trkpt>
      <trkpt lat="44.22685" lon="4.01202">
        <ele>254</ele>
        <time>2018-02-10T15:59:41Z</time>
      </trkpt>
      <trkpt lat="44.22644" lon="4.01229">
        <ele>254</ele>
        <time>2018-02-10T15:59:44Z</time>
      </trkpt>
      <trkpt lat="44.22589" lon="4.01258">
        <ele>254</ele>
        <time>2018-02-10T15:59:48Z</time>
      </trkpt>
      <trkpt lat="44.22521" lon="4.01299">
        <ele>254</ele>
        <time>2018-02-10T15:59:52Z</time>
      </trkpt>
      <trkpt lat="44.22456" lon="4.01322">
        <ele>247</ele>
        <time>2018-02-10T15:59:56Z</time>
      </trkpt>
      <trkpt lat="44.22394" lon="4.0133">
        <ele>252</ele>
        <time>2018-02-10T15:59:59Z</time>
      </trkpt>
      <trkpt lat="44.22339" lon="4.01349">
        <ele>250</ele>
        <time>2018-02-10T16:00:02Z</time>
      </trkpt>
      <trkpt lat="44.22274" lon="4.01378">
        <ele>256</ele>
        <time>2018-02-10T16:00:06Z</time>
      </trkpt>
      <trkpt lat="44.22221" lon="4.01407">
        <ele>253</ele>
        <time>2018-02-10T16:00:09Z</time>
      </trkpt>
      <trkpt lat="44.22161" lon="4.0145">
        <ele>251</ele>
        <time>2018-02-10T16:00:13Z</time>
      </trkpt>
      <trkpt lat="44.22101" lon="4.01506">
        <ele>248</ele>
        <time>2018-02-10T16:00:17Z</time>
      </trkpt>
      <trkpt lat="44.22051" lon="4.01575">
        <ele>247</ele>
        <time>2018-02-10T16:00:21Z</time>
      </trkpt>
      <trkpt lat="44.22004" lon="4.01655">
        <ele>249</ele>
        <time>2018-02-10T16:00:25Z</time>
      </trkpt>
      <trkpt lat="44.21956" lon="4.01734">
        <ele>251</ele>
        <time>2018-02-10T16:00:29Z</time>
      </trkpt>
      <trkpt lat="44.21918" lon="4.01793">
        <ele>249</ele>
        <time>2018-02-10T16:00:32Z</time>
      </trkpt>
      <trkpt lat="44.2188" lon="4.01847">
        <ele>247</ele>
        <time>2018-02-10T16:00:35Z</time>
      </trkpt>
      <trkpt lat="44.21819" lon="4.01911">
        <ele>248</ele>
        <time>2018-02-10T16:00:39Z</time>
      </trkpt>
      <trkpt lat="44.21755" lon="4.0196">
        <ele>245</ele>
        <time>2018-02-10T16:00:43Z</time>
      </trkpt>
      <trkpt lat="44.21691" lon="4.02012">
        <ele>243</ele>
        <time>2018-02-10T16:00:47Z</time>
      </trkpt>
      <trkpt lat="44.21629" lon="4.0205">
        <ele>242</ele>
        <time>2018-02-10T16:00:51Z</time>
      </trkpt>
      <trkpt lat="44.21559" lon="4.0211">
        <ele>243</ele>
        <time>2018-02-10T16:00:55Z</time>
      </trkpt>
      <trkpt lat="44.215" lon="4.02153">
        <ele>243</ele>
        <time>2018-02-10T16:00:58Z</time>
      </trkpt>
      <trkpt lat="44.21454" lon="4.02193">
        <ele>244</ele>
        <time>2018-02-10T16:01:01Z</time>
      </trkpt>
      <trkpt lat="44.21395" lon="4.02241">
        <ele>242</ele>
        <time>2018-02-10T16:01:05Z</time>
      </trkpt>
      <trkpt lat="44.2135" lon="4.02264">
        <ele>242</ele>
        <time>2018-02-10T16:01:09Z</time>
      </trkpt>
      <trkpt lat="44.21292" lon="4.02311">
        <ele>242</ele>
        <time>2018-02-10T16:01:13Z</time>
      </trkpt>
      <trkpt lat="44.21249" lon="4.02355">
        <ele>245</ele>
        <time>2018-02-10T16:01:17Z</time>
      </trkpt>
      <trkpt lat="44.21211" lon="4.02399">
        <ele>244</ele>
        <time>2018-02-10T16:01:21Z</time>
      </trkpt>
      <trkpt lat="44.21182" lon="4.02441">
        <ele>243</ele>
        <time>2018-02-10T16:01:24Z</time>
      </trkpt>
      <trkpt lat="44.21153" lon="4.02483">
        <ele>244</ele>
        <time>2018-02-10T16:01:27Z</time>
      </trkpt>
      <trkpt lat="44.21125" lon="4.02538">
        <ele>245</ele>
        <time>2018-02-10T16:01:31Z</time>
      </trkpt>
      <trkpt lat="44.21105" lon="4.0259">
        <ele>244</ele>
        <time>2018-02-10T16:01:34Z</time>
      </trkpt>
      <trkpt lat="44.21089" lon="4.02636">
        <ele>246</ele>
        <time>2018-02-10T16:01:38Z</time>
      </trkpt>
      <trkpt lat="44.2107" lon="4.02674">
        <ele>246</ele>
        <time>2018-02-10T16:01:41Z</time>
      </trkpt>
      <trkpt lat="44.21055" lon="4.02711">
        <ele>249</ele>
        <time>2018-02-10T16:01:44Z</time>
      </trkpt>
      <trkpt lat="44.21029" lon="4.02755">
        <ele>248</ele>
        <time>2018-02-10T16:01:48Z</time>
      </trkpt>
      <trkpt lat="44.21013" lon="4.02793">
        <ele>249</ele>
        <time>2018-02-10T16:01:52Z</time>
      </trkpt>
      <trkpt lat="44.20996" lon="4.0283">
        <ele>251</ele>
        <time>2018-02-10T16:01:55Z</time>
      </trkpt>
      <trkpt lat="44.20982" lon="4.02874">
        <ele>250</ele>
        <time>2018-02-10T16:01:59Z</time>
      </trkpt>
      <trkpt lat="44.2097" lon="4.02908">
        <ele>250</ele>
        <time>2018-02-10T16:02:02Z</time>
      </trkpt>
      <trkpt lat="44.20959" lon="4.02958">
        <ele>252</ele>
        <time>2018-02-10T16:02:06Z</time>
      </trkpt>
      <trkpt lat="44.20959" lon="4.03002">
        <ele>250</ele>
        <time>2018-02-10T16:02:10Z</time>
      </trkpt>
      <trkpt lat="44.20957" lon="4.03052">
        <ele>244</ele>
        <time>2018-02-10T16:02:14Z</time>
      </trkpt>
      <trkpt lat="44.20956" lon="4.03093">
        <ele>245</ele>
        <time>2018-02-10T16:02:17Z</time>
      </trkpt>
      <trkpt lat="44.2096" lon="4.03138">
        <ele>246</ele>
        <time>2018-02-10T16:02:21Z</time>
      </trkpt>
      <trkpt lat="44.20966" lon="4.0317">
        <ele>248</ele>
        <time>2018-02-10T16:02:24Z</time>
      </trkpt>
      <trkpt lat="44.20973" lon="4.03208">
        <ele>248</ele>
        <time>2018-02-10T16:02:28Z</time>
      </trkpt>
      <trkpt lat="44.20985" lon="4.03222">
        <ele>248</ele>
        <time>2018-02-10T16:02:31Z</time>
      </trkpt>
      <trkpt lat="44.20988" lon="4.03251">
        <ele>248</ele>
        <time>2018-02-10T16:02:35Z</time>
      </trkpt>
      <trkpt lat="44.20991" lon="4.03275">
        <ele>248</ele>
        <time>2018-02-10T16:02:39Z</time>
      </trkpt>
      <trkpt lat="44.20999" lon="4.03281">
        <ele>248</ele>
        <time>2018-02-10T16:02:43Z</time>
      </trkpt>
      <trkpt lat="44.21001" lon="4.03282">
        <ele>247</ele>
        <time>2018-02-10T16:02:47Z</time>
      </trkpt>
      <trkpt lat="44.21007" lon="4.03287">
        <ele>246</ele>
        <time>2018-02-10T16:02:51Z</time>
      </trkpt>
      <trkpt lat="44.21007" lon="4.03278">
        <ele>245</ele>
        <time>2018-02-10T16:02:54Z</time>
      </trkpt>
      <trkpt lat="44.20999" lon="4.03268">
        <ele>244</ele>
        <time>2018-02-10T16:02:58Z</time>
      </trkpt>
      <trkpt lat="44.20994" lon="4.03266">
        <ele>244</ele>
        <time>2018-02-10T16:03:01Z</time>
      </trkpt>
      <trkpt lat="44.20992" lon="4.03259">
        <ele>244</ele>
        <time>2018-02-10T16:03:05Z</time>
      </trkpt>
      <trkpt lat="44.20991" lon="4.03257">
        <ele>244</ele>
        <time>2018-02-10T16:03:08Z</time>
      </trkpt>
      <trkpt lat="44.20994" lon="4.03252">
        <ele>244</ele>
        <time>2018-02-10T16:03:11Z</time>
      </trkpt>
      <trkpt lat="44.21004" lon="4.03253">
        <ele>245</ele>
        <time>2018-02-10T16:03:14Z</time>
      </trkpt>
      <trkpt lat="44.21012" lon="4.03263">
        <ele>245</ele>
        <time>2018-02-10T16:03:18Z</time>
      </trkpt>
      <trkpt lat="44.21014" lon="4.03268">
        <ele>245</ele>
        <time>2018-02-10T16:03:22Z</time>
      </trkpt>
      <trkpt lat="44.21015" lon="4.03272">
        <ele>249</ele>
        <time>2018-02-10T16:03:25Z</time>
      </trkpt>
      <trkpt lat="44.21014" lon="4.03281">
        <ele>250</ele>
        <time>2018-02-10T16:03:28Z</time>
      </trkpt>
      <trkpt lat="44.21014" lon="4.03293">
        <ele>250</ele>
        <time>2018-02-10T16:03:32Z</time>
      </trkpt>
      <trkpt lat="44.20989" lon="4.03298">
        <ele>249</ele>
        <time>2018-02-10T16:03:35Z</time>
      </trkpt>
      <trkpt lat="44.20987" lon="4.03299">
        <ele>247</ele>
        <time>2018-02-10T16:03:39Z</time>
      </trkpt>
      <trkpt lat="44.20985" lon="4.03299">
        <ele>241</ele>
        <time>2018-02-10T16:03:42Z</time>
      </trkpt>
      <trkpt lat="44.20982" lon="4.0331">
        <ele>238</ele>
        <time>2018-02-10T16:03:46Z</time>
      </trkpt>
      <trkpt lat="44.2098" lon="4.03318">
        <ele>238</ele>
        <time>2018-02-10T16:03:49Z</time>
      </trkpt>
      <trkpt lat="44.20987" lon="4.03312">
        <ele>239</ele>
        <time>2018-02-10T16:03:52Z</time>
      </trkpt>
      <trkpt lat="44.21" lon="4.03299">
        <ele>238</ele>
        <time>2018-02-10T16:03:56Z</time>
      </trkpt>
      <trkpt lat="44.2101" lon="4.03287">
        <ele>243</ele>
        <time>2018-02-10T16:04:00Z</time>
      </trkpt>
      <trkpt lat="44.21008" lon="4.03283">
        <ele>243</ele>
        <time>2018-02-10T16:04:04Z</time>
      </trkpt>
      <trkpt lat="44.21004" lon="4.03288">
        <ele>241</ele>
        <time>2018-02-10T16:04:07Z</time>
      </trkpt>
      <trkpt lat="44.21001" lon="4.0329">
        <ele>240</ele>
        <time>2018-02-10T16:04:10Z</time>
      </trkpt>
      <trkpt lat="44.21005" lon="4.03288">
        <ele>240</ele>
        <time>2018-02-10T16:04:14Z</time>
      </trkpt>
      <trkpt lat="44.21009" lon="4.03286">
        <ele>238</ele>
        <time>2018-02-10T16:04:17Z</time>
      </trkpt>
      <trkpt lat="44.21005" lon="4.03284">
        <ele>239</ele>
        <time>2018-02-10T16:04:21Z</time>
      </trkpt>
      <trkpt lat="44.21004" lon="4.03283">
        <ele>237</ele>
        <time>2018-02-10T16:04:25Z</time>
      </trkpt>
      <trkpt lat="44.21001" lon="4.0328">
        <ele>240</ele>
        <time>2018-02-10T16:04:28Z</time>
      </trkpt>
      <trkpt lat="44.21002" lon="4.03283">
        <ele>241</ele>
        <time>2018-02-10T16:04:32Z</time>
      </trkpt>
      <trkpt lat="44.21003" lon="4.03281">
        <ele>239</ele>
        <time>2018-02-10T16:04:36Z</time>
      </trkpt>
      <trkpt lat="44.21003" lon="4.03281">
        <ele>239</ele>
        <time>2018-02-10T16:04:40Z</time>
      </trkpt>
      <trkpt lat="44.21003" lon="4.03281">
        <ele>240</ele>
        <time>2018-02-10T16:04:43Z</time>
      </trkpt>
      <trkpt lat="44.21003" lon="4.03281">
        <ele>239</ele>
        <time>2018-02-10T16:04:47Z</time>
      </trkpt>
      <trkpt lat="44.21003" lon="4.03281">
        <ele>239</ele>
        <time>2018-02-10T16:04:51Z</time>
      </trkpt>
      <trkpt lat="44.21003" lon="4.03281">
        <ele>240</ele>
        <time>2018-02-10T16:04:54Z</time>
      </trkpt>
      <trkpt lat="44.21003" lon="4.03282">
        <ele>240</ele>
        <time>2018-02-10T16:04:58Z</time>
      </trkpt>
      <trkpt lat="44.21003" lon="4.03282">
        <ele>240</ele>
        <time>2018-02-10T16:05:02Z</time>
      </trkpt>
      <trkpt lat="44.21003" lon="4.03282">
        <ele>240</ele>
        <time>2018-02-10T16:05:05Z</time>
      </trkpt>
      <trkpt lat="44.21003" lon="4.03282">
        <ele>240</ele>
        <time>2018-02-10T16:05:09Z</time>
      </trkpt>
      <trkpt lat="44.21002" lon="4.03281">
        <ele>241</ele>
        <time>2018-02-10T16:05:13Z</time>
      </trkpt>
      <trkpt lat="44.21002" lon="4.03279">
        <ele>242</ele>
        <time>2018-02-10T16:05:17Z</time>
      </trkpt>
      <trkpt lat="44.21002" lon="4.03279">
        <ele>242</ele>
        <time>2018-02-10T16:05:20Z</time>
      </trkpt>
      <trkpt lat="44.21002" lon="4.03279">
        <ele>242</ele>
        <time>2018-02-10T16:05:24Z</time>
      </trkpt>
      <trkpt lat="44.21001" lon="4.03279">
        <ele>243</ele>
        <time>2018-02-10T16:05:28Z</time>
      </trkpt>
      <trkpt lat="44.21001" lon="4.03278">
        <ele>242</ele>
        <time>2018-02-10T16:05:31Z</time>
      </trkpt>
      <trkpt lat="44.21001" lon="4.03279">
        <ele>243</ele>
        <time>2018-02-10T16:05:34Z</time>
      </trkpt>
      <trkpt lat="44.21001" lon="4.03279">
        <ele>243</ele>
        <time>2018-02-10T16:05:37Z</time>
      </trkpt>
      <trkpt lat="44.21001" lon="4.03279">
        <ele>244</ele>
        <time>2018-02-10T16:05:41Z</time>
      </trkpt>
      <trkpt lat="44.21001" lon="4.0328">
        <ele>244</ele>
        <time>2018-02-10T16:05:45Z</time>
      </trkpt>
      <trkpt lat="44.21001" lon="4.0328">
        <ele>244</ele>
        <time>2018-02-10T16:05:48Z</time>
      </trkpt>
      <trkpt lat="44.21001" lon="4.0328">
        <ele>244</ele>
        <time>2018-02-10T16:05:51Z</time>
      </trkpt>
      <trkpt lat="44.21001" lon="4.0328">
        <ele>244</ele>
        <time>2018-02-10T16:05:54Z</time>
      </trkpt>
      <trkpt lat="44.21001" lon="4.0328">
        <ele>244</ele>
        <time>2018-02-10T16:05:58Z</time>
      </trkpt>
      <trkpt lat="44.21001" lon="4.0328">
        <ele>244</ele>
        <time>2018-02-10T16:06:02Z</time>
      </trkpt>
      <trkpt lat="44.21001" lon="4.0328">
        <ele>244</ele>
        <time>2018-02-10T16:06:06Z</time>
      </trkpt>
      <trkpt lat="44.21001" lon="4.0328">
        <ele>244</ele>
        <time>2018-02-10T16:06:09Z</time>
      </trkpt>
      <trkpt lat="44.21001" lon="4.0328">
        <ele>244</ele>
        <time>2018-02-10T16:06:12Z</time>
      </trkpt>
      <trkpt lat="44.21001" lon="4.0328">
        <ele>244</ele>
        <time>2018-02-10T16:06:16Z</time>
      </trkpt>
      <trkpt lat="44.21001" lon="4.0328">
        <ele>244</ele>
        <time>2018-02-10T16:06:20Z</time>
      </trkpt>
      <trkpt lat="44.21001" lon="4.0328">
        <ele>244</ele>
        <time>2018-02-10T16:06:24Z</time>
      </trkpt>
      <trkpt lat="44.21001" lon="4.0328">
        <ele>244</ele>
        <time>2018-02-10T16:06:28Z</time>
      </trkpt>
      <trkpt lat="44.21001" lon="4.0328">
        <ele>244</ele>
        <time>2018-02-10T16:06:32Z</time>
      </trkpt>
      <trkpt lat="44.21001" lon="4.0328">
        <ele>244</ele>
        <time>2018-02-10T16:06:36Z</time>
      </trkpt>
      <trkpt lat="44.21001" lon="4.0328">
        <ele>244</ele>
        <time>2018-02-10T16:06:39Z</time>
      </trkpt>
      <trkpt lat="44.21001" lon="4.0328">
        <ele>244</ele>
        <time>2018-02-10T16:06:42Z</time>
      </trkpt>
      <trkpt lat="44.21001" lon="4.0328">
        <ele>244</ele>
        <time>2018-02-10T16:06:46Z</time>
      </trkpt>
      <trkpt lat="44.21001" lon="4.0328">
        <ele>244</ele>
        <time>2018-02-10T16:06:50Z</time>
      </trkpt>
      <trkpt lat="44.21001" lon="4.0328">
        <ele>244</ele>
        <time>2018-02-10T16:06:53Z</time>
      </trkpt>
      <trkpt lat="44.21001" lon="4.0328">
        <ele>244</ele>
        <time>2018-02-10T16:06:57Z</time>
      </trkpt>
      <trkpt lat="44.21001" lon="4.0328">
        <ele>244</ele>
        <time>2018-02-10T16:07:00Z</time>
      </trkpt>
      <trkpt lat="44.21001" lon="4.0328">
        <ele>244</ele>
        <time>2018-02-10T16:07:04Z</time>
      </trkpt>
      <trkpt lat="44.21001" lon="4.0328">
        <ele>244</ele>
        <time>2018-02-10T16:07:07Z</time>
      </trkpt>
      <trkpt lat="44.21001" lon="4.0328">
        <ele>244</ele>
        <time>2018-02-10T16:07:11Z</time>
      </trkpt>
      <trkpt lat="44.21001" lon="4.0328">
        <ele>244</ele>
        <time>2018-02-10T16:07:14Z</time>
      </trkpt>
      <trkpt lat="44.21001" lon="4.0328">
        <ele>245</ele>
        <time>2018-02-10T16:07:18Z</time>
      </trkpt>
      <trkpt lat="44.21001" lon="4.0328">
        <ele>245</ele>
        <time>2018-02-10T16:07:22Z</time>
      </trkpt>
      <trkpt lat="44.21001" lon="4.0328">
        <ele>245</ele>
        <time>2018-02-10T16:07:26Z</time>
      </trkpt>
      <trkpt lat="44.21001" lon="4.0328">
        <ele>245</ele>
        <time>2018-02-10T16:07:29Z</time>
      </trkpt>
      <trkpt lat="44.21001" lon="4.0328">
        <ele>245</ele>
        <time>2018-02-10T16:07:32Z</time>
      </trkpt>
      <trkpt lat="44.21001" lon="4.0328">
        <ele>245</ele>
        <time>2018-02-10T16:07:36Z</time>
      </trkpt>
      <trkpt lat="44.21001" lon="4.0328">
        <ele>245</ele>
        <time>2018-02-10T16:07:40Z</time>
      </trkpt>
      <trkpt lat="44.21001" lon="4.0328">
        <ele>245</ele>
        <time>2018-02-10T16:07:43Z</time>
      </trkpt>
      <trkpt lat="44.21001" lon="4.0328">
        <ele>245</ele>
        <time>2018-02-10T16:07:46Z</time>
      </trkpt>
      <trkpt lat="44.21001" lon="4.0328">
        <ele>245</ele>
        <time>2018-02-10T16:07:50Z</time>
      </trkpt>
      <trkpt lat="44.21001" lon="4.0328">
        <ele>245</ele>
        <time>2018-02-10T16:07:54Z</time>
      </trkpt>
      <trkpt lat="44.21001" lon="4.0328">
        <ele>245</ele>
        <time>2018-02-10T16:07:57Z</time>
      </trkpt>
      <trkpt lat="44.21001" lon="4.0328">
        <ele>245</ele>
        <time>2018-02-10T16:08:01Z</time>
      </trkpt>
      <trkpt lat="44.21001" lon="4.0328">
        <ele>245</ele>
        <time>2018-02-10T16:08:05Z</time>
      </trkpt>
      <trkpt lat="44.21001" lon="4.0328">
        <ele>245</ele>
        <time>2018-02-10T16:08:08Z</time>
      </trkpt>
      <trkpt lat="44.21001" lon="4.0328">
        <ele>245</ele>
        <time>2018-02-10T16:08:12Z</time>
      </trkpt>
      <trkpt lat="44.21001" lon="4.03281">
        <ele>245</ele>
        <time>2018-02-10T16:08:15Z</time>
      </trkpt>
      <trkpt lat="44.21001" lon="4.0328">
        <ele>245</ele>
        <time>2018-02-10T16:08:18Z</time>
      </trkpt>
      <trkpt lat="44.21001" lon="4.03281">
        <ele>245</ele>
        <time>2018-02-10T16:08:22Z</time>
      </trkpt>
      <trkpt lat="44.21001" lon="4.03281">
        <ele>245</ele>
        <time>2018-02-10T16:08:25Z</time>
      </trkpt>
      <trkpt lat="44.21001" lon="4.03281">
        <ele>245</ele>
        <time>2018-02-10T16:08:29Z</time>
      </trkpt>
      <trkpt lat="44.21001" lon="4.03281">
        <ele>245</ele>
        <time>2018-02-10T16:08:33Z</time>
      </trkpt>
      <trkpt lat="44.21001" lon="4.03281">
        <ele>245</ele>
        <time>2018-02-10T16:08:36Z</time>
      </trkpt>
      <trkpt lat="44.21001" lon="4.03281">
        <ele>245</ele>
        <time>2018-02-10T16:08:39Z</time>
      </trkpt>
      <trkpt lat="44.21001" lon="4.03281">
        <ele>245</ele>
        <time>2018-02-10T16:08:43Z</time>
      </trkpt>
      <trkpt lat="44.21001" lon="4.03281">
        <ele>245</ele>
        <time>2018-02-10T16:08:46Z</time>
      </trkpt>
      <trkpt lat="44.21001" lon="4.03281">
        <ele>245</ele>
        <time>2018-02-10T16:08:50Z</time>
      </trkpt>
      <trkpt lat="44.21001" lon="4.03281">
        <ele>245</ele>
        <time>2018-02-10T16:08:54Z</time>
      </trkpt>
      <trkpt lat="44.21001" lon="4.03281">
        <ele>245</ele>
        <time>2018-02-10T16:08:57Z</time>
      </trkpt>
      <trkpt lat="44.21" lon="4.0328">
        <ele>245</ele>
        <time>2018-02-10T16:09:00Z</time>
      </trkpt>
      <trkpt lat="44.21" lon="4.0328">
        <ele>245</ele>
        <time>2018-02-10T16:09:04Z</time>
      </trkpt>
      <trkpt lat="44.21" lon="4.0328">
        <ele>246</ele>
        <time>2018-02-10T16:09:08Z</time>
      </trkpt>
      <trkpt lat="44.20999" lon="4.0328">
        <ele>247</ele>
        <time>2018-02-10T16:09:11Z</time>
      </trkpt>
      <trkpt lat="44.20999" lon="4.0328">
        <ele>247</ele>
        <time>2018-02-10T16:09:15Z</time>
      </trkpt>
      <trkpt lat="44.20999" lon="4.0328">
        <ele>247</ele>
        <time>2018-02-10T16:09:19Z</time>
      </trkpt>
      <trkpt lat="44.20999" lon="4.0328">
        <ele>247</ele>
        <time>2018-02-10T16:09:22Z</time>
      </trkpt>
      <trkpt lat="44.20999" lon="4.0328">
        <ele>247</ele>
        <time>2018-02-10T16:09:25Z</time>
      </trkpt>
      <trkpt lat="44.20999" lon="4.0328">
        <ele>246</ele>
        <time>2018-02-10T16:09:28Z</time>
      </trkpt>
      <trkpt lat="44.20999" lon="4.0328">
        <ele>246</ele>
        <time>2018-02-10T16:09:31Z</time>
      </trkpt>
      <trkpt lat="44.20999" lon="4.0328">
        <ele>246</ele>
        <time>2018-02-10T16:09:35Z</time>
      </trkpt>
      <trkpt lat="44.20999" lon="4.0328">
        <ele>246</ele>
        <time>2018-02-10T16:09:39Z</time>
      </trkpt>
      <trkpt lat="44.20999" lon="4.0328">
        <ele>246</ele>
        <time>2018-02-10T16:09:43Z</time>
      </trkpt>
      <trkpt lat="44.20999" lon="4.0328">
        <ele>246</ele>
        <time>2018-02-10T16:09:46Z</time>
      </trkpt>
      <trkpt lat="44.20999" lon="4.0328">
        <ele>246</ele>
        <time>2018-02-10T16:09:50Z</time>
      </trkpt>
      <trkpt lat="44.20999" lon="4.0328">
        <ele>246</ele>
        <time>2018-02-10T16:09:54Z</time>
      </trkpt>
      <trkpt lat="44.20999" lon="4.0328">
        <ele>246</ele>
        <time>2018-02-10T16:09:58Z</time>
      </trkpt>
      <trkpt lat="44.20999" lon="4.0328">
        <ele>246</ele>
        <time>2018-02-10T16:10:01Z</time>
      </trkpt>
      <trkpt lat="44.20999" lon="4.0328">
        <ele>246</ele>
        <time>2018-02-10T16:10:04Z</time>
      </trkpt>
      <trkpt lat="44.20999" lon="4.0328">
        <ele>246</ele>
        <time>2018-02-10T16:10:08Z</time>
      </trkpt>
      <trkpt lat="44.20999" lon="4.0328">
        <ele>246</ele>
        <time>2018-02-10T16:10:12Z</time>
      </trkpt>
      <trkpt lat="44.20999" lon="4.0328">
        <ele>246</ele>
        <time>2018-02-10T16:10:16Z</time>
      </trkpt>
      <trkpt lat="44.20999" lon="4.0328">
        <ele>246</ele>
        <time>2018-02-10T16:10:19Z</time>
      </trkpt>
      <trkpt lat="44.20999" lon="4.0328">
        <ele>246</ele>
        <time>2018-02-10T16:10:22Z</time>
      </trkpt>
      <trkpt lat="44.20999" lon="4.0328">
        <ele>246</ele>
        <time>2018-02-10T16:10:26Z</time>
      </trkpt>
      <trkpt lat="44.20999" lon="4.0328">
        <ele>246</ele>
        <time>2018-02-10T16:10:29Z</time>
      </trkpt>
      <trkpt lat="44.20999" lon="4.03281">
        <ele>247</ele>
        <time>2018-02-10T16:10:33Z</time>
      </trkpt>
      <trkpt lat="44.20999" lon="4.0328">
        <ele>246</ele>
        <time>2018-02-10T16:10:37Z</time>
      </trkpt>
      <trkpt lat="44.20999" lon="4.0328">
        <ele>246</ele>
        <time>2018-02-10T16:10:41Z</time>
      </trkpt>
      <trkpt lat="44.20999" lon="4.0328">
        <ele>246</ele>
        <time>2018-02-10T16:10:45Z</time>
      </trkpt>
      <trkpt lat="44.20999" lon="4.0328">
        <ele>246</ele>
        <time>2018-02-10T16:10:49Z</time>
      </trkpt>
      <trkpt lat="44.20999" lon="4.0328">
        <ele>246</ele>
        <time>2018-02-10T16:10:53Z</time>
      </trkpt>
      <trkpt lat="44.20999" lon="4.0328">
        <ele>246</ele>
        <time>2018-02-10T16:10:56Z</time>
      </trkpt>
      <trkpt lat="44.20999" lon="4.0328">
        <ele>246</ele>
        <time>2018-02-10T16:11:00Z</time>
      </trkpt>
      <trkpt lat="44.20999" lon="4.0328">
        <ele>246</ele>
        <time>2018-02-10T16:11:04Z</time>
      </trkpt>
      <trkpt lat="44.20999" lon="4.0328">
        <ele>246</ele>
        <time>2018-02-10T16:11:08Z</time>
      </trkpt>
      <trkpt lat="44.20999" lon="4.0328">
        <ele>246</ele>
        <time>2018-02-10T16:11:11Z</time>
      </trkpt>
      <trkpt lat="44.20999" lon="4.0328">
        <ele>246</ele>
        <time>2018-02-10T16:11:15Z</time>
      </trkpt>
      <trkpt lat="44.20999" lon="4.0328">
        <ele>246</ele>
        <time>2018-02-10T16:11:19Z</time>
      </trkpt>
      <trkpt lat="44.20999" lon="4.0328">
        <ele>246</ele>
        <time>2018-02-10T16:11:22Z</time>
      </trkpt>
      <trkpt lat="44.20999" lon="4.0328">
        <ele>246</ele>
        <time>2018-02-10T16:11:26Z</time>
      </trkpt>
      <trkpt lat="44.20999" lon="4.0328">
        <ele>246</ele>
        <time>2018-02-10T16:11:30Z</time>
      </trkpt>
      <trkpt lat="44.20999" lon="4.0328">
        <ele>246</ele>
        <time>2018-02-10T16:11:33Z</time>
      </trkpt>
      <trkpt lat="44.20999" lon="4.03281">
        <ele>246</ele>
        <time>2018-02-10T16:11:36Z</time>
      </trkpt>
      <trkpt lat="44.20999" lon="4.03281">
        <ele>246</ele>
        <time>2018-02-10T16:11:39Z</time>
      </trkpt>
      <trkpt lat="44.20999" lon="4.03281">
        <ele>246</ele>
        <time>2018-02-10T16:11:43Z</time>
      </trkpt>
      <trkpt lat="44.20999" lon="4.03281">
        <ele>246</ele>
        <time>2018-02-10T16:11:46Z</time>
      </trkpt>
      <trkpt lat="44.20999" lon="4.03281">
        <ele>246</ele>
        <time>2018-02-10T16:11:50Z</time>
      </trkpt>
      <trkpt lat="44.20999" lon="4.03281">
        <ele>246</ele>
        <time>2018-02-10T16:11:54Z</time>
      </trkpt>
      <trkpt lat="44.20999" lon="4.03281">
        <ele>246</ele>
        <time>2018-02-10T16:11:57Z</time>
      </trkpt>
      <trkpt lat="44.20999" lon="4.03281">
        <ele>246</ele>
        <time>2018-02-10T16:12:00Z</time>
      </trkpt>
      <trkpt lat="44.20999" lon="4.03281">
        <ele>246</ele>
        <time>2018-02-10T16:12:03Z</time>
      </trkpt>
      <trkpt lat="44.20999" lon="4.03281">
        <ele>246</ele>
        <time>2018-02-10T16:12:07Z</time>
      </trkpt>
      <trkpt lat="44.20999" lon="4.03281">
        <ele>246</ele>
        <time>2018-02-10T16:12:10Z</time>
      </trkpt>
      <trkpt lat="44.20999" lon="4.03281">
        <ele>246</ele>
        <time>2018-02-10T16:12:14Z</time>
      </trkpt>
      <trkpt lat="44.20999" lon="4.03281">
        <ele>246</ele>
        <time>2018-02-10T16:12:17Z</time>
      </trkpt>
      <trkpt lat="44.20999" lon="4.03281">
        <ele>246</ele>
        <time>2018-02-10T16:12:20Z</time>
      </trkpt>
      <trkpt lat="44.20999" lon="4.03281">
        <ele>246</ele>
        <time>2018-02-10T16:12:23Z</time>
      </trkpt>
      <trkpt lat="44.20999" lon="4.03281">
        <ele>246</ele>
        <time>2018-02-10T16:12:27Z</time>
      </trkpt>
      <trkpt lat="44.20999" lon="4.03281">
        <ele>246</ele>
        <time>2018-02-10T16:12:31Z</time>
      </trkpt>
      <trkpt lat="44.20999" lon="4.03281">
        <ele>246</ele>
        <time>2018-02-10T16:12:35Z</time>
      </trkpt>
      <trkpt lat="44.20999" lon="4.03281">
        <ele>246</ele>
        <time>2018-02-10T16:12:38Z</time>
      </trkpt>
      <trkpt lat="44.20999" lon="4.03281">
        <ele>246</ele>
        <time>2018-02-10T16:12:42Z</time>
      </trkpt>
      <trkpt lat="44.20999" lon="4.03281">
        <ele>246</ele>
        <time>2018-02-10T16:12:46Z</time>
      </trkpt>
      <trkpt lat="44.20999" lon="4.03281">
        <ele>246</ele>
        <time>2018-02-10T16:12:50Z</time>
      </trkpt>
      <trkpt lat="44.20999" lon="4.03281">
        <ele>246</ele>
        <time>2018-02-10T16:12:54Z</time>
      </trkpt>
      <trkpt lat="44.20999" lon="4.03281">
        <ele>246</ele>
        <time>2018-02-10T16:12:58Z</time>
      </trkpt>
      <trkpt lat="44.20996" lon="4.03283">
        <ele>243</ele>
        <time>2018-02-10T16:14:58Z</time>
      </trkpt>
      <trkpt lat="44.20997" lon="4.03301">
        <ele>236</ele>
        <time>2018-02-10T16:15:02Z</time>
      </trkpt>
      <trkpt lat="44.21001" lon="4.03321">
        <ele>236</ele>
        <time>2018-02-10T16:15:06Z</time>
      </trkpt>
      <trkpt lat="44.21003" lon="4.03349">
        <ele>240</ele>
        <time>2018-02-10T16:15:09Z</time>
      </trkpt>
      <trkpt lat="44.2101" lon="4.03377">
        <ele>242</ele>
        <time>2018-02-10T16:15:13Z</time>
      </trkpt>
      <trkpt lat="44.21013" lon="4.03398">
        <ele>240</ele>
        <time>2018-02-10T16:15:16Z</time>
      </trkpt>
      <trkpt lat="44.21017" lon="4.03427">
        <ele>243</ele>
        <time>2018-02-10T16:15:19Z</time>
      </trkpt>
      <trkpt lat="44.21019" lon="4.03449">
        <ele>244</ele>
        <time>2018-02-10T16:15:22Z</time>
      </trkpt>
      <trkpt lat="44.21017" lon="4.03488">
        <ele>242</ele>
        <time>2018-02-10T16:15:26Z</time>
      </trkpt>
      <trkpt lat="44.21018" lon="4.03516">
        <ele>243</ele>
        <time>2018-02-10T16:15:29Z</time>
      </trkpt>
      <trkpt lat="44.2102" lon="4.0355">
        <ele>244</ele>
        <time>2018-02-10T16:15:33Z</time>
      </trkpt>
      <trkpt lat="44.2102" lon="4.03586">
        <ele>244</ele>
        <time>2018-02-10T16:15:37Z</time>
      </trkpt>
      <trkpt lat="44.21016" lon="4.03619">
        <ele>242</ele>
        <time>2018-02-10T16:15:41Z</time>
      </trkpt>
      <trkpt lat="44.21014" lon="4.03648">
        <ele>244</ele>
        <time>2018-02-10T16:15:44Z</time>
      </trkpt>
      <trkpt lat="44.21003" lon="4.03684">
        <ele>243</ele>
        <time>2018-02-10T16:15:48Z</time>
      </trkpt>
      <trkpt lat="44.20992" lon="4.03721">
        <ele>245</ele>
        <time>2018-02-10T16:15:52Z</time>
      </trkpt>
      <trkpt lat="44.20984" lon="4.03765">
        <ele>247</ele>
        <time>2018-02-10T16:15:56Z</time>
      </trkpt>
      <trkpt lat="44.20979" lon="4.03794">
        <ele>250</ele>
        <time>2018-02-10T16:15:59Z</time>
      </trkpt>
      <trkpt lat="44.20957" lon="4.03844">
        <ele>250</ele>
        <time>2018-02-10T16:16:03Z</time>
      </trkpt>
      <trkpt lat="44.20935" lon="4.03891">
        <ele>248</ele>
        <time>2018-02-10T16:16:07Z</time>
      </trkpt>
      <trkpt lat="44.20919" lon="4.03924">
        <ele>246</ele>
        <time>2018-02-10T16:16:10Z</time>
      </trkpt>
      <trkpt lat="44.209" lon="4.03973">
        <ele>247</ele>
        <time>2018-02-10T16:16:14Z</time>
      </trkpt>
      <trkpt lat="44.20885" lon="4.04011">
        <ele>247</ele>
        <time>2018-02-10T16:16:17Z</time>
      </trkpt>
      <trkpt lat="44.20858" lon="4.04049">
        <ele>246</ele>
        <time>2018-02-10T16:16:20Z</time>
      </trkpt>
      <trkpt lat="44.20815" lon="4.04089">
        <ele>241</ele>
        <time>2018-02-10T16:16:24Z</time>
      </trkpt>
      <trkpt lat="44.20775" lon="4.04112">
        <ele>242</ele>
        <time>2018-02-10T16:16:27Z</time>
      </trkpt>
      <trkpt lat="44.20736" lon="4.04127">
        <ele>241</ele>
        <time>2018-02-10T16:16:30Z</time>
      </trkpt>
      <trkpt lat="44.20677" lon="4.04131">
        <ele>238</ele>
        <time>2018-02-10T16:16:34Z</time>
      </trkpt>
      <trkpt lat="44.20623" lon="4.04102">
        <ele>236</ele>
        <time>2018-02-10T16:16:38Z</time>
      </trkpt>
      <trkpt lat="44.20565" lon="4.04081">
        <ele>239</ele>
        <time>2018-02-10T16:16:42Z</time>
      </trkpt>
      <trkpt lat="44.20523" lon="4.04075">
        <ele>240</ele>
        <time>2018-02-10T16:16:45Z</time>
      </trkpt>
      <trkpt lat="44.20465" lon="4.04056">
        <ele>240</ele>
        <time>2018-02-10T16:16:49Z</time>
      </trkpt>
      <trkpt lat="44.20423" lon="4.04069">
        <ele>240</ele>
        <time>2018-02-10T16:16:52Z</time>
      </trkpt>
      <trkpt lat="44.2024" lon="4.04259">
        <ele>244</ele>
        <time>2018-02-10T16:17:08Z</time>
      </trkpt>
      <trkpt lat="44.20241" lon="4.04338">
        <ele>242</ele>
        <time>2018-02-10T16:17:12Z</time>
      </trkpt>
      <trkpt lat="44.20236" lon="4.04411">
        <ele>234</ele>
        <time>2018-02-10T16:17:16Z</time>
      </trkpt>
      <trkpt lat="44.20245" lon="4.04489">
        <ele>232</ele>
        <time>2018-02-10T16:17:20Z</time>
      </trkpt>
      <trkpt lat="44.2026" lon="4.04571">
        <ele>229</ele>
        <time>2018-02-10T16:17:24Z</time>
      </trkpt>
      <trkpt lat="44.20276" lon="4.04648">
        <ele>229</ele>
        <time>2018-02-10T16:17:28Z</time>
      </trkpt>
      <trkpt lat="44.20291" lon="4.04726">
        <ele>228</ele>
        <time>2018-02-10T16:17:32Z</time>
      </trkpt>
      <trkpt lat="44.20295" lon="4.04807">
        <ele>230</ele>
        <time>2018-02-10T16:17:36Z</time>
      </trkpt>
      <trkpt lat="44.20298" lon="4.04888">
        <ele>229</ele>
        <time>2018-02-10T16:17:40Z</time>
      </trkpt>
      <trkpt lat="44.20262" lon="4.0493">
        <ele>227</ele>
        <time>2018-02-10T16:17:43Z</time>
      </trkpt>
      <trkpt lat="44.20227" lon="4.05002">
        <ele>226</ele>
        <time>2018-02-10T16:17:47Z</time>
      </trkpt>
      <trkpt lat="44.20179" lon="4.05032">
        <ele>227</ele>
        <time>2018-02-10T16:17:51Z</time>
      </trkpt>
      <trkpt lat="44.20119" lon="4.05071">
        <ele>228</ele>
        <time>2018-02-10T16:17:55Z</time>
      </trkpt>
      <trkpt lat="44.20076" lon="4.05103">
        <ele>233</ele>
        <time>2018-02-10T16:17:58Z</time>
      </trkpt>
      <trkpt lat="44.20028" lon="4.05156">
        <ele>232</ele>
        <time>2018-02-10T16:18:02Z</time>
      </trkpt>
      <trkpt lat="44.19988" lon="4.05205">
        <ele>232</ele>
        <time>2018-02-10T16:18:06Z</time>
      </trkpt>
      <trkpt lat="44.19955" lon="4.05256">
        <ele>231</ele>
        <time>2018-02-10T16:18:09Z</time>
      </trkpt>
      <trkpt lat="44.19922" lon="4.05288">
        <ele>232</ele>
        <time>2018-02-10T16:18:12Z</time>
      </trkpt>
      <trkpt lat="44.19873" lon="4.05324">
        <ele>230</ele>
        <time>2018-02-10T16:18:16Z</time>
      </trkpt>
      <trkpt lat="44.19834" lon="4.05343">
        <ele>227</ele>
        <time>2018-02-10T16:18:19Z</time>
      </trkpt>
      <trkpt lat="44.19771" lon="4.05354">
        <ele>227</ele>
        <time>2018-02-10T16:18:23Z</time>
      </trkpt>
      <trkpt lat="44.19725" lon="4.05357">
        <ele>227</ele>
        <time>2018-02-10T16:18:26Z</time>
      </trkpt>
      <trkpt lat="44.1966" lon="4.0535">
        <ele>225</ele>
        <time>2018-02-10T16:18:30Z</time>
      </trkpt>
      <trkpt lat="44.19621" lon="4.05332">
        <ele>224</ele>
        <time>2018-02-10T16:18:33Z</time>
      </trkpt>
      <trkpt lat="44.19573" lon="4.05316">
        <ele>224</ele>
        <time>2018-02-10T16:18:36Z</time>
      </trkpt>
      <trkpt lat="44.19517" lon="4.0528">
        <ele>226</ele>
        <time>2018-02-10T16:18:40Z</time>
      </trkpt>
      <trkpt lat="44.19464" lon="4.05244">
        <ele>224</ele>
        <time>2018-02-10T16:18:44Z</time>
      </trkpt>
      <trkpt lat="44.19412" lon="4.05209">
        <ele>227</ele>
        <time>2018-02-10T16:18:48Z</time>
      </trkpt>
      <trkpt lat="44.19361" lon="4.05194">
        <ele>227</ele>
        <time>2018-02-10T16:18:52Z</time>
      </trkpt>
      <trkpt lat="44.19317" lon="4.05186">
        <ele>229</ele>
        <time>2018-02-10T16:18:55Z</time>
      </trkpt>
      <trkpt lat="44.1925" lon="4.05161">
        <ele>226</ele>
        <time>2018-02-10T16:18:59Z</time>
      </trkpt>
      <trkpt lat="44.19205" lon="4.05146">
        <ele>224</ele>
        <time>2018-02-10T16:19:02Z</time>
      </trkpt>
      <trkpt lat="44.19167" lon="4.05132">
        <ele>225</ele>
        <time>2018-02-10T16:19:05Z</time>
      </trkpt>
      <trkpt lat="44.19116" lon="4.05117">
        <ele>221</ele>
        <time>2018-02-10T16:19:09Z</time>
      </trkpt>
      <trkpt lat="44.19074" lon="4.05104">
        <ele>221</ele>
        <time>2018-02-10T16:19:12Z</time>
      </trkpt>
      <trkpt lat="44.19014" lon="4.05099">
        <ele>221</ele>
        <time>2018-02-10T16:19:16Z</time>
      </trkpt>
      <trkpt lat="44.18976" lon="4.05094">
        <ele>221</ele>
        <time>2018-02-10T16:19:19Z</time>
      </trkpt>
      <trkpt lat="44.18921" lon="4.05082">
        <ele>214</ele>
        <time>2018-02-10T16:19:22Z</time>
      </trkpt>
      <trkpt lat="44.18873" lon="4.05039">
        <ele>218</ele>
        <time>2018-02-10T16:19:26Z</time>
      </trkpt>
      <trkpt lat="44.18844" lon="4.04975">
        <ele>218</ele>
        <time>2018-02-10T16:19:30Z</time>
      </trkpt>
      <trkpt lat="44.18812" lon="4.04933">
        <ele>218</ele>
        <time>2018-02-10T16:19:33Z</time>
      </trkpt>
      <trkpt lat="44.18775" lon="4.04871">
        <ele>219</ele>
        <time>2018-02-10T16:19:37Z</time>
      </trkpt>
      <trkpt lat="44.18739" lon="4.04821">
        <ele>220</ele>
        <time>2018-02-10T16:19:40Z</time>
      </trkpt>
      <trkpt lat="44.1869" lon="4.04789">
        <ele>222</ele>
        <time>2018-02-10T16:19:44Z</time>
      </trkpt>
      <trkpt lat="44.18629" lon="4.04774">
        <ele>224</ele>
        <time>2018-02-10T16:19:48Z</time>
      </trkpt>
      <trkpt lat="44.18588" lon="4.04769">
        <ele>219</ele>
        <time>2018-02-10T16:19:51Z</time>
      </trkpt>
      <trkpt lat="44.1853" lon="4.04813">
        <ele>214</ele>
        <time>2018-02-10T16:19:55Z</time>
      </trkpt>
      <trkpt lat="44.18492" lon="4.04872">
        <ele>215</ele>
        <time>2018-02-10T16:19:59Z</time>
      </trkpt>
      <trkpt lat="44.18469" lon="4.04927">
        <ele>216</ele>
        <time>2018-02-10T16:20:02Z</time>
      </trkpt>
      <trkpt lat="44.18455" lon="4.05008">
        <ele>218</ele>
        <time>2018-02-10T16:20:06Z</time>
      </trkpt>
      <trkpt lat="44.1846" lon="4.05091">
        <ele>218</ele>
        <time>2018-02-10T16:20:10Z</time>
      </trkpt>
      <trkpt lat="44.18481" lon="4.05166">
        <ele>218</ele>
        <time>2018-02-10T16:20:14Z</time>
      </trkpt>
      <trkpt lat="44.18506" lon="4.05241">
        <ele>220</ele>
        <time>2018-02-10T16:20:18Z</time>
      </trkpt>
      <trkpt lat="44.18529" lon="4.05319">
        <ele>219</ele>
        <time>2018-02-10T16:20:22Z</time>
      </trkpt>
      <trkpt lat="44.18542" lon="4.0538">
        <ele>221</ele>
        <time>2018-02-10T16:20:25Z</time>
      </trkpt>
      <trkpt lat="44.18544" lon="4.05462">
        <ele>221</ele>
        <time>2018-02-10T16:20:29Z</time>
      </trkpt>
      <trkpt lat="44.1854" lon="4.05523">
        <ele>219</ele>
        <time>2018-02-10T16:20:32Z</time>
      </trkpt>
      <trkpt lat="44.18531" lon="4.05606">
        <ele>221</ele>
        <time>2018-02-10T16:20:36Z</time>
      </trkpt>
      <trkpt lat="44.18524" lon="4.05666">
        <ele>220</ele>
        <time>2018-02-10T16:20:39Z</time>
      </trkpt>
      <trkpt lat="44.18499" lon="4.0574">
        <ele>218</ele>
        <time>2018-02-10T16:20:43Z</time>
      </trkpt>
      <trkpt lat="44.18468" lon="4.05812">
        <ele>219</ele>
        <time>2018-02-10T16:20:47Z</time>
      </trkpt>
      <trkpt lat="44.18433" lon="4.05884">
        <ele>219</ele>
        <time>2018-02-10T16:20:51Z</time>
      </trkpt>
      <trkpt lat="44.18405" lon="4.05933">
        <ele>220</ele>
        <time>2018-02-10T16:20:54Z</time>
      </trkpt>
      <trkpt lat="44.18363" lon="4.05995">
        <ele>217</ele>
        <time>2018-02-10T16:20:58Z</time>
      </trkpt>
      <trkpt lat="44.18332" lon="4.06037">
        <ele>217</ele>
        <time>2018-02-10T16:21:01Z</time>
      </trkpt>
      <trkpt lat="44.1828" lon="4.06078">
        <ele>215</ele>
        <time>2018-02-10T16:21:05Z</time>
      </trkpt>
      <trkpt lat="44.18241" lon="4.06103">
        <ele>210</ele>
        <time>2018-02-10T16:21:08Z</time>
      </trkpt>
      <trkpt lat="44.18182" lon="4.06109">
        <ele>209</ele>
        <time>2018-02-10T16:21:12Z</time>
      </trkpt>
      <trkpt lat="44.18125" lon="4.06087">
        <ele>208</ele>
        <time>2018-02-10T16:21:16Z</time>
      </trkpt>
      <trkpt lat="44.18073" lon="4.06047">
        <ele>210</ele>
        <time>2018-02-10T16:21:20Z</time>
      </trkpt>
      <trkpt lat="44.18028" lon="4.05994">
        <ele>211</ele>
        <time>2018-02-10T16:21:24Z</time>
      </trkpt>
      <trkpt lat="44.17998" lon="4.05947">
        <ele>211</ele>
        <time>2018-02-10T16:21:27Z</time>
      </trkpt>
      <trkpt lat="44.1796" lon="4.0589">
        <ele>214</ele>
        <time>2018-02-10T16:21:31Z</time>
      </trkpt>
      <trkpt lat="44.17921" lon="4.05856">
        <ele>213</ele>
        <time>2018-02-10T16:21:34Z</time>
      </trkpt>
      <trkpt lat="44.17871" lon="4.05817">
        <ele>214</ele>
        <time>2018-02-10T16:21:38Z</time>
      </trkpt>
      <trkpt lat="44.17824" lon="4.05778">
        <ele>215</ele>
        <time>2018-02-10T16:21:42Z</time>
      </trkpt>
      <trkpt lat="44.17775" lon="4.0573">
        <ele>217</ele>
        <time>2018-02-10T16:21:46Z</time>
      </trkpt>
      <trkpt lat="44.17744" lon="4.05686">
        <ele>219</ele>
        <time>2018-02-10T16:21:49Z</time>
      </trkpt>
      <trkpt lat="44.17705" lon="4.05622">
        <ele>220</ele>
        <time>2018-02-10T16:21:53Z</time>
      </trkpt>
      <trkpt lat="44.17679" lon="4.0557">
        <ele>222</ele>
        <time>2018-02-10T16:21:56Z</time>
      </trkpt>
      <trkpt lat="44.17642" lon="4.05506">
        <ele>221</ele>
        <time>2018-02-10T16:22:00Z</time>
      </trkpt>
      <trkpt lat="44.17613" lon="4.05455">
        <ele>217</ele>
        <time>2018-02-10T16:22:03Z</time>
      </trkpt>
      <trkpt lat="44.1757" lon="4.05394">
        <ele>217</ele>
        <time>2018-02-10T16:22:07Z</time>
      </trkpt>
      <trkpt lat="44.17515" lon="4.05349">
        <ele>209</ele>
        <time>2018-02-10T16:22:11Z</time>
      </trkpt>
      <trkpt lat="44.17464" lon="4.05309">
        <ele>206</ele>
        <time>2018-02-10T16:22:15Z</time>
      </trkpt>
      <trkpt lat="44.17422" lon="4.05286">
        <ele>206</ele>
        <time>2018-02-10T16:22:18Z</time>
      </trkpt>
      <trkpt lat="44.17368" lon="4.05268">
        <ele>206</ele>
        <time>2018-02-10T16:22:22Z</time>
      </trkpt>
      <trkpt lat="44.17326" lon="4.05249">
        <ele>204</ele>
        <time>2018-02-10T16:22:25Z</time>
      </trkpt>
      <trkpt lat="44.17267" lon="4.05235">
        <ele>205</ele>
        <time>2018-02-10T16:22:29Z</time>
      </trkpt>
      <trkpt lat="44.17207" lon="4.05248">
        <ele>204</ele>
        <time>2018-02-10T16:22:33Z</time>
      </trkpt>
      <trkpt lat="44.17147" lon="4.05264">
        <ele>203</ele>
        <time>2018-02-10T16:22:37Z</time>
      </trkpt>
      <trkpt lat="44.17104" lon="4.05284">
        <ele>203</ele>
        <time>2018-02-10T16:22:40Z</time>
      </trkpt>
      <trkpt lat="44.17063" lon="4.05307">
        <ele>204</ele>
        <time>2018-02-10T16:22:43Z</time>
      </trkpt>
      <trkpt lat="44.17006" lon="4.05342">
        <ele>206</ele>
        <time>2018-02-10T16:22:47Z</time>
      </trkpt>
      <trkpt lat="44.16952" lon="4.05369">
        <ele>206</ele>
        <time>2018-02-10T16:22:51Z</time>
      </trkpt>
      <trkpt lat="44.16897" lon="4.05403">
        <ele>208</ele>
        <time>2018-02-10T16:22:55Z</time>
      </trkpt>
      <trkpt lat="44.16851" lon="4.05438">
        <ele>208</ele>
        <time>2018-02-10T16:22:59Z</time>
      </trkpt>
      <trkpt lat="44.16789" lon="4.05489">
        <ele>204</ele>
        <time>2018-02-10T16:23:03Z</time>
      </trkpt>
      <trkpt lat="44.16763" lon="4.05541">
        <ele>204</ele>
        <time>2018-02-10T16:23:06Z</time>
      </trkpt>
      <trkpt lat="44.16728" lon="4.05609">
        <ele>207</ele>
        <time>2018-02-10T16:23:10Z</time>
      </trkpt>
      <trkpt lat="44.16698" lon="4.05677">
        <ele>207</ele>
        <time>2018-02-10T16:23:14Z</time>
      </trkpt>
      <trkpt lat="44.16668" lon="4.05749">
        <ele>206</ele>
        <time>2018-02-10T16:23:18Z</time>
      </trkpt>
      <trkpt lat="44.16649" lon="4.05805">
        <ele>206</ele>
        <time>2018-02-10T16:23:21Z</time>
      </trkpt>
      <trkpt lat="44.16627" lon="4.0586">
        <ele>206</ele>
        <time>2018-02-10T16:23:24Z</time>
      </trkpt>
      <trkpt lat="44.16595" lon="4.05923">
        <ele>206</ele>
        <time>2018-02-10T16:23:28Z</time>
      </trkpt>
      <trkpt lat="44.16566" lon="4.05968">
        <ele>206</ele>
        <time>2018-02-10T16:23:31Z</time>
      </trkpt>
      <trkpt lat="44.16531" lon="4.06013">
        <ele>205</ele>
        <time>2018-02-10T16:23:34Z</time>
      </trkpt>
      <trkpt lat="44.16475" lon="4.06065">
        <ele>200</ele>
        <time>2018-02-10T16:23:38Z</time>
      </trkpt>
      <trkpt lat="44.16424" lon="4.06103">
        <ele>198</ele>
        <time>2018-02-10T16:23:42Z</time>
      </trkpt>
      <trkpt lat="44.16388" lon="4.06123">
        <ele>196</ele>
        <time>2018-02-10T16:23:45Z</time>
      </trkpt>
      <trkpt lat="44.16344" lon="4.06143">
        <ele>198</ele>
        <time>2018-02-10T16:23:48Z</time>
      </trkpt>
      <trkpt lat="44.16287" lon="4.06158">
        <ele>200</ele>
        <time>2018-02-10T16:23:52Z</time>
      </trkpt>
      <trkpt lat="44.16231" lon="4.06176">
        <ele>203</ele>
        <time>2018-02-10T16:23:56Z</time>
      </trkpt>
      <trkpt lat="44.16185" lon="4.06188">
        <ele>201</ele>
        <time>2018-02-10T16:23:59Z</time>
      </trkpt>
      <trkpt lat="44.16129" lon="4.06207">
        <ele>202</ele>
        <time>2018-02-10T16:24:03Z</time>
      </trkpt>
      <trkpt lat="44.16066" lon="4.06231">
        <ele>202</ele>
        <time>2018-02-10T16:24:07Z</time>
      </trkpt>
      <trkpt lat="44.1601" lon="4.06263">
        <ele>201</ele>
        <time>2018-02-10T16:24:11Z</time>
      </trkpt>
      <trkpt lat="44.15957" lon="4.06264">
        <ele>206</ele>
        <time>2018-02-10T16:24:15Z</time>
      </trkpt>
      <trkpt lat="44.15916" lon="4.06292">
        <ele>204</ele>
        <time>2018-02-10T16:24:18Z</time>
      </trkpt>
      <trkpt lat="44.1587" lon="4.06306">
        <ele>203</ele>
        <time>2018-02-10T16:24:21Z</time>
      </trkpt>
      <trkpt lat="44.15817" lon="4.06318">
        <ele>203</ele>
        <time>2018-02-10T16:24:25Z</time>
      </trkpt>
      <trkpt lat="44.15769" lon="4.06337">
        <ele>203</ele>
        <time>2018-02-10T16:24:28Z</time>
      </trkpt>
      <trkpt lat="44.15726" lon="4.06348">
        <ele>203</ele>
        <time>2018-02-10T16:24:31Z</time>
      </trkpt>
      <trkpt lat="44.15672" lon="4.06364">
        <ele>204</ele>
        <time>2018-02-10T16:24:35Z</time>
      </trkpt>
      <trkpt lat="44.15615" lon="4.06376">
        <ele>203</ele>
        <time>2018-02-10T16:24:39Z</time>
      </trkpt>
      <trkpt lat="44.15555" lon="4.06388">
        <ele>199</ele>
        <time>2018-02-10T16:24:43Z</time>
      </trkpt>
      <trkpt lat="44.15516" lon="4.06394">
        <ele>196</ele>
        <time>2018-02-10T16:24:46Z</time>
      </trkpt>
      <trkpt lat="44.15448" lon="4.06376">
        <ele>197</ele>
        <time>2018-02-10T16:24:51Z</time>
      </trkpt>
      <trkpt lat="44.15372" lon="4.06347">
        <ele>196</ele>
        <time>2018-02-10T16:24:56Z</time>
      </trkpt>
      <trkpt lat="44.15308" lon="4.06316">
        <ele>197</ele>
        <time>2018-02-10T16:25:00Z</time>
      </trkpt>
      <trkpt lat="44.15279" lon="4.06296">
        <ele>199</ele>
        <time>2018-02-10T16:25:02Z</time>
      </trkpt>
      <trkpt lat="44.15216" lon="4.06247">
        <ele>196</ele>
        <time>2018-02-10T16:25:07Z</time>
      </trkpt>
      <trkpt lat="44.15172" lon="4.06214">
        <ele>191</ele>
        <time>2018-02-10T16:25:10Z</time>
      </trkpt>
      <trkpt lat="44.15119" lon="4.06174">
        <ele>186</ele>
        <time>2018-02-10T16:25:14Z</time>
      </trkpt>
      <trkpt lat="44.15064" lon="4.06136">
        <ele>185</ele>
        <time>2018-02-10T16:25:18Z</time>
      </trkpt>
      <trkpt lat="44.15012" lon="4.06097">
        <ele>183</ele>
        <time>2018-02-10T16:25:22Z</time>
      </trkpt>
      <trkpt lat="44.14957" lon="4.06068">
        <ele>186</ele>
        <time>2018-02-10T16:25:26Z</time>
      </trkpt>
      <trkpt lat="44.14918" lon="4.06059">
        <ele>190</ele>
        <time>2018-02-10T16:25:29Z</time>
      </trkpt>
      <trkpt lat="44.14866" lon="4.06084">
        <ele>193</ele>
        <time>2018-02-10T16:25:33Z</time>
      </trkpt>
      <trkpt lat="44.14813" lon="4.06124">
        <ele>195</ele>
        <time>2018-02-10T16:25:37Z</time>
      </trkpt>
      <trkpt lat="44.14779" lon="4.06164">
        <ele>196</ele>
        <time>2018-02-10T16:25:40Z</time>
      </trkpt>
      <trkpt lat="44.14754" lon="4.06211">
        <ele>197</ele>
        <time>2018-02-10T16:25:43Z</time>
      </trkpt>
      <trkpt lat="44.14735" lon="4.06288">
        <ele>198</ele>
        <time>2018-02-10T16:25:47Z</time>
      </trkpt>
      <trkpt lat="44.14733" lon="4.06373">
        <ele>199</ele>
        <time>2018-02-10T16:25:51Z</time>
      </trkpt>
      <trkpt lat="44.14732" lon="4.06454">
        <ele>198</ele>
        <time>2018-02-10T16:25:55Z</time>
      </trkpt>
      <trkpt lat="44.14733" lon="4.06516">
        <ele>198</ele>
        <time>2018-02-10T16:25:58Z</time>
      </trkpt>
      <trkpt lat="44.1473" lon="4.06599">
        <ele>197</ele>
        <time>2018-02-10T16:26:02Z</time>
      </trkpt>
      <trkpt lat="44.14722" lon="4.06682">
        <ele>200</ele>
        <time>2018-02-10T16:26:06Z</time>
      </trkpt>
      <trkpt lat="44.14712" lon="4.06743">
        <ele>200</ele>
        <time>2018-02-10T16:26:09Z</time>
      </trkpt>
      <trkpt lat="44.14699" lon="4.06825">
        <ele>199</ele>
        <time>2018-02-10T16:26:13Z</time>
      </trkpt>
      <trkpt lat="44.14605" lon="4.07503">
        <ele>219</ele>
        <time>2018-02-10T16:26:47Z</time>
      </trkpt>
      <trkpt lat="44.14584" lon="4.07564">
        <ele>218</ele>
        <time>2018-02-10T16:26:50Z</time>
      </trkpt>
      <trkpt lat="44.14528" lon="4.0761">
        <ele>183</ele>
        <time>2018-02-10T16:26:53Z</time>
      </trkpt>
      <trkpt lat="44.14506" lon="4.07683">
        <ele>190</ele>
        <time>2018-02-10T16:26:57Z</time>
      </trkpt>
      <trkpt lat="44.14482" lon="4.07758">
        <ele>190</ele>
        <time>2018-02-10T16:27:01Z</time>
      </trkpt>
      <trkpt lat="44.14455" lon="4.07833">
        <ele>190</ele>
        <time>2018-02-10T16:27:05Z</time>
      </trkpt>
      <trkpt lat="44.14425" lon="4.07899">
        <ele>193</ele>
        <time>2018-02-10T16:27:09Z</time>
      </trkpt>
      <trkpt lat="44.14381" lon="4.07956">
        <ele>190</ele>
        <time>2018-02-10T16:27:13Z</time>
      </trkpt>
      <trkpt lat="44.14335" lon="4.08006">
        <ele>192</ele>
        <time>2018-02-10T16:27:17Z</time>
      </trkpt>
      <trkpt lat="44.14283" lon="4.08049">
        <ele>192</ele>
        <time>2018-02-10T16:27:21Z</time>
      </trkpt>
      <trkpt lat="44.14244" lon="4.08072">
        <ele>192</ele>
        <time>2018-02-10T16:27:24Z</time>
      </trkpt>
      <trkpt lat="44.14206" lon="4.08097">
        <ele>193</ele>
        <time>2018-02-10T16:27:27Z</time>
      </trkpt>
      <trkpt lat="44.14157" lon="4.08134">
        <ele>193</ele>
        <time>2018-02-10T16:27:31Z</time>
      </trkpt>
      <trkpt lat="44.14126" lon="4.08164">
        <ele>194</ele>
        <time>2018-02-10T16:27:34Z</time>
      </trkpt>
      <trkpt lat="44.14094" lon="4.08199">
        <ele>195</ele>
        <time>2018-02-10T16:27:37Z</time>
      </trkpt>
      <trkpt lat="44.1405" lon="4.08246">
        <ele>192</ele>
        <time>2018-02-10T16:27:41Z</time>
      </trkpt>
      <trkpt lat="44.14009" lon="4.08294">
        <ele>191</ele>
        <time>2018-02-10T16:27:45Z</time>
      </trkpt>
      <trkpt lat="44.13965" lon="4.08335">
        <ele>190</ele>
        <time>2018-02-10T16:27:49Z</time>
      </trkpt>
      <trkpt lat="44.13929" lon="4.08361">
        <ele>189</ele>
        <time>2018-02-10T16:27:52Z</time>
      </trkpt>
      <trkpt lat="44.13881" lon="4.08389">
        <ele>191</ele>
        <time>2018-02-10T16:27:56Z</time>
      </trkpt>
      <trkpt lat="44.13829" lon="4.08408">
        <ele>191</ele>
        <time>2018-02-10T16:28:00Z</time>
      </trkpt>
      <trkpt lat="44.13775" lon="4.08416">
        <ele>191</ele>
        <time>2018-02-10T16:28:04Z</time>
      </trkpt>
      <trkpt lat="44.13722" lon="4.08413">
        <ele>191</ele>
        <time>2018-02-10T16:28:08Z</time>
      </trkpt>
      <trkpt lat="44.13668" lon="4.08407">
        <ele>191</ele>
        <time>2018-02-10T16:28:12Z</time>
      </trkpt>
      <trkpt lat="44.13626" lon="4.08398">
        <ele>191</ele>
        <time>2018-02-10T16:28:15Z</time>
      </trkpt>
      <trkpt lat="44.13587" lon="4.08388">
        <ele>192</ele>
        <time>2018-02-10T16:28:18Z</time>
      </trkpt>
      <trkpt lat="44.13533" lon="4.08364">
        <ele>191</ele>
        <time>2018-02-10T16:28:22Z</time>
      </trkpt>
      <trkpt lat="44.13492" lon="4.08349">
        <ele>190</ele>
        <time>2018-02-10T16:28:25Z</time>
      </trkpt>
      <trkpt lat="44.13438" lon="4.08329">
        <ele>189</ele>
        <time>2018-02-10T16:28:29Z</time>
      </trkpt>
      <trkpt lat="44.13385" lon="4.08304">
        <ele>188</ele>
        <time>2018-02-10T16:28:33Z</time>
      </trkpt>
      <trkpt lat="44.1335" lon="4.08282">
        <ele>189</ele>
        <time>2018-02-10T16:28:36Z</time>
      </trkpt>
      <trkpt lat="44.13301" lon="4.08247">
        <ele>190</ele>
        <time>2018-02-10T16:28:40Z</time>
      </trkpt>
      <trkpt lat="44.13254" lon="4.08204">
        <ele>192</ele>
        <time>2018-02-10T16:28:44Z</time>
      </trkpt>
      <trkpt lat="44.1322" lon="4.08169">
        <ele>190</ele>
        <time>2018-02-10T16:28:47Z</time>
      </trkpt>
      <trkpt lat="44.1318" lon="4.08118">
        <ele>189</ele>
        <time>2018-02-10T16:28:51Z</time>
      </trkpt>
      <trkpt lat="44.13137" lon="4.08077">
        <ele>188</ele>
        <time>2018-02-10T16:28:55Z</time>
      </trkpt>
      <trkpt lat="44.1309" lon="4.08052">
        <ele>189</ele>
        <time>2018-02-10T16:28:59Z</time>
      </trkpt>
      <trkpt lat="44.13053" lon="4.08037">
        <ele>187</ele>
        <time>2018-02-10T16:29:02Z</time>
      </trkpt>
      <trkpt lat="44.13011" lon="4.08051">
        <ele>186</ele>
        <time>2018-02-10T16:29:05Z</time>
      </trkpt>
      <trkpt lat="44.12846" lon="4.0818">
        <ele>184</ele>
        <time>2018-02-10T16:29:23Z</time>
      </trkpt>
      <trkpt lat="44.12823" lon="4.08227">
        <ele>188</ele>
        <time>2018-02-10T16:29:27Z</time>
      </trkpt>
      <trkpt lat="44.12808" lon="4.08275">
        <ele>190</ele>
        <time>2018-02-10T16:29:31Z</time>
      </trkpt>
      <trkpt lat="44.12801" lon="4.08315">
        <ele>189</ele>
        <time>2018-02-10T16:29:34Z</time>
      </trkpt>
      <trkpt lat="44.12797" lon="4.08354">
        <ele>190</ele>
        <time>2018-02-10T16:29:37Z</time>
      </trkpt>
      <trkpt lat="44.12795" lon="4.08397">
        <ele>190</ele>
        <time>2018-02-10T16:29:41Z</time>
      </trkpt>
      <trkpt lat="44.12796" lon="4.08433">
        <ele>189</ele>
        <time>2018-02-10T16:29:45Z</time>
      </trkpt>
      <trkpt lat="44.12797" lon="4.08454">
        <ele>188</ele>
        <time>2018-02-10T16:29:48Z</time>
      </trkpt>
      <trkpt lat="44.12799" lon="4.08477">
        <ele>190</ele>
        <time>2018-02-10T16:29:52Z</time>
      </trkpt>
      <trkpt lat="44.12799" lon="4.08483">
        <ele>190</ele>
        <time>2018-02-10T16:29:55Z</time>
      </trkpt>
      <trkpt lat="44.12798" lon="4.08484">
        <ele>187</ele>
        <time>2018-02-10T16:29:59Z</time>
      </trkpt>
      <trkpt lat="44.12797" lon="4.08481">
        <ele>187</ele>
        <time>2018-02-10T16:30:03Z</time>
      </trkpt>
      <trkpt lat="44.12785" lon="4.08484">
        <ele>188</ele>
        <time>2018-02-10T16:30:06Z</time>
      </trkpt>
      <trkpt lat="44.12785" lon="4.08492">
        <ele>187</ele>
        <time>2018-02-10T16:30:09Z</time>
      </trkpt>
      <trkpt lat="44.12791" lon="4.08491">
        <ele>188</ele>
        <time>2018-02-10T16:30:13Z</time>
      </trkpt>
      <trkpt lat="44.12792" lon="4.0849">
        <ele>187</ele>
        <time>2018-02-10T16:30:17Z</time>
      </trkpt>
      <trkpt lat="44.12793" lon="4.0849">
        <ele>186</ele>
        <time>2018-02-10T16:30:21Z</time>
      </trkpt>
      <trkpt lat="44.12792" lon="4.0849">
        <ele>185</ele>
        <time>2018-02-10T16:30:24Z</time>
      </trkpt>
      <trkpt lat="44.12793" lon="4.0849">
        <ele>185</ele>
        <time>2018-02-10T16:30:28Z</time>
      </trkpt>
      <trkpt lat="44.12793" lon="4.0849">
        <ele>185</ele>
        <time>2018-02-10T16:30:31Z</time>
      </trkpt>
      <trkpt lat="44.12793" lon="4.0849">
        <ele>186</ele>
        <time>2018-02-10T16:30:35Z</time>
      </trkpt>
      <trkpt lat="44.12793" lon="4.0849">
        <ele>186</ele>
        <time>2018-02-10T16:30:38Z</time>
      </trkpt>
      <trkpt lat="44.12793" lon="4.0849">
        <ele>186</ele>
        <time>2018-02-10T16:30:42Z</time>
      </trkpt>
      <trkpt lat="44.12793" lon="4.0849">
        <ele>186</ele>
        <time>2018-02-10T16:30:46Z</time>
      </trkpt>
      <trkpt lat="44.12793" lon="4.0849">
        <ele>186</ele>
        <time>2018-02-10T16:30:50Z</time>
      </trkpt>
      <trkpt lat="44.12799" lon="4.08496">
        <ele>186</ele>
        <time>2018-02-10T16:30:54Z</time>
      </trkpt>
      <trkpt lat="44.128" lon="4.08505">
        <ele>185</ele>
        <time>2018-02-10T16:30:57Z</time>
      </trkpt>
      <trkpt lat="44.12801" lon="4.08527">
        <ele>189</ele>
        <time>2018-02-10T16:31:01Z</time>
      </trkpt>
      <trkpt lat="44.12804" lon="4.08547">
        <ele>187</ele>
        <time>2018-02-10T16:31:04Z</time>
      </trkpt>
      <trkpt lat="44.12803" lon="4.0858">
        <ele>188</ele>
        <time>2018-02-10T16:31:08Z</time>
      </trkpt>
      <trkpt lat="44.12804" lon="4.08609">
        <ele>189</ele>
        <time>2018-02-10T16:31:12Z</time>
      </trkpt>
      <trkpt lat="44.12804" lon="4.08637">
        <ele>187</ele>
        <time>2018-02-10T16:31:15Z</time>
      </trkpt>
      <trkpt lat="44.12805" lon="4.08665">
        <ele>187</ele>
        <time>2018-02-10T16:31:18Z</time>
      </trkpt>
      <trkpt lat="44.12803" lon="4.08693">
        <ele>187</ele>
        <time>2018-02-10T16:31:21Z</time>
      </trkpt>
      <trkpt lat="44.128" lon="4.08731">
        <ele>190</ele>
        <time>2018-02-10T16:31:25Z</time>
      </trkpt>
      <trkpt lat="44.12796" lon="4.0877">
        <ele>190</ele>
        <time>2018-02-10T16:31:29Z</time>
      </trkpt>
      <trkpt lat="44.12789" lon="4.08806">
        <ele>190</ele>
        <time>2018-02-10T16:31:33Z</time>
      </trkpt>
      <trkpt lat="44.12783" lon="4.08833">
        <ele>190</ele>
        <time>2018-02-10T16:31:36Z</time>
      </trkpt>
      <trkpt lat="44.12782" lon="4.08862">
        <ele>191</ele>
        <time>2018-02-10T16:31:39Z</time>
      </trkpt>
      <trkpt lat="44.12775" lon="4.08897">
        <ele>191</ele>
        <time>2018-02-10T16:31:43Z</time>
      </trkpt>
      <trkpt lat="44.1275" lon="4.08947">
        <ele>190</ele>
        <time>2018-02-10T16:31:49Z</time>
      </trkpt>
      <trkpt lat="44.12733" lon="4.08981">
        <ele>192</ele>
        <time>2018-02-10T16:31:53Z</time>
      </trkpt>
      <trkpt lat="44.12712" lon="4.09019">
        <ele>189</ele>
        <time>2018-02-10T16:31:57Z</time>
      </trkpt>
      <trkpt lat="44.12692" lon="4.09057">
        <ele>188</ele>
        <time>2018-02-10T16:32:01Z</time>
      </trkpt>
      <trkpt lat="44.12669" lon="4.09091">
        <ele>189</ele>
        <time>2018-02-10T16:32:05Z</time>
      </trkpt>
      <trkpt lat="44.12646" lon="4.09121">
        <ele>188</ele>
        <time>2018-02-10T16:32:09Z</time>
      </trkpt>
      <trkpt lat="44.12623" lon="4.09147">
        <ele>189</ele>
        <time>2018-02-10T16:32:12Z</time>
      </trkpt>
      <trkpt lat="44.12597" lon="4.09173">
        <ele>190</ele>
        <time>2018-02-10T16:32:15Z</time>
      </trkpt>
      <trkpt lat="44.12569" lon="4.09196">
        <ele>190</ele>
        <time>2018-02-10T16:32:18Z</time>
      </trkpt>
      <trkpt lat="44.12522" lon="4.09225">
        <ele>186</ele>
        <time>2018-02-10T16:32:22Z</time>
      </trkpt>
      <trkpt lat="44.12484" lon="4.09244">
        <ele>187</ele>
        <time>2018-02-10T16:32:25Z</time>
      </trkpt>
      <trkpt lat="44.12432" lon="4.09263">
        <ele>186</ele>
        <time>2018-02-10T16:32:29Z</time>
      </trkpt>
      <trkpt lat="44.12388" lon="4.09272">
        <ele>187</ele>
        <time>2018-02-10T16:32:32Z</time>
      </trkpt>
      <trkpt lat="44.12343" lon="4.09274">
        <ele>187</ele>
        <time>2018-02-10T16:32:35Z</time>
      </trkpt>
      <trkpt lat="44.12279" lon="4.09273">
        <ele>183</ele>
        <time>2018-02-10T16:32:39Z</time>
      </trkpt>
      <trkpt lat="44.12232" lon="4.09279">
        <ele>181</ele>
        <time>2018-02-10T16:32:42Z</time>
      </trkpt>
      <trkpt lat="44.12169" lon="4.09297">
        <ele>181</ele>
        <time>2018-02-10T16:32:46Z</time>
      </trkpt>
      <trkpt lat="44.12121" lon="4.09318">
        <ele>183</ele>
        <time>2018-02-10T16:32:49Z</time>
      </trkpt>
      <trkpt lat="44.12072" lon="4.09351">
        <ele>182</ele>
        <time>2018-02-10T16:32:52Z</time>
      </trkpt>
      <trkpt lat="44.12014" lon="4.09396">
        <ele>183</ele>
        <time>2018-02-10T16:32:56Z</time>
      </trkpt>
      <trkpt lat="44.1195" lon="4.09438">
        <ele>179</ele>
        <time>2018-02-10T16:33:00Z</time>
      </trkpt>
      <trkpt lat="44.11886" lon="4.09482">
        <ele>177</ele>
        <time>2018-02-10T16:33:04Z</time>
      </trkpt>
      <trkpt lat="44.11839" lon="4.09511">
        <ele>178</ele>
        <time>2018-02-10T16:33:07Z</time>
      </trkpt>
      <trkpt lat="44.11783" lon="4.09541">
        <ele>181</ele>
        <time>2018-02-10T16:33:10Z</time>
      </trkpt>
      <trkpt lat="44.11718" lon="4.0958">
        <ele>180</ele>
        <time>2018-02-10T16:33:14Z</time>
      </trkpt>
      <trkpt lat="44.11668" lon="4.0961">
        <ele>180</ele>
        <time>2018-02-10T16:33:17Z</time>
      </trkpt>
      <trkpt lat="44.11594" lon="4.09653">
        <ele>180</ele>
        <time>2018-02-10T16:33:21Z</time>
      </trkpt>
      <trkpt lat="44.11544" lon="4.09682">
        <ele>179</ele>
        <time>2018-02-10T16:33:24Z</time>
      </trkpt>
      <trkpt lat="44.11466" lon="4.09716">
        <ele>179</ele>
        <time>2018-02-10T16:33:28Z</time>
      </trkpt>
      <trkpt lat="44.11387" lon="4.09764">
        <ele>178</ele>
        <time>2018-02-10T16:33:32Z</time>
      </trkpt>
      <trkpt lat="44.113" lon="4.09828">
        <ele>183</ele>
        <time>2018-02-10T16:33:35Z</time>
      </trkpt>
      <trkpt lat="44.11212" lon="4.09874">
        <ele>180</ele>
        <time>2018-02-10T16:33:39Z</time>
      </trkpt>
      <trkpt lat="44.11142" lon="4.09917">
        <ele>176</ele>
        <time>2018-02-10T16:33:42Z</time>
      </trkpt>
      <trkpt lat="44.11048" lon="4.09977">
        <ele>177</ele>
        <time>2018-02-10T16:33:46Z</time>
      </trkpt>
      <trkpt lat="44.10951" lon="4.10033">
        <ele>180</ele>
        <time>2018-02-10T16:33:50Z</time>
      </trkpt>
      <trkpt lat="44.10846" lon="4.10099">
        <ele>185</ele>
        <time>2018-02-10T16:33:54Z</time>
      </trkpt>
      <trkpt lat="44.10743" lon="4.10159">
        <ele>183</ele>
        <time>2018-02-10T16:33:58Z</time>
      </trkpt>
      <trkpt lat="44.10635" lon="4.10214">
        <ele>181</ele>
        <time>2018-02-10T16:34:02Z</time>
      </trkpt>
      <trkpt lat="44.10551" lon="4.1025">
        <ele>177</ele>
        <time>2018-02-10T16:34:05Z</time>
      </trkpt>
      <trkpt lat="44.10466" lon="4.10286">
        <ele>177</ele>
        <time>2018-02-10T16:34:08Z</time>
      </trkpt>
      <trkpt lat="44.10349" lon="4.10334">
        <ele>179</ele>
        <time>2018-02-10T16:34:12Z</time>
      </trkpt>
      <trkpt lat="44.10231" lon="4.10381">
        <ele>179</ele>
        <time>2018-02-10T16:34:16Z</time>
      </trkpt>
      <trkpt lat="44.10113" lon="4.10429">
        <ele>177</ele>
        <time>2018-02-10T16:34:20Z</time>
      </trkpt>
      <trkpt lat="44.10031" lon="4.1046">
        <ele>177</ele>
        <time>2018-02-10T16:34:23Z</time>
      </trkpt>
      <trkpt lat="44.09949" lon="4.10485">
        <ele>175</ele>
        <time>2018-02-10T16:34:26Z</time>
      </trkpt>
      <trkpt lat="44.09831" lon="4.10501">
        <ele>172</ele>
        <time>2018-02-10T16:34:30Z</time>
      </trkpt>
      <trkpt lat="44.09746" lon="4.10512">
        <ele>173</ele>
        <time>2018-02-10T16:34:33Z</time>
      </trkpt>
      <trkpt lat="44.0963" lon="4.10508">
        <ele>174</ele>
        <time>2018-02-10T16:34:37Z</time>
      </trkpt>
      <trkpt lat="44.09511" lon="4.10521">
        <ele>177</ele>
        <time>2018-02-10T16:34:41Z</time>
      </trkpt>
      <trkpt lat="44.09392" lon="4.10545">
        <ele>173</ele>
        <time>2018-02-10T16:34:45Z</time>
      </trkpt>
      <trkpt lat="44.09304" lon="4.10573">
        <ele>172</ele>
        <time>2018-02-10T16:34:48Z</time>
      </trkpt>
      <trkpt lat="44.09215" lon="4.10611">
        <ele>174</ele>
        <time>2018-02-10T16:34:51Z</time>
      </trkpt>
      <trkpt lat="44.09103" lon="4.10674">
        <ele>170</ele>
        <time>2018-02-10T16:34:55Z</time>
      </trkpt>
      <trkpt lat="44.08994" lon="4.10747">
        <ele>171</ele>
        <time>2018-02-10T16:34:59Z</time>
      </trkpt>
      <trkpt lat="44.08914" lon="4.10805">
        <ele>171</ele>
        <time>2018-02-10T16:35:02Z</time>
      </trkpt>
      <trkpt lat="44.08811" lon="4.10879">
        <ele>173</ele>
        <time>2018-02-10T16:35:06Z</time>
      </trkpt>
      <trkpt lat="44.087" lon="4.1095">
        <ele>172</ele>
        <time>2018-02-10T16:35:10Z</time>
      </trkpt>
      <trkpt lat="44.08593" lon="4.11025">
        <ele>173</ele>
        <time>2018-02-10T16:35:14Z</time>
      </trkpt>
      <trkpt lat="44.08508" lon="4.11084">
        <ele>171</ele>
        <time>2018-02-10T16:35:17Z</time>
      </trkpt>
      <trkpt lat="44.08396" lon="4.11149">
        <ele>169</ele>
        <time>2018-02-10T16:35:21Z</time>
      </trkpt>
      <trkpt lat="44.08289" lon="4.11205">
        <ele>169</ele>
        <time>2018-02-10T16:35:25Z</time>
      </trkpt>
      <trkpt lat="44.08174" lon="4.11261">
        <ele>168</ele>
        <time>2018-02-10T16:35:29Z</time>
      </trkpt>
      <trkpt lat="44.08085" lon="4.11289">
        <ele>170</ele>
        <time>2018-02-10T16:35:32Z</time>
      </trkpt>
      <trkpt lat="44.07968" lon="4.11337">
        <ele>169</ele>
        <time>2018-02-10T16:35:36Z</time>
      </trkpt>
      <trkpt lat="44.07849" lon="4.11383">
        <ele>168</ele>
        <time>2018-02-10T16:35:40Z</time>
      </trkpt>
      <trkpt lat="44.07766" lon="4.11434">
        <ele>170</ele>
        <time>2018-02-10T16:35:44Z</time>
      </trkpt>
      <trkpt lat="44.07645" lon="4.11484">
        <ele>173</ele>
        <time>2018-02-10T16:35:48Z</time>
      </trkpt>
      <trkpt lat="44.07548" lon="4.11518">
        <ele>174</ele>
        <time>2018-02-10T16:35:51Z</time>
      </trkpt>
      <trkpt lat="44.07427" lon="4.11537">
        <ele>175</ele>
        <time>2018-02-10T16:35:55Z</time>
      </trkpt>
      <trkpt lat="44.07304" lon="4.1154">
        <ele>171</ele>
        <time>2018-02-10T16:35:59Z</time>
      </trkpt>
      <trkpt lat="44.0719" lon="4.11524">
        <ele>164</ele>
        <time>2018-02-10T16:36:03Z</time>
      </trkpt>
      <trkpt lat="44.07065" lon="4.11496">
        <ele>161</ele>
        <time>2018-02-10T16:36:07Z</time>
      </trkpt>
      <trkpt lat="44.06978" lon="4.11495">
        <ele>159</ele>
        <time>2018-02-10T16:36:10Z</time>
      </trkpt>
      <trkpt lat="44.06858" lon="4.11507">
        <ele>159</ele>
        <time>2018-02-10T16:36:14Z</time>
      </trkpt>
      <trkpt lat="44.0678" lon="4.1154">
        <ele>158</ele>
        <time>2018-02-10T16:36:17Z</time>
      </trkpt>
      <trkpt lat="44.06671" lon="4.11584">
        <ele>158</ele>
        <time>2018-02-10T16:36:21Z</time>
      </trkpt>
      <trkpt lat="44.06534" lon="4.11634">
        <ele>163</ele>
        <time>2018-02-10T16:36:25Z</time>
      </trkpt>
      <trkpt lat="44.0642" lon="4.11651">
        <ele>169</ele>
        <time>2018-02-10T16:36:29Z</time>
      </trkpt>
      <trkpt lat="44.06299" lon="4.11646">
        <ele>167</ele>
        <time>2018-02-10T16:36:33Z</time>
      </trkpt>
      <trkpt lat="44.06216" lon="4.11629">
        <ele>161</ele>
        <time>2018-02-10T16:36:36Z</time>
      </trkpt>
      <trkpt lat="44.06129" lon="4.11602">
        <ele>162</ele>
        <time>2018-02-10T16:36:39Z</time>
      </trkpt>
      <trkpt lat="44.06018" lon="4.1156">
        <ele>174</ele>
        <time>2018-02-10T16:36:43Z</time>
      </trkpt>
      <trkpt lat="44.05906" lon="4.1152">
        <ele>167</ele>
        <time>2018-02-10T16:36:47Z</time>
      </trkpt>
      <trkpt lat="44.05821" lon="4.11492">
        <ele>162</ele>
        <time>2018-02-10T16:36:50Z</time>
      </trkpt>
      <trkpt lat="44.05708" lon="4.11451">
        <ele>158</ele>
        <time>2018-02-10T16:36:54Z</time>
      </trkpt>
      <trkpt lat="44.0558" lon="4.11412">
        <ele>156</ele>
        <time>2018-02-10T16:36:58Z</time>
      </trkpt>
      <trkpt lat="44.0547" lon="4.11384">
        <ele>155</ele>
        <time>2018-02-10T16:37:02Z</time>
      </trkpt>
      <trkpt lat="44.05352" lon="4.11387">
        <ele>155</ele>
        <time>2018-02-10T16:37:06Z</time>
      </trkpt>
      <trkpt lat="44.05271" lon="4.11403">
        <ele>160</ele>
        <time>2018-02-10T16:37:09Z</time>
      </trkpt>
      <trkpt lat="44.0515" lon="4.11491">
        <ele>157</ele>
        <time>2018-02-10T16:37:13Z</time>
      </trkpt>
      <trkpt lat="44.0506" lon="4.11556">
        <ele>158</ele>
        <time>2018-02-10T16:37:16Z</time>
      </trkpt>
      <trkpt lat="44.0495" lon="4.11608">
        <ele>155</ele>
        <time>2018-02-10T16:37:20Z</time>
      </trkpt>
      <trkpt lat="44.04864" lon="4.11636">
        <ele>153</ele>
        <time>2018-02-10T16:37:23Z</time>
      </trkpt>
      <trkpt lat="44.04745" lon="4.11659">
        <ele>152</ele>
        <time>2018-02-10T16:37:27Z</time>
      </trkpt>
      <trkpt lat="44.04633" lon="4.11661">
        <ele>153</ele>
        <time>2018-02-10T16:37:31Z</time>
      </trkpt>
      <trkpt lat="44.04552" lon="4.11633">
        <ele>151</ele>
        <time>2018-02-10T16:37:34Z</time>
      </trkpt>
      <trkpt lat="44.04449" lon="4.11596">
        <ele>151</ele>
        <time>2018-02-10T16:37:38Z</time>
      </trkpt>
      <trkpt lat="44.04347" lon="4.11556">
        <ele>149</ele>
        <time>2018-02-10T16:37:42Z</time>
      </trkpt>
      <trkpt lat="44.04133" lon="4.11549">
        <ele>150</ele>
        <time>2018-02-10T16:37:51Z</time>
      </trkpt>
      <trkpt lat="44.04034" lon="4.11645">
        <ele>149</ele>
        <time>2018-02-10T16:37:55Z</time>
      </trkpt>
      <trkpt lat="44.03941" lon="4.11731">
        <ele>148</ele>
        <time>2018-02-10T16:37:59Z</time>
      </trkpt>
      <trkpt lat="44.03873" lon="4.11869">
        <ele>147</ele>
        <time>2018-02-10T16:38:03Z</time>
      </trkpt>
      <trkpt lat="44.03804" lon="4.12014">
        <ele>143</ele>
        <time>2018-02-10T16:38:07Z</time>
      </trkpt>
      <trkpt lat="44.03752" lon="4.12151">
        <ele>146</ele>
        <time>2018-02-10T16:38:11Z</time>
      </trkpt>
      <trkpt lat="44.03731" lon="4.12259">
        <ele>148</ele>
        <time>2018-02-10T16:38:14Z</time>
      </trkpt>
      <trkpt lat="44.03712" lon="4.12414">
        <ele>151</ele>
        <time>2018-02-10T16:38:18Z</time>
      </trkpt>
      <trkpt lat="44.03705" lon="4.12567">
        <ele>150</ele>
        <time>2018-02-10T16:38:22Z</time>
      </trkpt>
      <trkpt lat="44.03714" lon="4.12686">
        <ele>148</ele>
        <time>2018-02-10T16:38:25Z</time>
      </trkpt>
      <trkpt lat="44.03734" lon="4.12835">
        <ele>146</ele>
        <time>2018-02-10T16:38:29Z</time>
      </trkpt>
      <trkpt lat="44.03765" lon="4.12989">
        <ele>149</ele>
        <time>2018-02-10T16:38:33Z</time>
      </trkpt>
      <trkpt lat="44.03797" lon="4.13138">
        <ele>147</ele>
        <time>2018-02-10T16:38:37Z</time>
      </trkpt>
      <trkpt lat="44.03817" lon="4.13299">
        <ele>148</ele>
        <time>2018-02-10T16:38:41Z</time>
      </trkpt>
      <trkpt lat="44.03824" lon="4.13422">
        <ele>149</ele>
        <time>2018-02-10T16:38:44Z</time>
      </trkpt>
      <trkpt lat="44.03826" lon="4.13539">
        <ele>148</ele>
        <time>2018-02-10T16:38:47Z</time>
      </trkpt>
      <trkpt lat="44.03812" lon="4.13655">
        <ele>151</ele>
        <time>2018-02-10T16:38:50Z</time>
      </trkpt>
      <trkpt lat="44.03785" lon="4.13817">
        <ele>149</ele>
        <time>2018-02-10T16:38:54Z</time>
      </trkpt>
      <trkpt lat="44.03752" lon="4.13975">
        <ele>149</ele>
        <time>2018-02-10T16:38:58Z</time>
      </trkpt>
      <trkpt lat="44.0369" lon="4.14119">
        <ele>152</ele>
        <time>2018-02-10T16:39:02Z</time>
      </trkpt>
      <trkpt lat="44.0364" lon="4.14222">
        <ele>153</ele>
        <time>2018-02-10T16:39:05Z</time>
      </trkpt>
      <trkpt lat="44.03586" lon="4.14321">
        <ele>151</ele>
        <time>2018-02-10T16:39:08Z</time>
      </trkpt>
      <trkpt lat="44.03526" lon="4.1442">
        <ele>145</ele>
        <time>2018-02-10T16:39:11Z</time>
      </trkpt>
      <trkpt lat="44.03452" lon="4.14486">
        <ele>146</ele>
        <time>2018-02-10T16:39:14Z</time>
      </trkpt>
      <trkpt lat="44.03354" lon="4.14566">
        <ele>144</ele>
        <time>2018-02-10T16:39:18Z</time>
      </trkpt>
      <trkpt lat="44.03242" lon="4.14651">
        <ele>141</ele>
        <time>2018-02-10T16:39:22Z</time>
      </trkpt>
      <trkpt lat="44.03172" lon="4.14711">
        <ele>139</ele>
        <time>2018-02-10T16:39:25Z</time>
      </trkpt>
      <trkpt lat="44.03089" lon="4.14767">
        <ele>139</ele>
        <time>2018-02-10T16:39:28Z</time>
      </trkpt>
      <trkpt lat="44.03005" lon="4.14816">
        <ele>138</ele>
        <time>2018-02-10T16:39:31Z</time>
      </trkpt>
      <trkpt lat="44.02875" lon="4.14901">
        <ele>136</ele>
        <time>2018-02-10T16:39:36Z</time>
      </trkpt>
      <trkpt lat="44.02376" lon="4.15281">
        <ele>135</ele>
        <time>2018-02-10T16:39:55Z</time>
      </trkpt>
      <trkpt lat="44.02265" lon="4.15328">
        <ele>140</ele>
        <time>2018-02-10T16:39:59Z</time>
      </trkpt>
      <trkpt lat="44.02191" lon="4.15386">
        <ele>143</ele>
        <time>2018-02-10T16:40:02Z</time>
      </trkpt>
      <trkpt lat="44.02086" lon="4.15464">
        <ele>145</ele>
        <time>2018-02-10T16:40:06Z</time>
      </trkpt>
      <trkpt lat="44.01969" lon="4.1554">
        <ele>144</ele>
        <time>2018-02-10T16:40:10Z</time>
      </trkpt>
      <trkpt lat="44.01896" lon="4.15594">
        <ele>149</ele>
        <time>2018-02-10T16:40:13Z</time>
      </trkpt>
      <trkpt lat="44.01822" lon="4.15648">
        <ele>151</ele>
        <time>2018-02-10T16:40:16Z</time>
      </trkpt>
      <trkpt lat="44.01715" lon="4.15721">
        <ele>157</ele>
        <time>2018-02-10T16:40:20Z</time>
      </trkpt>
      <trkpt lat="44.01616" lon="4.158">
        <ele>158</ele>
        <time>2018-02-10T16:40:24Z</time>
      </trkpt>
      <trkpt lat="44.01539" lon="4.15862">
        <ele>160</ele>
        <time>2018-02-10T16:40:27Z</time>
      </trkpt>
      <trkpt lat="44.01443" lon="4.15962">
        <ele>157</ele>
        <time>2018-02-10T16:40:31Z</time>
      </trkpt>
      <trkpt lat="44.01351" lon="4.16061">
        <ele>151</ele>
        <time>2018-02-10T16:40:35Z</time>
      </trkpt>
      <trkpt lat="44.01261" lon="4.1617">
        <ele>148</ele>
        <time>2018-02-10T16:40:39Z</time>
      </trkpt>
      <trkpt lat="44.01178" lon="4.16282">
        <ele>149</ele>
        <time>2018-02-10T16:40:43Z</time>
      </trkpt>
      <trkpt lat="44.01095" lon="4.16413">
        <ele>148</ele>
        <time>2018-02-10T16:40:47Z</time>
      </trkpt>
      <trkpt lat="44.01023" lon="4.16537">
        <ele>149</ele>
        <time>2018-02-10T16:40:51Z</time>
      </trkpt>
      <trkpt lat="44.00937" lon="4.16649">
        <ele>146</ele>
        <time>2018-02-10T16:40:55Z</time>
      </trkpt>
      <trkpt lat="44.00854" lon="4.16749">
        <ele>145</ele>
        <time>2018-02-10T16:40:59Z</time>
      </trkpt>
      <trkpt lat="44.00777" lon="4.16816">
        <ele>147</ele>
        <time>2018-02-10T16:41:02Z</time>
      </trkpt>
      <trkpt lat="44.00688" lon="4.16906">
        <ele>150</ele>
        <time>2018-02-10T16:41:06Z</time>
      </trkpt>
      <trkpt lat="44.0061" lon="4.16968">
        <ele>147</ele>
        <time>2018-02-10T16:41:09Z</time>
      </trkpt>
      <trkpt lat="44.00514" lon="4.17058">
        <ele>145</ele>
        <time>2018-02-10T16:41:13Z</time>
      </trkpt>
      <trkpt lat="44.00432" lon="4.17136">
        <ele>144</ele>
        <time>2018-02-10T16:41:17Z</time>
      </trkpt>
      <trkpt lat="44.00352" lon="4.17217">
        <ele>142</ele>
        <time>2018-02-10T16:41:20Z</time>
      </trkpt>
      <trkpt lat="44.00277" lon="4.17292">
        <ele>142</ele>
        <time>2018-02-10T16:41:23Z</time>
      </trkpt>
      <trkpt lat="44.00181" lon="4.17371">
        <ele>143</ele>
        <time>2018-02-10T16:41:27Z</time>
      </trkpt>
      <trkpt lat="44.00098" lon="4.17472">
        <ele>144</ele>
        <time>2018-02-10T16:41:31Z</time>
      </trkpt>
      <trkpt lat="44.0001" lon="4.17572">
        <ele>140</ele>
        <time>2018-02-10T16:41:35Z</time>
      </trkpt>
      <trkpt lat="43.99942" lon="4.17696">
        <ele>140</ele>
        <time>2018-02-10T16:41:39Z</time>
      </trkpt>
      <trkpt lat="43.99883" lon="4.17832">
        <ele>139</ele>
        <time>2018-02-10T16:41:43Z</time>
      </trkpt>
      <trkpt lat="43.99846" lon="4.17941">
        <ele>139</ele>
        <time>2018-02-10T16:41:46Z</time>
      </trkpt>
      <trkpt lat="43.99799" lon="4.18095">
        <ele>138</ele>
        <time>2018-02-10T16:41:50Z</time>
      </trkpt>
      <trkpt lat="43.9976" lon="4.182">
        <ele>136</ele>
        <time>2018-02-10T16:41:53Z</time>
      </trkpt>
      <trkpt lat="43.997" lon="4.18332">
        <ele>137</ele>
        <time>2018-02-10T16:41:57Z</time>
      </trkpt>
      <trkpt lat="43.99625" lon="4.1844">
        <ele>137</ele>
        <time>2018-02-10T16:42:01Z</time>
      </trkpt>
      <trkpt lat="43.99566" lon="4.18528">
        <ele>137</ele>
        <time>2018-02-10T16:42:04Z</time>
      </trkpt>
      <trkpt lat="43.99392" lon="4.18688">
        <ele>134</ele>
        <time>2018-02-10T16:42:11Z</time>
      </trkpt>
      <trkpt lat="43.99294" lon="4.18751">
        <ele>134</ele>
        <time>2018-02-10T16:42:15Z</time>
      </trkpt>
      <trkpt lat="43.9922" lon="4.1881">
        <ele>134</ele>
        <time>2018-02-10T16:42:18Z</time>
      </trkpt>
      <trkpt lat="43.99118" lon="4.1887">
        <ele>134</ele>
        <time>2018-02-10T16:42:22Z</time>
      </trkpt>
      <trkpt lat="43.99041" lon="4.18911">
        <ele>134</ele>
        <time>2018-02-10T16:42:25Z</time>
      </trkpt>
      <trkpt lat="43.98943" lon="4.18966">
        <ele>133</ele>
        <time>2018-02-10T16:42:29Z</time>
      </trkpt>
      <trkpt lat="43.9889" lon="4.18996">
        <ele>135</ele>
        <time>2018-02-10T16:42:32Z</time>
      </trkpt>
      <trkpt lat="43.98819" lon="4.19038">
        <ele>141</ele>
        <time>2018-02-10T16:42:35Z</time>
      </trkpt>
      <trkpt lat="43.9872" lon="4.19157">
        <ele>144</ele>
        <time>2018-02-10T16:42:39Z</time>
      </trkpt>
      <trkpt lat="43.98658" lon="4.19217">
        <ele>144</ele>
        <time>2018-02-10T16:42:42Z</time>
      </trkpt>
      <trkpt lat="43.98571" lon="4.19347">
        <ele>142</ele>
        <time>2018-02-10T16:42:46Z</time>
      </trkpt>
      <trkpt lat="43.98492" lon="4.19465">
        <ele>143</ele>
        <time>2018-02-10T16:42:50Z</time>
      </trkpt>
      <trkpt lat="43.98426" lon="4.19542">
        <ele>142</ele>
        <time>2018-02-10T16:42:53Z</time>
      </trkpt>
      <trkpt lat="43.98357" lon="4.19655">
        <ele>141</ele>
        <time>2018-02-10T16:42:57Z</time>
      </trkpt>
      <trkpt lat="43.98283" lon="4.19763">
        <ele>145</ele>
        <time>2018-02-10T16:43:01Z</time>
      </trkpt>
      <trkpt lat="43.98233" lon="4.19844">
        <ele>144</ele>
        <time>2018-02-10T16:43:04Z</time>
      </trkpt>
      <trkpt lat="43.98173" lon="4.19931">
        <ele>140</ele>
        <time>2018-02-10T16:43:07Z</time>
      </trkpt>
      <trkpt lat="43.98095" lon="4.20037">
        <ele>141</ele>
        <time>2018-02-10T16:43:11Z</time>
      </trkpt>
      <trkpt lat="43.98029" lon="4.20145">
        <ele>140</ele>
        <time>2018-02-10T16:43:15Z</time>
      </trkpt>
      <trkpt lat="43.97969" lon="4.20221">
        <ele>140</ele>
        <time>2018-02-10T16:43:18Z</time>
      </trkpt>
      <trkpt lat="43.97893" lon="4.20326">
        <ele>141</ele>
        <time>2018-02-10T16:43:22Z</time>
      </trkpt>
      <trkpt lat="43.97839" lon="4.20405">
        <ele>142</ele>
        <time>2018-02-10T16:43:25Z</time>
      </trkpt>
      <trkpt lat="43.97767" lon="4.20507">
        <ele>138</ele>
        <time>2018-02-10T16:43:29Z</time>
      </trkpt>
      <trkpt lat="43.97693" lon="4.20614">
        <ele>136</ele>
        <time>2018-02-10T16:43:33Z</time>
      </trkpt>
      <trkpt lat="43.97617" lon="4.20724">
        <ele>134</ele>
        <time>2018-02-10T16:43:37Z</time>
      </trkpt>
      <trkpt lat="43.97557" lon="4.20799">
        <ele>132</ele>
        <time>2018-02-10T16:43:40Z</time>
      </trkpt>
      <trkpt lat="43.9748" lon="4.20898">
        <ele>133</ele>
        <time>2018-02-10T16:43:44Z</time>
      </trkpt>
      <trkpt lat="43.97406" lon="4.21003">
        <ele>130</ele>
        <time>2018-02-10T16:43:48Z</time>
      </trkpt>
      <trkpt lat="43.97354" lon="4.21079">
        <ele>129</ele>
        <time>2018-02-10T16:43:51Z</time>
      </trkpt>
      <trkpt lat="43.97298" lon="4.21158">
        <ele>128</ele>
        <time>2018-02-10T16:43:54Z</time>
      </trkpt>
      <trkpt lat="43.97244" lon="4.21239">
        <ele>127</ele>
        <time>2018-02-10T16:43:57Z</time>
      </trkpt>
      <trkpt lat="43.9719" lon="4.21319">
        <ele>127</ele>
        <time>2018-02-10T16:44:00Z</time>
      </trkpt>
      <trkpt lat="43.97114" lon="4.21424">
        <ele>128</ele>
        <time>2018-02-10T16:44:04Z</time>
      </trkpt>
      <trkpt lat="43.97041" lon="4.21523">
        <ele>127</ele>
        <time>2018-02-10T16:44:08Z</time>
      </trkpt>
      <trkpt lat="43.96963" lon="4.21622">
        <ele>130</ele>
        <time>2018-02-10T16:44:12Z</time>
      </trkpt>
      <trkpt lat="43.96877" lon="4.21714">
        <ele>129</ele>
        <time>2018-02-10T16:44:16Z</time>
      </trkpt>
      <trkpt lat="43.96803" lon="4.21725">
        <ele>135</ele>
        <time>2018-02-10T16:44:20Z</time>
      </trkpt>
      <trkpt lat="43.96704" lon="4.2173">
        <ele>137</ele>
        <time>2018-02-10T16:44:24Z</time>
      </trkpt>
      <trkpt lat="43.96599" lon="4.21739">
        <ele>134</ele>
        <time>2018-02-10T16:44:28Z</time>
      </trkpt>
      <trkpt lat="43.96498" lon="4.21756">
        <ele>134</ele>
        <time>2018-02-10T16:44:32Z</time>
      </trkpt>
      <trkpt lat="43.96426" lon="4.21762">
        <ele>133</ele>
        <time>2018-02-10T16:44:35Z</time>
      </trkpt>
      <trkpt lat="43.96338" lon="4.21762">
        <ele>138</ele>
        <time>2018-02-10T16:44:39Z</time>
      </trkpt>
      <trkpt lat="43.96248" lon="4.21769">
        <ele>136</ele>
        <time>2018-02-10T16:44:43Z</time>
      </trkpt>
      <trkpt lat="43.96156" lon="4.21772">
        <ele>132</ele>
        <time>2018-02-10T16:44:47Z</time>
      </trkpt>
      <trkpt lat="43.96092" lon="4.2177">
        <ele>131</ele>
        <time>2018-02-10T16:44:50Z</time>
      </trkpt>
      <trkpt lat="43.96001" lon="4.21773">
        <ele>128</ele>
        <time>2018-02-10T16:44:54Z</time>
      </trkpt>
      <trkpt lat="43.95911" lon="4.21786">
        <ele>126</ele>
        <time>2018-02-10T16:44:58Z</time>
      </trkpt>
      <trkpt lat="43.9583" lon="4.21772">
        <ele>126</ele>
        <time>2018-02-10T16:45:01Z</time>
      </trkpt>
      <trkpt lat="43.95762" lon="4.21769">
        <ele>135</ele>
        <time>2018-02-10T16:45:05Z</time>
      </trkpt>
      <trkpt lat="43.95697" lon="4.21763">
        <ele>139</ele>
        <time>2018-02-10T16:45:08Z</time>
      </trkpt>
      <trkpt lat="43.95614" lon="4.21748">
        <ele>139</ele>
        <time>2018-02-10T16:45:12Z</time>
      </trkpt>
      <trkpt lat="43.95552" lon="4.21733">
        <ele>141</ele>
        <time>2018-02-10T16:45:15Z</time>
      </trkpt>
      <trkpt lat="43.95492" lon="4.21712">
        <ele>141</ele>
        <time>2018-02-10T16:45:18Z</time>
      </trkpt>
      <trkpt lat="43.95419" lon="4.21687">
        <ele>141</ele>
        <time>2018-02-10T16:45:22Z</time>
      </trkpt>
      <trkpt lat="43.95369" lon="4.21664">
        <ele>139</ele>
        <time>2018-02-10T16:45:25Z</time>
      </trkpt>
      <trkpt lat="43.95303" lon="4.2163">
        <ele>136</ele>
        <time>2018-02-10T16:45:29Z</time>
      </trkpt>
      <trkpt lat="43.95276" lon="4.2161">
        <ele>137</ele>
        <time>2018-02-10T16:45:31Z</time>
      </trkpt>
      <trkpt lat="43.9521" lon="4.21579">
        <ele>137</ele>
        <time>2018-02-10T16:45:36Z</time>
      </trkpt>
      <trkpt lat="43.95172" lon="4.21561">
        <ele>136</ele>
        <time>2018-02-10T16:45:39Z</time>
      </trkpt>
      <trkpt lat="43.95096" lon="4.21523">
        <ele>140</ele>
        <time>2018-02-10T16:45:46Z</time>
      </trkpt>
      <trkpt lat="43.95062" lon="4.21508">
        <ele>140</ele>
        <time>2018-02-10T16:45:50Z</time>
      </trkpt>
      <trkpt lat="43.9504" lon="4.21498">
        <ele>140</ele>
        <time>2018-02-10T16:45:53Z</time>
      </trkpt>
      <trkpt lat="43.95021" lon="4.21485">
        <ele>141</ele>
        <time>2018-02-10T16:45:57Z</time>
      </trkpt>
      <trkpt lat="43.95009" lon="4.21473">
        <ele>141</ele>
        <time>2018-02-10T16:46:01Z</time>
      </trkpt>
      <trkpt lat="43.95" lon="4.21477">
        <ele>142</ele>
        <time>2018-02-10T16:46:04Z</time>
      </trkpt>
      <trkpt lat="43.95" lon="4.21476">
        <ele>141</ele>
        <time>2018-02-10T16:46:07Z</time>
      </trkpt>
      <trkpt lat="43.95005" lon="4.21473">
        <ele>138</ele>
        <time>2018-02-10T16:46:10Z</time>
      </trkpt>
      <trkpt lat="43.95008" lon="4.21479">
        <ele>137</ele>
        <time>2018-02-10T16:46:13Z</time>
      </trkpt>
      <trkpt lat="43.95007" lon="4.21479">
        <ele>137</ele>
        <time>2018-02-10T16:46:17Z</time>
      </trkpt>
      <trkpt lat="43.9501" lon="4.21483">
        <ele>136</ele>
        <time>2018-02-10T16:46:21Z</time>
      </trkpt>
      <trkpt lat="43.95009" lon="4.21481">
        <ele>136</ele>
        <time>2018-02-10T16:46:25Z</time>
      </trkpt>
      <trkpt lat="43.95012" lon="4.21483">
        <ele>136</ele>
        <time>2018-02-10T16:46:28Z</time>
      </trkpt>
      <trkpt lat="43.95011" lon="4.21483">
        <ele>136</ele>
        <time>2018-02-10T16:46:31Z</time>
      </trkpt>
      <trkpt lat="43.95012" lon="4.21483">
        <ele>136</ele>
        <time>2018-02-10T16:46:34Z</time>
      </trkpt>
      <trkpt lat="43.95011" lon="4.21483">
        <ele>136</ele>
        <time>2018-02-10T16:46:38Z</time>
      </trkpt>
      <trkpt lat="43.95011" lon="4.21483">
        <ele>136</ele>
        <time>2018-02-10T16:46:41Z</time>
      </trkpt>
      <trkpt lat="43.95011" lon="4.21483">
        <ele>136</ele>
        <time>2018-02-10T16:46:45Z</time>
      </trkpt>
      <trkpt lat="43.95011" lon="4.21483">
        <ele>136</ele>
        <time>2018-02-10T16:46:49Z</time>
      </trkpt>
      <trkpt lat="43.95009" lon="4.21481">
        <ele>136</ele>
        <time>2018-02-10T16:46:52Z</time>
      </trkpt>
      <trkpt lat="43.94968" lon="4.21462">
        <ele>139</ele>
        <time>2018-02-10T16:46:55Z</time>
      </trkpt>
      <trkpt lat="43.94927" lon="4.21442">
        <ele>139</ele>
        <time>2018-02-10T16:46:59Z</time>
      </trkpt>
      <trkpt lat="43.94888" lon="4.21414">
        <ele>138</ele>
        <time>2018-02-10T16:47:03Z</time>
      </trkpt>
      <trkpt lat="43.94843" lon="4.21388">
        <ele>136</ele>
        <time>2018-02-10T16:47:07Z</time>
      </trkpt>
      <trkpt lat="43.94809" lon="4.21374">
        <ele>138</ele>
        <time>2018-02-10T16:47:10Z</time>
      </trkpt>
      <trkpt lat="43.94761" lon="4.21348">
        <ele>137</ele>
        <time>2018-02-10T16:47:14Z</time>
      </trkpt>
      <trkpt lat="43.94706" lon="4.2132">
        <ele>139</ele>
        <time>2018-02-10T16:47:18Z</time>
      </trkpt>
      <trkpt lat="43.94641" lon="4.21296">
        <ele>139</ele>
        <time>2018-02-10T16:47:22Z</time>
      </trkpt>
      <trkpt lat="43.94578" lon="4.21278">
        <ele>141</ele>
        <time>2018-02-10T16:47:26Z</time>
      </trkpt>
      <trkpt lat="43.94524" lon="4.21271">
        <ele>142</ele>
        <time>2018-02-10T16:47:29Z</time>
      </trkpt>
      <trkpt lat="43.94471" lon="4.21264">
        <ele>143</ele>
        <time>2018-02-10T16:47:32Z</time>
      </trkpt>
      <trkpt lat="43.94398" lon="4.21265">
        <ele>143</ele>
        <time>2018-02-10T16:47:36Z</time>
      </trkpt>
      <trkpt lat="43.94321" lon="4.21271">
        <ele>141</ele>
        <time>2018-02-10T16:47:40Z</time>
      </trkpt>
      <trkpt lat="43.94242" lon="4.21292">
        <ele>140</ele>
        <time>2018-02-10T16:47:44Z</time>
      </trkpt>
      <trkpt lat="43.94184" lon="4.21312">
        <ele>138</ele>
        <time>2018-02-10T16:47:47Z</time>
      </trkpt>
      <trkpt lat="43.94104" lon="4.2134">
        <ele>138</ele>
        <time>2018-02-10T16:47:51Z</time>
      </trkpt>
      <trkpt lat="43.94022" lon="4.21358">
        <ele>139</ele>
        <time>2018-02-10T16:47:55Z</time>
      </trkpt>
      <trkpt lat="43.93958" lon="4.21364">
        <ele>140</ele>
        <time>2018-02-10T16:47:58Z</time>
      </trkpt>
      <trkpt lat="43.93869" lon="4.21363">
        <ele>142</ele>
        <time>2018-02-10T16:48:02Z</time>
      </trkpt>
      <trkpt lat="43.93782" lon="4.21347">
        <ele>143</ele>
        <time>2018-02-10T16:48:06Z</time>
      </trkpt>
      <trkpt lat="43.93713" lon="4.21329">
        <ele>145</ele>
        <time>2018-02-10T16:48:09Z</time>
      </trkpt>
      <trkpt lat="43.9365" lon="4.21304">
        <ele>143</ele>
        <time>2018-02-10T16:48:12Z</time>
      </trkpt>
      <trkpt lat="43.93566" lon="4.21256">
        <ele>143</ele>
        <time>2018-02-10T16:48:16Z</time>
      </trkpt>
      <trkpt lat="43.93477" lon="4.21196">
        <ele>146</ele>
        <time>2018-02-10T16:48:20Z</time>
      </trkpt>
      <trkpt lat="43.93413" lon="4.21147">
        <ele>143</ele>
        <time>2018-02-10T16:48:23Z</time>
      </trkpt>
      <trkpt lat="43.9333" lon="4.21092">
        <ele>147</ele>
        <time>2018-02-10T16:48:27Z</time>
      </trkpt>
      <trkpt lat="43.93234" lon="4.21033">
        <ele>149</ele>
        <time>2018-02-10T16:48:31Z</time>
      </trkpt>
      <trkpt lat="43.93164" lon="4.20995">
        <ele>151</ele>
        <time>2018-02-10T16:48:34Z</time>
      </trkpt>
      <trkpt lat="43.93069" lon="4.20953">
        <ele>153</ele>
        <time>2018-02-10T16:48:38Z</time>
      </trkpt>
      <trkpt lat="43.92969" lon="4.20916">
        <ele>157</ele>
        <time>2018-02-10T16:48:42Z</time>
      </trkpt>
      <trkpt lat="43.92867" lon="4.20875">
        <ele>156</ele>
        <time>2018-02-10T16:48:46Z</time>
      </trkpt>
      <trkpt lat="43.9276" lon="4.20843">
        <ele>156</ele>
        <time>2018-02-10T16:48:50Z</time>
      </trkpt>
      <trkpt lat="43.92657" lon="4.20804">
        <ele>155</ele>
        <time>2018-02-10T16:48:54Z</time>
      </trkpt>
      <trkpt lat="43.9258" lon="4.20776">
        <ele>154</ele>
        <time>2018-02-10T16:48:57Z</time>
      </trkpt>
      <trkpt lat="43.92478" lon="4.20735">
        <ele>153</ele>
        <time>2018-02-10T16:49:01Z</time>
      </trkpt>
      <trkpt lat="43.92402" lon="4.20708">
        <ele>153</ele>
        <time>2018-02-10T16:49:04Z</time>
      </trkpt>
      <trkpt lat="43.92324" lon="4.2068">
        <ele>154</ele>
        <time>2018-02-10T16:49:07Z</time>
      </trkpt>
      <trkpt lat="43.9222" lon="4.20641">
        <ele>152</ele>
        <time>2018-02-10T16:49:11Z</time>
      </trkpt>
      <trkpt lat="43.92115" lon="4.20606">
        <ele>154</ele>
        <time>2018-02-10T16:49:15Z</time>
      </trkpt>
      <trkpt lat="43.92009" lon="4.20567">
        <ele>153</ele>
        <time>2018-02-10T16:49:19Z</time>
      </trkpt>
      <trkpt lat="43.91906" lon="4.20534">
        <ele>152</ele>
        <time>2018-02-10T16:49:23Z</time>
      </trkpt>
      <trkpt lat="43.91825" lon="4.20513">
        <ele>150</ele>
        <time>2018-02-10T16:49:26Z</time>
      </trkpt>
      <trkpt lat="43.91713" lon="4.20493">
        <ele>150</ele>
        <time>2018-02-10T16:49:30Z</time>
      </trkpt>
      <trkpt lat="43.91604" lon="4.20484">
        <ele>151</ele>
        <time>2018-02-10T16:49:34Z</time>
      </trkpt>
      <trkpt lat="43.91495" lon="4.20481">
        <ele>151</ele>
        <time>2018-02-10T16:49:38Z</time>
      </trkpt>
      <trkpt lat="43.91384" lon="4.20483">
        <ele>152</ele>
        <time>2018-02-10T16:49:42Z</time>
      </trkpt>
      <trkpt lat="43.91298" lon="4.20492">
        <ele>150</ele>
        <time>2018-02-10T16:49:45Z</time>
      </trkpt>
      <trkpt lat="43.91218" lon="4.20505">
        <ele>150</ele>
        <time>2018-02-10T16:49:48Z</time>
      </trkpt>
      <trkpt lat="43.9111" lon="4.20526">
        <ele>151</ele>
        <time>2018-02-10T16:49:52Z</time>
      </trkpt>
      <trkpt lat="43.91001" lon="4.20557">
        <ele>152</ele>
        <time>2018-02-10T16:49:56Z</time>
      </trkpt>
      <trkpt lat="43.90923" lon="4.20583">
        <ele>152</ele>
        <time>2018-02-10T16:49:59Z</time>
      </trkpt>
      <trkpt lat="43.90818" lon="4.20625">
        <ele>152</ele>
        <time>2018-02-10T16:50:03Z</time>
      </trkpt>
      <trkpt lat="43.9074" lon="4.20664">
        <ele>152</ele>
        <time>2018-02-10T16:50:06Z</time>
      </trkpt>
      <trkpt lat="43.90637" lon="4.20718">
        <ele>153</ele>
        <time>2018-02-10T16:50:10Z</time>
      </trkpt>
      <trkpt lat="43.90561" lon="4.20761">
        <ele>153</ele>
        <time>2018-02-10T16:50:13Z</time>
      </trkpt>
      <trkpt lat="43.90462" lon="4.20831">
        <ele>153</ele>
        <time>2018-02-10T16:50:17Z</time>
      </trkpt>
      <trkpt lat="43.90367" lon="4.20901">
        <ele>151</ele>
        <time>2018-02-10T16:50:21Z</time>
      </trkpt>
      <trkpt lat="43.90297" lon="4.20964">
        <ele>152</ele>
        <time>2018-02-10T16:50:24Z</time>
      </trkpt>
      <trkpt lat="43.90228" lon="4.21026">
        <ele>153</ele>
        <time>2018-02-10T16:50:27Z</time>
      </trkpt>
      <trkpt lat="43.90136" lon="4.21118">
        <ele>152</ele>
        <time>2018-02-10T16:50:31Z</time>
      </trkpt>
      <trkpt lat="43.90071" lon="4.21188">
        <ele>151</ele>
        <time>2018-02-10T16:50:34Z</time>
      </trkpt>
      <trkpt lat="43.89986" lon="4.21286">
        <ele>150</ele>
        <time>2018-02-10T16:50:38Z</time>
      </trkpt>
      <trkpt lat="43.89908" lon="4.2139">
        <ele>152</ele>
        <time>2018-02-10T16:50:42Z</time>
      </trkpt>
      <trkpt lat="43.89832" lon="4.215">
        <ele>151</ele>
        <time>2018-02-10T16:50:46Z</time>
      </trkpt>
      <trkpt lat="43.89778" lon="4.21589">
        <ele>153</ele>
        <time>2018-02-10T16:50:49Z</time>
      </trkpt>
      <trkpt lat="43.89712" lon="4.21703">
        <ele>154</ele>
        <time>2018-02-10T16:50:53Z</time>
      </trkpt>
      <trkpt lat="43.89608" lon="4.21874">
        <ele>153</ele>
        <time>2018-02-10T16:50:59Z</time>
      </trkpt>
      <trkpt lat="43.89557" lon="4.21963">
        <ele>154</ele>
        <time>2018-02-10T16:51:02Z</time>
      </trkpt>
      <trkpt lat="43.89487" lon="4.22078">
        <ele>156</ele>
        <time>2018-02-10T16:51:06Z</time>
      </trkpt>
      <trkpt lat="43.89418" lon="4.2219">
        <ele>157</ele>
        <time>2018-02-10T16:51:10Z</time>
      </trkpt>
      <trkpt lat="43.89352" lon="4.22308">
        <ele>159</ele>
        <time>2018-02-10T16:51:14Z</time>
      </trkpt>
      <trkpt lat="43.89295" lon="4.22438">
        <ele>161</ele>
        <time>2018-02-10T16:51:18Z</time>
      </trkpt>
      <trkpt lat="43.89258" lon="4.2254">
        <ele>162</ele>
        <time>2018-02-10T16:51:21Z</time>
      </trkpt>
      <trkpt lat="43.89223" lon="4.22673">
        <ele>160</ele>
        <time>2018-02-10T16:51:25Z</time>
      </trkpt>
      <trkpt lat="43.89198" lon="4.22824">
        <ele>162</ele>
        <time>2018-02-10T16:51:29Z</time>
      </trkpt>
      <trkpt lat="43.89185" lon="4.2297">
        <ele>163</ele>
        <time>2018-02-10T16:51:33Z</time>
      </trkpt>
      <trkpt lat="43.89165" lon="4.23119">
        <ele>161</ele>
        <time>2018-02-10T16:51:37Z</time>
      </trkpt>
      <trkpt lat="43.89143" lon="4.23223">
        <ele>162</ele>
        <time>2018-02-10T16:51:40Z</time>
      </trkpt>
      <trkpt lat="43.89091" lon="4.23347">
        <ele>159</ele>
        <time>2018-02-10T16:51:44Z</time>
      </trkpt>
      <trkpt lat="43.89036" lon="4.2348">
        <ele>161</ele>
        <time>2018-02-10T16:51:48Z</time>
      </trkpt>
      <trkpt lat="43.89" lon="4.23621">
        <ele>158</ele>
        <time>2018-02-10T16:51:52Z</time>
      </trkpt>
      <trkpt lat="43.8898" lon="4.23729">
        <ele>160</ele>
        <time>2018-02-10T16:51:55Z</time>
      </trkpt>
      <trkpt lat="43.88968" lon="4.23836">
        <ele>164</ele>
        <time>2018-02-10T16:51:58Z</time>
      </trkpt>
      <trkpt lat="43.88949" lon="4.23981">
        <ele>164</ele>
        <time>2018-02-10T16:52:02Z</time>
      </trkpt>
      <trkpt lat="43.88931" lon="4.24093">
        <ele>164</ele>
        <time>2018-02-10T16:52:05Z</time>
      </trkpt>
      <trkpt lat="43.889" lon="4.24237">
        <ele>165</ele>
        <time>2018-02-10T16:52:09Z</time>
      </trkpt>
      <trkpt lat="43.88859" lon="4.2437">
        <ele>167</ele>
        <time>2018-02-10T16:52:13Z</time>
      </trkpt>
      <trkpt lat="43.88831" lon="4.24475">
        <ele>169</ele>
        <time>2018-02-10T16:52:16Z</time>
      </trkpt>
      <trkpt lat="43.88781" lon="4.24611">
        <ele>169</ele>
        <time>2018-02-10T16:52:20Z</time>
      </trkpt>
      <trkpt lat="43.88736" lon="4.24706">
        <ele>170</ele>
        <time>2018-02-10T16:52:23Z</time>
      </trkpt>
      <trkpt lat="43.88667" lon="4.24819">
        <ele>172</ele>
        <time>2018-02-10T16:52:27Z</time>
      </trkpt>
      <trkpt lat="43.88586" lon="4.24924">
        <ele>174</ele>
        <time>2018-02-10T16:52:31Z</time>
      </trkpt>
      <trkpt lat="43.88501" lon="4.25014">
        <ele>174</ele>
        <time>2018-02-10T16:52:35Z</time>
      </trkpt>
      <trkpt lat="43.88435" lon="4.25081">
        <ele>174</ele>
        <time>2018-02-10T16:52:38Z</time>
      </trkpt>
      <trkpt lat="43.88345" lon="4.25171">
        <ele>175</ele>
        <time>2018-02-10T16:52:42Z</time>
      </trkpt>
      <trkpt lat="43.88281" lon="4.25236">
        <ele>175</ele>
        <time>2018-02-10T16:52:45Z</time>
      </trkpt>
      <trkpt lat="43.88193" lon="4.2533">
        <ele>176</ele>
        <time>2018-02-10T16:52:49Z</time>
      </trkpt>
      <trkpt lat="43.88113" lon="4.25429">
        <ele>180</ele>
        <time>2018-02-10T16:52:53Z</time>
      </trkpt>
      <trkpt lat="43.88053" lon="4.25508">
        <ele>179</ele>
        <time>2018-02-10T16:52:56Z</time>
      </trkpt>
      <trkpt lat="43.87978" lon="4.25621">
        <ele>181</ele>
        <time>2018-02-10T16:53:00Z</time>
      </trkpt>
      <trkpt lat="43.87908" lon="4.25736">
        <ele>183</ele>
        <time>2018-02-10T16:53:04Z</time>
      </trkpt>
      <trkpt lat="43.87858" lon="4.25828">
        <ele>184</ele>
        <time>2018-02-10T16:53:07Z</time>
      </trkpt>
      <trkpt lat="43.87797" lon="4.25959">
        <ele>185</ele>
        <time>2018-02-10T16:53:11Z</time>
      </trkpt>
      <trkpt lat="43.87743" lon="4.26084">
        <ele>183</ele>
        <time>2018-02-10T16:53:15Z</time>
      </trkpt>
      <trkpt lat="43.87691" lon="4.26221">
        <ele>184</ele>
        <time>2018-02-10T16:53:19Z</time>
      </trkpt>
      <trkpt lat="43.87639" lon="4.26355">
        <ele>184</ele>
        <time>2018-02-10T16:53:23Z</time>
      </trkpt>
      <trkpt lat="43.87603" lon="4.26459">
        <ele>185</ele>
        <time>2018-02-10T16:53:26Z</time>
      </trkpt>
      <trkpt lat="43.87563" lon="4.26562">
        <ele>185</ele>
        <time>2018-02-10T16:53:29Z</time>
      </trkpt>
      <trkpt lat="43.87511" lon="4.26693">
        <ele>186</ele>
        <time>2018-02-10T16:53:33Z</time>
      </trkpt>
      <trkpt lat="43.87473" lon="4.26794">
        <ele>186</ele>
        <time>2018-02-10T16:53:36Z</time>
      </trkpt>
      <trkpt lat="43.87421" lon="4.26929">
        <ele>186</ele>
        <time>2018-02-10T16:53:40Z</time>
      </trkpt>
      <trkpt lat="43.87368" lon="4.27057">
        <ele>186</ele>
        <time>2018-02-10T16:53:44Z</time>
      </trkpt>
      <trkpt lat="43.8733" lon="4.27159">
        <ele>186</ele>
        <time>2018-02-10T16:53:47Z</time>
      </trkpt>
      <trkpt lat="43.87281" lon="4.27298">
        <ele>186</ele>
        <time>2018-02-10T16:53:51Z</time>
      </trkpt>
      <trkpt lat="43.87242" lon="4.27396">
        <ele>186</ele>
        <time>2018-02-10T16:53:54Z</time>
      </trkpt>
      <trkpt lat="43.87189" lon="4.27531">
        <ele>188</ele>
        <time>2018-02-10T16:53:58Z</time>
      </trkpt>
      <trkpt lat="43.8715" lon="4.27636">
        <ele>188</ele>
        <time>2018-02-10T16:54:01Z</time>
      </trkpt>
      <trkpt lat="43.871" lon="4.2777">
        <ele>189</ele>
        <time>2018-02-10T16:54:05Z</time>
      </trkpt>
      <trkpt lat="43.87049" lon="4.2791">
        <ele>190</ele>
        <time>2018-02-10T16:54:09Z</time>
      </trkpt>
      <trkpt lat="43.87008" lon="4.28048">
        <ele>190</ele>
        <time>2018-02-10T16:54:13Z</time>
      </trkpt>
      <trkpt lat="43.86971" lon="4.28198">
        <ele>192</ele>
        <time>2018-02-10T16:54:17Z</time>
      </trkpt>
      <trkpt lat="43.86942" lon="4.28342">
        <ele>193</ele>
        <time>2018-02-10T16:54:21Z</time>
      </trkpt>
      <trkpt lat="43.86916" lon="4.28492">
        <ele>192</ele>
        <time>2018-02-10T16:54:25Z</time>
      </trkpt>
      <trkpt lat="43.86892" lon="4.2864">
        <ele>192</ele>
        <time>2018-02-10T16:54:29Z</time>
      </trkpt>
      <trkpt lat="43.86869" lon="4.28791">
        <ele>193</ele>
        <time>2018-02-10T16:54:33Z</time>
      </trkpt>
      <trkpt lat="43.86852" lon="4.28902">
        <ele>192</ele>
        <time>2018-02-10T16:54:36Z</time>
      </trkpt>
      <trkpt lat="43.86834" lon="4.29052">
        <ele>194</ele>
        <time>2018-02-10T16:54:40Z</time>
      </trkpt>
      <trkpt lat="43.86825" lon="4.29167">
        <ele>197</ele>
        <time>2018-02-10T16:54:43Z</time>
      </trkpt>
      <trkpt lat="43.86813" lon="4.29322">
        <ele>197</ele>
        <time>2018-02-10T16:54:47Z</time>
      </trkpt>
      <trkpt lat="43.868" lon="4.29473">
        <ele>198</ele>
        <time>2018-02-10T16:54:51Z</time>
      </trkpt>
      <trkpt lat="43.86787" lon="4.29628">
        <ele>198</ele>
        <time>2018-02-10T16:54:55Z</time>
      </trkpt>
      <trkpt lat="43.86776" lon="4.29739">
        <ele>199</ele>
        <time>2018-02-10T16:54:58Z</time>
      </trkpt>
      <trkpt lat="43.86762" lon="4.2989">
        <ele>201</ele>
        <time>2018-02-10T16:55:02Z</time>
      </trkpt>
      <trkpt lat="43.86749" lon="4.30005">
        <ele>201</ele>
        <time>2018-02-10T16:55:05Z</time>
      </trkpt>
      <trkpt lat="43.86737" lon="4.30118">
        <ele>200</ele>
        <time>2018-02-10T16:55:08Z</time>
      </trkpt>
      <trkpt lat="43.86723" lon="4.30268">
        <ele>199</ele>
        <time>2018-02-10T16:55:12Z</time>
      </trkpt>
      <trkpt lat="43.86713" lon="4.3038">
        <ele>199</ele>
        <time>2018-02-10T16:55:15Z</time>
      </trkpt>
      <trkpt lat="43.86714" lon="4.30536">
        <ele>199</ele>
        <time>2018-02-10T16:55:19Z</time>
      </trkpt>
      <trkpt lat="43.86731" lon="4.30687">
        <ele>197</ele>
        <time>2018-02-10T16:55:23Z</time>
      </trkpt>
      <trkpt lat="43.86761" lon="4.3084">
        <ele>196</ele>
        <time>2018-02-10T16:55:27Z</time>
      </trkpt>
      <trkpt lat="43.86802" lon="4.30981">
        <ele>195</ele>
        <time>2018-02-10T16:55:31Z</time>
      </trkpt>
      <trkpt lat="43.8684" lon="4.31086">
        <ele>194</ele>
        <time>2018-02-10T16:55:34Z</time>
      </trkpt>
      <trkpt lat="43.86893" lon="4.3123">
        <ele>193</ele>
        <time>2018-02-10T16:55:38Z</time>
      </trkpt>
      <trkpt lat="43.86923" lon="4.31337">
        <ele>190</ele>
        <time>2018-02-10T16:55:41Z</time>
      </trkpt>
      <trkpt lat="43.86957" lon="4.31493">
        <ele>189</ele>
        <time>2018-02-10T16:55:45Z</time>
      </trkpt>
      <trkpt lat="43.86974" lon="4.31649">
        <ele>187</ele>
        <time>2018-02-10T16:55:49Z</time>
      </trkpt>
      <trkpt lat="43.86975" lon="4.31815">
        <ele>187</ele>
        <time>2018-02-10T16:55:53Z</time>
      </trkpt>
      <trkpt lat="43.86966" lon="4.31935">
        <ele>185</ele>
        <time>2018-02-10T16:55:56Z</time>
      </trkpt>
      <trkpt lat="43.86953" lon="4.32057">
        <ele>184</ele>
        <time>2018-02-10T16:55:59Z</time>
      </trkpt>
      <trkpt lat="43.86925" lon="4.32167">
        <ele>184</ele>
        <time>2018-02-10T16:56:02Z</time>
      </trkpt>
      <trkpt lat="43.86882" lon="4.32315">
        <ele>183</ele>
        <time>2018-02-10T16:56:06Z</time>
      </trkpt>
      <trkpt lat="43.86826" lon="4.32459">
        <ele>183</ele>
        <time>2018-02-10T16:56:10Z</time>
      </trkpt>
      <trkpt lat="43.86775" lon="4.32553">
        <ele>181</ele>
        <time>2018-02-10T16:56:13Z</time>
      </trkpt>
      <trkpt lat="43.86695" lon="4.32672">
        <ele>181</ele>
        <time>2018-02-10T16:56:17Z</time>
      </trkpt>
      <trkpt lat="43.86608" lon="4.32774">
        <ele>181</ele>
        <time>2018-02-10T16:56:21Z</time>
      </trkpt>
      <trkpt lat="43.86539" lon="4.32848">
        <ele>177</ele>
        <time>2018-02-10T16:56:24Z</time>
      </trkpt>
      <trkpt lat="43.86459" lon="4.32898">
        <ele>178</ele>
        <time>2018-02-10T16:56:27Z</time>
      </trkpt>
      <trkpt lat="43.86381" lon="4.32946">
        <ele>181</ele>
        <time>2018-02-10T16:56:30Z</time>
      </trkpt>
      <trkpt lat="43.86274" lon="4.33001">
        <ele>177</ele>
        <time>2018-02-10T16:56:34Z</time>
      </trkpt>
      <trkpt lat="43.8617" lon="4.33063">
        <ele>174</ele>
        <time>2018-02-10T16:56:38Z</time>
      </trkpt>
      <trkpt lat="43.8609" lon="4.33118">
        <ele>173</ele>
        <time>2018-02-10T16:56:41Z</time>
      </trkpt>
      <trkpt lat="43.86017" lon="4.3318">
        <ele>173</ele>
        <time>2018-02-10T16:56:44Z</time>
      </trkpt>
      <trkpt lat="43.85923" lon="4.33271">
        <ele>171</ele>
        <time>2018-02-10T16:56:48Z</time>
      </trkpt>
      <trkpt lat="43.85847" lon="4.33334">
        <ele>172</ele>
        <time>2018-02-10T16:56:51Z</time>
      </trkpt>
      <trkpt lat="43.85739" lon="4.334">
        <ele>171</ele>
        <time>2018-02-10T16:56:55Z</time>
      </trkpt>
      <trkpt lat="43.85658" lon="4.33435">
        <ele>170</ele>
        <time>2018-02-10T16:56:58Z</time>
      </trkpt>
      <trkpt lat="43.8555" lon="4.33472">
        <ele>167</ele>
        <time>2018-02-10T16:57:02Z</time>
      </trkpt>
      <trkpt lat="43.85451" lon="4.33526">
        <ele>163</ele>
        <time>2018-02-10T16:57:06Z</time>
      </trkpt>
      <trkpt lat="43.85382" lon="4.33576">
        <ele>163</ele>
        <time>2018-02-10T16:57:09Z</time>
      </trkpt>
      <trkpt lat="43.85292" lon="4.3365">
        <ele>164</ele>
        <time>2018-02-10T16:57:13Z</time>
      </trkpt>
      <trkpt lat="43.8524" lon="4.33722">
        <ele>161</ele>
        <time>2018-02-10T16:57:16Z</time>
      </trkpt>
      <trkpt lat="43.85174" lon="4.33819">
        <ele>159</ele>
        <time>2018-02-10T16:57:20Z</time>
      </trkpt>
      <trkpt lat="43.85113" lon="4.33922">
        <ele>158</ele>
        <time>2018-02-10T16:57:24Z</time>
      </trkpt>
      <trkpt lat="43.8506" lon="4.34019">
        <ele>150</ele>
        <time>2018-02-10T16:57:28Z</time>
      </trkpt>
      <trkpt lat="43.85013" lon="4.34136">
        <ele>149</ele>
        <time>2018-02-10T16:57:32Z</time>
      </trkpt>
      <trkpt lat="43.84973" lon="4.34254">
        <ele>145</ele>
        <time>2018-02-10T16:57:36Z</time>
      </trkpt>
      <trkpt lat="43.8494" lon="4.34339">
        <ele>145</ele>
        <time>2018-02-10T16:57:39Z</time>
      </trkpt>
      <trkpt lat="43.84898" lon="4.34456">
        <ele>146</ele>
        <time>2018-02-10T16:57:43Z</time>
      </trkpt>
      <trkpt lat="43.84865" lon="4.3457">
        <ele>143</ele>
        <time>2018-02-10T16:57:47Z</time>
      </trkpt>
      <trkpt lat="43.8484" lon="4.3469">
        <ele>142</ele>
        <time>2018-02-10T16:57:51Z</time>
      </trkpt>
      <trkpt lat="43.84828" lon="4.34777">
        <ele>140</ele>
        <time>2018-02-10T16:57:54Z</time>
      </trkpt>
      <trkpt lat="43.84817" lon="4.34893">
        <ele>138</ele>
        <time>2018-02-10T16:57:58Z</time>
      </trkpt>
      <trkpt lat="43.84828" lon="4.35154">
        <ele>137</ele>
        <time>2018-02-10T16:58:07Z</time>
      </trkpt>
      <trkpt lat="43.84836" lon="4.35237">
        <ele>133</ele>
        <time>2018-02-10T16:58:10Z</time>
      </trkpt>
      <trkpt lat="43.84845" lon="4.35323">
        <ele>133</ele>
        <time>2018-02-10T16:58:13Z</time>
      </trkpt>
      <trkpt lat="43.84853" lon="4.35439">
        <ele>134</ele>
        <time>2018-02-10T16:58:17Z</time>
      </trkpt>
      <trkpt lat="43.84861" lon="4.35548">
        <ele>133</ele>
        <time>2018-02-10T16:58:21Z</time>
      </trkpt>
      <trkpt lat="43.84867" lon="4.35656">
        <ele>131</ele>
        <time>2018-02-10T16:58:25Z</time>
      </trkpt>
      <trkpt lat="43.84878" lon="4.3576">
        <ele>132</ele>
        <time>2018-02-10T16:58:29Z</time>
      </trkpt>
      <trkpt lat="43.84891" lon="4.35837">
        <ele>132</ele>
        <time>2018-02-10T16:58:32Z</time>
      </trkpt>
      <trkpt lat="43.84908" lon="4.35913">
        <ele>130</ele>
        <time>2018-02-10T16:58:35Z</time>
      </trkpt>
      <trkpt lat="43.84934" lon="4.36012">
        <ele>128</ele>
        <time>2018-02-10T16:58:39Z</time>
      </trkpt>
      <trkpt lat="43.84958" lon="4.36109">
        <ele>128</ele>
        <time>2018-02-10T16:58:43Z</time>
      </trkpt>
      <trkpt lat="43.84983" lon="4.36205">
        <ele>126</ele>
        <time>2018-02-10T16:58:47Z</time>
      </trkpt>
      <trkpt lat="43.85003" lon="4.36275">
        <ele>126</ele>
        <time>2018-02-10T16:58:50Z</time>
      </trkpt>
      <trkpt lat="43.85021" lon="4.36367">
        <ele>122</ele>
        <time>2018-02-10T16:58:54Z</time>
      </trkpt>
      <trkpt lat="43.85039" lon="4.36441">
        <ele>126</ele>
        <time>2018-02-10T16:58:57Z</time>
      </trkpt>
      <trkpt lat="43.85048" lon="4.36512">
        <ele>124</ele>
        <time>2018-02-10T16:59:00Z</time>
      </trkpt>
      <trkpt lat="43.85056" lon="4.36608">
        <ele>124</ele>
        <time>2018-02-10T16:59:04Z</time>
      </trkpt>
      <trkpt lat="43.85059" lon="4.36704">
        <ele>121</ele>
        <time>2018-02-10T16:59:08Z</time>
      </trkpt>
      <trkpt lat="43.85061" lon="4.36803">
        <ele>121</ele>
        <time>2018-02-10T16:59:12Z</time>
      </trkpt>
      <trkpt lat="43.85053" lon="4.36874">
        <ele>120</ele>
        <time>2018-02-10T16:59:15Z</time>
      </trkpt>
      <trkpt lat="43.85046" lon="4.36948">
        <ele>121</ele>
        <time>2018-02-10T16:59:18Z</time>
      </trkpt>
      <trkpt lat="43.85032" lon="4.3702">
        <ele>119</ele>
        <time>2018-02-10T16:59:21Z</time>
      </trkpt>
      <trkpt lat="43.85014" lon="4.3711">
        <ele>118</ele>
        <time>2018-02-10T16:59:25Z</time>
      </trkpt>
      <trkpt lat="43.84996" lon="4.37179">
        <ele>117</ele>
        <time>2018-02-10T16:59:28Z</time>
      </trkpt>
      <trkpt lat="43.84976" lon="4.37243">
        <ele>116</ele>
        <time>2018-02-10T16:59:31Z</time>
      </trkpt>
      <trkpt lat="43.84945" lon="4.37326">
        <ele>116</ele>
        <time>2018-02-10T16:59:35Z</time>
      </trkpt>
      <trkpt lat="43.84923" lon="4.37383">
        <ele>115</ele>
        <time>2018-02-10T16:59:38Z</time>
      </trkpt>
      <trkpt lat="43.84894" lon="4.37455">
        <ele>114</ele>
        <time>2018-02-10T16:59:42Z</time>
      </trkpt>
      <trkpt lat="43.84873" lon="4.37508">
        <ele>113</ele>
        <time>2018-02-10T16:59:45Z</time>
      </trkpt>
      <trkpt lat="43.84852" lon="4.37558">
        <ele>113</ele>
        <time>2018-02-10T16:59:48Z</time>
      </trkpt>
      <trkpt lat="43.84828" lon="4.37617">
        <ele>111</ele>
        <time>2018-02-10T16:59:52Z</time>
      </trkpt>
      <trkpt lat="43.84809" lon="4.37657">
        <ele>109</ele>
        <time>2018-02-10T16:59:55Z</time>
      </trkpt>
      <trkpt lat="43.84781" lon="4.37706">
        <ele>111</ele>
        <time>2018-02-10T16:59:59Z</time>
      </trkpt>
      <trkpt lat="43.8476" lon="4.37739">
        <ele>110</ele>
        <time>2018-02-10T17:00:02Z</time>
      </trkpt>
      <trkpt lat="43.84726" lon="4.37774">
        <ele>113</ele>
        <time>2018-02-10T17:00:06Z</time>
      </trkpt>
      <trkpt lat="43.84697" lon="4.37794">
        <ele>113</ele>
        <time>2018-02-10T17:00:09Z</time>
      </trkpt>
      <trkpt lat="43.84658" lon="4.37812">
        <ele>114</ele>
        <time>2018-02-10T17:00:13Z</time>
      </trkpt>
      <trkpt lat="43.8463" lon="4.3782">
        <ele>115</ele>
        <time>2018-02-10T17:00:16Z</time>
      </trkpt>
      <trkpt lat="43.84598" lon="4.37823">
        <ele>115</ele>
        <time>2018-02-10T17:00:19Z</time>
      </trkpt>
      <trkpt lat="43.84554" lon="4.37823">
        <ele>114</ele>
        <time>2018-02-10T17:00:23Z</time>
      </trkpt>
      <trkpt lat="43.84509" lon="4.37808">
        <ele>114</ele>
        <time>2018-02-10T17:00:27Z</time>
      </trkpt>
      <trkpt lat="43.84478" lon="4.37787">
        <ele>114</ele>
        <time>2018-02-10T17:00:30Z</time>
      </trkpt>
      <trkpt lat="43.84439" lon="4.37754">
        <ele>112</ele>
        <time>2018-02-10T17:00:34Z</time>
      </trkpt>
      <trkpt lat="43.84413" lon="4.37722">
        <ele>111</ele>
        <time>2018-02-10T17:00:37Z</time>
      </trkpt>
      <trkpt lat="43.84377" lon="4.37672">
        <ele>106</ele>
        <time>2018-02-10T17:00:41Z</time>
      </trkpt>
      <trkpt lat="43.84338" lon="4.37622">
        <ele>106</ele>
        <time>2018-02-10T17:00:45Z</time>
      </trkpt>
      <trkpt lat="43.84307" lon="4.37588">
        <ele>107</ele>
        <time>2018-02-10T17:00:48Z</time>
      </trkpt>
      <trkpt lat="43.84274" lon="4.37556">
        <ele>105</ele>
        <time>2018-02-10T17:00:51Z</time>
      </trkpt>
      <trkpt lat="43.84228" lon="4.37507">
        <ele>105</ele>
        <time>2018-02-10T17:00:55Z</time>
      </trkpt>
      <trkpt lat="43.84181" lon="4.37473">
        <ele>103</ele>
        <time>2018-02-10T17:00:59Z</time>
      </trkpt>
      <trkpt lat="43.84144" lon="4.37448">
        <ele>101</ele>
        <time>2018-02-10T17:01:02Z</time>
      </trkpt>
      <trkpt lat="43.84099" lon="4.37414">
        <ele>101</ele>
        <time>2018-02-10T17:01:06Z</time>
      </trkpt>
      <trkpt lat="43.84053" lon="4.37385">
        <ele>101</ele>
        <time>2018-02-10T17:01:10Z</time>
      </trkpt>
      <trkpt lat="43.84017" lon="4.37367">
        <ele>102</ele>
        <time>2018-02-10T17:01:13Z</time>
      </trkpt>
      <trkpt lat="43.83972" lon="4.37347">
        <ele>101</ele>
        <time>2018-02-10T17:01:17Z</time>
      </trkpt>
      <trkpt lat="43.83935" lon="4.3733">
        <ele>101</ele>
        <time>2018-02-10T17:01:20Z</time>
      </trkpt>
      <trkpt lat="43.83886" lon="4.37306">
        <ele>101</ele>
        <time>2018-02-10T17:01:24Z</time>
      </trkpt>
      <trkpt lat="43.83841" lon="4.37278">
        <ele>102</ele>
        <time>2018-02-10T17:01:28Z</time>
      </trkpt>
      <trkpt lat="43.83796" lon="4.37247">
        <ele>100</ele>
        <time>2018-02-10T17:01:32Z</time>
      </trkpt>
      <trkpt lat="43.83752" lon="4.37212">
        <ele>99</ele>
        <time>2018-02-10T17:01:36Z</time>
      </trkpt>
      <trkpt lat="43.83721" lon="4.37184">
        <ele>99</ele>
        <time>2018-02-10T17:01:39Z</time>
      </trkpt>
      <trkpt lat="43.8368" lon="4.37139">
        <ele>98</ele>
        <time>2018-02-10T17:01:43Z</time>
      </trkpt>
      <trkpt lat="43.83651" lon="4.37107">
        <ele>98</ele>
        <time>2018-02-10T17:01:46Z</time>
      </trkpt>
      <trkpt lat="43.83623" lon="4.37073">
        <ele>100</ele>
        <time>2018-02-10T17:01:49Z</time>
      </trkpt>
      <trkpt lat="43.83596" lon="4.37041">
        <ele>100</ele>
        <time>2018-02-10T17:01:52Z</time>
      </trkpt>
      <trkpt lat="43.83559" lon="4.36999">
        <ele>99</ele>
        <time>2018-02-10T17:01:56Z</time>
      </trkpt>
      <trkpt lat="43.83533" lon="4.36967">
        <ele>98</ele>
        <time>2018-02-10T17:01:59Z</time>
      </trkpt>
      <trkpt lat="43.83507" lon="4.36936">
        <ele>97</ele>
        <time>2018-02-10T17:02:02Z</time>
      </trkpt>
      <trkpt lat="43.83472" lon="4.36893">
        <ele>97</ele>
        <time>2018-02-10T17:02:06Z</time>
      </trkpt>
      <trkpt lat="43.83444" lon="4.36863">
        <ele>98</ele>
        <time>2018-02-10T17:02:09Z</time>
      </trkpt>
      <trkpt lat="43.83413" lon="4.36822">
        <ele>96</ele>
        <time>2018-02-10T17:02:13Z</time>
      </trkpt>
      <trkpt lat="43.83382" lon="4.36786">
        <ele>95</ele>
        <time>2018-02-10T17:02:17Z</time>
      </trkpt>
      <trkpt lat="43.83362" lon="4.36762">
        <ele>96</ele>
        <time>2018-02-10T17:02:20Z</time>
      </trkpt>
      <trkpt lat="43.83345" lon="4.36741">
        <ele>96</ele>
        <time>2018-02-10T17:02:23Z</time>
      </trkpt>
      <trkpt lat="43.83325" lon="4.36719">
        <ele>97</ele>
        <time>2018-02-10T17:02:27Z</time>
      </trkpt>
      <trkpt lat="43.83312" lon="4.36704">
        <ele>96</ele>
        <time>2018-02-10T17:02:30Z</time>
      </trkpt>
      <trkpt lat="43.833" lon="4.3669">
        <ele>97</ele>
        <time>2018-02-10T17:02:33Z</time>
      </trkpt>
      <trkpt lat="43.83285" lon="4.36674">
        <ele>94</ele>
        <time>2018-02-10T17:02:37Z</time>
      </trkpt>
      <trkpt lat="43.83279" lon="4.36665">
        <ele>95</ele>
        <time>2018-02-10T17:02:40Z</time>
      </trkpt>
      <trkpt lat="43.83279" lon="4.3666">
        <ele>96</ele>
        <time>2018-02-10T17:02:42Z</time>
      </trkpt>
    </trkseg>
  </trk>
</gpx>